<?xml version="1.0" encoding="UTF-8" standalone="no" ?>
<gpx xmlns="http://www.topografix.com/GPX/1/1" xmlns:xsi="http://www.w3.org/2001/XMLSchema-instance" xsi:schemaLocation="http://www.topografix.com/GPX/1/1 http://www.topografix.com/GPX/1/1/gpx.xsd" version="1.1" creator="VisuGPX - https://www.visugpx.com">
  <metadata>
    <name>Beaufort - La Combe de Rotalier - Le Signal (Montmain) </name>
    <desc><![CDATA[Randonnée pédestre effectuée le 10 octobre 2019.
L'indice IBP d'effort est de 69, (suivant l'échelle de la FFRP) un score compris entre 51 et 75 correspond au niveau 3 qualifié de "PEU DIFFICILE". La randonnée pédestre nécessite un certain engagement physique qui reste toutefois mesuré. Ce niveau correspond à des randonnées pédestres modérées.]]></desc>
  </metadata>
  <trk>
    <name><![CDATA[SityTrail - Beaufort 20191010]]></name>
    <trkseg>
      <trkpt lat="46.57275" lon="5.43937">
        <ele>259</ele>
        <time>2019-10-10T06:57:18.752Z</time>
      </trkpt>
      <trkpt lat="46.57272" lon="5.43933">
        <ele>259</ele>
        <time>2019-10-10T07:06:09.764Z</time>
      </trkpt>
      <trkpt lat="46.57271" lon="5.43933">
        <ele>259</ele>
        <time>2019-10-10T07:06:14.768Z</time>
      </trkpt>
      <trkpt lat="46.57269" lon="5.43934">
        <ele>259</ele>
        <time>2019-10-10T07:06:19.773Z</time>
      </trkpt>
      <trkpt lat="46.57267" lon="5.43934">
        <ele>259</ele>
        <time>2019-10-10T07:06:23.775Z</time>
      </trkpt>
      <trkpt lat="46.57261" lon="5.43934">
        <ele>261</ele>
        <time>2019-10-10T07:06:28.774Z</time>
      </trkpt>
      <trkpt lat="46.57258" lon="5.43938">
        <ele>261</ele>
        <time>2019-10-10T07:06:33.793Z</time>
      </trkpt>
      <trkpt lat="46.57256" lon="5.43945">
        <ele>261</ele>
        <time>2019-10-10T07:06:38.776Z</time>
      </trkpt>
      <trkpt lat="46.57256" lon="5.43951">
        <ele>261</ele>
        <time>2019-10-10T07:06:42.800Z</time>
      </trkpt>
      <trkpt lat="46.57255" lon="5.43957">
        <ele>261</ele>
        <time>2019-10-10T07:06:47.780Z</time>
      </trkpt>
      <trkpt lat="46.57254" lon="5.43966">
        <ele>260</ele>
        <time>2019-10-10T07:06:52.762Z</time>
      </trkpt>
      <trkpt lat="46.57256" lon="5.43979">
        <ele>260</ele>
        <time>2019-10-10T07:06:57.802Z</time>
      </trkpt>
      <trkpt lat="46.57256" lon="5.43989">
        <ele>260</ele>
        <time>2019-10-10T07:07:02.773Z</time>
      </trkpt>
      <trkpt lat="46.57258" lon="5.44002">
        <ele>260</ele>
        <time>2019-10-10T07:07:07.764Z</time>
      </trkpt>
      <trkpt lat="46.5726" lon="5.44006">
        <ele>260</ele>
        <time>2019-10-10T07:07:12.793Z</time>
      </trkpt>
      <trkpt lat="46.57263" lon="5.44011">
        <ele>260</ele>
        <time>2019-10-10T07:07:17.789Z</time>
      </trkpt>
      <trkpt lat="46.57267" lon="5.44019">
        <ele>259</ele>
        <time>2019-10-10T07:07:22.776Z</time>
      </trkpt>
      <trkpt lat="46.57268" lon="5.44024">
        <ele>259</ele>
        <time>2019-10-10T07:07:27.769Z</time>
      </trkpt>
      <trkpt lat="46.57272" lon="5.44029">
        <ele>259</ele>
        <time>2019-10-10T07:07:32.785Z</time>
      </trkpt>
      <trkpt lat="46.57273" lon="5.44035">
        <ele>259</ele>
        <time>2019-10-10T07:07:37.772Z</time>
      </trkpt>
      <trkpt lat="46.57273" lon="5.44043">
        <ele>259</ele>
        <time>2019-10-10T07:07:42.778Z</time>
      </trkpt>
      <trkpt lat="46.5727" lon="5.44053">
        <ele>259</ele>
        <time>2019-10-10T07:07:47.762Z</time>
      </trkpt>
      <trkpt lat="46.57267" lon="5.44065">
        <ele>259</ele>
        <time>2019-10-10T07:07:52.775Z</time>
      </trkpt>
      <trkpt lat="46.57268" lon="5.4407">
        <ele>258</ele>
        <time>2019-10-10T07:07:57.786Z</time>
      </trkpt>
      <trkpt lat="46.57268" lon="5.44075">
        <ele>258</ele>
        <time>2019-10-10T07:08:02.773Z</time>
      </trkpt>
      <trkpt lat="46.57264" lon="5.44084">
        <ele>258</ele>
        <time>2019-10-10T07:08:07.767Z</time>
      </trkpt>
      <trkpt lat="46.5726" lon="5.44091">
        <ele>258</ele>
        <time>2019-10-10T07:08:11.794Z</time>
      </trkpt>
      <trkpt lat="46.57257" lon="5.441">
        <ele>257</ele>
        <time>2019-10-10T07:08:16.772Z</time>
      </trkpt>
      <trkpt lat="46.57254" lon="5.4411">
        <ele>257</ele>
        <time>2019-10-10T07:08:21.784Z</time>
      </trkpt>
      <trkpt lat="46.57252" lon="5.44117">
        <ele>257</ele>
        <time>2019-10-10T07:08:26.781Z</time>
      </trkpt>
      <trkpt lat="46.57251" lon="5.44124">
        <ele>257</ele>
        <time>2019-10-10T07:08:31.777Z</time>
      </trkpt>
      <trkpt lat="46.5725" lon="5.44132">
        <ele>256</ele>
        <time>2019-10-10T07:08:36.765Z</time>
      </trkpt>
      <trkpt lat="46.57248" lon="5.4414">
        <ele>256</ele>
        <time>2019-10-10T07:08:41.791Z</time>
      </trkpt>
      <trkpt lat="46.57247" lon="5.44145">
        <ele>256</ele>
        <time>2019-10-10T07:08:45.818Z</time>
      </trkpt>
      <trkpt lat="46.57243" lon="5.44155">
        <ele>256</ele>
        <time>2019-10-10T07:08:55.774Z</time>
      </trkpt>
      <trkpt lat="46.57243" lon="5.44155">
        <ele>256</ele>
        <time>2019-10-10T07:08:59.783Z</time>
      </trkpt>
      <trkpt lat="46.57241" lon="5.44156">
        <ele>256</ele>
        <time>2019-10-10T07:09:03.781Z</time>
      </trkpt>
      <trkpt lat="46.57236" lon="5.44159">
        <ele>256</ele>
        <time>2019-10-10T07:09:08.778Z</time>
      </trkpt>
      <trkpt lat="46.57232" lon="5.44165">
        <ele>256</ele>
        <time>2019-10-10T07:09:13.797Z</time>
      </trkpt>
      <trkpt lat="46.57228" lon="5.44174">
        <ele>256</ele>
        <time>2019-10-10T07:09:18.785Z</time>
      </trkpt>
      <trkpt lat="46.57224" lon="5.4418">
        <ele>256</ele>
        <time>2019-10-10T07:09:23.767Z</time>
      </trkpt>
      <trkpt lat="46.57221" lon="5.44186">
        <ele>257</ele>
        <time>2019-10-10T07:09:27.779Z</time>
      </trkpt>
      <trkpt lat="46.57217" lon="5.44192">
        <ele>257</ele>
        <time>2019-10-10T07:09:32.767Z</time>
      </trkpt>
      <trkpt lat="46.57214" lon="5.44198">
        <ele>257</ele>
        <time>2019-10-10T07:09:37.797Z</time>
      </trkpt>
      <trkpt lat="46.57211" lon="5.44205">
        <ele>257</ele>
        <time>2019-10-10T07:09:42.764Z</time>
      </trkpt>
      <trkpt lat="46.57207" lon="5.44211">
        <ele>258</ele>
        <time>2019-10-10T07:09:46.781Z</time>
      </trkpt>
      <trkpt lat="46.57204" lon="5.44215">
        <ele>258</ele>
        <time>2019-10-10T07:09:50.797Z</time>
      </trkpt>
      <trkpt lat="46.57201" lon="5.44222">
        <ele>258</ele>
        <time>2019-10-10T07:09:55.777Z</time>
      </trkpt>
      <trkpt lat="46.57203" lon="5.44233">
        <ele>258</ele>
        <time>2019-10-10T07:10:00.781Z</time>
      </trkpt>
      <trkpt lat="46.57206" lon="5.44243">
        <ele>259</ele>
        <time>2019-10-10T07:10:05.768Z</time>
      </trkpt>
      <trkpt lat="46.57208" lon="5.44248">
        <ele>259</ele>
        <time>2019-10-10T07:10:09.783Z</time>
      </trkpt>
      <trkpt lat="46.5721" lon="5.44254">
        <ele>258</ele>
        <time>2019-10-10T07:10:14.781Z</time>
      </trkpt>
      <trkpt lat="46.57213" lon="5.4426">
        <ele>258</ele>
        <time>2019-10-10T07:10:19.785Z</time>
      </trkpt>
      <trkpt lat="46.57211" lon="5.44269">
        <ele>259</ele>
        <time>2019-10-10T07:10:24.777Z</time>
      </trkpt>
      <trkpt lat="46.57208" lon="5.44277">
        <ele>260</ele>
        <time>2019-10-10T07:10:29.777Z</time>
      </trkpt>
      <trkpt lat="46.57208" lon="5.44281">
        <ele>260</ele>
        <time>2019-10-10T07:10:33.793Z</time>
      </trkpt>
      <trkpt lat="46.57208" lon="5.44288">
        <ele>260</ele>
        <time>2019-10-10T07:10:38.773Z</time>
      </trkpt>
      <trkpt lat="46.57207" lon="5.44298">
        <ele>263</ele>
        <time>2019-10-10T07:10:43.764Z</time>
      </trkpt>
      <trkpt lat="46.57205" lon="5.44308">
        <ele>263</ele>
        <time>2019-10-10T07:10:48.802Z</time>
      </trkpt>
      <trkpt lat="46.57203" lon="5.44317">
        <ele>263</ele>
        <time>2019-10-10T07:10:53.775Z</time>
      </trkpt>
      <trkpt lat="46.57204" lon="5.44324">
        <ele>263</ele>
        <time>2019-10-10T07:10:58.782Z</time>
      </trkpt>
      <trkpt lat="46.57206" lon="5.4433">
        <ele>263</ele>
        <time>2019-10-10T07:11:03.776Z</time>
      </trkpt>
      <trkpt lat="46.57204" lon="5.44339">
        <ele>263</ele>
        <time>2019-10-10T07:11:08.790Z</time>
      </trkpt>
      <trkpt lat="46.57203" lon="5.44346">
        <ele>263</ele>
        <time>2019-10-10T07:11:13.775Z</time>
      </trkpt>
      <trkpt lat="46.57201" lon="5.44353">
        <ele>263</ele>
        <time>2019-10-10T07:11:18.783Z</time>
      </trkpt>
      <trkpt lat="46.57202" lon="5.44367">
        <ele>263</ele>
        <time>2019-10-10T07:11:23.780Z</time>
      </trkpt>
      <trkpt lat="46.57202" lon="5.44377">
        <ele>262</ele>
        <time>2019-10-10T07:11:28.764Z</time>
      </trkpt>
      <trkpt lat="46.572" lon="5.44382">
        <ele>262</ele>
        <time>2019-10-10T07:11:32.783Z</time>
      </trkpt>
      <trkpt lat="46.572" lon="5.44391">
        <ele>262</ele>
        <time>2019-10-10T07:11:37.782Z</time>
      </trkpt>
      <trkpt lat="46.57199" lon="5.44399">
        <ele>262</ele>
        <time>2019-10-10T07:11:42.790Z</time>
      </trkpt>
      <trkpt lat="46.57199" lon="5.44408">
        <ele>261</ele>
        <time>2019-10-10T07:11:47.795Z</time>
      </trkpt>
      <trkpt lat="46.57199" lon="5.44413">
        <ele>261</ele>
        <time>2019-10-10T07:11:52.792Z</time>
      </trkpt>
      <trkpt lat="46.572" lon="5.4442">
        <ele>261</ele>
        <time>2019-10-10T07:11:57.770Z</time>
      </trkpt>
      <trkpt lat="46.57203" lon="5.44427">
        <ele>261</ele>
        <time>2019-10-10T07:12:02.799Z</time>
      </trkpt>
      <trkpt lat="46.57204" lon="5.44435">
        <ele>262</ele>
        <time>2019-10-10T07:12:07.791Z</time>
      </trkpt>
      <trkpt lat="46.57205" lon="5.44442">
        <ele>262</ele>
        <time>2019-10-10T07:12:12.782Z</time>
      </trkpt>
      <trkpt lat="46.57208" lon="5.44452">
        <ele>262</ele>
        <time>2019-10-10T07:12:17.763Z</time>
      </trkpt>
      <trkpt lat="46.5721" lon="5.44456">
        <ele>262</ele>
        <time>2019-10-10T07:12:21.785Z</time>
      </trkpt>
      <trkpt lat="46.57215" lon="5.44463">
        <ele>263</ele>
        <time>2019-10-10T07:12:26.777Z</time>
      </trkpt>
      <trkpt lat="46.57219" lon="5.44471">
        <ele>263</ele>
        <time>2019-10-10T07:12:31.763Z</time>
      </trkpt>
      <trkpt lat="46.5722" lon="5.44478">
        <ele>263</ele>
        <time>2019-10-10T07:12:35.783Z</time>
      </trkpt>
      <trkpt lat="46.57222" lon="5.44485">
        <ele>263</ele>
        <time>2019-10-10T07:12:40.784Z</time>
      </trkpt>
      <trkpt lat="46.57223" lon="5.44496">
        <ele>263</ele>
        <time>2019-10-10T07:12:45.786Z</time>
      </trkpt>
      <trkpt lat="46.57223" lon="5.445">
        <ele>263</ele>
        <time>2019-10-10T07:12:50.791Z</time>
      </trkpt>
      <trkpt lat="46.57223" lon="5.4451">
        <ele>263</ele>
        <time>2019-10-10T07:12:55.803Z</time>
      </trkpt>
      <trkpt lat="46.57224" lon="5.4452">
        <ele>264</ele>
        <time>2019-10-10T07:13:00.769Z</time>
      </trkpt>
      <trkpt lat="46.57225" lon="5.44531">
        <ele>264</ele>
        <time>2019-10-10T07:13:05.775Z</time>
      </trkpt>
      <trkpt lat="46.57203" lon="5.44519">
        <ele>265</ele>
        <time>2019-10-10T07:13:11.804Z</time>
      </trkpt>
      <trkpt lat="46.57223" lon="5.44555">
        <ele>265</ele>
        <time>2019-10-10T07:13:17.872Z</time>
      </trkpt>
      <trkpt lat="46.57225" lon="5.44563">
        <ele>265</ele>
        <time>2019-10-10T07:13:22.855Z</time>
      </trkpt>
      <trkpt lat="46.57224" lon="5.4457">
        <ele>266</ele>
        <time>2019-10-10T07:13:27.795Z</time>
      </trkpt>
      <trkpt lat="46.57221" lon="5.44585">
        <ele>266</ele>
        <time>2019-10-10T07:13:32.807Z</time>
      </trkpt>
      <trkpt lat="46.5722" lon="5.44593">
        <ele>266</ele>
        <time>2019-10-10T07:13:37.770Z</time>
      </trkpt>
      <trkpt lat="46.57222" lon="5.44601">
        <ele>267</ele>
        <time>2019-10-10T07:13:41.788Z</time>
      </trkpt>
      <trkpt lat="46.57223" lon="5.44605">
        <ele>267</ele>
        <time>2019-10-10T07:13:46.792Z</time>
      </trkpt>
      <trkpt lat="46.57225" lon="5.44619">
        <ele>267</ele>
        <time>2019-10-10T07:13:51.786Z</time>
      </trkpt>
      <trkpt lat="46.57226" lon="5.44623">
        <ele>267</ele>
        <time>2019-10-10T07:13:55.798Z</time>
      </trkpt>
      <trkpt lat="46.57227" lon="5.44632">
        <ele>268</ele>
        <time>2019-10-10T07:14:00.783Z</time>
      </trkpt>
      <trkpt lat="46.57227" lon="5.44635">
        <ele>268</ele>
        <time>2019-10-10T07:14:05.773Z</time>
      </trkpt>
      <trkpt lat="46.57227" lon="5.4464">
        <ele>268</ele>
        <time>2019-10-10T07:14:09.784Z</time>
      </trkpt>
      <trkpt lat="46.57228" lon="5.44647">
        <ele>268</ele>
        <time>2019-10-10T07:14:14.773Z</time>
      </trkpt>
      <trkpt lat="46.5723" lon="5.44654">
        <ele>268</ele>
        <time>2019-10-10T07:14:19.793Z</time>
      </trkpt>
      <trkpt lat="46.57234" lon="5.44664">
        <ele>268</ele>
        <time>2019-10-10T07:14:24.790Z</time>
      </trkpt>
      <trkpt lat="46.57236" lon="5.4467">
        <ele>265</ele>
        <time>2019-10-10T07:14:29.769Z</time>
      </trkpt>
      <trkpt lat="46.57237" lon="5.44676">
        <ele>265</ele>
        <time>2019-10-10T07:14:33.777Z</time>
      </trkpt>
      <trkpt lat="46.57238" lon="5.44684">
        <ele>267</ele>
        <time>2019-10-10T07:14:38.795Z</time>
      </trkpt>
      <trkpt lat="46.57235" lon="5.44694">
        <ele>269</ele>
        <time>2019-10-10T07:14:43.776Z</time>
      </trkpt>
      <trkpt lat="46.57235" lon="5.44702">
        <ele>269</ele>
        <time>2019-10-10T07:14:48.783Z</time>
      </trkpt>
      <trkpt lat="46.57236" lon="5.44707">
        <ele>269</ele>
        <time>2019-10-10T07:14:53.778Z</time>
      </trkpt>
      <trkpt lat="46.57236" lon="5.4471">
        <ele>269</ele>
        <time>2019-10-10T07:14:58.778Z</time>
      </trkpt>
      <trkpt lat="46.57237" lon="5.44717">
        <ele>269</ele>
        <time>2019-10-10T07:15:03.767Z</time>
      </trkpt>
      <trkpt lat="46.57238" lon="5.44726">
        <ele>269</ele>
        <time>2019-10-10T07:15:07.780Z</time>
      </trkpt>
      <trkpt lat="46.5724" lon="5.44733">
        <ele>269</ele>
        <time>2019-10-10T07:15:11.769Z</time>
      </trkpt>
      <trkpt lat="46.57242" lon="5.44736">
        <ele>269</ele>
        <time>2019-10-10T07:15:16.771Z</time>
      </trkpt>
      <trkpt lat="46.57244" lon="5.44737">
        <ele>275</ele>
        <time>2019-10-10T07:15:21.764Z</time>
      </trkpt>
      <trkpt lat="46.57248" lon="5.44744">
        <ele>275</ele>
        <time>2019-10-10T07:15:26.772Z</time>
      </trkpt>
      <trkpt lat="46.57253" lon="5.4475">
        <ele>275</ele>
        <time>2019-10-10T07:15:31.769Z</time>
      </trkpt>
      <trkpt lat="46.57256" lon="5.44755">
        <ele>275</ele>
        <time>2019-10-10T07:15:36.779Z</time>
      </trkpt>
      <trkpt lat="46.57259" lon="5.44758">
        <ele>275</ele>
        <time>2019-10-10T07:15:41.775Z</time>
      </trkpt>
      <trkpt lat="46.57268" lon="5.44763">
        <ele>277</ele>
        <time>2019-10-10T07:15:46.764Z</time>
      </trkpt>
      <trkpt lat="46.57273" lon="5.44766">
        <ele>286</ele>
        <time>2019-10-10T07:15:50.781Z</time>
      </trkpt>
      <trkpt lat="46.57279" lon="5.44769">
        <ele>286</ele>
        <time>2019-10-10T07:15:55.766Z</time>
      </trkpt>
      <trkpt lat="46.57283" lon="5.44769">
        <ele>286</ele>
        <time>2019-10-10T07:16:00.787Z</time>
      </trkpt>
      <trkpt lat="46.57288" lon="5.44768">
        <ele>286</ele>
        <time>2019-10-10T07:16:05.764Z</time>
      </trkpt>
      <trkpt lat="46.57293" lon="5.44764">
        <ele>290</ele>
        <time>2019-10-10T07:16:10.771Z</time>
      </trkpt>
      <trkpt lat="46.57298" lon="5.44764">
        <ele>282</ele>
        <time>2019-10-10T07:16:15.800Z</time>
      </trkpt>
      <trkpt lat="46.57305" lon="5.44762">
        <ele>282</ele>
        <time>2019-10-10T07:16:20.764Z</time>
      </trkpt>
      <trkpt lat="46.57309" lon="5.44762">
        <ele>282</ele>
        <time>2019-10-10T07:16:25.757Z</time>
      </trkpt>
      <trkpt lat="46.57313" lon="5.44761">
        <ele>282</ele>
        <time>2019-10-10T07:16:30.770Z</time>
      </trkpt>
      <trkpt lat="46.57315" lon="5.44762">
        <ele>282</ele>
        <time>2019-10-10T07:16:34.782Z</time>
      </trkpt>
      <trkpt lat="46.57319" lon="5.44765">
        <ele>290</ele>
        <time>2019-10-10T07:16:39.778Z</time>
      </trkpt>
      <trkpt lat="46.57323" lon="5.44766">
        <ele>294</ele>
        <time>2019-10-10T07:16:44.780Z</time>
      </trkpt>
      <trkpt lat="46.57327" lon="5.44765">
        <ele>294</ele>
        <time>2019-10-10T07:16:49.803Z</time>
      </trkpt>
      <trkpt lat="46.57333" lon="5.44764">
        <ele>294</ele>
        <time>2019-10-10T07:16:54.777Z</time>
      </trkpt>
      <trkpt lat="46.57339" lon="5.44766">
        <ele>294</ele>
        <time>2019-10-10T07:16:59.777Z</time>
      </trkpt>
      <trkpt lat="46.57343" lon="5.44766">
        <ele>294</ele>
        <time>2019-10-10T07:17:04.767Z</time>
      </trkpt>
      <trkpt lat="46.57347" lon="5.44767">
        <ele>297</ele>
        <time>2019-10-10T07:17:08.793Z</time>
      </trkpt>
      <trkpt lat="46.57352" lon="5.44766">
        <ele>297</ele>
        <time>2019-10-10T07:17:13.772Z</time>
      </trkpt>
      <trkpt lat="46.57357" lon="5.44766">
        <ele>297</ele>
        <time>2019-10-10T07:17:18.774Z</time>
      </trkpt>
      <trkpt lat="46.57361" lon="5.44766">
        <ele>297</ele>
        <time>2019-10-10T07:17:23.766Z</time>
      </trkpt>
      <trkpt lat="46.57365" lon="5.44767">
        <ele>297</ele>
        <time>2019-10-10T07:17:28.785Z</time>
      </trkpt>
      <trkpt lat="46.57368" lon="5.44768">
        <ele>297</ele>
        <time>2019-10-10T07:17:32.807Z</time>
      </trkpt>
      <trkpt lat="46.57374" lon="5.44771">
        <ele>297</ele>
        <time>2019-10-10T07:17:37.773Z</time>
      </trkpt>
      <trkpt lat="46.57379" lon="5.44771">
        <ele>302</ele>
        <time>2019-10-10T07:17:42.780Z</time>
      </trkpt>
      <trkpt lat="46.57386" lon="5.44771">
        <ele>302</ele>
        <time>2019-10-10T07:17:47.777Z</time>
      </trkpt>
      <trkpt lat="46.5739" lon="5.44769">
        <ele>302</ele>
        <time>2019-10-10T07:17:52.757Z</time>
      </trkpt>
      <trkpt lat="46.57392" lon="5.44768">
        <ele>302</ele>
        <time>2019-10-10T07:17:57.772Z</time>
      </trkpt>
      <trkpt lat="46.57396" lon="5.44764">
        <ele>302</ele>
        <time>2019-10-10T07:18:02.794Z</time>
      </trkpt>
      <trkpt lat="46.574" lon="5.4476">
        <ele>295</ele>
        <time>2019-10-10T07:18:07.762Z</time>
      </trkpt>
      <trkpt lat="46.57402" lon="5.44757">
        <ele>295</ele>
        <time>2019-10-10T07:18:12.793Z</time>
      </trkpt>
      <trkpt lat="46.57406" lon="5.44756">
        <ele>298</ele>
        <time>2019-10-10T07:18:17.802Z</time>
      </trkpt>
      <trkpt lat="46.5741" lon="5.44753">
        <ele>298</ele>
        <time>2019-10-10T07:18:22.770Z</time>
      </trkpt>
      <trkpt lat="46.57413" lon="5.44749">
        <ele>298</ele>
        <time>2019-10-10T07:18:27.780Z</time>
      </trkpt>
      <trkpt lat="46.57415" lon="5.44747">
        <ele>298</ele>
        <time>2019-10-10T07:18:32.776Z</time>
      </trkpt>
      <trkpt lat="46.5742" lon="5.44747">
        <ele>298</ele>
        <time>2019-10-10T07:18:37.764Z</time>
      </trkpt>
      <trkpt lat="46.57423" lon="5.44747">
        <ele>298</ele>
        <time>2019-10-10T07:18:41.791Z</time>
      </trkpt>
      <trkpt lat="46.57428" lon="5.44747">
        <ele>298</ele>
        <time>2019-10-10T07:18:46.765Z</time>
      </trkpt>
      <trkpt lat="46.5743" lon="5.44747">
        <ele>298</ele>
        <time>2019-10-10T07:18:51.770Z</time>
      </trkpt>
      <trkpt lat="46.57433" lon="5.44748">
        <ele>299</ele>
        <time>2019-10-10T07:18:56.783Z</time>
      </trkpt>
      <trkpt lat="46.57436" lon="5.44751">
        <ele>299</ele>
        <time>2019-10-10T07:19:01.769Z</time>
      </trkpt>
      <trkpt lat="46.57442" lon="5.44754">
        <ele>299</ele>
        <time>2019-10-10T07:19:06.764Z</time>
      </trkpt>
      <trkpt lat="46.57446" lon="5.44756">
        <ele>299</ele>
        <time>2019-10-10T07:19:10.782Z</time>
      </trkpt>
      <trkpt lat="46.57449" lon="5.44757">
        <ele>299</ele>
        <time>2019-10-10T07:19:14.795Z</time>
      </trkpt>
      <trkpt lat="46.57452" lon="5.4476">
        <ele>299</ele>
        <time>2019-10-10T07:19:19.792Z</time>
      </trkpt>
      <trkpt lat="46.57455" lon="5.44767">
        <ele>306</ele>
        <time>2019-10-10T07:19:24.785Z</time>
      </trkpt>
      <trkpt lat="46.57457" lon="5.44772">
        <ele>306</ele>
        <time>2019-10-10T07:19:29.787Z</time>
      </trkpt>
      <trkpt lat="46.5746" lon="5.44779">
        <ele>303</ele>
        <time>2019-10-10T07:19:34.794Z</time>
      </trkpt>
      <trkpt lat="46.57461" lon="5.44785">
        <ele>303</ele>
        <time>2019-10-10T07:19:39.780Z</time>
      </trkpt>
      <trkpt lat="46.57462" lon="5.44791">
        <ele>303</ele>
        <time>2019-10-10T07:19:44.768Z</time>
      </trkpt>
      <trkpt lat="46.57461" lon="5.44794">
        <ele>307</ele>
        <time>2019-10-10T07:19:48.807Z</time>
      </trkpt>
      <trkpt lat="46.57461" lon="5.44803">
        <ele>307</ele>
        <time>2019-10-10T07:19:53.773Z</time>
      </trkpt>
      <trkpt lat="46.5746" lon="5.44808">
        <ele>307</ele>
        <time>2019-10-10T07:19:57.800Z</time>
      </trkpt>
      <trkpt lat="46.57454" lon="5.44815">
        <ele>309</ele>
        <time>2019-10-10T07:20:02.765Z</time>
      </trkpt>
      <trkpt lat="46.5745" lon="5.4482">
        <ele>311</ele>
        <time>2019-10-10T07:20:06.791Z</time>
      </trkpt>
      <trkpt lat="46.57448" lon="5.44825">
        <ele>311</ele>
        <time>2019-10-10T07:20:11.785Z</time>
      </trkpt>
      <trkpt lat="46.57447" lon="5.44827">
        <ele>311</ele>
        <time>2019-10-10T07:20:15.793Z</time>
      </trkpt>
      <trkpt lat="46.57442" lon="5.44831">
        <ele>311</ele>
        <time>2019-10-10T07:20:20.781Z</time>
      </trkpt>
      <trkpt lat="46.57439" lon="5.44832">
        <ele>311</ele>
        <time>2019-10-10T07:20:25.775Z</time>
      </trkpt>
      <trkpt lat="46.57436" lon="5.44832">
        <ele>311</ele>
        <time>2019-10-10T07:20:30.767Z</time>
      </trkpt>
      <trkpt lat="46.57432" lon="5.44834">
        <ele>311</ele>
        <time>2019-10-10T07:20:53.772Z</time>
      </trkpt>
      <trkpt lat="46.57432" lon="5.44834">
        <ele>311</ele>
        <time>2019-10-10T07:20:58.741Z</time>
      </trkpt>
      <trkpt lat="46.57431" lon="5.44835">
        <ele>311</ele>
        <time>2019-10-10T07:21:02.750Z</time>
      </trkpt>
      <trkpt lat="46.57428" lon="5.44835">
        <ele>314</ele>
        <time>2019-10-10T07:21:07.775Z</time>
      </trkpt>
      <trkpt lat="46.57425" lon="5.44833">
        <ele>314</ele>
        <time>2019-10-10T07:21:11.787Z</time>
      </trkpt>
      <trkpt lat="46.57414" lon="5.44834">
        <ele>314</ele>
        <time>2019-10-10T07:21:26.782Z</time>
      </trkpt>
      <trkpt lat="46.57413" lon="5.44835">
        <ele>314</ele>
        <time>2019-10-10T07:21:31.766Z</time>
      </trkpt>
      <trkpt lat="46.57412" lon="5.44835">
        <ele>314</ele>
        <time>2019-10-10T07:21:36.767Z</time>
      </trkpt>
      <trkpt lat="46.57413" lon="5.4484">
        <ele>314</ele>
        <time>2019-10-10T07:21:41.764Z</time>
      </trkpt>
      <trkpt lat="46.57408" lon="5.44843">
        <ele>314</ele>
        <time>2019-10-10T07:21:45.784Z</time>
      </trkpt>
      <trkpt lat="46.57402" lon="5.44844">
        <ele>313</ele>
        <time>2019-10-10T07:21:50.764Z</time>
      </trkpt>
      <trkpt lat="46.57397" lon="5.44846">
        <ele>313</ele>
        <time>2019-10-10T07:21:54.783Z</time>
      </trkpt>
      <trkpt lat="46.57391" lon="5.44849">
        <ele>317</ele>
        <time>2019-10-10T07:21:59.777Z</time>
      </trkpt>
      <trkpt lat="46.57385" lon="5.44853">
        <ele>317</ele>
        <time>2019-10-10T07:22:04.766Z</time>
      </trkpt>
      <trkpt lat="46.57382" lon="5.44856">
        <ele>317</ele>
        <time>2019-10-10T07:22:08.786Z</time>
      </trkpt>
      <trkpt lat="46.5738" lon="5.4486">
        <ele>317</ele>
        <time>2019-10-10T07:22:13.777Z</time>
      </trkpt>
      <trkpt lat="46.57377" lon="5.44865">
        <ele>317</ele>
        <time>2019-10-10T07:22:17.801Z</time>
      </trkpt>
      <trkpt lat="46.57376" lon="5.4487">
        <ele>317</ele>
        <time>2019-10-10T07:22:22.779Z</time>
      </trkpt>
      <trkpt lat="46.57374" lon="5.44877">
        <ele>323</ele>
        <time>2019-10-10T07:22:27.768Z</time>
      </trkpt>
      <trkpt lat="46.57374" lon="5.4488">
        <ele>323</ele>
        <time>2019-10-10T07:22:32.789Z</time>
      </trkpt>
      <trkpt lat="46.57377" lon="5.44889">
        <ele>320</ele>
        <time>2019-10-10T07:22:37.766Z</time>
      </trkpt>
      <trkpt lat="46.57378" lon="5.44895">
        <ele>320</ele>
        <time>2019-10-10T07:22:41.795Z</time>
      </trkpt>
      <trkpt lat="46.57381" lon="5.44902">
        <ele>320</ele>
        <time>2019-10-10T07:22:46.789Z</time>
      </trkpt>
      <trkpt lat="46.57383" lon="5.44904">
        <ele>325</ele>
        <time>2019-10-10T07:22:51.790Z</time>
      </trkpt>
      <trkpt lat="46.57386" lon="5.4491">
        <ele>325</ele>
        <time>2019-10-10T07:22:56.802Z</time>
      </trkpt>
      <trkpt lat="46.57388" lon="5.44914">
        <ele>325</ele>
        <time>2019-10-10T07:23:01.793Z</time>
      </trkpt>
      <trkpt lat="46.5739" lon="5.44918">
        <ele>325</ele>
        <time>2019-10-10T07:23:06.800Z</time>
      </trkpt>
      <trkpt lat="46.57391" lon="5.44923">
        <ele>325</ele>
        <time>2019-10-10T07:23:11.773Z</time>
      </trkpt>
      <trkpt lat="46.57393" lon="5.44932">
        <ele>328</ele>
        <time>2019-10-10T07:23:16.782Z</time>
      </trkpt>
      <trkpt lat="46.57394" lon="5.44938">
        <ele>328</ele>
        <time>2019-10-10T07:23:21.798Z</time>
      </trkpt>
      <trkpt lat="46.57396" lon="5.44947">
        <ele>328</ele>
        <time>2019-10-10T07:23:26.769Z</time>
      </trkpt>
      <trkpt lat="46.57396" lon="5.44955">
        <ele>328</ele>
        <time>2019-10-10T07:23:30.809Z</time>
      </trkpt>
      <trkpt lat="46.57395" lon="5.44962">
        <ele>331</ele>
        <time>2019-10-10T07:23:35.788Z</time>
      </trkpt>
      <trkpt lat="46.57395" lon="5.44972">
        <ele>331</ele>
        <time>2019-10-10T07:23:40.769Z</time>
      </trkpt>
      <trkpt lat="46.57396" lon="5.44978">
        <ele>331</ele>
        <time>2019-10-10T07:23:45.788Z</time>
      </trkpt>
      <trkpt lat="46.57397" lon="5.44987">
        <ele>333</ele>
        <time>2019-10-10T07:23:50.778Z</time>
      </trkpt>
      <trkpt lat="46.57397" lon="5.44991">
        <ele>333</ele>
        <time>2019-10-10T07:23:55.781Z</time>
      </trkpt>
      <trkpt lat="46.57398" lon="5.45001">
        <ele>333</ele>
        <time>2019-10-10T07:24:00.792Z</time>
      </trkpt>
      <trkpt lat="46.57397" lon="5.4501">
        <ele>333</ele>
        <time>2019-10-10T07:24:05.763Z</time>
      </trkpt>
      <trkpt lat="46.57397" lon="5.45016">
        <ele>336</ele>
        <time>2019-10-10T07:24:10.791Z</time>
      </trkpt>
      <trkpt lat="46.57397" lon="5.45023">
        <ele>336</ele>
        <time>2019-10-10T07:24:15.770Z</time>
      </trkpt>
      <trkpt lat="46.57399" lon="5.4503">
        <ele>336</ele>
        <time>2019-10-10T07:24:20.796Z</time>
      </trkpt>
      <trkpt lat="46.57399" lon="5.45035">
        <ele>336</ele>
        <time>2019-10-10T07:24:25.781Z</time>
      </trkpt>
      <trkpt lat="46.574" lon="5.45039">
        <ele>336</ele>
        <time>2019-10-10T07:24:30.774Z</time>
      </trkpt>
      <trkpt lat="46.574" lon="5.45041">
        <ele>336</ele>
        <time>2019-10-10T07:24:35.781Z</time>
      </trkpt>
      <trkpt lat="46.57399" lon="5.45045">
        <ele>339</ele>
        <time>2019-10-10T07:24:40.781Z</time>
      </trkpt>
      <trkpt lat="46.57397" lon="5.45052">
        <ele>339</ele>
        <time>2019-10-10T07:24:45.786Z</time>
      </trkpt>
      <trkpt lat="46.57396" lon="5.45054">
        <ele>339</ele>
        <time>2019-10-10T07:24:50.783Z</time>
      </trkpt>
      <trkpt lat="46.57396" lon="5.45056">
        <ele>339</ele>
        <time>2019-10-10T07:24:55.782Z</time>
      </trkpt>
      <trkpt lat="46.57395" lon="5.45064">
        <ele>339</ele>
        <time>2019-10-10T07:25:00.783Z</time>
      </trkpt>
      <trkpt lat="46.57393" lon="5.45076">
        <ele>342</ele>
        <time>2019-10-10T07:25:05.771Z</time>
      </trkpt>
      <trkpt lat="46.57393" lon="5.45081">
        <ele>342</ele>
        <time>2019-10-10T07:25:10.782Z</time>
      </trkpt>
      <trkpt lat="46.57392" lon="5.45082">
        <ele>342</ele>
        <time>2019-10-10T07:25:15.800Z</time>
      </trkpt>
      <trkpt lat="46.57391" lon="5.45083">
        <ele>342</ele>
        <time>2019-10-10T07:25:20.785Z</time>
      </trkpt>
      <trkpt lat="46.57386" lon="5.45092">
        <ele>342</ele>
        <time>2019-10-10T07:25:25.781Z</time>
      </trkpt>
      <trkpt lat="46.57383" lon="5.45096">
        <ele>342</ele>
        <time>2019-10-10T07:25:30.783Z</time>
      </trkpt>
      <trkpt lat="46.5738" lon="5.45092">
        <ele>342</ele>
        <time>2019-10-10T07:25:35.771Z</time>
      </trkpt>
      <trkpt lat="46.57377" lon="5.45087">
        <ele>342</ele>
        <time>2019-10-10T07:25:40.770Z</time>
      </trkpt>
      <trkpt lat="46.57373" lon="5.45076">
        <ele>350</ele>
        <time>2019-10-10T07:25:45.780Z</time>
      </trkpt>
      <trkpt lat="46.57369" lon="5.45063">
        <ele>348</ele>
        <time>2019-10-10T07:25:49.795Z</time>
      </trkpt>
      <trkpt lat="46.57368" lon="5.45054">
        <ele>348</ele>
        <time>2019-10-10T07:25:54.769Z</time>
      </trkpt>
      <trkpt lat="46.57368" lon="5.45047">
        <ele>348</ele>
        <time>2019-10-10T07:25:58.795Z</time>
      </trkpt>
      <trkpt lat="46.5737" lon="5.4504">
        <ele>345</ele>
        <time>2019-10-10T07:26:03.780Z</time>
      </trkpt>
      <trkpt lat="46.57367" lon="5.45027">
        <ele>345</ele>
        <time>2019-10-10T07:26:08.770Z</time>
      </trkpt>
      <trkpt lat="46.57366" lon="5.45022">
        <ele>345</ele>
        <time>2019-10-10T07:26:13.770Z</time>
      </trkpt>
      <trkpt lat="46.57366" lon="5.45015">
        <ele>345</ele>
        <time>2019-10-10T07:26:18.784Z</time>
      </trkpt>
      <trkpt lat="46.57365" lon="5.45008">
        <ele>343</ele>
        <time>2019-10-10T07:26:23.809Z</time>
      </trkpt>
      <trkpt lat="46.57365" lon="5.45005">
        <ele>343</ele>
        <time>2019-10-10T07:26:28.768Z</time>
      </trkpt>
      <trkpt lat="46.57363" lon="5.45">
        <ele>343</ele>
        <time>2019-10-10T07:26:33.768Z</time>
      </trkpt>
      <trkpt lat="46.57361" lon="5.44989">
        <ele>343</ele>
        <time>2019-10-10T07:26:38.781Z</time>
      </trkpt>
      <trkpt lat="46.5736" lon="5.44982">
        <ele>338</ele>
        <time>2019-10-10T07:26:42.804Z</time>
      </trkpt>
      <trkpt lat="46.57358" lon="5.44975">
        <ele>338</ele>
        <time>2019-10-10T07:26:47.788Z</time>
      </trkpt>
      <trkpt lat="46.57354" lon="5.44972">
        <ele>338</ele>
        <time>2019-10-10T07:26:52.780Z</time>
      </trkpt>
      <trkpt lat="46.57348" lon="5.4497">
        <ele>338</ele>
        <time>2019-10-10T07:26:57.767Z</time>
      </trkpt>
      <trkpt lat="46.57346" lon="5.44974">
        <ele>342</ele>
        <time>2019-10-10T07:27:01.799Z</time>
      </trkpt>
      <trkpt lat="46.57348" lon="5.44978">
        <ele>338</ele>
        <time>2019-10-10T07:27:06.783Z</time>
      </trkpt>
      <trkpt lat="46.57348" lon="5.44985">
        <ele>338</ele>
        <time>2019-10-10T07:27:11.766Z</time>
      </trkpt>
      <trkpt lat="46.57346" lon="5.4499">
        <ele>346</ele>
        <time>2019-10-10T07:27:16.775Z</time>
      </trkpt>
      <trkpt lat="46.57342" lon="5.44994">
        <ele>346</ele>
        <time>2019-10-10T07:27:20.800Z</time>
      </trkpt>
      <trkpt lat="46.57335" lon="5.44991">
        <ele>346</ele>
        <time>2019-10-10T07:30:21.795Z</time>
      </trkpt>
      <trkpt lat="46.57335" lon="5.44991">
        <ele>346</ele>
        <time>2019-10-10T07:30:26.768Z</time>
      </trkpt>
      <trkpt lat="46.57335" lon="5.44991">
        <ele>346</ele>
        <time>2019-10-10T07:30:30.789Z</time>
      </trkpt>
      <trkpt lat="46.57335" lon="5.44991">
        <ele>346</ele>
        <time>2019-10-10T07:30:35.793Z</time>
      </trkpt>
      <trkpt lat="46.57336" lon="5.44983">
        <ele>342</ele>
        <time>2019-10-10T07:30:40.766Z</time>
      </trkpt>
      <trkpt lat="46.57341" lon="5.44989">
        <ele>346</ele>
        <time>2019-10-10T07:31:31.767Z</time>
      </trkpt>
      <trkpt lat="46.57342" lon="5.4499">
        <ele>346</ele>
        <time>2019-10-10T07:31:36.778Z</time>
      </trkpt>
      <trkpt lat="46.57342" lon="5.4499">
        <ele>346</ele>
        <time>2019-10-10T07:31:41.765Z</time>
      </trkpt>
      <trkpt lat="46.57343" lon="5.4499">
        <ele>346</ele>
        <time>2019-10-10T07:31:46.784Z</time>
      </trkpt>
      <trkpt lat="46.57343" lon="5.44991">
        <ele>346</ele>
        <time>2019-10-10T07:31:51.767Z</time>
      </trkpt>
      <trkpt lat="46.5735" lon="5.44983">
        <ele>338</ele>
        <time>2019-10-10T07:34:38.767Z</time>
      </trkpt>
      <trkpt lat="46.5735" lon="5.44983">
        <ele>338</ele>
        <time>2019-10-10T07:34:42.783Z</time>
      </trkpt>
      <trkpt lat="46.5735" lon="5.44982">
        <ele>338</ele>
        <time>2019-10-10T07:34:46.787Z</time>
      </trkpt>
      <trkpt lat="46.57349" lon="5.44981">
        <ele>338</ele>
        <time>2019-10-10T07:34:51.769Z</time>
      </trkpt>
      <trkpt lat="46.57349" lon="5.4498">
        <ele>338</ele>
        <time>2019-10-10T07:34:56.780Z</time>
      </trkpt>
      <trkpt lat="46.5735" lon="5.44979">
        <ele>338</ele>
        <time>2019-10-10T07:35:39.775Z</time>
      </trkpt>
      <trkpt lat="46.5735" lon="5.44979">
        <ele>338</ele>
        <time>2019-10-10T07:35:43.781Z</time>
      </trkpt>
      <trkpt lat="46.5735" lon="5.44979">
        <ele>338</ele>
        <time>2019-10-10T07:35:48.768Z</time>
      </trkpt>
      <trkpt lat="46.57351" lon="5.44976">
        <ele>338</ele>
        <time>2019-10-10T07:35:53.784Z</time>
      </trkpt>
      <trkpt lat="46.57354" lon="5.44968">
        <ele>338</ele>
        <time>2019-10-10T07:35:58.769Z</time>
      </trkpt>
      <trkpt lat="46.57354" lon="5.44968">
        <ele>338</ele>
        <time>2019-10-10T07:36:02.781Z</time>
      </trkpt>
      <trkpt lat="46.57356" lon="5.44974">
        <ele>338</ele>
        <time>2019-10-10T07:36:07.777Z</time>
      </trkpt>
      <trkpt lat="46.57359" lon="5.44984">
        <ele>338</ele>
        <time>2019-10-10T07:36:12.777Z</time>
      </trkpt>
      <trkpt lat="46.57361" lon="5.44993">
        <ele>343</ele>
        <time>2019-10-10T07:36:17.772Z</time>
      </trkpt>
      <trkpt lat="46.57361" lon="5.44998">
        <ele>343</ele>
        <time>2019-10-10T07:36:22.776Z</time>
      </trkpt>
      <trkpt lat="46.57361" lon="5.45006">
        <ele>343</ele>
        <time>2019-10-10T07:36:27.761Z</time>
      </trkpt>
      <trkpt lat="46.57361" lon="5.45012">
        <ele>343</ele>
        <time>2019-10-10T07:36:31.781Z</time>
      </trkpt>
      <trkpt lat="46.57363" lon="5.4502">
        <ele>345</ele>
        <time>2019-10-10T07:36:36.764Z</time>
      </trkpt>
      <trkpt lat="46.57365" lon="5.45029">
        <ele>345</ele>
        <time>2019-10-10T07:36:40.786Z</time>
      </trkpt>
      <trkpt lat="46.57364" lon="5.45039">
        <ele>345</ele>
        <time>2019-10-10T07:36:45.772Z</time>
      </trkpt>
      <trkpt lat="46.57366" lon="5.45044">
        <ele>348</ele>
        <time>2019-10-10T07:36:50.781Z</time>
      </trkpt>
      <trkpt lat="46.57368" lon="5.45051">
        <ele>348</ele>
        <time>2019-10-10T07:36:55.799Z</time>
      </trkpt>
      <trkpt lat="46.57371" lon="5.45064">
        <ele>348</ele>
        <time>2019-10-10T07:37:00.777Z</time>
      </trkpt>
      <trkpt lat="46.57369" lon="5.45069">
        <ele>348</ele>
        <time>2019-10-10T07:37:05.781Z</time>
      </trkpt>
      <trkpt lat="46.57371" lon="5.45076">
        <ele>350</ele>
        <time>2019-10-10T07:37:09.788Z</time>
      </trkpt>
      <trkpt lat="46.57372" lon="5.45084">
        <ele>350</ele>
        <time>2019-10-10T07:37:14.789Z</time>
      </trkpt>
      <trkpt lat="46.57374" lon="5.45089">
        <ele>350</ele>
        <time>2019-10-10T07:37:19.792Z</time>
      </trkpt>
      <trkpt lat="46.57379" lon="5.45098">
        <ele>342</ele>
        <time>2019-10-10T07:37:24.790Z</time>
      </trkpt>
      <trkpt lat="46.57383" lon="5.45106">
        <ele>342</ele>
        <time>2019-10-10T07:37:29.793Z</time>
      </trkpt>
      <trkpt lat="46.57389" lon="5.45115">
        <ele>342</ele>
        <time>2019-10-10T07:37:34.777Z</time>
      </trkpt>
      <trkpt lat="46.57393" lon="5.45122">
        <ele>342</ele>
        <time>2019-10-10T07:37:39.778Z</time>
      </trkpt>
      <trkpt lat="46.57396" lon="5.45127">
        <ele>340</ele>
        <time>2019-10-10T07:37:44.768Z</time>
      </trkpt>
      <trkpt lat="46.57398" lon="5.45131">
        <ele>340</ele>
        <time>2019-10-10T07:37:48.777Z</time>
      </trkpt>
      <trkpt lat="46.57399" lon="5.45133">
        <ele>340</ele>
        <time>2019-10-10T07:37:53.774Z</time>
      </trkpt>
      <trkpt lat="46.57401" lon="5.45135">
        <ele>340</ele>
        <time>2019-10-10T07:37:58.756Z</time>
      </trkpt>
      <trkpt lat="46.57402" lon="5.45136">
        <ele>340</ele>
        <time>2019-10-10T07:38:02.788Z</time>
      </trkpt>
      <trkpt lat="46.57412" lon="5.45139">
        <ele>332</ele>
        <time>2019-10-10T07:38:06.799Z</time>
      </trkpt>
      <trkpt lat="46.57413" lon="5.45141">
        <ele>332</ele>
        <time>2019-10-10T07:38:11.784Z</time>
      </trkpt>
      <trkpt lat="46.57414" lon="5.45147">
        <ele>332</ele>
        <time>2019-10-10T07:38:16.779Z</time>
      </trkpt>
      <trkpt lat="46.57415" lon="5.45153">
        <ele>333</ele>
        <time>2019-10-10T07:38:21.766Z</time>
      </trkpt>
      <trkpt lat="46.57412" lon="5.45158">
        <ele>333</ele>
        <time>2019-10-10T07:38:26.789Z</time>
      </trkpt>
      <trkpt lat="46.57414" lon="5.45163">
        <ele>333</ele>
        <time>2019-10-10T07:38:31.776Z</time>
      </trkpt>
      <trkpt lat="46.57416" lon="5.45168">
        <ele>333</ele>
        <time>2019-10-10T07:38:36.765Z</time>
      </trkpt>
      <trkpt lat="46.57417" lon="5.45173">
        <ele>333</ele>
        <time>2019-10-10T07:38:40.774Z</time>
      </trkpt>
      <trkpt lat="46.57418" lon="5.45179">
        <ele>333</ele>
        <time>2019-10-10T07:38:44.777Z</time>
      </trkpt>
      <trkpt lat="46.57419" lon="5.45184">
        <ele>335</ele>
        <time>2019-10-10T07:38:49.785Z</time>
      </trkpt>
      <trkpt lat="46.57421" lon="5.45187">
        <ele>335</ele>
        <time>2019-10-10T07:38:54.771Z</time>
      </trkpt>
      <trkpt lat="46.57422" lon="5.4519">
        <ele>335</ele>
        <time>2019-10-10T07:38:58.780Z</time>
      </trkpt>
      <trkpt lat="46.57425" lon="5.45196">
        <ele>335</ele>
        <time>2019-10-10T07:39:03.768Z</time>
      </trkpt>
      <trkpt lat="46.57428" lon="5.45201">
        <ele>335</ele>
        <time>2019-10-10T07:39:08.760Z</time>
      </trkpt>
      <trkpt lat="46.5743" lon="5.45209">
        <ele>337</ele>
        <time>2019-10-10T07:39:12.779Z</time>
      </trkpt>
      <trkpt lat="46.57431" lon="5.45217">
        <ele>334</ele>
        <time>2019-10-10T07:39:17.762Z</time>
      </trkpt>
      <trkpt lat="46.57432" lon="5.45225">
        <ele>334</ele>
        <time>2019-10-10T07:39:22.801Z</time>
      </trkpt>
      <trkpt lat="46.57436" lon="5.45234">
        <ele>334</ele>
        <time>2019-10-10T07:39:27.770Z</time>
      </trkpt>
      <trkpt lat="46.57439" lon="5.45244">
        <ele>336</ele>
        <time>2019-10-10T07:39:32.788Z</time>
      </trkpt>
      <trkpt lat="46.57442" lon="5.45249">
        <ele>336</ele>
        <time>2019-10-10T07:39:37.766Z</time>
      </trkpt>
      <trkpt lat="46.57444" lon="5.45252">
        <ele>336</ele>
        <time>2019-10-10T07:39:41.785Z</time>
      </trkpt>
      <trkpt lat="46.57443" lon="5.45255">
        <ele>336</ele>
        <time>2019-10-10T07:39:46.799Z</time>
      </trkpt>
      <trkpt lat="46.57448" lon="5.45265">
        <ele>339</ele>
        <time>2019-10-10T07:39:51.782Z</time>
      </trkpt>
      <trkpt lat="46.5745" lon="5.4527">
        <ele>339</ele>
        <time>2019-10-10T07:39:55.799Z</time>
      </trkpt>
      <trkpt lat="46.57455" lon="5.45276">
        <ele>339</ele>
        <time>2019-10-10T07:40:00.784Z</time>
      </trkpt>
      <trkpt lat="46.57458" lon="5.45281">
        <ele>339</ele>
        <time>2019-10-10T07:40:04.791Z</time>
      </trkpt>
      <trkpt lat="46.57458" lon="5.4529">
        <ele>339</ele>
        <time>2019-10-10T07:40:09.777Z</time>
      </trkpt>
      <trkpt lat="46.57458" lon="5.45299">
        <ele>340</ele>
        <time>2019-10-10T07:40:14.774Z</time>
      </trkpt>
      <trkpt lat="46.57459" lon="5.45307">
        <ele>336</ele>
        <time>2019-10-10T07:40:19.775Z</time>
      </trkpt>
      <trkpt lat="46.57461" lon="5.45316">
        <ele>336</ele>
        <time>2019-10-10T07:40:24.775Z</time>
      </trkpt>
      <trkpt lat="46.57464" lon="5.45324">
        <ele>336</ele>
        <time>2019-10-10T07:40:29.779Z</time>
      </trkpt>
      <trkpt lat="46.57469" lon="5.45334">
        <ele>336</ele>
        <time>2019-10-10T07:40:34.774Z</time>
      </trkpt>
      <trkpt lat="46.57473" lon="5.4534">
        <ele>336</ele>
        <time>2019-10-10T07:40:38.787Z</time>
      </trkpt>
      <trkpt lat="46.57475" lon="5.4534">
        <ele>336</ele>
        <time>2019-10-10T07:40:43.790Z</time>
      </trkpt>
      <trkpt lat="46.57479" lon="5.45341">
        <ele>336</ele>
        <time>2019-10-10T07:40:48.805Z</time>
      </trkpt>
      <trkpt lat="46.57479" lon="5.4534">
        <ele>336</ele>
        <time>2019-10-10T07:40:53.781Z</time>
      </trkpt>
      <trkpt lat="46.57479" lon="5.4534">
        <ele>336</ele>
        <time>2019-10-10T07:40:57.799Z</time>
      </trkpt>
      <trkpt lat="46.5748" lon="5.45344">
        <ele>336</ele>
        <time>2019-10-10T07:41:02.772Z</time>
      </trkpt>
      <trkpt lat="46.57479" lon="5.45347">
        <ele>336</ele>
        <time>2019-10-10T07:41:07.783Z</time>
      </trkpt>
      <trkpt lat="46.57479" lon="5.45357">
        <ele>337</ele>
        <time>2019-10-10T07:41:12.778Z</time>
      </trkpt>
      <trkpt lat="46.57479" lon="5.45364">
        <ele>337</ele>
        <time>2019-10-10T07:41:17.767Z</time>
      </trkpt>
      <trkpt lat="46.57478" lon="5.45371">
        <ele>337</ele>
        <time>2019-10-10T07:41:22.775Z</time>
      </trkpt>
      <trkpt lat="46.57476" lon="5.45378">
        <ele>337</ele>
        <time>2019-10-10T07:41:27.776Z</time>
      </trkpt>
      <trkpt lat="46.57478" lon="5.45387">
        <ele>337</ele>
        <time>2019-10-10T07:41:32.766Z</time>
      </trkpt>
      <trkpt lat="46.57481" lon="5.45392">
        <ele>337</ele>
        <time>2019-10-10T07:41:37.761Z</time>
      </trkpt>
      <trkpt lat="46.57484" lon="5.45397">
        <ele>337</ele>
        <time>2019-10-10T07:41:42.764Z</time>
      </trkpt>
      <trkpt lat="46.57485" lon="5.45404">
        <ele>335</ele>
        <time>2019-10-10T07:41:47.761Z</time>
      </trkpt>
      <trkpt lat="46.5748" lon="5.45416">
        <ele>335</ele>
        <time>2019-10-10T07:41:52.791Z</time>
      </trkpt>
      <trkpt lat="46.5748" lon="5.45424">
        <ele>335</ele>
        <time>2019-10-10T07:41:57.800Z</time>
      </trkpt>
      <trkpt lat="46.57477" lon="5.45431">
        <ele>330</ele>
        <time>2019-10-10T07:42:02.782Z</time>
      </trkpt>
      <trkpt lat="46.57475" lon="5.45442">
        <ele>330</ele>
        <time>2019-10-10T07:42:07.794Z</time>
      </trkpt>
      <trkpt lat="46.57475" lon="5.45451">
        <ele>330</ele>
        <time>2019-10-10T07:42:12.766Z</time>
      </trkpt>
      <trkpt lat="46.57474" lon="5.45458">
        <ele>325</ele>
        <time>2019-10-10T07:42:17.775Z</time>
      </trkpt>
      <trkpt lat="46.57469" lon="5.45466">
        <ele>325</ele>
        <time>2019-10-10T07:42:22.766Z</time>
      </trkpt>
      <trkpt lat="46.57466" lon="5.4547">
        <ele>325</ele>
        <time>2019-10-10T07:42:26.776Z</time>
      </trkpt>
      <trkpt lat="46.57463" lon="5.45474">
        <ele>325</ele>
        <time>2019-10-10T07:42:30.791Z</time>
      </trkpt>
      <trkpt lat="46.57461" lon="5.45483">
        <ele>325</ele>
        <time>2019-10-10T07:42:35.773Z</time>
      </trkpt>
      <trkpt lat="46.57457" lon="5.4549">
        <ele>333</ele>
        <time>2019-10-10T07:42:39.802Z</time>
      </trkpt>
      <trkpt lat="46.57454" lon="5.45496">
        <ele>333</ele>
        <time>2019-10-10T07:42:44.771Z</time>
      </trkpt>
      <trkpt lat="46.57451" lon="5.45503">
        <ele>333</ele>
        <time>2019-10-10T07:42:49.790Z</time>
      </trkpt>
      <trkpt lat="46.5745" lon="5.45508">
        <ele>333</ele>
        <time>2019-10-10T07:42:54.767Z</time>
      </trkpt>
      <trkpt lat="46.57449" lon="5.45513">
        <ele>333</ele>
        <time>2019-10-10T07:42:58.793Z</time>
      </trkpt>
      <trkpt lat="46.57447" lon="5.4552">
        <ele>332</ele>
        <time>2019-10-10T07:43:03.771Z</time>
      </trkpt>
      <trkpt lat="46.57444" lon="5.45528">
        <ele>332</ele>
        <time>2019-10-10T07:43:08.781Z</time>
      </trkpt>
      <trkpt lat="46.5744" lon="5.45536">
        <ele>332</ele>
        <time>2019-10-10T07:43:13.787Z</time>
      </trkpt>
      <trkpt lat="46.57436" lon="5.45538">
        <ele>332</ele>
        <time>2019-10-10T07:43:18.790Z</time>
      </trkpt>
      <trkpt lat="46.57432" lon="5.45545">
        <ele>330</ele>
        <time>2019-10-10T07:43:23.775Z</time>
      </trkpt>
      <trkpt lat="46.57428" lon="5.45548">
        <ele>340</ele>
        <time>2019-10-10T07:43:27.785Z</time>
      </trkpt>
      <trkpt lat="46.57424" lon="5.45553">
        <ele>340</ele>
        <time>2019-10-10T07:43:32.770Z</time>
      </trkpt>
      <trkpt lat="46.57422" lon="5.45562">
        <ele>340</ele>
        <time>2019-10-10T07:43:37.776Z</time>
      </trkpt>
      <trkpt lat="46.57417" lon="5.45571">
        <ele>335</ele>
        <time>2019-10-10T07:43:42.765Z</time>
      </trkpt>
      <trkpt lat="46.57411" lon="5.45573">
        <ele>335</ele>
        <time>2019-10-10T07:43:46.774Z</time>
      </trkpt>
      <trkpt lat="46.57408" lon="5.45578">
        <ele>335</ele>
        <time>2019-10-10T07:43:51.776Z</time>
      </trkpt>
      <trkpt lat="46.57403" lon="5.45583">
        <ele>335</ele>
        <time>2019-10-10T07:43:56.776Z</time>
      </trkpt>
      <trkpt lat="46.57403" lon="5.45589">
        <ele>335</ele>
        <time>2019-10-10T07:44:01.786Z</time>
      </trkpt>
      <trkpt lat="46.57399" lon="5.45599">
        <ele>345</ele>
        <time>2019-10-10T07:44:06.772Z</time>
      </trkpt>
      <trkpt lat="46.57393" lon="5.45603">
        <ele>345</ele>
        <time>2019-10-10T07:44:11.770Z</time>
      </trkpt>
      <trkpt lat="46.57388" lon="5.45607">
        <ele>345</ele>
        <time>2019-10-10T07:44:16.779Z</time>
      </trkpt>
      <trkpt lat="46.57383" lon="5.45611">
        <ele>345</ele>
        <time>2019-10-10T07:44:21.779Z</time>
      </trkpt>
      <trkpt lat="46.57379" lon="5.45614">
        <ele>345</ele>
        <time>2019-10-10T07:44:26.783Z</time>
      </trkpt>
      <trkpt lat="46.57374" lon="5.45624">
        <ele>358</ele>
        <time>2019-10-10T07:44:31.778Z</time>
      </trkpt>
      <trkpt lat="46.57371" lon="5.45633">
        <ele>355</ele>
        <time>2019-10-10T07:44:36.793Z</time>
      </trkpt>
      <trkpt lat="46.57368" lon="5.45643">
        <ele>355</ele>
        <time>2019-10-10T07:44:41.775Z</time>
      </trkpt>
      <trkpt lat="46.57366" lon="5.45647">
        <ele>355</ele>
        <time>2019-10-10T07:44:45.784Z</time>
      </trkpt>
      <trkpt lat="46.57367" lon="5.45654">
        <ele>353</ele>
        <time>2019-10-10T07:44:50.757Z</time>
      </trkpt>
      <trkpt lat="46.57365" lon="5.45661">
        <ele>353</ele>
        <time>2019-10-10T07:44:54.780Z</time>
      </trkpt>
      <trkpt lat="46.57362" lon="5.45666">
        <ele>353</ele>
        <time>2019-10-10T07:44:58.784Z</time>
      </trkpt>
      <trkpt lat="46.57361" lon="5.45669">
        <ele>353</ele>
        <time>2019-10-10T07:45:03.769Z</time>
      </trkpt>
      <trkpt lat="46.57359" lon="5.45674">
        <ele>353</ele>
        <time>2019-10-10T07:45:07.774Z</time>
      </trkpt>
      <trkpt lat="46.57355" lon="5.4568">
        <ele>353</ele>
        <time>2019-10-10T07:45:12.790Z</time>
      </trkpt>
      <trkpt lat="46.57351" lon="5.45687">
        <ele>351</ele>
        <time>2019-10-10T07:45:17.769Z</time>
      </trkpt>
      <trkpt lat="46.57349" lon="5.45696">
        <ele>351</ele>
        <time>2019-10-10T07:45:22.779Z</time>
      </trkpt>
      <trkpt lat="46.57343" lon="5.45703">
        <ele>359</ele>
        <time>2019-10-10T07:45:27.774Z</time>
      </trkpt>
      <trkpt lat="46.57338" lon="5.45708">
        <ele>359</ele>
        <time>2019-10-10T07:45:32.765Z</time>
      </trkpt>
      <trkpt lat="46.57336" lon="5.45713">
        <ele>356</ele>
        <time>2019-10-10T07:45:36.777Z</time>
      </trkpt>
      <trkpt lat="46.57336" lon="5.45716">
        <ele>356</ele>
        <time>2019-10-10T07:45:41.767Z</time>
      </trkpt>
      <trkpt lat="46.57334" lon="5.45722">
        <ele>356</ele>
        <time>2019-10-10T07:45:45.784Z</time>
      </trkpt>
      <trkpt lat="46.5733" lon="5.45729">
        <ele>356</ele>
        <time>2019-10-10T07:45:50.774Z</time>
      </trkpt>
      <trkpt lat="46.57326" lon="5.45732">
        <ele>356</ele>
        <time>2019-10-10T07:45:55.785Z</time>
      </trkpt>
      <trkpt lat="46.57324" lon="5.45736">
        <ele>356</ele>
        <time>2019-10-10T07:46:00.774Z</time>
      </trkpt>
      <trkpt lat="46.57322" lon="5.45739">
        <ele>354</ele>
        <time>2019-10-10T07:46:05.763Z</time>
      </trkpt>
      <trkpt lat="46.57317" lon="5.45742">
        <ele>360</ele>
        <time>2019-10-10T07:46:10.765Z</time>
      </trkpt>
      <trkpt lat="46.57312" lon="5.45745">
        <ele>360</ele>
        <time>2019-10-10T07:46:14.790Z</time>
      </trkpt>
      <trkpt lat="46.57307" lon="5.45747">
        <ele>360</ele>
        <time>2019-10-10T07:46:19.752Z</time>
      </trkpt>
      <trkpt lat="46.57303" lon="5.4575">
        <ele>360</ele>
        <time>2019-10-10T07:46:23.777Z</time>
      </trkpt>
      <trkpt lat="46.573" lon="5.45755">
        <ele>360</ele>
        <time>2019-10-10T07:46:28.759Z</time>
      </trkpt>
      <trkpt lat="46.57299" lon="5.45763">
        <ele>360</ele>
        <time>2019-10-10T07:46:32.792Z</time>
      </trkpt>
      <trkpt lat="46.57301" lon="5.4577">
        <ele>362</ele>
        <time>2019-10-10T07:46:36.810Z</time>
      </trkpt>
      <trkpt lat="46.57305" lon="5.45774">
        <ele>362</ele>
        <time>2019-10-10T07:46:41.766Z</time>
      </trkpt>
      <trkpt lat="46.57311" lon="5.45776">
        <ele>362</ele>
        <time>2019-10-10T07:46:46.773Z</time>
      </trkpt>
      <trkpt lat="46.57316" lon="5.45781">
        <ele>362</ele>
        <time>2019-10-10T07:46:51.772Z</time>
      </trkpt>
      <trkpt lat="46.57321" lon="5.45785">
        <ele>356</ele>
        <time>2019-10-10T07:46:55.779Z</time>
      </trkpt>
      <trkpt lat="46.57326" lon="5.45784">
        <ele>356</ele>
        <time>2019-10-10T07:47:00.768Z</time>
      </trkpt>
      <trkpt lat="46.57333" lon="5.4579">
        <ele>356</ele>
        <time>2019-10-10T07:47:04.779Z</time>
      </trkpt>
      <trkpt lat="46.57338" lon="5.45793">
        <ele>362</ele>
        <time>2019-10-10T07:47:09.791Z</time>
      </trkpt>
      <trkpt lat="46.57342" lon="5.45796">
        <ele>362</ele>
        <time>2019-10-10T07:47:14.764Z</time>
      </trkpt>
      <trkpt lat="46.57349" lon="5.458">
        <ele>357</ele>
        <time>2019-10-10T07:47:19.768Z</time>
      </trkpt>
      <trkpt lat="46.57354" lon="5.45803">
        <ele>357</ele>
        <time>2019-10-10T07:47:23.791Z</time>
      </trkpt>
      <trkpt lat="46.57359" lon="5.4581">
        <ele>357</ele>
        <time>2019-10-10T07:47:28.768Z</time>
      </trkpt>
      <trkpt lat="46.57361" lon="5.45813">
        <ele>357</ele>
        <time>2019-10-10T07:47:33.769Z</time>
      </trkpt>
      <trkpt lat="46.57363" lon="5.45819">
        <ele>357</ele>
        <time>2019-10-10T07:47:38.780Z</time>
      </trkpt>
      <trkpt lat="46.57366" lon="5.4582">
        <ele>363</ele>
        <time>2019-10-10T07:47:43.781Z</time>
      </trkpt>
      <trkpt lat="46.57369" lon="5.45826">
        <ele>363</ele>
        <time>2019-10-10T07:47:48.794Z</time>
      </trkpt>
      <trkpt lat="46.57373" lon="5.45832">
        <ele>363</ele>
        <time>2019-10-10T07:47:53.788Z</time>
      </trkpt>
      <trkpt lat="46.57379" lon="5.45837">
        <ele>359</ele>
        <time>2019-10-10T07:47:58.802Z</time>
      </trkpt>
      <trkpt lat="46.57382" lon="5.45842">
        <ele>359</ele>
        <time>2019-10-10T07:48:03.789Z</time>
      </trkpt>
      <trkpt lat="46.57384" lon="5.45846">
        <ele>359</ele>
        <time>2019-10-10T07:48:08.779Z</time>
      </trkpt>
      <trkpt lat="46.57389" lon="5.4585">
        <ele>367</ele>
        <time>2019-10-10T07:48:12.791Z</time>
      </trkpt>
      <trkpt lat="46.57391" lon="5.45856">
        <ele>367</ele>
        <time>2019-10-10T07:48:17.778Z</time>
      </trkpt>
      <trkpt lat="46.57394" lon="5.45859">
        <ele>367</ele>
        <time>2019-10-10T07:48:22.786Z</time>
      </trkpt>
      <trkpt lat="46.57399" lon="5.45865">
        <ele>367</ele>
        <time>2019-10-10T07:48:27.786Z</time>
      </trkpt>
      <trkpt lat="46.57406" lon="5.45868">
        <ele>359</ele>
        <time>2019-10-10T07:48:32.778Z</time>
      </trkpt>
      <trkpt lat="46.57413" lon="5.45876">
        <ele>368</ele>
        <time>2019-10-10T07:48:37.778Z</time>
      </trkpt>
      <trkpt lat="46.57418" lon="5.4588">
        <ele>368</ele>
        <time>2019-10-10T07:48:42.780Z</time>
      </trkpt>
      <trkpt lat="46.57423" lon="5.45883">
        <ele>368</ele>
        <time>2019-10-10T07:48:46.795Z</time>
      </trkpt>
      <trkpt lat="46.57426" lon="5.45888">
        <ele>368</ele>
        <time>2019-10-10T07:48:51.764Z</time>
      </trkpt>
      <trkpt lat="46.57429" lon="5.45893">
        <ele>368</ele>
        <time>2019-10-10T07:48:55.782Z</time>
      </trkpt>
      <trkpt lat="46.57436" lon="5.45898">
        <ele>360</ele>
        <time>2019-10-10T07:49:00.763Z</time>
      </trkpt>
      <trkpt lat="46.5744" lon="5.45898">
        <ele>360</ele>
        <time>2019-10-10T07:49:04.779Z</time>
      </trkpt>
      <trkpt lat="46.57446" lon="5.45901">
        <ele>360</ele>
        <time>2019-10-10T07:49:09.783Z</time>
      </trkpt>
      <trkpt lat="46.57449" lon="5.45898">
        <ele>360</ele>
        <time>2019-10-10T07:49:19.772Z</time>
      </trkpt>
      <trkpt lat="46.57451" lon="5.45897">
        <ele>360</ele>
        <time>2019-10-10T07:49:24.776Z</time>
      </trkpt>
      <trkpt lat="46.57452" lon="5.45893">
        <ele>360</ele>
        <time>2019-10-10T07:49:29.789Z</time>
      </trkpt>
      <trkpt lat="46.57453" lon="5.45891">
        <ele>360</ele>
        <time>2019-10-10T07:49:34.766Z</time>
      </trkpt>
      <trkpt lat="46.57456" lon="5.4589">
        <ele>360</ele>
        <time>2019-10-10T07:49:39.775Z</time>
      </trkpt>
      <trkpt lat="46.57457" lon="5.45878">
        <ele>360</ele>
        <time>2019-10-10T07:51:21.761Z</time>
      </trkpt>
      <trkpt lat="46.57457" lon="5.45878">
        <ele>360</ele>
        <time>2019-10-10T07:51:26.746Z</time>
      </trkpt>
      <trkpt lat="46.57457" lon="5.45878">
        <ele>360</ele>
        <time>2019-10-10T07:51:30.767Z</time>
      </trkpt>
      <trkpt lat="46.57459" lon="5.45876">
        <ele>357</ele>
        <time>2019-10-10T07:51:35.776Z</time>
      </trkpt>
      <trkpt lat="46.57461" lon="5.45873">
        <ele>359</ele>
        <time>2019-10-10T07:51:40.781Z</time>
      </trkpt>
      <trkpt lat="46.57463" lon="5.45873">
        <ele>359</ele>
        <time>2019-10-10T07:51:45.743Z</time>
      </trkpt>
      <trkpt lat="46.57467" lon="5.45871">
        <ele>359</ele>
        <time>2019-10-10T07:51:50.753Z</time>
      </trkpt>
      <trkpt lat="46.57474" lon="5.4587">
        <ele>359</ele>
        <time>2019-10-10T07:51:55.752Z</time>
      </trkpt>
      <trkpt lat="46.57478" lon="5.45871">
        <ele>359</ele>
        <time>2019-10-10T07:52:00.751Z</time>
      </trkpt>
      <trkpt lat="46.57484" lon="5.45873">
        <ele>359</ele>
        <time>2019-10-10T07:52:04.775Z</time>
      </trkpt>
      <trkpt lat="46.5749" lon="5.45873">
        <ele>367</ele>
        <time>2019-10-10T07:52:08.733Z</time>
      </trkpt>
      <trkpt lat="46.57497" lon="5.45873">
        <ele>367</ele>
        <time>2019-10-10T07:52:13.733Z</time>
      </trkpt>
      <trkpt lat="46.57501" lon="5.45874">
        <ele>367</ele>
        <time>2019-10-10T07:52:17.793Z</time>
      </trkpt>
      <trkpt lat="46.57505" lon="5.45872">
        <ele>367</ele>
        <time>2019-10-10T07:52:22.747Z</time>
      </trkpt>
      <trkpt lat="46.57509" lon="5.45869">
        <ele>367</ele>
        <time>2019-10-10T07:52:27.755Z</time>
      </trkpt>
      <trkpt lat="46.57514" lon="5.45866">
        <ele>371</ele>
        <time>2019-10-10T07:52:31.774Z</time>
      </trkpt>
      <trkpt lat="46.57518" lon="5.45868">
        <ele>371</ele>
        <time>2019-10-10T07:52:36.819Z</time>
      </trkpt>
      <trkpt lat="46.57524" lon="5.45871">
        <ele>371</ele>
        <time>2019-10-10T07:52:41.785Z</time>
      </trkpt>
      <trkpt lat="46.57529" lon="5.45872">
        <ele>371</ele>
        <time>2019-10-10T07:52:46.773Z</time>
      </trkpt>
      <trkpt lat="46.57537" lon="5.45872">
        <ele>371</ele>
        <time>2019-10-10T07:52:51.774Z</time>
      </trkpt>
      <trkpt lat="46.57542" lon="5.45871">
        <ele>372</ele>
        <time>2019-10-10T07:52:55.782Z</time>
      </trkpt>
      <trkpt lat="46.57548" lon="5.45871">
        <ele>372</ele>
        <time>2019-10-10T07:53:00.779Z</time>
      </trkpt>
      <trkpt lat="46.57555" lon="5.45871">
        <ele>372</ele>
        <time>2019-10-10T07:53:05.780Z</time>
      </trkpt>
      <trkpt lat="46.57558" lon="5.45867">
        <ele>372</ele>
        <time>2019-10-10T07:53:09.789Z</time>
      </trkpt>
      <trkpt lat="46.57561" lon="5.45863">
        <ele>372</ele>
        <time>2019-10-10T07:53:14.784Z</time>
      </trkpt>
      <trkpt lat="46.57566" lon="5.45865">
        <ele>372</ele>
        <time>2019-10-10T07:56:47.777Z</time>
      </trkpt>
      <trkpt lat="46.57566" lon="5.45865">
        <ele>372</ele>
        <time>2019-10-10T07:56:52.779Z</time>
      </trkpt>
      <trkpt lat="46.57567" lon="5.45865">
        <ele>372</ele>
        <time>2019-10-10T07:56:57.781Z</time>
      </trkpt>
      <trkpt lat="46.5757" lon="5.45863">
        <ele>371</ele>
        <time>2019-10-10T07:57:02.783Z</time>
      </trkpt>
      <trkpt lat="46.57575" lon="5.45861">
        <ele>371</ele>
        <time>2019-10-10T07:57:07.794Z</time>
      </trkpt>
      <trkpt lat="46.57581" lon="5.45861">
        <ele>371</ele>
        <time>2019-10-10T07:57:12.770Z</time>
      </trkpt>
      <trkpt lat="46.57585" lon="5.4586">
        <ele>371</ele>
        <time>2019-10-10T07:57:16.785Z</time>
      </trkpt>
      <trkpt lat="46.57588" lon="5.45858">
        <ele>371</ele>
        <time>2019-10-10T07:57:21.772Z</time>
      </trkpt>
      <trkpt lat="46.57591" lon="5.45859">
        <ele>371</ele>
        <time>2019-10-10T07:57:26.763Z</time>
      </trkpt>
      <trkpt lat="46.57594" lon="5.45865">
        <ele>371</ele>
        <time>2019-10-10T07:57:30.788Z</time>
      </trkpt>
      <trkpt lat="46.57599" lon="5.45871">
        <ele>369</ele>
        <time>2019-10-10T07:57:35.798Z</time>
      </trkpt>
      <trkpt lat="46.57599" lon="5.45873">
        <ele>369</ele>
        <time>2019-10-10T07:57:40.767Z</time>
      </trkpt>
      <trkpt lat="46.57601" lon="5.45874">
        <ele>369</ele>
        <time>2019-10-10T07:57:45.773Z</time>
      </trkpt>
      <trkpt lat="46.57606" lon="5.45876">
        <ele>369</ele>
        <time>2019-10-10T07:57:50.771Z</time>
      </trkpt>
      <trkpt lat="46.5761" lon="5.45878">
        <ele>369</ele>
        <time>2019-10-10T07:57:55.766Z</time>
      </trkpt>
      <trkpt lat="46.57614" lon="5.45882">
        <ele>369</ele>
        <time>2019-10-10T07:57:59.796Z</time>
      </trkpt>
      <trkpt lat="46.57624" lon="5.45887">
        <ele>369</ele>
        <time>2019-10-10T07:58:04.777Z</time>
      </trkpt>
      <trkpt lat="46.57628" lon="5.45887">
        <ele>369</ele>
        <time>2019-10-10T07:58:14.787Z</time>
      </trkpt>
      <trkpt lat="46.57629" lon="5.45887">
        <ele>369</ele>
        <time>2019-10-10T07:58:19.765Z</time>
      </trkpt>
      <trkpt lat="46.57632" lon="5.45887">
        <ele>369</ele>
        <time>2019-10-10T07:58:23.784Z</time>
      </trkpt>
      <trkpt lat="46.57634" lon="5.45886">
        <ele>369</ele>
        <time>2019-10-10T07:58:27.808Z</time>
      </trkpt>
      <trkpt lat="46.57637" lon="5.45884">
        <ele>369</ele>
        <time>2019-10-10T07:58:32.775Z</time>
      </trkpt>
      <trkpt lat="46.57638" lon="5.45883">
        <ele>369</ele>
        <time>2019-10-10T07:58:37.774Z</time>
      </trkpt>
      <trkpt lat="46.57639" lon="5.45882">
        <ele>369</ele>
        <time>2019-10-10T07:58:41.789Z</time>
      </trkpt>
      <trkpt lat="46.57642" lon="5.4588">
        <ele>369</ele>
        <time>2019-10-10T07:58:46.779Z</time>
      </trkpt>
      <trkpt lat="46.57644" lon="5.4588">
        <ele>369</ele>
        <time>2019-10-10T07:58:51.777Z</time>
      </trkpt>
      <trkpt lat="46.57648" lon="5.45877">
        <ele>369</ele>
        <time>2019-10-10T07:58:55.802Z</time>
      </trkpt>
      <trkpt lat="46.57654" lon="5.45872">
        <ele>365</ele>
        <time>2019-10-10T07:59:00.785Z</time>
      </trkpt>
      <trkpt lat="46.57663" lon="5.45867">
        <ele>365</ele>
        <time>2019-10-10T07:59:05.774Z</time>
      </trkpt>
      <trkpt lat="46.57668" lon="5.45865">
        <ele>365</ele>
        <time>2019-10-10T07:59:09.790Z</time>
      </trkpt>
      <trkpt lat="46.57678" lon="5.45866">
        <ele>365</ele>
        <time>2019-10-10T07:59:14.782Z</time>
      </trkpt>
      <trkpt lat="46.57692" lon="5.45859">
        <ele>362</ele>
        <time>2019-10-10T07:59:33.780Z</time>
      </trkpt>
      <trkpt lat="46.57695" lon="5.45856">
        <ele>362</ele>
        <time>2019-10-10T07:59:37.796Z</time>
      </trkpt>
      <trkpt lat="46.57697" lon="5.45851">
        <ele>362</ele>
        <time>2019-10-10T07:59:42.794Z</time>
      </trkpt>
      <trkpt lat="46.57702" lon="5.45843">
        <ele>357</ele>
        <time>2019-10-10T07:59:47.774Z</time>
      </trkpt>
      <trkpt lat="46.57704" lon="5.45838">
        <ele>357</ele>
        <time>2019-10-10T07:59:51.789Z</time>
      </trkpt>
      <trkpt lat="46.57706" lon="5.45831">
        <ele>357</ele>
        <time>2019-10-10T07:59:56.767Z</time>
      </trkpt>
      <trkpt lat="46.57707" lon="5.45827">
        <ele>357</ele>
        <time>2019-10-10T08:00:00.792Z</time>
      </trkpt>
      <trkpt lat="46.57707" lon="5.45821">
        <ele>357</ele>
        <time>2019-10-10T08:00:05.779Z</time>
      </trkpt>
      <trkpt lat="46.57707" lon="5.45813">
        <ele>354</ele>
        <time>2019-10-10T08:00:10.773Z</time>
      </trkpt>
      <trkpt lat="46.57707" lon="5.45804">
        <ele>354</ele>
        <time>2019-10-10T08:00:15.783Z</time>
      </trkpt>
      <trkpt lat="46.57708" lon="5.45797">
        <ele>354</ele>
        <time>2019-10-10T08:00:20.793Z</time>
      </trkpt>
      <trkpt lat="46.5771" lon="5.4579">
        <ele>348</ele>
        <time>2019-10-10T08:00:25.796Z</time>
      </trkpt>
      <trkpt lat="46.57711" lon="5.45779">
        <ele>348</ele>
        <time>2019-10-10T08:00:30.768Z</time>
      </trkpt>
      <trkpt lat="46.57716" lon="5.45777">
        <ele>348</ele>
        <time>2019-10-10T08:00:34.791Z</time>
      </trkpt>
      <trkpt lat="46.57726" lon="5.45772">
        <ele>348</ele>
        <time>2019-10-10T08:00:39.770Z</time>
      </trkpt>
      <trkpt lat="46.57735" lon="5.45767">
        <ele>348</ele>
        <time>2019-10-10T08:00:44.777Z</time>
      </trkpt>
      <trkpt lat="46.5774" lon="5.45762">
        <ele>346</ele>
        <time>2019-10-10T08:00:49.769Z</time>
      </trkpt>
      <trkpt lat="46.57746" lon="5.45761">
        <ele>346</ele>
        <time>2019-10-10T08:00:53.780Z</time>
      </trkpt>
      <trkpt lat="46.5775" lon="5.45761">
        <ele>346</ele>
        <time>2019-10-10T08:00:58.779Z</time>
      </trkpt>
      <trkpt lat="46.57755" lon="5.45761">
        <ele>346</ele>
        <time>2019-10-10T08:01:03.776Z</time>
      </trkpt>
      <trkpt lat="46.57759" lon="5.45761">
        <ele>346</ele>
        <time>2019-10-10T08:01:07.795Z</time>
      </trkpt>
      <trkpt lat="46.57762" lon="5.45759">
        <ele>346</ele>
        <time>2019-10-10T08:01:12.778Z</time>
      </trkpt>
      <trkpt lat="46.57766" lon="5.45758">
        <ele>343</ele>
        <time>2019-10-10T08:01:17.812Z</time>
      </trkpt>
      <trkpt lat="46.57772" lon="5.45758">
        <ele>343</ele>
        <time>2019-10-10T08:01:22.771Z</time>
      </trkpt>
      <trkpt lat="46.57778" lon="5.45756">
        <ele>343</ele>
        <time>2019-10-10T08:01:26.786Z</time>
      </trkpt>
      <trkpt lat="46.5778" lon="5.45755">
        <ele>343</ele>
        <time>2019-10-10T08:01:31.770Z</time>
      </trkpt>
      <trkpt lat="46.57787" lon="5.45755">
        <ele>343</ele>
        <time>2019-10-10T08:01:36.771Z</time>
      </trkpt>
      <trkpt lat="46.57796" lon="5.45757">
        <ele>336</ele>
        <time>2019-10-10T08:01:40.781Z</time>
      </trkpt>
      <trkpt lat="46.57806" lon="5.45757">
        <ele>336</ele>
        <time>2019-10-10T08:01:45.792Z</time>
      </trkpt>
      <trkpt lat="46.57812" lon="5.45758">
        <ele>336</ele>
        <time>2019-10-10T08:01:50.773Z</time>
      </trkpt>
      <trkpt lat="46.57813" lon="5.45757">
        <ele>336</ele>
        <time>2019-10-10T08:01:55.789Z</time>
      </trkpt>
      <trkpt lat="46.5782" lon="5.45758">
        <ele>330</ele>
        <time>2019-10-10T08:02:00.759Z</time>
      </trkpt>
      <trkpt lat="46.57825" lon="5.4576">
        <ele>330</ele>
        <time>2019-10-10T08:02:05.765Z</time>
      </trkpt>
      <trkpt lat="46.57827" lon="5.45764">
        <ele>330</ele>
        <time>2019-10-10T08:02:10.763Z</time>
      </trkpt>
      <trkpt lat="46.57828" lon="5.45765">
        <ele>335</ele>
        <time>2019-10-10T08:02:14.779Z</time>
      </trkpt>
      <trkpt lat="46.5783" lon="5.45767">
        <ele>335</ele>
        <time>2019-10-10T08:02:19.773Z</time>
      </trkpt>
      <trkpt lat="46.57835" lon="5.45767">
        <ele>335</ele>
        <time>2019-10-10T08:02:24.793Z</time>
      </trkpt>
      <trkpt lat="46.57845" lon="5.45771">
        <ele>335</ele>
        <time>2019-10-10T08:02:29.790Z</time>
      </trkpt>
      <trkpt lat="46.57853" lon="5.45775">
        <ele>332</ele>
        <time>2019-10-10T08:02:34.772Z</time>
      </trkpt>
      <trkpt lat="46.57859" lon="5.45776">
        <ele>332</ele>
        <time>2019-10-10T08:02:39.795Z</time>
      </trkpt>
      <trkpt lat="46.57863" lon="5.4578">
        <ele>332</ele>
        <time>2019-10-10T08:02:44.762Z</time>
      </trkpt>
      <trkpt lat="46.57866" lon="5.45781">
        <ele>332</ele>
        <time>2019-10-10T08:02:48.777Z</time>
      </trkpt>
      <trkpt lat="46.57869" lon="5.45781">
        <ele>332</ele>
        <time>2019-10-10T08:02:53.802Z</time>
      </trkpt>
      <trkpt lat="46.57876" lon="5.45783">
        <ele>330</ele>
        <time>2019-10-10T08:02:58.758Z</time>
      </trkpt>
      <trkpt lat="46.57877" lon="5.45784">
        <ele>330</ele>
        <time>2019-10-10T08:03:02.773Z</time>
      </trkpt>
      <trkpt lat="46.57879" lon="5.45785">
        <ele>330</ele>
        <time>2019-10-10T08:03:07.803Z</time>
      </trkpt>
      <trkpt lat="46.5789" lon="5.4579">
        <ele>330</ele>
        <time>2019-10-10T08:03:12.763Z</time>
      </trkpt>
      <trkpt lat="46.57898" lon="5.45794">
        <ele>336</ele>
        <time>2019-10-10T08:03:16.774Z</time>
      </trkpt>
      <trkpt lat="46.57907" lon="5.45792">
        <ele>333</ele>
        <time>2019-10-10T08:03:21.784Z</time>
      </trkpt>
      <trkpt lat="46.57915" lon="5.45789">
        <ele>328</ele>
        <time>2019-10-10T08:03:26.767Z</time>
      </trkpt>
      <trkpt lat="46.57922" lon="5.45789">
        <ele>328</ele>
        <time>2019-10-10T08:03:31.764Z</time>
      </trkpt>
      <trkpt lat="46.57924" lon="5.45788">
        <ele>328</ele>
        <time>2019-10-10T08:03:35.784Z</time>
      </trkpt>
      <trkpt lat="46.57927" lon="5.45789">
        <ele>328</ele>
        <time>2019-10-10T08:03:40.788Z</time>
      </trkpt>
      <trkpt lat="46.57931" lon="5.45789">
        <ele>325</ele>
        <time>2019-10-10T08:03:45.781Z</time>
      </trkpt>
      <trkpt lat="46.57939" lon="5.45788">
        <ele>325</ele>
        <time>2019-10-10T08:03:50.768Z</time>
      </trkpt>
      <trkpt lat="46.57949" lon="5.45788">
        <ele>325</ele>
        <time>2019-10-10T08:03:54.801Z</time>
      </trkpt>
      <trkpt lat="46.57953" lon="5.45787">
        <ele>325</ele>
        <time>2019-10-10T08:03:59.778Z</time>
      </trkpt>
      <trkpt lat="46.57955" lon="5.45785">
        <ele>325</ele>
        <time>2019-10-10T08:04:03.791Z</time>
      </trkpt>
      <trkpt lat="46.57957" lon="5.45784">
        <ele>325</ele>
        <time>2019-10-10T08:04:08.787Z</time>
      </trkpt>
      <trkpt lat="46.57963" lon="5.45781">
        <ele>324</ele>
        <time>2019-10-10T08:04:13.771Z</time>
      </trkpt>
      <trkpt lat="46.57972" lon="5.45776">
        <ele>324</ele>
        <time>2019-10-10T08:04:18.777Z</time>
      </trkpt>
      <trkpt lat="46.57979" lon="5.45774">
        <ele>324</ele>
        <time>2019-10-10T08:04:23.770Z</time>
      </trkpt>
      <trkpt lat="46.57984" lon="5.45773">
        <ele>324</ele>
        <time>2019-10-10T08:04:28.788Z</time>
      </trkpt>
      <trkpt lat="46.57993" lon="5.45769">
        <ele>322</ele>
        <time>2019-10-10T08:04:33.786Z</time>
      </trkpt>
      <trkpt lat="46.57997" lon="5.45766">
        <ele>322</ele>
        <time>2019-10-10T08:04:38.766Z</time>
      </trkpt>
      <trkpt lat="46.58002" lon="5.45761">
        <ele>318</ele>
        <time>2019-10-10T08:04:43.777Z</time>
      </trkpt>
      <trkpt lat="46.58008" lon="5.4576">
        <ele>318</ele>
        <time>2019-10-10T08:04:48.774Z</time>
      </trkpt>
      <trkpt lat="46.58011" lon="5.4576">
        <ele>318</ele>
        <time>2019-10-10T08:04:52.788Z</time>
      </trkpt>
      <trkpt lat="46.58015" lon="5.45759">
        <ele>316</ele>
        <time>2019-10-10T08:04:57.761Z</time>
      </trkpt>
      <trkpt lat="46.58017" lon="5.45758">
        <ele>316</ele>
        <time>2019-10-10T08:05:01.778Z</time>
      </trkpt>
      <trkpt lat="46.58019" lon="5.45755">
        <ele>316</ele>
        <time>2019-10-10T08:05:06.765Z</time>
      </trkpt>
      <trkpt lat="46.58021" lon="5.45753">
        <ele>316</ele>
        <time>2019-10-10T08:05:10.775Z</time>
      </trkpt>
      <trkpt lat="46.58025" lon="5.45749">
        <ele>316</ele>
        <time>2019-10-10T08:05:15.786Z</time>
      </trkpt>
      <trkpt lat="46.58028" lon="5.45745">
        <ele>316</ele>
        <time>2019-10-10T08:05:20.779Z</time>
      </trkpt>
      <trkpt lat="46.58033" lon="5.4574">
        <ele>316</ele>
        <time>2019-10-10T08:05:25.772Z</time>
      </trkpt>
      <trkpt lat="46.58037" lon="5.45736">
        <ele>314</ele>
        <time>2019-10-10T08:05:30.780Z</time>
      </trkpt>
      <trkpt lat="46.58036" lon="5.45729">
        <ele>314</ele>
        <time>2019-10-10T08:05:35.777Z</time>
      </trkpt>
      <trkpt lat="46.58039" lon="5.45724">
        <ele>314</ele>
        <time>2019-10-10T08:05:40.790Z</time>
      </trkpt>
      <trkpt lat="46.58041" lon="5.45718">
        <ele>314</ele>
        <time>2019-10-10T08:05:45.785Z</time>
      </trkpt>
      <trkpt lat="46.58042" lon="5.45714">
        <ele>310</ele>
        <time>2019-10-10T08:05:50.790Z</time>
      </trkpt>
      <trkpt lat="46.58042" lon="5.45708">
        <ele>308</ele>
        <time>2019-10-10T08:05:55.759Z</time>
      </trkpt>
      <trkpt lat="46.58042" lon="5.45704">
        <ele>308</ele>
        <time>2019-10-10T08:05:59.776Z</time>
      </trkpt>
      <trkpt lat="46.58046" lon="5.457">
        <ele>308</ele>
        <time>2019-10-10T08:06:04.768Z</time>
      </trkpt>
      <trkpt lat="46.58049" lon="5.45695">
        <ele>308</ele>
        <time>2019-10-10T08:06:09.770Z</time>
      </trkpt>
      <trkpt lat="46.58046" lon="5.45688">
        <ele>308</ele>
        <time>2019-10-10T08:06:14.789Z</time>
      </trkpt>
      <trkpt lat="46.58047" lon="5.45685">
        <ele>308</ele>
        <time>2019-10-10T08:06:19.776Z</time>
      </trkpt>
      <trkpt lat="46.58048" lon="5.4568">
        <ele>304</ele>
        <time>2019-10-10T08:06:24.771Z</time>
      </trkpt>
      <trkpt lat="46.58048" lon="5.45672">
        <ele>304</ele>
        <time>2019-10-10T08:06:29.774Z</time>
      </trkpt>
      <trkpt lat="46.58046" lon="5.45651">
        <ele>300</ele>
        <time>2019-10-10T08:06:48.740Z</time>
      </trkpt>
      <trkpt lat="46.58054" lon="5.45653">
        <ele>304</ele>
        <time>2019-10-10T08:06:53.759Z</time>
      </trkpt>
      <trkpt lat="46.5806" lon="5.45657">
        <ele>304</ele>
        <time>2019-10-10T08:06:57.763Z</time>
      </trkpt>
      <trkpt lat="46.58068" lon="5.45659">
        <ele>304</ele>
        <time>2019-10-10T08:07:02.803Z</time>
      </trkpt>
      <trkpt lat="46.58071" lon="5.45659">
        <ele>300</ele>
        <time>2019-10-10T08:07:07.773Z</time>
      </trkpt>
      <trkpt lat="46.58071" lon="5.45652">
        <ele>295</ele>
        <time>2019-10-10T08:07:30.770Z</time>
      </trkpt>
      <trkpt lat="46.58076" lon="5.45652">
        <ele>295</ele>
        <time>2019-10-10T08:07:35.772Z</time>
      </trkpt>
      <trkpt lat="46.58082" lon="5.45653">
        <ele>300</ele>
        <time>2019-10-10T08:07:39.782Z</time>
      </trkpt>
      <trkpt lat="46.58085" lon="5.45657">
        <ele>300</ele>
        <time>2019-10-10T08:07:44.778Z</time>
      </trkpt>
      <trkpt lat="46.58094" lon="5.45661">
        <ele>300</ele>
        <time>2019-10-10T08:07:49.789Z</time>
      </trkpt>
      <trkpt lat="46.58099" lon="5.45667">
        <ele>294</ele>
        <time>2019-10-10T08:08:14.772Z</time>
      </trkpt>
      <trkpt lat="46.5811" lon="5.45676">
        <ele>294</ele>
        <time>2019-10-10T08:08:19.798Z</time>
      </trkpt>
      <trkpt lat="46.58112" lon="5.45679">
        <ele>294</ele>
        <time>2019-10-10T08:08:24.764Z</time>
      </trkpt>
      <trkpt lat="46.58115" lon="5.45687">
        <ele>297</ele>
        <time>2019-10-10T08:08:28.784Z</time>
      </trkpt>
      <trkpt lat="46.58117" lon="5.45693">
        <ele>297</ele>
        <time>2019-10-10T08:08:33.779Z</time>
      </trkpt>
      <trkpt lat="46.58117" lon="5.45695">
        <ele>297</ele>
        <time>2019-10-10T08:08:37.797Z</time>
      </trkpt>
      <trkpt lat="46.5812" lon="5.45698">
        <ele>297</ele>
        <time>2019-10-10T08:08:42.796Z</time>
      </trkpt>
      <trkpt lat="46.58122" lon="5.457">
        <ele>297</ele>
        <time>2019-10-10T08:08:47.761Z</time>
      </trkpt>
      <trkpt lat="46.58127" lon="5.45705">
        <ele>287</ele>
        <time>2019-10-10T08:08:51.772Z</time>
      </trkpt>
      <trkpt lat="46.58131" lon="5.45707">
        <ele>287</ele>
        <time>2019-10-10T08:08:56.773Z</time>
      </trkpt>
      <trkpt lat="46.58139" lon="5.45717">
        <ele>290</ele>
        <time>2019-10-10T08:09:01.782Z</time>
      </trkpt>
      <trkpt lat="46.5814" lon="5.45718">
        <ele>290</ele>
        <time>2019-10-10T08:09:06.776Z</time>
      </trkpt>
      <trkpt lat="46.58142" lon="5.4572">
        <ele>290</ele>
        <time>2019-10-10T08:09:11.780Z</time>
      </trkpt>
      <trkpt lat="46.5814" lon="5.45721">
        <ele>290</ele>
        <time>2019-10-10T08:10:31.757Z</time>
      </trkpt>
      <trkpt lat="46.5814" lon="5.45721">
        <ele>290</ele>
        <time>2019-10-10T08:10:36.758Z</time>
      </trkpt>
      <trkpt lat="46.5814" lon="5.45724">
        <ele>290</ele>
        <time>2019-10-10T08:10:41.752Z</time>
      </trkpt>
      <trkpt lat="46.58137" lon="5.45726">
        <ele>290</ele>
        <time>2019-10-10T08:10:45.780Z</time>
      </trkpt>
      <trkpt lat="46.5814" lon="5.45733">
        <ele>290</ele>
        <time>2019-10-10T08:10:50.787Z</time>
      </trkpt>
      <trkpt lat="46.58143" lon="5.45737">
        <ele>292</ele>
        <time>2019-10-10T08:10:55.787Z</time>
      </trkpt>
      <trkpt lat="46.58152" lon="5.45741">
        <ele>292</ele>
        <time>2019-10-10T08:10:59.797Z</time>
      </trkpt>
      <trkpt lat="46.58152" lon="5.45746">
        <ele>292</ele>
        <time>2019-10-10T08:11:04.791Z</time>
      </trkpt>
      <trkpt lat="46.58153" lon="5.4575">
        <ele>283</ele>
        <time>2019-10-10T08:11:09.780Z</time>
      </trkpt>
      <trkpt lat="46.58155" lon="5.45754">
        <ele>283</ele>
        <time>2019-10-10T08:11:14.789Z</time>
      </trkpt>
      <trkpt lat="46.58157" lon="5.45757">
        <ele>283</ele>
        <time>2019-10-10T08:11:19.793Z</time>
      </trkpt>
      <trkpt lat="46.58156" lon="5.45764">
        <ele>285</ele>
        <time>2019-10-10T08:11:24.779Z</time>
      </trkpt>
      <trkpt lat="46.58159" lon="5.45771">
        <ele>285</ele>
        <time>2019-10-10T08:11:29.778Z</time>
      </trkpt>
      <trkpt lat="46.58166" lon="5.4578">
        <ele>285</ele>
        <time>2019-10-10T08:11:34.783Z</time>
      </trkpt>
      <trkpt lat="46.58174" lon="5.4579">
        <ele>285</ele>
        <time>2019-10-10T08:11:39.785Z</time>
      </trkpt>
      <trkpt lat="46.58181" lon="5.45798">
        <ele>283</ele>
        <time>2019-10-10T08:11:44.781Z</time>
      </trkpt>
      <trkpt lat="46.58186" lon="5.45803">
        <ele>283</ele>
        <time>2019-10-10T08:11:49.781Z</time>
      </trkpt>
      <trkpt lat="46.5819" lon="5.45807">
        <ele>283</ele>
        <time>2019-10-10T08:11:54.764Z</time>
      </trkpt>
      <trkpt lat="46.58194" lon="5.4581">
        <ele>283</ele>
        <time>2019-10-10T08:11:58.778Z</time>
      </trkpt>
      <trkpt lat="46.582" lon="5.45812">
        <ele>283</ele>
        <time>2019-10-10T08:12:02.785Z</time>
      </trkpt>
      <trkpt lat="46.582" lon="5.45815">
        <ele>283</ele>
        <time>2019-10-10T08:12:07.773Z</time>
      </trkpt>
      <trkpt lat="46.58205" lon="5.45819">
        <ele>283</ele>
        <time>2019-10-10T08:12:30.775Z</time>
      </trkpt>
      <trkpt lat="46.58209" lon="5.45825">
        <ele>280</ele>
        <time>2019-10-10T08:12:35.772Z</time>
      </trkpt>
      <trkpt lat="46.58213" lon="5.45831">
        <ele>280</ele>
        <time>2019-10-10T08:12:39.784Z</time>
      </trkpt>
      <trkpt lat="46.58216" lon="5.45836">
        <ele>280</ele>
        <time>2019-10-10T08:12:44.765Z</time>
      </trkpt>
      <trkpt lat="46.58223" lon="5.45846">
        <ele>280</ele>
        <time>2019-10-10T08:12:48.796Z</time>
      </trkpt>
      <trkpt lat="46.58227" lon="5.4585">
        <ele>281</ele>
        <time>2019-10-10T08:12:53.784Z</time>
      </trkpt>
      <trkpt lat="46.58234" lon="5.45853">
        <ele>281</ele>
        <time>2019-10-10T08:12:58.771Z</time>
      </trkpt>
      <trkpt lat="46.58241" lon="5.45854">
        <ele>275</ele>
        <time>2019-10-10T08:13:03.774Z</time>
      </trkpt>
      <trkpt lat="46.58246" lon="5.45854">
        <ele>275</ele>
        <time>2019-10-10T08:13:07.786Z</time>
      </trkpt>
      <trkpt lat="46.58254" lon="5.45855">
        <ele>275</ele>
        <time>2019-10-10T08:13:12.755Z</time>
      </trkpt>
      <trkpt lat="46.58262" lon="5.45855">
        <ele>275</ele>
        <time>2019-10-10T08:13:17.772Z</time>
      </trkpt>
      <trkpt lat="46.58266" lon="5.45855">
        <ele>273</ele>
        <time>2019-10-10T08:13:21.800Z</time>
      </trkpt>
      <trkpt lat="46.58271" lon="5.45854">
        <ele>273</ele>
        <time>2019-10-10T08:13:26.764Z</time>
      </trkpt>
      <trkpt lat="46.58277" lon="5.45852">
        <ele>273</ele>
        <time>2019-10-10T08:13:31.775Z</time>
      </trkpt>
      <trkpt lat="46.58282" lon="5.45848">
        <ele>273</ele>
        <time>2019-10-10T08:13:35.780Z</time>
      </trkpt>
      <trkpt lat="46.58289" lon="5.45843">
        <ele>273</ele>
        <time>2019-10-10T08:13:40.767Z</time>
      </trkpt>
      <trkpt lat="46.58293" lon="5.4584">
        <ele>273</ele>
        <time>2019-10-10T08:13:44.782Z</time>
      </trkpt>
      <trkpt lat="46.58298" lon="5.45838">
        <ele>273</ele>
        <time>2019-10-10T08:13:49.795Z</time>
      </trkpt>
      <trkpt lat="46.58305" lon="5.45833">
        <ele>273</ele>
        <time>2019-10-10T08:13:54.788Z</time>
      </trkpt>
      <trkpt lat="46.5831" lon="5.4583">
        <ele>273</ele>
        <time>2019-10-10T08:13:59.765Z</time>
      </trkpt>
      <trkpt lat="46.58315" lon="5.45826">
        <ele>273</ele>
        <time>2019-10-10T08:14:03.783Z</time>
      </trkpt>
      <trkpt lat="46.58321" lon="5.45822">
        <ele>270</ele>
        <time>2019-10-10T08:14:08.789Z</time>
      </trkpt>
      <trkpt lat="46.58326" lon="5.45819">
        <ele>268</ele>
        <time>2019-10-10T08:14:13.798Z</time>
      </trkpt>
      <trkpt lat="46.5833" lon="5.45819">
        <ele>268</ele>
        <time>2019-10-10T08:14:18.803Z</time>
      </trkpt>
      <trkpt lat="46.58334" lon="5.45819">
        <ele>268</ele>
        <time>2019-10-10T08:14:23.778Z</time>
      </trkpt>
      <trkpt lat="46.58337" lon="5.45816">
        <ele>268</ele>
        <time>2019-10-10T08:14:27.801Z</time>
      </trkpt>
      <trkpt lat="46.58343" lon="5.45812">
        <ele>268</ele>
        <time>2019-10-10T08:14:32.769Z</time>
      </trkpt>
      <trkpt lat="46.58348" lon="5.4581">
        <ele>265</ele>
        <time>2019-10-10T08:14:36.784Z</time>
      </trkpt>
      <trkpt lat="46.58355" lon="5.45806">
        <ele>265</ele>
        <time>2019-10-10T08:14:41.791Z</time>
      </trkpt>
      <trkpt lat="46.58361" lon="5.45802">
        <ele>265</ele>
        <time>2019-10-10T08:14:46.787Z</time>
      </trkpt>
      <trkpt lat="46.58366" lon="5.45799">
        <ele>265</ele>
        <time>2019-10-10T08:14:51.775Z</time>
      </trkpt>
      <trkpt lat="46.5837" lon="5.45796">
        <ele>265</ele>
        <time>2019-10-10T08:14:56.785Z</time>
      </trkpt>
      <trkpt lat="46.58371" lon="5.45795">
        <ele>265</ele>
        <time>2019-10-10T08:15:01.787Z</time>
      </trkpt>
      <trkpt lat="46.58392" lon="5.45799">
        <ele>263</ele>
        <time>2019-10-10T08:15:41.780Z</time>
      </trkpt>
      <trkpt lat="46.58394" lon="5.45803">
        <ele>263</ele>
        <time>2019-10-10T08:15:46.789Z</time>
      </trkpt>
      <trkpt lat="46.58399" lon="5.45813">
        <ele>263</ele>
        <time>2019-10-10T08:15:51.797Z</time>
      </trkpt>
      <trkpt lat="46.58401" lon="5.45818">
        <ele>263</ele>
        <time>2019-10-10T08:15:56.770Z</time>
      </trkpt>
      <trkpt lat="46.58404" lon="5.45824">
        <ele>263</ele>
        <time>2019-10-10T08:16:00.793Z</time>
      </trkpt>
      <trkpt lat="46.58409" lon="5.45831">
        <ele>263</ele>
        <time>2019-10-10T08:16:05.771Z</time>
      </trkpt>
      <trkpt lat="46.58413" lon="5.45836">
        <ele>263</ele>
        <time>2019-10-10T08:16:10.791Z</time>
      </trkpt>
      <trkpt lat="46.58417" lon="5.4584">
        <ele>263</ele>
        <time>2019-10-10T08:16:15.773Z</time>
      </trkpt>
      <trkpt lat="46.58426" lon="5.45848">
        <ele>266</ele>
        <time>2019-10-10T08:16:20.792Z</time>
      </trkpt>
      <trkpt lat="46.58432" lon="5.45854">
        <ele>264</ele>
        <time>2019-10-10T08:16:25.762Z</time>
      </trkpt>
      <trkpt lat="46.58438" lon="5.45857">
        <ele>264</ele>
        <time>2019-10-10T08:16:29.782Z</time>
      </trkpt>
      <trkpt lat="46.58443" lon="5.45861">
        <ele>264</ele>
        <time>2019-10-10T08:16:34.776Z</time>
      </trkpt>
      <trkpt lat="46.58447" lon="5.45866">
        <ele>264</ele>
        <time>2019-10-10T08:16:39.756Z</time>
      </trkpt>
      <trkpt lat="46.58452" lon="5.4587">
        <ele>264</ele>
        <time>2019-10-10T08:16:43.772Z</time>
      </trkpt>
      <trkpt lat="46.58454" lon="5.45872">
        <ele>264</ele>
        <time>2019-10-10T08:16:47.797Z</time>
      </trkpt>
      <trkpt lat="46.5846" lon="5.45876">
        <ele>264</ele>
        <time>2019-10-10T08:16:52.781Z</time>
      </trkpt>
      <trkpt lat="46.58464" lon="5.4588">
        <ele>264</ele>
        <time>2019-10-10T08:16:57.779Z</time>
      </trkpt>
      <trkpt lat="46.5847" lon="5.45885">
        <ele>264</ele>
        <time>2019-10-10T08:17:02.777Z</time>
      </trkpt>
      <trkpt lat="46.58474" lon="5.45888">
        <ele>264</ele>
        <time>2019-10-10T08:17:07.785Z</time>
      </trkpt>
      <trkpt lat="46.5848" lon="5.45894">
        <ele>264</ele>
        <time>2019-10-10T08:17:12.792Z</time>
      </trkpt>
      <trkpt lat="46.58484" lon="5.45901">
        <ele>264</ele>
        <time>2019-10-10T08:17:17.782Z</time>
      </trkpt>
      <trkpt lat="46.58488" lon="5.45907">
        <ele>265</ele>
        <time>2019-10-10T08:17:22.793Z</time>
      </trkpt>
      <trkpt lat="46.58492" lon="5.45911">
        <ele>265</ele>
        <time>2019-10-10T08:17:27.782Z</time>
      </trkpt>
      <trkpt lat="46.58497" lon="5.45917">
        <ele>265</ele>
        <time>2019-10-10T08:17:32.767Z</time>
      </trkpt>
      <trkpt lat="46.58501" lon="5.45923">
        <ele>265</ele>
        <time>2019-10-10T08:17:37.777Z</time>
      </trkpt>
      <trkpt lat="46.58504" lon="5.45927">
        <ele>265</ele>
        <time>2019-10-10T08:17:41.801Z</time>
      </trkpt>
      <trkpt lat="46.58508" lon="5.45931">
        <ele>268</ele>
        <time>2019-10-10T08:17:46.772Z</time>
      </trkpt>
      <trkpt lat="46.58512" lon="5.45937">
        <ele>268</ele>
        <time>2019-10-10T08:17:51.768Z</time>
      </trkpt>
      <trkpt lat="46.58516" lon="5.45943">
        <ele>265</ele>
        <time>2019-10-10T08:17:55.776Z</time>
      </trkpt>
      <trkpt lat="46.5852" lon="5.45948">
        <ele>265</ele>
        <time>2019-10-10T08:18:00.779Z</time>
      </trkpt>
      <trkpt lat="46.58524" lon="5.45956">
        <ele>265</ele>
        <time>2019-10-10T08:18:05.774Z</time>
      </trkpt>
      <trkpt lat="46.58529" lon="5.45964">
        <ele>267</ele>
        <time>2019-10-10T08:18:10.770Z</time>
      </trkpt>
      <trkpt lat="46.58531" lon="5.45972">
        <ele>267</ele>
        <time>2019-10-10T08:18:15.783Z</time>
      </trkpt>
      <trkpt lat="46.58534" lon="5.45978">
        <ele>267</ele>
        <time>2019-10-10T08:18:20.775Z</time>
      </trkpt>
      <trkpt lat="46.58536" lon="5.45984">
        <ele>267</ele>
        <time>2019-10-10T08:18:24.794Z</time>
      </trkpt>
      <trkpt lat="46.5854" lon="5.45991">
        <ele>271</ele>
        <time>2019-10-10T08:18:29.770Z</time>
      </trkpt>
      <trkpt lat="46.58542" lon="5.45997">
        <ele>265</ele>
        <time>2019-10-10T08:18:34.773Z</time>
      </trkpt>
      <trkpt lat="46.58546" lon="5.46006">
        <ele>265</ele>
        <time>2019-10-10T08:18:39.781Z</time>
      </trkpt>
      <trkpt lat="46.5855" lon="5.46016">
        <ele>267</ele>
        <time>2019-10-10T08:18:44.777Z</time>
      </trkpt>
      <trkpt lat="46.58554" lon="5.46024">
        <ele>267</ele>
        <time>2019-10-10T08:18:49.776Z</time>
      </trkpt>
      <trkpt lat="46.58559" lon="5.46031">
        <ele>267</ele>
        <time>2019-10-10T08:18:54.766Z</time>
      </trkpt>
      <trkpt lat="46.58561" lon="5.46037">
        <ele>267</ele>
        <time>2019-10-10T08:18:58.798Z</time>
      </trkpt>
      <trkpt lat="46.58564" lon="5.46045">
        <ele>269</ele>
        <time>2019-10-10T08:19:03.767Z</time>
      </trkpt>
      <trkpt lat="46.58565" lon="5.46052">
        <ele>269</ele>
        <time>2019-10-10T08:19:08.764Z</time>
      </trkpt>
      <trkpt lat="46.58568" lon="5.46056">
        <ele>269</ele>
        <time>2019-10-10T08:19:12.775Z</time>
      </trkpt>
      <trkpt lat="46.58569" lon="5.46061">
        <ele>269</ele>
        <time>2019-10-10T08:19:17.777Z</time>
      </trkpt>
      <trkpt lat="46.58571" lon="5.46069">
        <ele>263</ele>
        <time>2019-10-10T08:19:21.790Z</time>
      </trkpt>
      <trkpt lat="46.5857" lon="5.46075">
        <ele>267</ele>
        <time>2019-10-10T08:19:26.787Z</time>
      </trkpt>
      <trkpt lat="46.58572" lon="5.46087">
        <ele>267</ele>
        <time>2019-10-10T08:19:31.775Z</time>
      </trkpt>
      <trkpt lat="46.58575" lon="5.46101">
        <ele>271</ele>
        <time>2019-10-10T08:19:36.774Z</time>
      </trkpt>
      <trkpt lat="46.58579" lon="5.46107">
        <ele>271</ele>
        <time>2019-10-10T08:19:41.765Z</time>
      </trkpt>
      <trkpt lat="46.58582" lon="5.46114">
        <ele>271</ele>
        <time>2019-10-10T08:19:45.780Z</time>
      </trkpt>
      <trkpt lat="46.58585" lon="5.46121">
        <ele>271</ele>
        <time>2019-10-10T08:19:49.793Z</time>
      </trkpt>
      <trkpt lat="46.58588" lon="5.4613">
        <ele>274</ele>
        <time>2019-10-10T08:19:54.776Z</time>
      </trkpt>
      <trkpt lat="46.5859" lon="5.46139">
        <ele>274</ele>
        <time>2019-10-10T08:19:59.785Z</time>
      </trkpt>
      <trkpt lat="46.58591" lon="5.46148">
        <ele>274</ele>
        <time>2019-10-10T08:20:04.785Z</time>
      </trkpt>
      <trkpt lat="46.58594" lon="5.46157">
        <ele>273</ele>
        <time>2019-10-10T08:20:09.770Z</time>
      </trkpt>
      <trkpt lat="46.58596" lon="5.46165">
        <ele>273</ele>
        <time>2019-10-10T08:20:13.784Z</time>
      </trkpt>
      <trkpt lat="46.58599" lon="5.46171">
        <ele>267</ele>
        <time>2019-10-10T08:20:18.779Z</time>
      </trkpt>
      <trkpt lat="46.58604" lon="5.46179">
        <ele>267</ele>
        <time>2019-10-10T08:20:23.782Z</time>
      </trkpt>
      <trkpt lat="46.58608" lon="5.4619">
        <ele>268</ele>
        <time>2019-10-10T08:20:28.774Z</time>
      </trkpt>
      <trkpt lat="46.5861" lon="5.46198">
        <ele>268</ele>
        <time>2019-10-10T08:20:32.800Z</time>
      </trkpt>
      <trkpt lat="46.58614" lon="5.46207">
        <ele>268</ele>
        <time>2019-10-10T08:20:37.776Z</time>
      </trkpt>
      <trkpt lat="46.58616" lon="5.46216">
        <ele>268</ele>
        <time>2019-10-10T08:20:42.776Z</time>
      </trkpt>
      <trkpt lat="46.58613" lon="5.46221">
        <ele>268</ele>
        <time>2019-10-10T08:20:47.774Z</time>
      </trkpt>
      <trkpt lat="46.58613" lon="5.46224">
        <ele>268</ele>
        <time>2019-10-10T08:21:25.786Z</time>
      </trkpt>
      <trkpt lat="46.58613" lon="5.46224">
        <ele>268</ele>
        <time>2019-10-10T08:21:30.782Z</time>
      </trkpt>
      <trkpt lat="46.58612" lon="5.46226">
        <ele>268</ele>
        <time>2019-10-10T08:21:35.787Z</time>
      </trkpt>
      <trkpt lat="46.58614" lon="5.46233">
        <ele>268</ele>
        <time>2019-10-10T08:21:40.762Z</time>
      </trkpt>
      <trkpt lat="46.58614" lon="5.46238">
        <ele>268</ele>
        <time>2019-10-10T08:21:44.790Z</time>
      </trkpt>
      <trkpt lat="46.58614" lon="5.46247">
        <ele>268</ele>
        <time>2019-10-10T08:21:49.764Z</time>
      </trkpt>
      <trkpt lat="46.58613" lon="5.46253">
        <ele>268</ele>
        <time>2019-10-10T08:21:53.794Z</time>
      </trkpt>
      <trkpt lat="46.58611" lon="5.46265">
        <ele>268</ele>
        <time>2019-10-10T08:21:58.779Z</time>
      </trkpt>
      <trkpt lat="46.58608" lon="5.46277">
        <ele>268</ele>
        <time>2019-10-10T08:22:03.767Z</time>
      </trkpt>
      <trkpt lat="46.58606" lon="5.46284">
        <ele>268</ele>
        <time>2019-10-10T08:22:07.782Z</time>
      </trkpt>
      <trkpt lat="46.58604" lon="5.46293">
        <ele>268</ele>
        <time>2019-10-10T08:22:12.759Z</time>
      </trkpt>
      <trkpt lat="46.58601" lon="5.46299">
        <ele>268</ele>
        <time>2019-10-10T08:22:16.776Z</time>
      </trkpt>
      <trkpt lat="46.58597" lon="5.46307">
        <ele>271</ele>
        <time>2019-10-10T08:22:21.768Z</time>
      </trkpt>
      <trkpt lat="46.58592" lon="5.46315">
        <ele>271</ele>
        <time>2019-10-10T08:22:25.780Z</time>
      </trkpt>
      <trkpt lat="46.58587" lon="5.46322">
        <ele>271</ele>
        <time>2019-10-10T08:22:30.764Z</time>
      </trkpt>
      <trkpt lat="46.58582" lon="5.46329">
        <ele>271</ele>
        <time>2019-10-10T08:22:35.770Z</time>
      </trkpt>
      <trkpt lat="46.58579" lon="5.46334">
        <ele>271</ele>
        <time>2019-10-10T08:22:40.787Z</time>
      </trkpt>
      <trkpt lat="46.58576" lon="5.46341">
        <ele>271</ele>
        <time>2019-10-10T08:22:45.777Z</time>
      </trkpt>
      <trkpt lat="46.58572" lon="5.46349">
        <ele>270</ele>
        <time>2019-10-10T08:22:50.776Z</time>
      </trkpt>
      <trkpt lat="46.58568" lon="5.4636">
        <ele>272</ele>
        <time>2019-10-10T08:22:55.781Z</time>
      </trkpt>
      <trkpt lat="46.58566" lon="5.4637">
        <ele>272</ele>
        <time>2019-10-10T08:23:00.780Z</time>
      </trkpt>
      <trkpt lat="46.58563" lon="5.4638">
        <ele>270</ele>
        <time>2019-10-10T08:23:05.789Z</time>
      </trkpt>
      <trkpt lat="46.58562" lon="5.46388">
        <ele>270</ele>
        <time>2019-10-10T08:23:10.765Z</time>
      </trkpt>
      <trkpt lat="46.58563" lon="5.46396">
        <ele>270</ele>
        <time>2019-10-10T08:23:14.785Z</time>
      </trkpt>
      <trkpt lat="46.58565" lon="5.46406">
        <ele>270</ele>
        <time>2019-10-10T08:23:19.775Z</time>
      </trkpt>
      <trkpt lat="46.58567" lon="5.46416">
        <ele>270</ele>
        <time>2019-10-10T08:23:24.766Z</time>
      </trkpt>
      <trkpt lat="46.58569" lon="5.46423">
        <ele>270</ele>
        <time>2019-10-10T08:23:28.782Z</time>
      </trkpt>
      <trkpt lat="46.5857" lon="5.46432">
        <ele>267</ele>
        <time>2019-10-10T08:23:33.789Z</time>
      </trkpt>
      <trkpt lat="46.5857" lon="5.46441">
        <ele>267</ele>
        <time>2019-10-10T08:23:38.782Z</time>
      </trkpt>
      <trkpt lat="46.5857" lon="5.46445">
        <ele>267</ele>
        <time>2019-10-10T08:23:43.790Z</time>
      </trkpt>
      <trkpt lat="46.5857" lon="5.46451">
        <ele>267</ele>
        <time>2019-10-10T08:23:48.783Z</time>
      </trkpt>
      <trkpt lat="46.58571" lon="5.4646">
        <ele>266</ele>
        <time>2019-10-10T08:23:53.768Z</time>
      </trkpt>
      <trkpt lat="46.58571" lon="5.46468">
        <ele>266</ele>
        <time>2019-10-10T08:23:58.781Z</time>
      </trkpt>
      <trkpt lat="46.58571" lon="5.46478">
        <ele>266</ele>
        <time>2019-10-10T08:24:03.779Z</time>
      </trkpt>
      <trkpt lat="46.5857" lon="5.46488">
        <ele>265</ele>
        <time>2019-10-10T08:24:08.782Z</time>
      </trkpt>
      <trkpt lat="46.5857" lon="5.46496">
        <ele>265</ele>
        <time>2019-10-10T08:24:12.795Z</time>
      </trkpt>
      <trkpt lat="46.58569" lon="5.46502">
        <ele>266</ele>
        <time>2019-10-10T08:24:17.782Z</time>
      </trkpt>
      <trkpt lat="46.58569" lon="5.46511">
        <ele>266</ele>
        <time>2019-10-10T08:24:22.774Z</time>
      </trkpt>
      <trkpt lat="46.58569" lon="5.4652">
        <ele>267</ele>
        <time>2019-10-10T08:24:27.805Z</time>
      </trkpt>
      <trkpt lat="46.58567" lon="5.46533">
        <ele>267</ele>
        <time>2019-10-10T08:24:32.782Z</time>
      </trkpt>
      <trkpt lat="46.58566" lon="5.46545">
        <ele>267</ele>
        <time>2019-10-10T08:24:37.767Z</time>
      </trkpt>
      <trkpt lat="46.58565" lon="5.46554">
        <ele>267</ele>
        <time>2019-10-10T08:24:42.807Z</time>
      </trkpt>
      <trkpt lat="46.58563" lon="5.46563">
        <ele>267</ele>
        <time>2019-10-10T08:24:47.774Z</time>
      </trkpt>
      <trkpt lat="46.58562" lon="5.46572">
        <ele>268</ele>
        <time>2019-10-10T08:24:52.778Z</time>
      </trkpt>
      <trkpt lat="46.58561" lon="5.46581">
        <ele>268</ele>
        <time>2019-10-10T08:24:57.777Z</time>
      </trkpt>
      <trkpt lat="46.5856" lon="5.46589">
        <ele>268</ele>
        <time>2019-10-10T08:25:02.768Z</time>
      </trkpt>
      <trkpt lat="46.58558" lon="5.466">
        <ele>268</ele>
        <time>2019-10-10T08:25:07.769Z</time>
      </trkpt>
      <trkpt lat="46.58557" lon="5.46611">
        <ele>268</ele>
        <time>2019-10-10T08:25:12.778Z</time>
      </trkpt>
      <trkpt lat="46.58555" lon="5.4662">
        <ele>268</ele>
        <time>2019-10-10T08:25:17.774Z</time>
      </trkpt>
      <trkpt lat="46.58553" lon="5.46628">
        <ele>269</ele>
        <time>2019-10-10T08:25:21.789Z</time>
      </trkpt>
      <trkpt lat="46.58551" lon="5.46636">
        <ele>269</ele>
        <time>2019-10-10T08:25:26.781Z</time>
      </trkpt>
      <trkpt lat="46.5855" lon="5.46644">
        <ele>269</ele>
        <time>2019-10-10T08:25:31.762Z</time>
      </trkpt>
      <trkpt lat="46.58548" lon="5.46657">
        <ele>269</ele>
        <time>2019-10-10T08:25:36.759Z</time>
      </trkpt>
      <trkpt lat="46.58544" lon="5.46669">
        <ele>269</ele>
        <time>2019-10-10T08:25:41.763Z</time>
      </trkpt>
      <trkpt lat="46.5854" lon="5.46678">
        <ele>268</ele>
        <time>2019-10-10T08:25:46.762Z</time>
      </trkpt>
      <trkpt lat="46.58536" lon="5.46684">
        <ele>264</ele>
        <time>2019-10-10T08:25:50.787Z</time>
      </trkpt>
      <trkpt lat="46.5853" lon="5.46689">
        <ele>264</ele>
        <time>2019-10-10T08:25:55.776Z</time>
      </trkpt>
      <trkpt lat="46.58525" lon="5.46692">
        <ele>264</ele>
        <time>2019-10-10T08:26:00.761Z</time>
      </trkpt>
      <trkpt lat="46.58519" lon="5.46697">
        <ele>264</ele>
        <time>2019-10-10T08:26:04.786Z</time>
      </trkpt>
      <trkpt lat="46.58513" lon="5.46701">
        <ele>264</ele>
        <time>2019-10-10T08:26:09.770Z</time>
      </trkpt>
      <trkpt lat="46.58508" lon="5.46707">
        <ele>264</ele>
        <time>2019-10-10T08:26:14.771Z</time>
      </trkpt>
      <trkpt lat="46.58502" lon="5.46712">
        <ele>261</ele>
        <time>2019-10-10T08:26:19.785Z</time>
      </trkpt>
      <trkpt lat="46.58497" lon="5.46717">
        <ele>261</ele>
        <time>2019-10-10T08:26:24.791Z</time>
      </trkpt>
      <trkpt lat="46.5849" lon="5.46722">
        <ele>261</ele>
        <time>2019-10-10T08:26:29.765Z</time>
      </trkpt>
      <trkpt lat="46.58484" lon="5.46727">
        <ele>263</ele>
        <time>2019-10-10T08:26:34.781Z</time>
      </trkpt>
      <trkpt lat="46.58479" lon="5.46732">
        <ele>263</ele>
        <time>2019-10-10T08:26:39.773Z</time>
      </trkpt>
      <trkpt lat="46.58474" lon="5.46738">
        <ele>260</ele>
        <time>2019-10-10T08:26:44.778Z</time>
      </trkpt>
      <trkpt lat="46.58468" lon="5.46741">
        <ele>260</ele>
        <time>2019-10-10T08:26:49.784Z</time>
      </trkpt>
      <trkpt lat="46.58462" lon="5.46746">
        <ele>260</ele>
        <time>2019-10-10T08:26:54.772Z</time>
      </trkpt>
      <trkpt lat="46.58458" lon="5.46751">
        <ele>263</ele>
        <time>2019-10-10T08:26:58.794Z</time>
      </trkpt>
      <trkpt lat="46.58455" lon="5.46758">
        <ele>263</ele>
        <time>2019-10-10T08:27:03.763Z</time>
      </trkpt>
      <trkpt lat="46.58454" lon="5.46767">
        <ele>261</ele>
        <time>2019-10-10T08:27:07.769Z</time>
      </trkpt>
      <trkpt lat="46.58454" lon="5.46769">
        <ele>261</ele>
        <time>2019-10-10T08:27:12.762Z</time>
      </trkpt>
      <trkpt lat="46.58453" lon="5.46768">
        <ele>261</ele>
        <time>2019-10-10T08:27:17.770Z</time>
      </trkpt>
      <trkpt lat="46.58455" lon="5.46761">
        <ele>263</ele>
        <time>2019-10-10T08:27:22.780Z</time>
      </trkpt>
      <trkpt lat="46.58457" lon="5.46755">
        <ele>263</ele>
        <time>2019-10-10T08:27:27.793Z</time>
      </trkpt>
      <trkpt lat="46.58461" lon="5.46749">
        <ele>260</ele>
        <time>2019-10-10T08:27:32.774Z</time>
      </trkpt>
      <trkpt lat="46.58467" lon="5.46739">
        <ele>260</ele>
        <time>2019-10-10T08:27:37.788Z</time>
      </trkpt>
      <trkpt lat="46.58474" lon="5.46728">
        <ele>263</ele>
        <time>2019-10-10T08:27:42.763Z</time>
      </trkpt>
      <trkpt lat="46.58477" lon="5.46723">
        <ele>263</ele>
        <time>2019-10-10T08:27:46.777Z</time>
      </trkpt>
      <trkpt lat="46.58482" lon="5.46718">
        <ele>263</ele>
        <time>2019-10-10T08:27:51.786Z</time>
      </trkpt>
      <trkpt lat="46.58496" lon="5.46712">
        <ele>261</ele>
        <time>2019-10-10T08:27:56.770Z</time>
      </trkpt>
      <trkpt lat="46.58501" lon="5.4671">
        <ele>261</ele>
        <time>2019-10-10T08:28:00.799Z</time>
      </trkpt>
      <trkpt lat="46.58508" lon="5.46704">
        <ele>264</ele>
        <time>2019-10-10T08:28:05.772Z</time>
      </trkpt>
      <trkpt lat="46.58512" lon="5.46702">
        <ele>264</ele>
        <time>2019-10-10T08:28:10.781Z</time>
      </trkpt>
      <trkpt lat="46.58512" lon="5.46698">
        <ele>264</ele>
        <time>2019-10-10T08:28:24.771Z</time>
      </trkpt>
      <trkpt lat="46.58512" lon="5.46698">
        <ele>264</ele>
        <time>2019-10-10T08:28:28.790Z</time>
      </trkpt>
      <trkpt lat="46.58512" lon="5.46697">
        <ele>264</ele>
        <time>2019-10-10T08:28:33.773Z</time>
      </trkpt>
      <trkpt lat="46.58515" lon="5.46694">
        <ele>264</ele>
        <time>2019-10-10T08:28:37.798Z</time>
      </trkpt>
      <trkpt lat="46.5852" lon="5.46688">
        <ele>264</ele>
        <time>2019-10-10T08:28:42.776Z</time>
      </trkpt>
      <trkpt lat="46.58524" lon="5.46684">
        <ele>264</ele>
        <time>2019-10-10T08:28:47.770Z</time>
      </trkpt>
      <trkpt lat="46.58527" lon="5.46679">
        <ele>268</ele>
        <time>2019-10-10T08:28:52.774Z</time>
      </trkpt>
      <trkpt lat="46.58528" lon="5.46672">
        <ele>268</ele>
        <time>2019-10-10T08:28:57.767Z</time>
      </trkpt>
      <trkpt lat="46.58527" lon="5.46664">
        <ele>268</ele>
        <time>2019-10-10T08:29:02.805Z</time>
      </trkpt>
      <trkpt lat="46.58522" lon="5.4666">
        <ele>268</ele>
        <time>2019-10-10T08:29:07.780Z</time>
      </trkpt>
      <trkpt lat="46.58514" lon="5.46657">
        <ele>268</ele>
        <time>2019-10-10T08:29:12.767Z</time>
      </trkpt>
      <trkpt lat="46.58507" lon="5.46656">
        <ele>269</ele>
        <time>2019-10-10T08:29:17.767Z</time>
      </trkpt>
      <trkpt lat="46.58498" lon="5.46655">
        <ele>269</ele>
        <time>2019-10-10T08:29:22.767Z</time>
      </trkpt>
      <trkpt lat="46.58494" lon="5.46654">
        <ele>269</ele>
        <time>2019-10-10T08:29:26.793Z</time>
      </trkpt>
      <trkpt lat="46.58488" lon="5.46653">
        <ele>272</ele>
        <time>2019-10-10T08:29:31.766Z</time>
      </trkpt>
      <trkpt lat="46.58482" lon="5.46652">
        <ele>274</ele>
        <time>2019-10-10T08:29:36.768Z</time>
      </trkpt>
      <trkpt lat="46.58478" lon="5.4665">
        <ele>274</ele>
        <time>2019-10-10T08:29:41.763Z</time>
      </trkpt>
      <trkpt lat="46.58475" lon="5.46648">
        <ele>274</ele>
        <time>2019-10-10T08:29:46.767Z</time>
      </trkpt>
      <trkpt lat="46.5847" lon="5.46644">
        <ele>274</ele>
        <time>2019-10-10T08:29:51.778Z</time>
      </trkpt>
      <trkpt lat="46.58467" lon="5.46637">
        <ele>274</ele>
        <time>2019-10-10T08:29:56.769Z</time>
      </trkpt>
      <trkpt lat="46.58465" lon="5.46629">
        <ele>274</ele>
        <time>2019-10-10T08:30:01.789Z</time>
      </trkpt>
      <trkpt lat="46.58464" lon="5.46627">
        <ele>274</ele>
        <time>2019-10-10T08:30:06.785Z</time>
      </trkpt>
      <trkpt lat="46.58464" lon="5.46622">
        <ele>276</ele>
        <time>2019-10-10T08:30:11.768Z</time>
      </trkpt>
      <trkpt lat="46.58462" lon="5.46614">
        <ele>276</ele>
        <time>2019-10-10T08:30:16.767Z</time>
      </trkpt>
      <trkpt lat="46.5846" lon="5.46608">
        <ele>276</ele>
        <time>2019-10-10T08:30:21.775Z</time>
      </trkpt>
      <trkpt lat="46.58459" lon="5.46604">
        <ele>276</ele>
        <time>2019-10-10T08:30:25.800Z</time>
      </trkpt>
      <trkpt lat="46.58455" lon="5.46599">
        <ele>279</ele>
        <time>2019-10-10T08:30:30.768Z</time>
      </trkpt>
      <trkpt lat="46.58453" lon="5.46596">
        <ele>282</ele>
        <time>2019-10-10T08:30:34.777Z</time>
      </trkpt>
      <trkpt lat="46.58452" lon="5.46589">
        <ele>282</ele>
        <time>2019-10-10T08:30:39.777Z</time>
      </trkpt>
      <trkpt lat="46.58449" lon="5.46584">
        <ele>282</ele>
        <time>2019-10-10T08:30:44.791Z</time>
      </trkpt>
      <trkpt lat="46.58446" lon="5.4658">
        <ele>282</ele>
        <time>2019-10-10T08:30:49.788Z</time>
      </trkpt>
      <trkpt lat="46.58442" lon="5.46576">
        <ele>282</ele>
        <time>2019-10-10T08:30:54.767Z</time>
      </trkpt>
      <trkpt lat="46.58439" lon="5.46572">
        <ele>282</ele>
        <time>2019-10-10T08:30:59.759Z</time>
      </trkpt>
      <trkpt lat="46.58437" lon="5.46567">
        <ele>287</ele>
        <time>2019-10-10T08:31:03.773Z</time>
      </trkpt>
      <trkpt lat="46.58433" lon="5.4656">
        <ele>287</ele>
        <time>2019-10-10T08:31:08.784Z</time>
      </trkpt>
      <trkpt lat="46.58431" lon="5.46556">
        <ele>287</ele>
        <time>2019-10-10T08:31:12.796Z</time>
      </trkpt>
      <trkpt lat="46.58428" lon="5.46548">
        <ele>290</ele>
        <time>2019-10-10T08:31:17.787Z</time>
      </trkpt>
      <trkpt lat="46.58424" lon="5.46538">
        <ele>290</ele>
        <time>2019-10-10T08:31:22.766Z</time>
      </trkpt>
      <trkpt lat="46.58421" lon="5.46532">
        <ele>290</ele>
        <time>2019-10-10T08:31:26.779Z</time>
      </trkpt>
      <trkpt lat="46.58417" lon="5.46526">
        <ele>290</ele>
        <time>2019-10-10T08:31:31.760Z</time>
      </trkpt>
      <trkpt lat="46.58414" lon="5.4652">
        <ele>290</ele>
        <time>2019-10-10T08:31:35.791Z</time>
      </trkpt>
      <trkpt lat="46.58412" lon="5.46514">
        <ele>290</ele>
        <time>2019-10-10T08:31:40.800Z</time>
      </trkpt>
      <trkpt lat="46.58409" lon="5.46509">
        <ele>290</ele>
        <time>2019-10-10T08:31:45.788Z</time>
      </trkpt>
      <trkpt lat="46.58405" lon="5.46502">
        <ele>290</ele>
        <time>2019-10-10T08:31:50.785Z</time>
      </trkpt>
      <trkpt lat="46.58401" lon="5.46496">
        <ele>293</ele>
        <time>2019-10-10T08:31:55.795Z</time>
      </trkpt>
      <trkpt lat="46.58397" lon="5.46492">
        <ele>293</ele>
        <time>2019-10-10T08:32:00.778Z</time>
      </trkpt>
      <trkpt lat="46.5839" lon="5.46486">
        <ele>293</ele>
        <time>2019-10-10T08:32:05.782Z</time>
      </trkpt>
      <trkpt lat="46.58387" lon="5.46483">
        <ele>292</ele>
        <time>2019-10-10T08:32:10.783Z</time>
      </trkpt>
      <trkpt lat="46.58383" lon="5.46481">
        <ele>292</ele>
        <time>2019-10-10T08:32:15.752Z</time>
      </trkpt>
      <trkpt lat="46.58381" lon="5.46479">
        <ele>292</ele>
        <time>2019-10-10T08:32:19.764Z</time>
      </trkpt>
      <trkpt lat="46.58378" lon="5.46476">
        <ele>292</ele>
        <time>2019-10-10T08:32:23.772Z</time>
      </trkpt>
      <trkpt lat="46.58374" lon="5.46474">
        <ele>295</ele>
        <time>2019-10-10T08:32:28.783Z</time>
      </trkpt>
      <trkpt lat="46.58371" lon="5.46471">
        <ele>295</ele>
        <time>2019-10-10T08:32:33.764Z</time>
      </trkpt>
      <trkpt lat="46.58368" lon="5.46468">
        <ele>295</ele>
        <time>2019-10-10T08:32:37.784Z</time>
      </trkpt>
      <trkpt lat="46.58362" lon="5.46464">
        <ele>295</ele>
        <time>2019-10-10T08:32:42.777Z</time>
      </trkpt>
      <trkpt lat="46.5836" lon="5.46461">
        <ele>295</ele>
        <time>2019-10-10T08:32:46.789Z</time>
      </trkpt>
      <trkpt lat="46.58356" lon="5.46458">
        <ele>295</ele>
        <time>2019-10-10T08:32:51.779Z</time>
      </trkpt>
      <trkpt lat="46.58351" lon="5.46453">
        <ele>295</ele>
        <time>2019-10-10T08:32:56.775Z</time>
      </trkpt>
      <trkpt lat="46.58344" lon="5.46446">
        <ele>302</ele>
        <time>2019-10-10T08:33:01.791Z</time>
      </trkpt>
      <trkpt lat="46.58337" lon="5.46442">
        <ele>302</ele>
        <time>2019-10-10T08:33:06.792Z</time>
      </trkpt>
      <trkpt lat="46.58333" lon="5.46439">
        <ele>302</ele>
        <time>2019-10-10T08:33:11.765Z</time>
      </trkpt>
      <trkpt lat="46.58328" lon="5.46433">
        <ele>302</ele>
        <time>2019-10-10T08:33:16.775Z</time>
      </trkpt>
      <trkpt lat="46.58325" lon="5.46427">
        <ele>303</ele>
        <time>2019-10-10T08:33:21.775Z</time>
      </trkpt>
      <trkpt lat="46.58322" lon="5.46421">
        <ele>303</ele>
        <time>2019-10-10T08:33:26.771Z</time>
      </trkpt>
      <trkpt lat="46.58318" lon="5.46415">
        <ele>308</ele>
        <time>2019-10-10T08:33:31.769Z</time>
      </trkpt>
      <trkpt lat="46.58312" lon="5.46404">
        <ele>308</ele>
        <time>2019-10-10T08:33:36.772Z</time>
      </trkpt>
      <trkpt lat="46.58306" lon="5.46396">
        <ele>309</ele>
        <time>2019-10-10T08:33:41.769Z</time>
      </trkpt>
      <trkpt lat="46.58303" lon="5.46389">
        <ele>309</ele>
        <time>2019-10-10T08:33:45.790Z</time>
      </trkpt>
      <trkpt lat="46.58301" lon="5.46382">
        <ele>309</ele>
        <time>2019-10-10T08:33:50.764Z</time>
      </trkpt>
      <trkpt lat="46.58298" lon="5.46377">
        <ele>309</ele>
        <time>2019-10-10T08:33:54.793Z</time>
      </trkpt>
      <trkpt lat="46.58293" lon="5.46373">
        <ele>308</ele>
        <time>2019-10-10T08:33:59.784Z</time>
      </trkpt>
      <trkpt lat="46.58288" lon="5.46368">
        <ele>314</ele>
        <time>2019-10-10T08:34:04.768Z</time>
      </trkpt>
      <trkpt lat="46.58288" lon="5.46365">
        <ele>314</ele>
        <time>2019-10-10T08:34:08.797Z</time>
      </trkpt>
      <trkpt lat="46.58286" lon="5.46367">
        <ele>314</ele>
        <time>2019-10-10T08:34:13.800Z</time>
      </trkpt>
      <trkpt lat="46.58286" lon="5.46367">
        <ele>314</ele>
        <time>2019-10-10T08:34:18.773Z</time>
      </trkpt>
      <trkpt lat="46.58285" lon="5.46367">
        <ele>314</ele>
        <time>2019-10-10T08:34:22.788Z</time>
      </trkpt>
      <trkpt lat="46.5828" lon="5.46366">
        <ele>314</ele>
        <time>2019-10-10T08:34:27.778Z</time>
      </trkpt>
      <trkpt lat="46.58275" lon="5.46366">
        <ele>314</ele>
        <time>2019-10-10T08:34:32.784Z</time>
      </trkpt>
      <trkpt lat="46.58267" lon="5.46365">
        <ele>314</ele>
        <time>2019-10-10T08:34:37.765Z</time>
      </trkpt>
      <trkpt lat="46.58262" lon="5.46363">
        <ele>319</ele>
        <time>2019-10-10T08:34:41.785Z</time>
      </trkpt>
      <trkpt lat="46.58255" lon="5.46359">
        <ele>319</ele>
        <time>2019-10-10T08:34:46.775Z</time>
      </trkpt>
      <trkpt lat="46.5825" lon="5.46355">
        <ele>319</ele>
        <time>2019-10-10T08:34:50.787Z</time>
      </trkpt>
      <trkpt lat="46.58246" lon="5.46351">
        <ele>319</ele>
        <time>2019-10-10T08:34:55.780Z</time>
      </trkpt>
      <trkpt lat="46.58241" lon="5.46349">
        <ele>319</ele>
        <time>2019-10-10T08:35:00.763Z</time>
      </trkpt>
      <trkpt lat="46.58236" lon="5.46349">
        <ele>324</ele>
        <time>2019-10-10T08:35:05.784Z</time>
      </trkpt>
      <trkpt lat="46.58231" lon="5.4635">
        <ele>324</ele>
        <time>2019-10-10T08:35:10.784Z</time>
      </trkpt>
      <trkpt lat="46.58221" lon="5.46352">
        <ele>324</ele>
        <time>2019-10-10T08:35:15.787Z</time>
      </trkpt>
      <trkpt lat="46.58217" lon="5.46351">
        <ele>324</ele>
        <time>2019-10-10T08:35:20.789Z</time>
      </trkpt>
      <trkpt lat="46.58212" lon="5.46353">
        <ele>324</ele>
        <time>2019-10-10T08:35:25.790Z</time>
      </trkpt>
      <trkpt lat="46.58211" lon="5.46354">
        <ele>324</ele>
        <time>2019-10-10T08:35:30.786Z</time>
      </trkpt>
      <trkpt lat="46.58205" lon="5.46345">
        <ele>329</ele>
        <time>2019-10-10T08:37:30.774Z</time>
      </trkpt>
      <trkpt lat="46.58203" lon="5.46343">
        <ele>329</ele>
        <time>2019-10-10T08:37:35.764Z</time>
      </trkpt>
      <trkpt lat="46.582" lon="5.46346">
        <ele>329</ele>
        <time>2019-10-10T08:37:39.797Z</time>
      </trkpt>
      <trkpt lat="46.58196" lon="5.46354">
        <ele>330</ele>
        <time>2019-10-10T08:37:44.783Z</time>
      </trkpt>
      <trkpt lat="46.58194" lon="5.46363">
        <ele>330</ele>
        <time>2019-10-10T08:37:49.790Z</time>
      </trkpt>
      <trkpt lat="46.58191" lon="5.46367">
        <ele>330</ele>
        <time>2019-10-10T08:37:54.797Z</time>
      </trkpt>
      <trkpt lat="46.58185" lon="5.46369">
        <ele>330</ele>
        <time>2019-10-10T08:37:59.771Z</time>
      </trkpt>
      <trkpt lat="46.58181" lon="5.46381">
        <ele>328</ele>
        <time>2019-10-10T08:38:03.808Z</time>
      </trkpt>
      <trkpt lat="46.58173" lon="5.46385">
        <ele>334</ele>
        <time>2019-10-10T08:38:08.769Z</time>
      </trkpt>
      <trkpt lat="46.58167" lon="5.46386">
        <ele>334</ele>
        <time>2019-10-10T08:38:12.781Z</time>
      </trkpt>
      <trkpt lat="46.58163" lon="5.4639">
        <ele>334</ele>
        <time>2019-10-10T08:38:17.767Z</time>
      </trkpt>
      <trkpt lat="46.58164" lon="5.46398">
        <ele>334</ele>
        <time>2019-10-10T08:38:21.784Z</time>
      </trkpt>
      <trkpt lat="46.5816" lon="5.46415">
        <ele>331</ele>
        <time>2019-10-10T08:38:25.804Z</time>
      </trkpt>
      <trkpt lat="46.58158" lon="5.46422">
        <ele>331</ele>
        <time>2019-10-10T08:38:30.773Z</time>
      </trkpt>
      <trkpt lat="46.58156" lon="5.46425">
        <ele>331</ele>
        <time>2019-10-10T08:38:35.789Z</time>
      </trkpt>
      <trkpt lat="46.58151" lon="5.46427">
        <ele>336</ele>
        <time>2019-10-10T08:38:40.777Z</time>
      </trkpt>
      <trkpt lat="46.58147" lon="5.46435">
        <ele>331</ele>
        <time>2019-10-10T08:38:45.786Z</time>
      </trkpt>
      <trkpt lat="46.58136" lon="5.46458">
        <ele>331</ele>
        <time>2019-10-10T08:39:05.767Z</time>
      </trkpt>
      <trkpt lat="46.58141" lon="5.46466">
        <ele>327</ele>
        <time>2019-10-10T08:39:10.766Z</time>
      </trkpt>
      <trkpt lat="46.58142" lon="5.46475">
        <ele>327</ele>
        <time>2019-10-10T08:39:14.783Z</time>
      </trkpt>
      <trkpt lat="46.58139" lon="5.46479">
        <ele>327</ele>
        <time>2019-10-10T08:39:18.821Z</time>
      </trkpt>
      <trkpt lat="46.58134" lon="5.46485">
        <ele>327</ele>
        <time>2019-10-10T08:39:23.773Z</time>
      </trkpt>
      <trkpt lat="46.58132" lon="5.46485">
        <ele>327</ele>
        <time>2019-10-10T08:39:28.788Z</time>
      </trkpt>
      <trkpt lat="46.58126" lon="5.46488">
        <ele>324</ele>
        <time>2019-10-10T08:39:33.789Z</time>
      </trkpt>
      <trkpt lat="46.58118" lon="5.46493">
        <ele>328</ele>
        <time>2019-10-10T08:39:38.764Z</time>
      </trkpt>
      <trkpt lat="46.58114" lon="5.46496">
        <ele>328</ele>
        <time>2019-10-10T08:39:43.772Z</time>
      </trkpt>
      <trkpt lat="46.58108" lon="5.46497">
        <ele>328</ele>
        <time>2019-10-10T08:39:48.790Z</time>
      </trkpt>
      <trkpt lat="46.58103" lon="5.46495">
        <ele>328</ele>
        <time>2019-10-10T08:39:53.762Z</time>
      </trkpt>
      <trkpt lat="46.58097" lon="5.46499">
        <ele>328</ele>
        <time>2019-10-10T08:39:57.796Z</time>
      </trkpt>
      <trkpt lat="46.58092" lon="5.46499">
        <ele>331</ele>
        <time>2019-10-10T08:40:02.779Z</time>
      </trkpt>
      <trkpt lat="46.58088" lon="5.465">
        <ele>331</ele>
        <time>2019-10-10T08:40:07.791Z</time>
      </trkpt>
      <trkpt lat="46.58082" lon="5.46503">
        <ele>331</ele>
        <time>2019-10-10T08:40:12.790Z</time>
      </trkpt>
      <trkpt lat="46.58079" lon="5.46507">
        <ele>331</ele>
        <time>2019-10-10T08:40:17.771Z</time>
      </trkpt>
      <trkpt lat="46.58075" lon="5.46508">
        <ele>331</ele>
        <time>2019-10-10T08:40:22.774Z</time>
      </trkpt>
      <trkpt lat="46.58068" lon="5.46514">
        <ele>335</ele>
        <time>2019-10-10T08:40:27.762Z</time>
      </trkpt>
      <trkpt lat="46.58064" lon="5.46514">
        <ele>337</ele>
        <time>2019-10-10T08:40:31.768Z</time>
      </trkpt>
      <trkpt lat="46.58059" lon="5.46514">
        <ele>335</ele>
        <time>2019-10-10T08:40:35.778Z</time>
      </trkpt>
      <trkpt lat="46.58054" lon="5.46512">
        <ele>337</ele>
        <time>2019-10-10T08:40:39.794Z</time>
      </trkpt>
      <trkpt lat="46.58048" lon="5.46514">
        <ele>335</ele>
        <time>2019-10-10T08:40:44.782Z</time>
      </trkpt>
      <trkpt lat="46.58042" lon="5.46518">
        <ele>335</ele>
        <time>2019-10-10T08:40:49.776Z</time>
      </trkpt>
      <trkpt lat="46.58035" lon="5.46523">
        <ele>339</ele>
        <time>2019-10-10T08:40:54.770Z</time>
      </trkpt>
      <trkpt lat="46.58029" lon="5.46524">
        <ele>339</ele>
        <time>2019-10-10T08:40:59.803Z</time>
      </trkpt>
      <trkpt lat="46.58024" lon="5.46524">
        <ele>339</ele>
        <time>2019-10-10T08:41:04.772Z</time>
      </trkpt>
      <trkpt lat="46.58019" lon="5.46523">
        <ele>339</ele>
        <time>2019-10-10T08:41:08.797Z</time>
      </trkpt>
      <trkpt lat="46.58013" lon="5.46523">
        <ele>340</ele>
        <time>2019-10-10T08:41:13.776Z</time>
      </trkpt>
      <trkpt lat="46.58006" lon="5.46521">
        <ele>340</ele>
        <time>2019-10-10T08:41:18.773Z</time>
      </trkpt>
      <trkpt lat="46.58" lon="5.46521">
        <ele>340</ele>
        <time>2019-10-10T08:41:23.762Z</time>
      </trkpt>
      <trkpt lat="46.57993" lon="5.46521">
        <ele>340</ele>
        <time>2019-10-10T08:41:28.778Z</time>
      </trkpt>
      <trkpt lat="46.57988" lon="5.46523">
        <ele>340</ele>
        <time>2019-10-10T08:41:33.766Z</time>
      </trkpt>
      <trkpt lat="46.57984" lon="5.46525">
        <ele>345</ele>
        <time>2019-10-10T08:41:37.775Z</time>
      </trkpt>
      <trkpt lat="46.57983" lon="5.46531">
        <ele>345</ele>
        <time>2019-10-10T08:41:42.763Z</time>
      </trkpt>
      <trkpt lat="46.57982" lon="5.46535">
        <ele>345</ele>
        <time>2019-10-10T08:41:47.787Z</time>
      </trkpt>
      <trkpt lat="46.5798" lon="5.46544">
        <ele>345</ele>
        <time>2019-10-10T08:41:52.783Z</time>
      </trkpt>
      <trkpt lat="46.57981" lon="5.46552">
        <ele>345</ele>
        <time>2019-10-10T08:41:57.772Z</time>
      </trkpt>
      <trkpt lat="46.57981" lon="5.4656">
        <ele>345</ele>
        <time>2019-10-10T08:42:02.799Z</time>
      </trkpt>
      <trkpt lat="46.5798" lon="5.46564">
        <ele>345</ele>
        <time>2019-10-10T08:42:07.806Z</time>
      </trkpt>
      <trkpt lat="46.57982" lon="5.46571">
        <ele>348</ele>
        <time>2019-10-10T08:42:12.779Z</time>
      </trkpt>
      <trkpt lat="46.57983" lon="5.46577">
        <ele>348</ele>
        <time>2019-10-10T08:42:17.766Z</time>
      </trkpt>
      <trkpt lat="46.57985" lon="5.46586">
        <ele>348</ele>
        <time>2019-10-10T08:42:22.770Z</time>
      </trkpt>
      <trkpt lat="46.57986" lon="5.46593">
        <ele>348</ele>
        <time>2019-10-10T08:42:27.783Z</time>
      </trkpt>
      <trkpt lat="46.57985" lon="5.46597">
        <ele>352</ele>
        <time>2019-10-10T08:42:32.775Z</time>
      </trkpt>
      <trkpt lat="46.57985" lon="5.46602">
        <ele>352</ele>
        <time>2019-10-10T08:42:37.776Z</time>
      </trkpt>
      <trkpt lat="46.57985" lon="5.46608">
        <ele>352</ele>
        <time>2019-10-10T08:42:42.768Z</time>
      </trkpt>
      <trkpt lat="46.57985" lon="5.46612">
        <ele>352</ele>
        <time>2019-10-10T08:42:46.784Z</time>
      </trkpt>
      <trkpt lat="46.57987" lon="5.46618">
        <ele>346</ele>
        <time>2019-10-10T08:42:51.782Z</time>
      </trkpt>
      <trkpt lat="46.57987" lon="5.46625">
        <ele>346</ele>
        <time>2019-10-10T08:42:56.778Z</time>
      </trkpt>
      <trkpt lat="46.57988" lon="5.46631">
        <ele>352</ele>
        <time>2019-10-10T08:43:01.770Z</time>
      </trkpt>
      <trkpt lat="46.57991" lon="5.46639">
        <ele>352</ele>
        <time>2019-10-10T08:43:06.767Z</time>
      </trkpt>
      <trkpt lat="46.57993" lon="5.46645">
        <ele>352</ele>
        <time>2019-10-10T08:43:10.778Z</time>
      </trkpt>
      <trkpt lat="46.57996" lon="5.46653">
        <ele>358</ele>
        <time>2019-10-10T08:43:15.776Z</time>
      </trkpt>
      <trkpt lat="46.57998" lon="5.4666">
        <ele>358</ele>
        <time>2019-10-10T08:43:19.810Z</time>
      </trkpt>
      <trkpt lat="46.57997" lon="5.46666">
        <ele>358</ele>
        <time>2019-10-10T08:43:24.770Z</time>
      </trkpt>
      <trkpt lat="46.57999" lon="5.46673">
        <ele>358</ele>
        <time>2019-10-10T08:43:29.765Z</time>
      </trkpt>
      <trkpt lat="46.58" lon="5.4668">
        <ele>358</ele>
        <time>2019-10-10T08:43:33.783Z</time>
      </trkpt>
      <trkpt lat="46.58002" lon="5.46686">
        <ele>364</ele>
        <time>2019-10-10T08:43:37.800Z</time>
      </trkpt>
      <trkpt lat="46.58004" lon="5.46698">
        <ele>364</ele>
        <time>2019-10-10T08:43:42.769Z</time>
      </trkpt>
      <trkpt lat="46.58006" lon="5.4671">
        <ele>371</ele>
        <time>2019-10-10T08:43:47.765Z</time>
      </trkpt>
      <trkpt lat="46.58007" lon="5.46716">
        <ele>371</ele>
        <time>2019-10-10T08:43:51.778Z</time>
      </trkpt>
      <trkpt lat="46.58008" lon="5.46722">
        <ele>371</ele>
        <time>2019-10-10T08:43:56.764Z</time>
      </trkpt>
      <trkpt lat="46.5801" lon="5.46731">
        <ele>371</ele>
        <time>2019-10-10T08:44:01.771Z</time>
      </trkpt>
      <trkpt lat="46.58012" lon="5.4674">
        <ele>374</ele>
        <time>2019-10-10T08:44:06.791Z</time>
      </trkpt>
      <trkpt lat="46.58016" lon="5.4674">
        <ele>361</ele>
        <time>2019-10-10T08:44:11.776Z</time>
      </trkpt>
      <trkpt lat="46.58018" lon="5.46744">
        <ele>361</ele>
        <time>2019-10-10T08:44:16.774Z</time>
      </trkpt>
      <trkpt lat="46.58019" lon="5.46746">
        <ele>361</ele>
        <time>2019-10-10T08:44:20.786Z</time>
      </trkpt>
      <trkpt lat="46.5802" lon="5.46755">
        <ele>361</ele>
        <time>2019-10-10T08:44:25.776Z</time>
      </trkpt>
      <trkpt lat="46.58022" lon="5.46764">
        <ele>363</ele>
        <time>2019-10-10T08:44:30.780Z</time>
      </trkpt>
      <trkpt lat="46.58021" lon="5.46777">
        <ele>363</ele>
        <time>2019-10-10T08:44:35.779Z</time>
      </trkpt>
      <trkpt lat="46.5802" lon="5.46787">
        <ele>363</ele>
        <time>2019-10-10T08:44:40.789Z</time>
      </trkpt>
      <trkpt lat="46.5802" lon="5.46797">
        <ele>366</ele>
        <time>2019-10-10T08:44:45.774Z</time>
      </trkpt>
      <trkpt lat="46.58018" lon="5.46807">
        <ele>366</ele>
        <time>2019-10-10T08:44:50.773Z</time>
      </trkpt>
      <trkpt lat="46.58017" lon="5.46816">
        <ele>366</ele>
        <time>2019-10-10T08:44:54.785Z</time>
      </trkpt>
      <trkpt lat="46.58015" lon="5.4682">
        <ele>368</ele>
        <time>2019-10-10T08:44:59.788Z</time>
      </trkpt>
      <trkpt lat="46.58014" lon="5.46828">
        <ele>368</ele>
        <time>2019-10-10T08:45:04.774Z</time>
      </trkpt>
      <trkpt lat="46.58013" lon="5.46836">
        <ele>383</ele>
        <time>2019-10-10T08:45:08.789Z</time>
      </trkpt>
      <trkpt lat="46.58012" lon="5.46841">
        <ele>383</ele>
        <time>2019-10-10T08:45:13.805Z</time>
      </trkpt>
      <trkpt lat="46.58013" lon="5.46843">
        <ele>383</ele>
        <time>2019-10-10T08:45:18.767Z</time>
      </trkpt>
      <trkpt lat="46.58013" lon="5.4685">
        <ele>383</ele>
        <time>2019-10-10T08:45:22.786Z</time>
      </trkpt>
      <trkpt lat="46.58013" lon="5.46857">
        <ele>383</ele>
        <time>2019-10-10T08:45:27.789Z</time>
      </trkpt>
      <trkpt lat="46.58015" lon="5.46857">
        <ele>369</ele>
        <time>2019-10-10T08:45:32.772Z</time>
      </trkpt>
      <trkpt lat="46.58015" lon="5.46872">
        <ele>369</ele>
        <time>2019-10-10T08:45:37.765Z</time>
      </trkpt>
      <trkpt lat="46.58017" lon="5.46878">
        <ele>369</ele>
        <time>2019-10-10T08:45:41.782Z</time>
      </trkpt>
      <trkpt lat="46.58022" lon="5.4688">
        <ele>369</ele>
        <time>2019-10-10T08:45:46.766Z</time>
      </trkpt>
      <trkpt lat="46.58026" lon="5.46886">
        <ele>369</ele>
        <time>2019-10-10T08:45:51.778Z</time>
      </trkpt>
      <trkpt lat="46.58026" lon="5.46896">
        <ele>369</ele>
        <time>2019-10-10T08:45:56.797Z</time>
      </trkpt>
      <trkpt lat="46.58025" lon="5.46908">
        <ele>365</ele>
        <time>2019-10-10T08:46:01.786Z</time>
      </trkpt>
      <trkpt lat="46.58024" lon="5.46919">
        <ele>365</ele>
        <time>2019-10-10T08:46:06.786Z</time>
      </trkpt>
      <trkpt lat="46.58019" lon="5.46923">
        <ele>365</ele>
        <time>2019-10-10T08:46:11.774Z</time>
      </trkpt>
      <trkpt lat="46.58016" lon="5.4693">
        <ele>365</ele>
        <time>2019-10-10T08:46:16.777Z</time>
      </trkpt>
      <trkpt lat="46.58015" lon="5.46931">
        <ele>360</ele>
        <time>2019-10-10T08:46:20.800Z</time>
      </trkpt>
      <trkpt lat="46.58014" lon="5.46939">
        <ele>371</ele>
        <time>2019-10-10T08:46:25.767Z</time>
      </trkpt>
      <trkpt lat="46.58011" lon="5.46945">
        <ele>371</ele>
        <time>2019-10-10T08:46:30.782Z</time>
      </trkpt>
      <trkpt lat="46.58007" lon="5.46948">
        <ele>371</ele>
        <time>2019-10-10T08:46:34.796Z</time>
      </trkpt>
      <trkpt lat="46.58002" lon="5.46953">
        <ele>371</ele>
        <time>2019-10-10T08:46:39.774Z</time>
      </trkpt>
      <trkpt lat="46.57994" lon="5.46962">
        <ele>366</ele>
        <time>2019-10-10T08:46:44.772Z</time>
      </trkpt>
      <trkpt lat="46.57989" lon="5.46968">
        <ele>366</ele>
        <time>2019-10-10T08:46:48.794Z</time>
      </trkpt>
      <trkpt lat="46.57985" lon="5.46972">
        <ele>379</ele>
        <time>2019-10-10T08:46:53.774Z</time>
      </trkpt>
      <trkpt lat="46.57982" lon="5.46978">
        <ele>379</ele>
        <time>2019-10-10T08:46:58.787Z</time>
      </trkpt>
      <trkpt lat="46.5798" lon="5.46981">
        <ele>379</ele>
        <time>2019-10-10T08:47:03.765Z</time>
      </trkpt>
      <trkpt lat="46.57975" lon="5.46983">
        <ele>379</ele>
        <time>2019-10-10T08:47:07.763Z</time>
      </trkpt>
      <trkpt lat="46.57971" lon="5.46985">
        <ele>379</ele>
        <time>2019-10-10T08:47:12.774Z</time>
      </trkpt>
      <trkpt lat="46.57966" lon="5.4699">
        <ele>373</ele>
        <time>2019-10-10T08:47:17.764Z</time>
      </trkpt>
      <trkpt lat="46.57964" lon="5.46991">
        <ele>373</ele>
        <time>2019-10-10T08:47:22.773Z</time>
      </trkpt>
      <trkpt lat="46.57962" lon="5.46993">
        <ele>373</ele>
        <time>2019-10-10T08:52:07.762Z</time>
      </trkpt>
      <trkpt lat="46.57961" lon="5.46995">
        <ele>373</ele>
        <time>2019-10-10T08:52:11.787Z</time>
      </trkpt>
      <trkpt lat="46.57961" lon="5.46998">
        <ele>373</ele>
        <time>2019-10-10T08:52:16.763Z</time>
      </trkpt>
      <trkpt lat="46.57959" lon="5.47004">
        <ele>373</ele>
        <time>2019-10-10T08:52:21.793Z</time>
      </trkpt>
      <trkpt lat="46.57958" lon="5.47007">
        <ele>388</ele>
        <time>2019-10-10T08:52:26.774Z</time>
      </trkpt>
      <trkpt lat="46.57957" lon="5.4701">
        <ele>388</ele>
        <time>2019-10-10T08:52:31.775Z</time>
      </trkpt>
      <trkpt lat="46.57956" lon="5.47009">
        <ele>388</ele>
        <time>2019-10-10T08:52:36.764Z</time>
      </trkpt>
      <trkpt lat="46.57956" lon="5.47011">
        <ele>388</ele>
        <time>2019-10-10T08:52:41.765Z</time>
      </trkpt>
      <trkpt lat="46.57954" lon="5.47013">
        <ele>388</ele>
        <time>2019-10-10T08:52:45.775Z</time>
      </trkpt>
      <trkpt lat="46.5795" lon="5.47019">
        <ele>385</ele>
        <time>2019-10-10T08:52:50.800Z</time>
      </trkpt>
      <trkpt lat="46.57948" lon="5.4702">
        <ele>385</ele>
        <time>2019-10-10T08:52:55.770Z</time>
      </trkpt>
      <trkpt lat="46.57946" lon="5.47021">
        <ele>385</ele>
        <time>2019-10-10T08:53:00.759Z</time>
      </trkpt>
      <trkpt lat="46.57944" lon="5.47026">
        <ele>385</ele>
        <time>2019-10-10T08:53:04.779Z</time>
      </trkpt>
      <trkpt lat="46.57944" lon="5.47031">
        <ele>385</ele>
        <time>2019-10-10T08:53:08.788Z</time>
      </trkpt>
      <trkpt lat="46.57942" lon="5.47038">
        <ele>385</ele>
        <time>2019-10-10T08:53:13.766Z</time>
      </trkpt>
      <trkpt lat="46.5794" lon="5.47042">
        <ele>384</ele>
        <time>2019-10-10T08:53:18.797Z</time>
      </trkpt>
      <trkpt lat="46.57938" lon="5.47048">
        <ele>384</ele>
        <time>2019-10-10T08:53:23.778Z</time>
      </trkpt>
      <trkpt lat="46.57937" lon="5.47052">
        <ele>384</ele>
        <time>2019-10-10T08:53:28.776Z</time>
      </trkpt>
      <trkpt lat="46.57937" lon="5.47059">
        <ele>384</ele>
        <time>2019-10-10T08:53:33.789Z</time>
      </trkpt>
      <trkpt lat="46.57938" lon="5.47065">
        <ele>384</ele>
        <time>2019-10-10T08:53:37.792Z</time>
      </trkpt>
      <trkpt lat="46.57937" lon="5.47071">
        <ele>383</ele>
        <time>2019-10-10T08:53:42.778Z</time>
      </trkpt>
      <trkpt lat="46.57936" lon="5.47074">
        <ele>383</ele>
        <time>2019-10-10T08:53:47.775Z</time>
      </trkpt>
      <trkpt lat="46.57934" lon="5.47079">
        <ele>383</ele>
        <time>2019-10-10T08:53:52.767Z</time>
      </trkpt>
      <trkpt lat="46.57927" lon="5.47094">
        <ele>396</ele>
        <time>2019-10-10T08:54:20.760Z</time>
      </trkpt>
      <trkpt lat="46.57927" lon="5.47094">
        <ele>396</ele>
        <time>2019-10-10T08:54:25.757Z</time>
      </trkpt>
      <trkpt lat="46.57926" lon="5.47094">
        <ele>396</ele>
        <time>2019-10-10T08:54:30.776Z</time>
      </trkpt>
      <trkpt lat="46.57926" lon="5.47095">
        <ele>396</ele>
        <time>2019-10-10T08:54:35.799Z</time>
      </trkpt>
      <trkpt lat="46.57924" lon="5.47098">
        <ele>396</ele>
        <time>2019-10-10T08:54:40.768Z</time>
      </trkpt>
      <trkpt lat="46.57924" lon="5.471">
        <ele>396</ele>
        <time>2019-10-10T08:54:45.780Z</time>
      </trkpt>
      <trkpt lat="46.57925" lon="5.47104">
        <ele>396</ele>
        <time>2019-10-10T08:54:49.792Z</time>
      </trkpt>
      <trkpt lat="46.57927" lon="5.47108">
        <ele>396</ele>
        <time>2019-10-10T08:54:54.774Z</time>
      </trkpt>
      <trkpt lat="46.5793" lon="5.47114">
        <ele>396</ele>
        <time>2019-10-10T08:54:58.785Z</time>
      </trkpt>
      <trkpt lat="46.57932" lon="5.47117">
        <ele>385</ele>
        <time>2019-10-10T08:55:03.785Z</time>
      </trkpt>
      <trkpt lat="46.57931" lon="5.47123">
        <ele>385</ele>
        <time>2019-10-10T08:55:08.775Z</time>
      </trkpt>
      <trkpt lat="46.5793" lon="5.47128">
        <ele>397</ele>
        <time>2019-10-10T08:55:12.804Z</time>
      </trkpt>
      <trkpt lat="46.5793" lon="5.47136">
        <ele>397</ele>
        <time>2019-10-10T08:55:17.797Z</time>
      </trkpt>
      <trkpt lat="46.57933" lon="5.47143">
        <ele>383</ele>
        <time>2019-10-10T08:55:27.795Z</time>
      </trkpt>
      <trkpt lat="46.57935" lon="5.47145">
        <ele>383</ele>
        <time>2019-10-10T08:55:32.777Z</time>
      </trkpt>
      <trkpt lat="46.57936" lon="5.47149">
        <ele>383</ele>
        <time>2019-10-10T08:55:37.793Z</time>
      </trkpt>
      <trkpt lat="46.57936" lon="5.47151">
        <ele>383</ele>
        <time>2019-10-10T08:55:42.779Z</time>
      </trkpt>
      <trkpt lat="46.57935" lon="5.47158">
        <ele>378</ele>
        <time>2019-10-10T08:55:46.803Z</time>
      </trkpt>
      <trkpt lat="46.5793" lon="5.47167">
        <ele>392</ele>
        <time>2019-10-10T08:55:51.775Z</time>
      </trkpt>
      <trkpt lat="46.5793" lon="5.47169">
        <ele>392</ele>
        <time>2019-10-10T08:55:56.766Z</time>
      </trkpt>
      <trkpt lat="46.5793" lon="5.47176">
        <ele>392</ele>
        <time>2019-10-10T08:56:00.784Z</time>
      </trkpt>
      <trkpt lat="46.57932" lon="5.4719">
        <ele>376</ele>
        <time>2019-10-10T08:56:05.778Z</time>
      </trkpt>
      <trkpt lat="46.57931" lon="5.472">
        <ele>376</ele>
        <time>2019-10-10T08:56:10.775Z</time>
      </trkpt>
      <trkpt lat="46.57931" lon="5.47208">
        <ele>376</ele>
        <time>2019-10-10T08:56:15.766Z</time>
      </trkpt>
      <trkpt lat="46.57931" lon="5.47214">
        <ele>375</ele>
        <time>2019-10-10T08:56:19.806Z</time>
      </trkpt>
      <trkpt lat="46.5793" lon="5.47221">
        <ele>390</ele>
        <time>2019-10-10T08:56:24.792Z</time>
      </trkpt>
      <trkpt lat="46.57928" lon="5.47229">
        <ele>390</ele>
        <time>2019-10-10T08:56:29.786Z</time>
      </trkpt>
      <trkpt lat="46.57926" lon="5.47236">
        <ele>390</ele>
        <time>2019-10-10T08:56:34.803Z</time>
      </trkpt>
      <trkpt lat="46.57923" lon="5.47243">
        <ele>389</ele>
        <time>2019-10-10T08:56:39.775Z</time>
      </trkpt>
      <trkpt lat="46.5792" lon="5.47246">
        <ele>389</ele>
        <time>2019-10-10T08:56:44.780Z</time>
      </trkpt>
      <trkpt lat="46.57916" lon="5.47256">
        <ele>389</ele>
        <time>2019-10-10T08:56:49.765Z</time>
      </trkpt>
      <trkpt lat="46.57911" lon="5.4726">
        <ele>389</ele>
        <time>2019-10-10T08:56:53.775Z</time>
      </trkpt>
      <trkpt lat="46.57907" lon="5.47265">
        <ele>388</ele>
        <time>2019-10-10T08:56:57.784Z</time>
      </trkpt>
      <trkpt lat="46.57905" lon="5.47266">
        <ele>388</ele>
        <time>2019-10-10T08:57:02.799Z</time>
      </trkpt>
      <trkpt lat="46.57903" lon="5.47274">
        <ele>388</ele>
        <time>2019-10-10T08:57:07.758Z</time>
      </trkpt>
      <trkpt lat="46.57902" lon="5.47279">
        <ele>404</ele>
        <time>2019-10-10T08:57:11.777Z</time>
      </trkpt>
      <trkpt lat="46.57901" lon="5.47284">
        <ele>404</ele>
        <time>2019-10-10T08:57:16.788Z</time>
      </trkpt>
      <trkpt lat="46.57899" lon="5.4729">
        <ele>404</ele>
        <time>2019-10-10T08:57:21.763Z</time>
      </trkpt>
      <trkpt lat="46.57898" lon="5.47293">
        <ele>401</ele>
        <time>2019-10-10T08:57:26.793Z</time>
      </trkpt>
      <trkpt lat="46.57896" lon="5.47305">
        <ele>401</ele>
        <time>2019-10-10T08:57:31.771Z</time>
      </trkpt>
      <trkpt lat="46.57895" lon="5.47313">
        <ele>401</ele>
        <time>2019-10-10T08:57:35.757Z</time>
      </trkpt>
      <trkpt lat="46.57895" lon="5.47316">
        <ele>401</ele>
        <time>2019-10-10T08:57:40.778Z</time>
      </trkpt>
      <trkpt lat="46.57895" lon="5.47319">
        <ele>401</ele>
        <time>2019-10-10T08:57:45.761Z</time>
      </trkpt>
      <trkpt lat="46.57894" lon="5.47322">
        <ele>402</ele>
        <time>2019-10-10T08:57:49.778Z</time>
      </trkpt>
      <trkpt lat="46.57894" lon="5.47328">
        <ele>402</ele>
        <time>2019-10-10T08:57:54.772Z</time>
      </trkpt>
      <trkpt lat="46.57895" lon="5.47337">
        <ele>402</ele>
        <time>2019-10-10T08:57:59.758Z</time>
      </trkpt>
      <trkpt lat="46.57894" lon="5.47341">
        <ele>402</ele>
        <time>2019-10-10T08:58:04.785Z</time>
      </trkpt>
      <trkpt lat="46.57895" lon="5.47351">
        <ele>399</ele>
        <time>2019-10-10T08:58:09.769Z</time>
      </trkpt>
      <trkpt lat="46.57894" lon="5.47362">
        <ele>399</ele>
        <time>2019-10-10T08:58:14.764Z</time>
      </trkpt>
      <trkpt lat="46.57893" lon="5.47371">
        <ele>399</ele>
        <time>2019-10-10T08:58:19.786Z</time>
      </trkpt>
      <trkpt lat="46.57891" lon="5.47381">
        <ele>400</ele>
        <time>2019-10-10T08:58:24.761Z</time>
      </trkpt>
      <trkpt lat="46.57889" lon="5.47387">
        <ele>400</ele>
        <time>2019-10-10T08:58:28.772Z</time>
      </trkpt>
      <trkpt lat="46.57889" lon="5.47389">
        <ele>400</ele>
        <time>2019-10-10T08:58:33.779Z</time>
      </trkpt>
      <trkpt lat="46.57889" lon="5.4739">
        <ele>400</ele>
        <time>2019-10-10T08:58:37.764Z</time>
      </trkpt>
      <trkpt lat="46.57886" lon="5.47393">
        <ele>400</ele>
        <time>2019-10-10T08:58:42.781Z</time>
      </trkpt>
      <trkpt lat="46.57882" lon="5.47399">
        <ele>400</ele>
        <time>2019-10-10T08:58:47.768Z</time>
      </trkpt>
      <trkpt lat="46.57881" lon="5.47401">
        <ele>400</ele>
        <time>2019-10-10T08:58:51.798Z</time>
      </trkpt>
      <trkpt lat="46.57877" lon="5.47405">
        <ele>396</ele>
        <time>2019-10-10T08:58:56.792Z</time>
      </trkpt>
      <trkpt lat="46.57876" lon="5.47411">
        <ele>396</ele>
        <time>2019-10-10T08:59:01.782Z</time>
      </trkpt>
      <trkpt lat="46.57875" lon="5.47415">
        <ele>418</ele>
        <time>2019-10-10T08:59:06.765Z</time>
      </trkpt>
      <trkpt lat="46.57872" lon="5.47421">
        <ele>418</ele>
        <time>2019-10-10T08:59:10.764Z</time>
      </trkpt>
      <trkpt lat="46.57868" lon="5.47424">
        <ele>418</ele>
        <time>2019-10-10T08:59:15.780Z</time>
      </trkpt>
      <trkpt lat="46.57867" lon="5.47432">
        <ele>421</ele>
        <time>2019-10-10T08:59:20.764Z</time>
      </trkpt>
      <trkpt lat="46.57863" lon="5.47444">
        <ele>421</ele>
        <time>2019-10-10T08:59:25.781Z</time>
      </trkpt>
      <trkpt lat="46.57863" lon="5.47452">
        <ele>421</ele>
        <time>2019-10-10T08:59:30.766Z</time>
      </trkpt>
      <trkpt lat="46.57866" lon="5.47455">
        <ele>421</ele>
        <time>2019-10-10T08:59:34.791Z</time>
      </trkpt>
      <trkpt lat="46.57868" lon="5.47458">
        <ele>421</ele>
        <time>2019-10-10T08:59:39.809Z</time>
      </trkpt>
      <trkpt lat="46.5787" lon="5.47463">
        <ele>426</ele>
        <time>2019-10-10T08:59:44.783Z</time>
      </trkpt>
      <trkpt lat="46.5787" lon="5.47472">
        <ele>426</ele>
        <time>2019-10-10T08:59:49.774Z</time>
      </trkpt>
      <trkpt lat="46.57873" lon="5.47475">
        <ele>426</ele>
        <time>2019-10-10T08:59:54.776Z</time>
      </trkpt>
      <trkpt lat="46.57879" lon="5.47477">
        <ele>406</ele>
        <time>2019-10-10T08:59:58.777Z</time>
      </trkpt>
      <trkpt lat="46.57885" lon="5.47478">
        <ele>406</ele>
        <time>2019-10-10T09:00:03.782Z</time>
      </trkpt>
      <trkpt lat="46.57888" lon="5.47481">
        <ele>406</ele>
        <time>2019-10-10T09:00:08.779Z</time>
      </trkpt>
      <trkpt lat="46.5789" lon="5.47484">
        <ele>406</ele>
        <time>2019-10-10T09:00:13.781Z</time>
      </trkpt>
      <trkpt lat="46.57896" lon="5.47489">
        <ele>413</ele>
        <time>2019-10-10T09:00:18.763Z</time>
      </trkpt>
      <trkpt lat="46.57905" lon="5.47496">
        <ele>394</ele>
        <time>2019-10-10T09:00:27.781Z</time>
      </trkpt>
      <trkpt lat="46.57909" lon="5.47499">
        <ele>394</ele>
        <time>2019-10-10T09:00:32.766Z</time>
      </trkpt>
      <trkpt lat="46.5791" lon="5.47499">
        <ele>394</ele>
        <time>2019-10-10T09:00:36.777Z</time>
      </trkpt>
      <trkpt lat="46.5791" lon="5.475">
        <ele>394</ele>
        <time>2019-10-10T09:00:41.774Z</time>
      </trkpt>
      <trkpt lat="46.57914" lon="5.47505">
        <ele>394</ele>
        <time>2019-10-10T09:00:45.798Z</time>
      </trkpt>
      <trkpt lat="46.57916" lon="5.47509">
        <ele>394</ele>
        <time>2019-10-10T09:00:50.766Z</time>
      </trkpt>
      <trkpt lat="46.57918" lon="5.47513">
        <ele>394</ele>
        <time>2019-10-10T09:00:55.760Z</time>
      </trkpt>
      <trkpt lat="46.57924" lon="5.47516">
        <ele>398</ele>
        <time>2019-10-10T09:00:59.778Z</time>
      </trkpt>
      <trkpt lat="46.57929" lon="5.4752">
        <ele>398</ele>
        <time>2019-10-10T09:01:04.772Z</time>
      </trkpt>
      <trkpt lat="46.57937" lon="5.47529">
        <ele>380</ele>
        <time>2019-10-10T09:01:08.780Z</time>
      </trkpt>
      <trkpt lat="46.57944" lon="5.47535">
        <ele>380</ele>
        <time>2019-10-10T09:01:13.800Z</time>
      </trkpt>
      <trkpt lat="46.57947" lon="5.47541">
        <ele>380</ele>
        <time>2019-10-10T09:01:18.774Z</time>
      </trkpt>
      <trkpt lat="46.57949" lon="5.47548">
        <ele>381</ele>
        <time>2019-10-10T09:01:23.780Z</time>
      </trkpt>
      <trkpt lat="46.57953" lon="5.47561">
        <ele>381</ele>
        <time>2019-10-10T09:01:33.781Z</time>
      </trkpt>
      <trkpt lat="46.57953" lon="5.47563">
        <ele>381</ele>
        <time>2019-10-10T09:01:38.775Z</time>
      </trkpt>
      <trkpt lat="46.57952" lon="5.47565">
        <ele>381</ele>
        <time>2019-10-10T09:01:43.768Z</time>
      </trkpt>
      <trkpt lat="46.5795" lon="5.47568">
        <ele>381</ele>
        <time>2019-10-10T09:01:48.763Z</time>
      </trkpt>
      <trkpt lat="46.57948" lon="5.47573">
        <ele>384</ele>
        <time>2019-10-10T09:01:53.789Z</time>
      </trkpt>
      <trkpt lat="46.57947" lon="5.4758">
        <ele>384</ele>
        <time>2019-10-10T09:01:57.796Z</time>
      </trkpt>
      <trkpt lat="46.57945" lon="5.47588">
        <ele>384</ele>
        <time>2019-10-10T09:02:02.790Z</time>
      </trkpt>
      <trkpt lat="46.5794" lon="5.47595">
        <ele>384</ele>
        <time>2019-10-10T09:02:06.802Z</time>
      </trkpt>
      <trkpt lat="46.57939" lon="5.476">
        <ele>386</ele>
        <time>2019-10-10T09:02:11.767Z</time>
      </trkpt>
      <trkpt lat="46.57939" lon="5.47604">
        <ele>386</ele>
        <time>2019-10-10T09:02:15.804Z</time>
      </trkpt>
      <trkpt lat="46.5794" lon="5.47609">
        <ele>386</ele>
        <time>2019-10-10T09:02:20.776Z</time>
      </trkpt>
      <trkpt lat="46.57939" lon="5.47616">
        <ele>386</ele>
        <time>2019-10-10T09:02:25.777Z</time>
      </trkpt>
      <trkpt lat="46.5794" lon="5.47622">
        <ele>386</ele>
        <time>2019-10-10T09:02:29.777Z</time>
      </trkpt>
      <trkpt lat="46.57941" lon="5.47631">
        <ele>389</ele>
        <time>2019-10-10T09:02:34.796Z</time>
      </trkpt>
      <trkpt lat="46.57942" lon="5.47636">
        <ele>389</ele>
        <time>2019-10-10T09:02:39.771Z</time>
      </trkpt>
      <trkpt lat="46.57943" lon="5.47638">
        <ele>389</ele>
        <time>2019-10-10T09:02:44.769Z</time>
      </trkpt>
      <trkpt lat="46.57945" lon="5.47642">
        <ele>389</ele>
        <time>2019-10-10T09:02:49.766Z</time>
      </trkpt>
      <trkpt lat="46.57945" lon="5.47648">
        <ele>389</ele>
        <time>2019-10-10T09:02:53.805Z</time>
      </trkpt>
      <trkpt lat="46.57945" lon="5.47651">
        <ele>389</ele>
        <time>2019-10-10T09:02:58.777Z</time>
      </trkpt>
      <trkpt lat="46.57947" lon="5.47656">
        <ele>393</ele>
        <time>2019-10-10T09:03:03.766Z</time>
      </trkpt>
      <trkpt lat="46.5795" lon="5.47662">
        <ele>393</ele>
        <time>2019-10-10T09:03:07.789Z</time>
      </trkpt>
      <trkpt lat="46.57955" lon="5.47666">
        <ele>393</ele>
        <time>2019-10-10T09:03:12.788Z</time>
      </trkpt>
      <trkpt lat="46.57959" lon="5.4767">
        <ele>361</ele>
        <time>2019-10-10T09:03:17.792Z</time>
      </trkpt>
      <trkpt lat="46.57965" lon="5.47677">
        <ele>361</ele>
        <time>2019-10-10T09:03:22.767Z</time>
      </trkpt>
      <trkpt lat="46.57967" lon="5.47681">
        <ele>366</ele>
        <time>2019-10-10T09:03:26.795Z</time>
      </trkpt>
      <trkpt lat="46.5797" lon="5.47688">
        <ele>366</ele>
        <time>2019-10-10T09:03:31.765Z</time>
      </trkpt>
      <trkpt lat="46.57972" lon="5.47691">
        <ele>366</ele>
        <time>2019-10-10T09:03:35.783Z</time>
      </trkpt>
      <trkpt lat="46.57975" lon="5.47697">
        <ele>366</ele>
        <time>2019-10-10T09:03:40.782Z</time>
      </trkpt>
      <trkpt lat="46.57976" lon="5.47704">
        <ele>366</ele>
        <time>2019-10-10T09:03:45.771Z</time>
      </trkpt>
      <trkpt lat="46.57978" lon="5.47708">
        <ele>366</ele>
        <time>2019-10-10T09:03:50.793Z</time>
      </trkpt>
      <trkpt lat="46.57983" lon="5.47713">
        <ele>375</ele>
        <time>2019-10-10T09:03:55.764Z</time>
      </trkpt>
      <trkpt lat="46.57986" lon="5.47718">
        <ele>354</ele>
        <time>2019-10-10T09:03:59.793Z</time>
      </trkpt>
      <trkpt lat="46.57988" lon="5.47722">
        <ele>354</ele>
        <time>2019-10-10T09:04:04.773Z</time>
      </trkpt>
      <trkpt lat="46.5799" lon="5.47725">
        <ele>354</ele>
        <time>2019-10-10T09:04:09.787Z</time>
      </trkpt>
      <trkpt lat="46.57992" lon="5.47728">
        <ele>354</ele>
        <time>2019-10-10T09:04:14.794Z</time>
      </trkpt>
      <trkpt lat="46.57995" lon="5.47732">
        <ele>354</ele>
        <time>2019-10-10T09:04:19.784Z</time>
      </trkpt>
      <trkpt lat="46.57996" lon="5.47735">
        <ele>354</ele>
        <time>2019-10-10T09:04:23.798Z</time>
      </trkpt>
      <trkpt lat="46.57998" lon="5.47738">
        <ele>362</ele>
        <time>2019-10-10T09:04:28.779Z</time>
      </trkpt>
      <trkpt lat="46.58" lon="5.47739">
        <ele>362</ele>
        <time>2019-10-10T09:04:33.779Z</time>
      </trkpt>
      <trkpt lat="46.58003" lon="5.47742">
        <ele>362</ele>
        <time>2019-10-10T09:04:37.783Z</time>
      </trkpt>
      <trkpt lat="46.58008" lon="5.47747">
        <ele>362</ele>
        <time>2019-10-10T09:04:42.763Z</time>
      </trkpt>
      <trkpt lat="46.58013" lon="5.47751">
        <ele>362</ele>
        <time>2019-10-10T09:04:47.761Z</time>
      </trkpt>
      <trkpt lat="46.58015" lon="5.47751">
        <ele>351</ele>
        <time>2019-10-10T09:04:51.785Z</time>
      </trkpt>
      <trkpt lat="46.58019" lon="5.47751">
        <ele>351</ele>
        <time>2019-10-10T09:04:56.771Z</time>
      </trkpt>
      <trkpt lat="46.5802" lon="5.4775">
        <ele>351</ele>
        <time>2019-10-10T09:05:00.778Z</time>
      </trkpt>
      <trkpt lat="46.58025" lon="5.47753">
        <ele>351</ele>
        <time>2019-10-10T09:05:05.770Z</time>
      </trkpt>
      <trkpt lat="46.58028" lon="5.47758">
        <ele>351</ele>
        <time>2019-10-10T09:05:10.787Z</time>
      </trkpt>
      <trkpt lat="46.5803" lon="5.47763">
        <ele>351</ele>
        <time>2019-10-10T09:05:15.780Z</time>
      </trkpt>
      <trkpt lat="46.58032" lon="5.47763">
        <ele>351</ele>
        <time>2019-10-10T09:05:20.785Z</time>
      </trkpt>
      <trkpt lat="46.58035" lon="5.47763">
        <ele>351</ele>
        <time>2019-10-10T09:05:25.743Z</time>
      </trkpt>
      <trkpt lat="46.58038" lon="5.47765">
        <ele>361</ele>
        <time>2019-10-10T09:05:30.765Z</time>
      </trkpt>
      <trkpt lat="46.58041" lon="5.47765">
        <ele>361</ele>
        <time>2019-10-10T09:05:35.776Z</time>
      </trkpt>
      <trkpt lat="46.58043" lon="5.47769">
        <ele>350</ele>
        <time>2019-10-10T09:05:40.770Z</time>
      </trkpt>
      <trkpt lat="46.58047" lon="5.47772">
        <ele>350</ele>
        <time>2019-10-10T09:05:45.783Z</time>
      </trkpt>
      <trkpt lat="46.5805" lon="5.47774">
        <ele>350</ele>
        <time>2019-10-10T09:05:50.800Z</time>
      </trkpt>
      <trkpt lat="46.58053" lon="5.47781">
        <ele>350</ele>
        <time>2019-10-10T09:05:55.784Z</time>
      </trkpt>
      <trkpt lat="46.58056" lon="5.47789">
        <ele>350</ele>
        <time>2019-10-10T09:06:00.766Z</time>
      </trkpt>
      <trkpt lat="46.58058" lon="5.47791">
        <ele>350</ele>
        <time>2019-10-10T09:06:04.777Z</time>
      </trkpt>
      <trkpt lat="46.58063" lon="5.4779">
        <ele>350</ele>
        <time>2019-10-10T09:06:09.765Z</time>
      </trkpt>
      <trkpt lat="46.58068" lon="5.47792">
        <ele>350</ele>
        <time>2019-10-10T09:06:14.778Z</time>
      </trkpt>
      <trkpt lat="46.58071" lon="5.47796">
        <ele>345</ele>
        <time>2019-10-10T09:06:18.791Z</time>
      </trkpt>
      <trkpt lat="46.58072" lon="5.47798">
        <ele>345</ele>
        <time>2019-10-10T09:06:23.770Z</time>
      </trkpt>
      <trkpt lat="46.58073" lon="5.47801">
        <ele>345</ele>
        <time>2019-10-10T09:06:27.781Z</time>
      </trkpt>
      <trkpt lat="46.58076" lon="5.47804">
        <ele>345</ele>
        <time>2019-10-10T09:06:32.749Z</time>
      </trkpt>
      <trkpt lat="46.58078" lon="5.47805">
        <ele>345</ele>
        <time>2019-10-10T09:06:36.786Z</time>
      </trkpt>
      <trkpt lat="46.58083" lon="5.47811">
        <ele>345</ele>
        <time>2019-10-10T09:06:41.770Z</time>
      </trkpt>
      <trkpt lat="46.58084" lon="5.47814">
        <ele>345</ele>
        <time>2019-10-10T09:06:46.778Z</time>
      </trkpt>
      <trkpt lat="46.58086" lon="5.47815">
        <ele>345</ele>
        <time>2019-10-10T09:06:51.787Z</time>
      </trkpt>
      <trkpt lat="46.58094" lon="5.47817">
        <ele>345</ele>
        <time>2019-10-10T09:07:05.758Z</time>
      </trkpt>
      <trkpt lat="46.58094" lon="5.47816">
        <ele>345</ele>
        <time>2019-10-10T09:07:10.783Z</time>
      </trkpt>
      <trkpt lat="46.58097" lon="5.47821">
        <ele>354</ele>
        <time>2019-10-10T09:07:15.786Z</time>
      </trkpt>
      <trkpt lat="46.58097" lon="5.47824">
        <ele>354</ele>
        <time>2019-10-10T09:07:20.780Z</time>
      </trkpt>
      <trkpt lat="46.58099" lon="5.47829">
        <ele>343</ele>
        <time>2019-10-10T09:07:25.786Z</time>
      </trkpt>
      <trkpt lat="46.58102" lon="5.47835">
        <ele>343</ele>
        <time>2019-10-10T09:07:30.765Z</time>
      </trkpt>
      <trkpt lat="46.58102" lon="5.4784">
        <ele>343</ele>
        <time>2019-10-10T09:07:34.776Z</time>
      </trkpt>
      <trkpt lat="46.58103" lon="5.47843">
        <ele>343</ele>
        <time>2019-10-10T09:07:39.777Z</time>
      </trkpt>
      <trkpt lat="46.58103" lon="5.47847">
        <ele>343</ele>
        <time>2019-10-10T09:07:44.799Z</time>
      </trkpt>
      <trkpt lat="46.58104" lon="5.47851">
        <ele>352</ele>
        <time>2019-10-10T09:07:49.791Z</time>
      </trkpt>
      <trkpt lat="46.58104" lon="5.47857">
        <ele>352</ele>
        <time>2019-10-10T09:07:54.778Z</time>
      </trkpt>
      <trkpt lat="46.58107" lon="5.47862">
        <ele>352</ele>
        <time>2019-10-10T09:07:59.795Z</time>
      </trkpt>
      <trkpt lat="46.58112" lon="5.47866">
        <ele>352</ele>
        <time>2019-10-10T09:08:04.789Z</time>
      </trkpt>
      <trkpt lat="46.58115" lon="5.47868">
        <ele>352</ele>
        <time>2019-10-10T09:08:09.792Z</time>
      </trkpt>
      <trkpt lat="46.58117" lon="5.47872">
        <ele>352</ele>
        <time>2019-10-10T09:08:14.773Z</time>
      </trkpt>
      <trkpt lat="46.58117" lon="5.47875">
        <ele>371</ele>
        <time>2019-10-10T09:08:19.774Z</time>
      </trkpt>
      <trkpt lat="46.5812" lon="5.4788">
        <ele>371</ele>
        <time>2019-10-10T09:08:23.793Z</time>
      </trkpt>
      <trkpt lat="46.58126" lon="5.47888">
        <ele>355</ele>
        <time>2019-10-10T09:08:28.794Z</time>
      </trkpt>
      <trkpt lat="46.58132" lon="5.47895">
        <ele>355</ele>
        <time>2019-10-10T09:08:33.786Z</time>
      </trkpt>
      <trkpt lat="46.58135" lon="5.47903">
        <ele>355</ele>
        <time>2019-10-10T09:08:38.775Z</time>
      </trkpt>
      <trkpt lat="46.58141" lon="5.47912">
        <ele>363</ele>
        <time>2019-10-10T09:08:43.773Z</time>
      </trkpt>
      <trkpt lat="46.58148" lon="5.47914">
        <ele>363</ele>
        <time>2019-10-10T09:08:48.800Z</time>
      </trkpt>
      <trkpt lat="46.58149" lon="5.47916">
        <ele>363</ele>
        <time>2019-10-10T09:08:53.783Z</time>
      </trkpt>
      <trkpt lat="46.58153" lon="5.47918">
        <ele>363</ele>
        <time>2019-10-10T09:08:58.768Z</time>
      </trkpt>
      <trkpt lat="46.58154" lon="5.47919">
        <ele>356</ele>
        <time>2019-10-10T09:09:02.779Z</time>
      </trkpt>
      <trkpt lat="46.58155" lon="5.4792">
        <ele>356</ele>
        <time>2019-10-10T09:09:06.782Z</time>
      </trkpt>
      <trkpt lat="46.5816" lon="5.47919">
        <ele>356</ele>
        <time>2019-10-10T09:09:11.790Z</time>
      </trkpt>
      <trkpt lat="46.58164" lon="5.47922">
        <ele>356</ele>
        <time>2019-10-10T09:09:16.777Z</time>
      </trkpt>
      <trkpt lat="46.58166" lon="5.47928">
        <ele>356</ele>
        <time>2019-10-10T09:09:21.774Z</time>
      </trkpt>
      <trkpt lat="46.5817" lon="5.4793">
        <ele>356</ele>
        <time>2019-10-10T09:09:26.771Z</time>
      </trkpt>
      <trkpt lat="46.58171" lon="5.47932">
        <ele>363</ele>
        <time>2019-10-10T09:09:30.778Z</time>
      </trkpt>
      <trkpt lat="46.58173" lon="5.47934">
        <ele>363</ele>
        <time>2019-10-10T09:09:35.766Z</time>
      </trkpt>
      <trkpt lat="46.58179" lon="5.47932">
        <ele>363</ele>
        <time>2019-10-10T09:09:40.780Z</time>
      </trkpt>
      <trkpt lat="46.58183" lon="5.47934">
        <ele>359</ele>
        <time>2019-10-10T09:09:45.752Z</time>
      </trkpt>
      <trkpt lat="46.58186" lon="5.47936">
        <ele>359</ele>
        <time>2019-10-10T09:09:49.785Z</time>
      </trkpt>
      <trkpt lat="46.58189" lon="5.47938">
        <ele>359</ele>
        <time>2019-10-10T09:09:54.767Z</time>
      </trkpt>
      <trkpt lat="46.58193" lon="5.47941">
        <ele>359</ele>
        <time>2019-10-10T09:09:59.772Z</time>
      </trkpt>
      <trkpt lat="46.58194" lon="5.47941">
        <ele>359</ele>
        <time>2019-10-10T09:10:04.763Z</time>
      </trkpt>
      <trkpt lat="46.58196" lon="5.47944">
        <ele>359</ele>
        <time>2019-10-10T09:10:09.772Z</time>
      </trkpt>
      <trkpt lat="46.58198" lon="5.47945">
        <ele>359</ele>
        <time>2019-10-10T09:10:14.758Z</time>
      </trkpt>
      <trkpt lat="46.58199" lon="5.47948">
        <ele>359</ele>
        <time>2019-10-10T09:10:19.762Z</time>
      </trkpt>
      <trkpt lat="46.58201" lon="5.4795">
        <ele>359</ele>
        <time>2019-10-10T09:10:23.775Z</time>
      </trkpt>
      <trkpt lat="46.58207" lon="5.47953">
        <ele>359</ele>
        <time>2019-10-10T09:10:28.759Z</time>
      </trkpt>
      <trkpt lat="46.58209" lon="5.47954">
        <ele>355</ele>
        <time>2019-10-10T09:10:32.774Z</time>
      </trkpt>
      <trkpt lat="46.58215" lon="5.47956">
        <ele>355</ele>
        <time>2019-10-10T09:12:21.746Z</time>
      </trkpt>
      <trkpt lat="46.58212" lon="5.47956">
        <ele>355</ele>
        <time>2019-10-10T09:12:25.747Z</time>
      </trkpt>
      <trkpt lat="46.58209" lon="5.47959">
        <ele>361</ele>
        <time>2019-10-10T09:12:30.734Z</time>
      </trkpt>
      <trkpt lat="46.58206" lon="5.47963">
        <ele>366</ele>
        <time>2019-10-10T09:12:35.726Z</time>
      </trkpt>
      <trkpt lat="46.58203" lon="5.47964">
        <ele>366</ele>
        <time>2019-10-10T09:12:39.745Z</time>
      </trkpt>
      <trkpt lat="46.582" lon="5.47966">
        <ele>366</ele>
        <time>2019-10-10T09:12:44.743Z</time>
      </trkpt>
      <trkpt lat="46.58196" lon="5.47967">
        <ele>366</ele>
        <time>2019-10-10T09:12:49.759Z</time>
      </trkpt>
      <trkpt lat="46.58193" lon="5.47968">
        <ele>366</ele>
        <time>2019-10-10T09:12:54.740Z</time>
      </trkpt>
      <trkpt lat="46.5819" lon="5.47968">
        <ele>366</ele>
        <time>2019-10-10T09:12:58.760Z</time>
      </trkpt>
      <trkpt lat="46.58186" lon="5.4797">
        <ele>366</ele>
        <time>2019-10-10T09:13:03.749Z</time>
      </trkpt>
      <trkpt lat="46.58186" lon="5.47978">
        <ele>366</ele>
        <time>2019-10-10T09:13:08.744Z</time>
      </trkpt>
      <trkpt lat="46.58184" lon="5.4798">
        <ele>366</ele>
        <time>2019-10-10T09:13:12.751Z</time>
      </trkpt>
      <trkpt lat="46.58183" lon="5.47982">
        <ele>366</ele>
        <time>2019-10-10T09:13:16.756Z</time>
      </trkpt>
      <trkpt lat="46.58181" lon="5.47985">
        <ele>366</ele>
        <time>2019-10-10T09:14:04.763Z</time>
      </trkpt>
      <trkpt lat="46.5818" lon="5.47987">
        <ele>387</ele>
        <time>2019-10-10T09:14:09.785Z</time>
      </trkpt>
      <trkpt lat="46.58177" lon="5.47988">
        <ele>387</ele>
        <time>2019-10-10T09:14:14.780Z</time>
      </trkpt>
      <trkpt lat="46.58176" lon="5.47992">
        <ele>387</ele>
        <time>2019-10-10T09:14:19.754Z</time>
      </trkpt>
      <trkpt lat="46.58175" lon="5.47994">
        <ele>387</ele>
        <time>2019-10-10T09:14:24.763Z</time>
      </trkpt>
      <trkpt lat="46.58177" lon="5.47997">
        <ele>387</ele>
        <time>2019-10-10T09:14:29.763Z</time>
      </trkpt>
      <trkpt lat="46.58181" lon="5.48">
        <ele>375</ele>
        <time>2019-10-10T09:14:34.764Z</time>
      </trkpt>
      <trkpt lat="46.58184" lon="5.48">
        <ele>375</ele>
        <time>2019-10-10T09:14:39.769Z</time>
      </trkpt>
      <trkpt lat="46.58189" lon="5.48001">
        <ele>375</ele>
        <time>2019-10-10T09:14:44.757Z</time>
      </trkpt>
      <trkpt lat="46.58191" lon="5.48004">
        <ele>375</ele>
        <time>2019-10-10T09:14:54.755Z</time>
      </trkpt>
      <trkpt lat="46.58194" lon="5.48005">
        <ele>375</ele>
        <time>2019-10-10T09:14:59.755Z</time>
      </trkpt>
      <trkpt lat="46.58194" lon="5.48006">
        <ele>375</ele>
        <time>2019-10-10T09:15:04.776Z</time>
      </trkpt>
      <trkpt lat="46.58197" lon="5.48012">
        <ele>375</ele>
        <time>2019-10-10T09:15:09.773Z</time>
      </trkpt>
      <trkpt lat="46.58202" lon="5.48014">
        <ele>375</ele>
        <time>2019-10-10T09:15:14.762Z</time>
      </trkpt>
      <trkpt lat="46.58208" lon="5.48016">
        <ele>382</ele>
        <time>2019-10-10T09:15:19.767Z</time>
      </trkpt>
      <trkpt lat="46.58214" lon="5.4802">
        <ele>377</ele>
        <time>2019-10-10T09:15:24.761Z</time>
      </trkpt>
      <trkpt lat="46.58216" lon="5.4802">
        <ele>377</ele>
        <time>2019-10-10T09:15:29.780Z</time>
      </trkpt>
      <trkpt lat="46.5822" lon="5.48022">
        <ele>377</ele>
        <time>2019-10-10T09:15:34.767Z</time>
      </trkpt>
      <trkpt lat="46.58224" lon="5.48022">
        <ele>377</ele>
        <time>2019-10-10T09:15:38.776Z</time>
      </trkpt>
      <trkpt lat="46.5823" lon="5.48022">
        <ele>377</ele>
        <time>2019-10-10T09:15:43.778Z</time>
      </trkpt>
      <trkpt lat="46.58234" lon="5.48023">
        <ele>377</ele>
        <time>2019-10-10T09:15:48.757Z</time>
      </trkpt>
      <trkpt lat="46.58241" lon="5.48018">
        <ele>378</ele>
        <time>2019-10-10T09:15:53.754Z</time>
      </trkpt>
      <trkpt lat="46.58246" lon="5.48016">
        <ele>378</ele>
        <time>2019-10-10T09:15:57.770Z</time>
      </trkpt>
      <trkpt lat="46.58253" lon="5.4801">
        <ele>370</ele>
        <time>2019-10-10T09:16:02.774Z</time>
      </trkpt>
      <trkpt lat="46.58257" lon="5.48003">
        <ele>370</ele>
        <time>2019-10-10T09:16:07.767Z</time>
      </trkpt>
      <trkpt lat="46.58261" lon="5.47998">
        <ele>370</ele>
        <time>2019-10-10T09:16:12.761Z</time>
      </trkpt>
      <trkpt lat="46.58262" lon="5.47997">
        <ele>370</ele>
        <time>2019-10-10T09:16:21.785Z</time>
      </trkpt>
      <trkpt lat="46.58262" lon="5.47997">
        <ele>370</ele>
        <time>2019-10-10T09:16:26.772Z</time>
      </trkpt>
      <trkpt lat="46.58264" lon="5.47993">
        <ele>370</ele>
        <time>2019-10-10T09:16:31.761Z</time>
      </trkpt>
      <trkpt lat="46.58266" lon="5.47991">
        <ele>378</ele>
        <time>2019-10-10T09:16:35.780Z</time>
      </trkpt>
      <trkpt lat="46.5827" lon="5.47991">
        <ele>378</ele>
        <time>2019-10-10T09:16:40.758Z</time>
      </trkpt>
      <trkpt lat="46.58274" lon="5.4799">
        <ele>378</ele>
        <time>2019-10-10T09:16:45.759Z</time>
      </trkpt>
      <trkpt lat="46.58276" lon="5.47989">
        <ele>378</ele>
        <time>2019-10-10T09:16:50.766Z</time>
      </trkpt>
      <trkpt lat="46.58281" lon="5.47989">
        <ele>378</ele>
        <time>2019-10-10T09:16:55.778Z</time>
      </trkpt>
      <trkpt lat="46.58286" lon="5.47988">
        <ele>378</ele>
        <time>2019-10-10T09:17:00.761Z</time>
      </trkpt>
      <trkpt lat="46.58289" lon="5.47988">
        <ele>378</ele>
        <time>2019-10-10T09:17:04.772Z</time>
      </trkpt>
      <trkpt lat="46.58293" lon="5.47988">
        <ele>383</ele>
        <time>2019-10-10T09:17:08.788Z</time>
      </trkpt>
      <trkpt lat="46.58299" lon="5.47987">
        <ele>383</ele>
        <time>2019-10-10T09:17:13.778Z</time>
      </trkpt>
      <trkpt lat="46.58304" lon="5.47983">
        <ele>375</ele>
        <time>2019-10-10T09:17:18.761Z</time>
      </trkpt>
      <trkpt lat="46.58309" lon="5.47981">
        <ele>375</ele>
        <time>2019-10-10T09:17:23.755Z</time>
      </trkpt>
      <trkpt lat="46.58313" lon="5.47983">
        <ele>375</ele>
        <time>2019-10-10T09:17:28.774Z</time>
      </trkpt>
      <trkpt lat="46.5832" lon="5.47983">
        <ele>376</ele>
        <time>2019-10-10T09:17:33.757Z</time>
      </trkpt>
      <trkpt lat="46.58326" lon="5.47977">
        <ele>376</ele>
        <time>2019-10-10T09:17:38.764Z</time>
      </trkpt>
      <trkpt lat="46.58332" lon="5.47975">
        <ele>376</ele>
        <time>2019-10-10T09:17:43.760Z</time>
      </trkpt>
      <trkpt lat="46.58334" lon="5.47974">
        <ele>376</ele>
        <time>2019-10-10T09:17:47.776Z</time>
      </trkpt>
      <trkpt lat="46.5834" lon="5.4797">
        <ele>376</ele>
        <time>2019-10-10T09:17:52.783Z</time>
      </trkpt>
      <trkpt lat="46.58346" lon="5.47967">
        <ele>376</ele>
        <time>2019-10-10T09:17:57.779Z</time>
      </trkpt>
      <trkpt lat="46.5835" lon="5.4796">
        <ele>382</ele>
        <time>2019-10-10T09:18:02.788Z</time>
      </trkpt>
      <trkpt lat="46.58352" lon="5.47957">
        <ele>376</ele>
        <time>2019-10-10T09:18:07.766Z</time>
      </trkpt>
      <trkpt lat="46.58356" lon="5.47953">
        <ele>376</ele>
        <time>2019-10-10T09:18:12.775Z</time>
      </trkpt>
      <trkpt lat="46.58358" lon="5.47951">
        <ele>376</ele>
        <time>2019-10-10T09:18:17.763Z</time>
      </trkpt>
      <trkpt lat="46.58361" lon="5.47945">
        <ele>376</ele>
        <time>2019-10-10T09:18:22.764Z</time>
      </trkpt>
      <trkpt lat="46.58364" lon="5.47943">
        <ele>376</ele>
        <time>2019-10-10T09:18:26.794Z</time>
      </trkpt>
      <trkpt lat="46.58366" lon="5.47939">
        <ele>376</ele>
        <time>2019-10-10T09:18:31.772Z</time>
      </trkpt>
      <trkpt lat="46.58367" lon="5.47934">
        <ele>376</ele>
        <time>2019-10-10T09:18:36.772Z</time>
      </trkpt>
      <trkpt lat="46.58368" lon="5.47929">
        <ele>369</ele>
        <time>2019-10-10T09:18:40.781Z</time>
      </trkpt>
      <trkpt lat="46.58374" lon="5.47922">
        <ele>369</ele>
        <time>2019-10-10T09:18:45.765Z</time>
      </trkpt>
      <trkpt lat="46.58375" lon="5.47918">
        <ele>379</ele>
        <time>2019-10-10T09:18:50.760Z</time>
      </trkpt>
      <trkpt lat="46.58377" lon="5.47914">
        <ele>379</ele>
        <time>2019-10-10T09:18:54.779Z</time>
      </trkpt>
      <trkpt lat="46.58381" lon="5.47905">
        <ele>379</ele>
        <time>2019-10-10T09:18:59.756Z</time>
      </trkpt>
      <trkpt lat="46.58388" lon="5.47896">
        <ele>375</ele>
        <time>2019-10-10T09:19:04.781Z</time>
      </trkpt>
      <trkpt lat="46.58397" lon="5.47886">
        <ele>375</ele>
        <time>2019-10-10T09:19:09.773Z</time>
      </trkpt>
      <trkpt lat="46.58402" lon="5.4788">
        <ele>375</ele>
        <time>2019-10-10T09:19:14.766Z</time>
      </trkpt>
      <trkpt lat="46.58407" lon="5.47875">
        <ele>383</ele>
        <time>2019-10-10T09:19:19.765Z</time>
      </trkpt>
      <trkpt lat="46.58413" lon="5.47868">
        <ele>381</ele>
        <time>2019-10-10T09:19:24.766Z</time>
      </trkpt>
      <trkpt lat="46.58416" lon="5.47866">
        <ele>381</ele>
        <time>2019-10-10T09:19:29.765Z</time>
      </trkpt>
      <trkpt lat="46.58419" lon="5.4786">
        <ele>381</ele>
        <time>2019-10-10T09:19:34.752Z</time>
      </trkpt>
      <trkpt lat="46.58423" lon="5.47857">
        <ele>381</ele>
        <time>2019-10-10T09:19:39.765Z</time>
      </trkpt>
      <trkpt lat="46.58425" lon="5.47853">
        <ele>381</ele>
        <time>2019-10-10T09:19:43.787Z</time>
      </trkpt>
      <trkpt lat="46.58426" lon="5.47852">
        <ele>381</ele>
        <time>2019-10-10T09:19:48.760Z</time>
      </trkpt>
      <trkpt lat="46.58429" lon="5.47851">
        <ele>381</ele>
        <time>2019-10-10T09:19:52.793Z</time>
      </trkpt>
      <trkpt lat="46.58436" lon="5.47845">
        <ele>382</ele>
        <time>2019-10-10T09:19:57.770Z</time>
      </trkpt>
      <trkpt lat="46.5844" lon="5.47842">
        <ele>382</ele>
        <time>2019-10-10T09:20:02.761Z</time>
      </trkpt>
      <trkpt lat="46.58443" lon="5.47844">
        <ele>382</ele>
        <time>2019-10-10T09:20:07.765Z</time>
      </trkpt>
      <trkpt lat="46.58444" lon="5.47843">
        <ele>382</ele>
        <time>2019-10-10T09:20:12.760Z</time>
      </trkpt>
      <trkpt lat="46.58447" lon="5.47839">
        <ele>382</ele>
        <time>2019-10-10T09:20:16.790Z</time>
      </trkpt>
      <trkpt lat="46.5845" lon="5.47837">
        <ele>382</ele>
        <time>2019-10-10T09:20:21.765Z</time>
      </trkpt>
      <trkpt lat="46.58454" lon="5.47838">
        <ele>382</ele>
        <time>2019-10-10T09:20:39.760Z</time>
      </trkpt>
      <trkpt lat="46.58455" lon="5.47837">
        <ele>382</ele>
        <time>2019-10-10T09:20:43.787Z</time>
      </trkpt>
      <trkpt lat="46.58455" lon="5.47837">
        <ele>382</ele>
        <time>2019-10-10T09:20:48.772Z</time>
      </trkpt>
      <trkpt lat="46.58459" lon="5.47837">
        <ele>386</ele>
        <time>2019-10-10T09:20:52.779Z</time>
      </trkpt>
      <trkpt lat="46.58471" lon="5.47835">
        <ele>386</ele>
        <time>2019-10-10T09:20:56.767Z</time>
      </trkpt>
      <trkpt lat="46.58473" lon="5.47836">
        <ele>386</ele>
        <time>2019-10-10T09:21:01.786Z</time>
      </trkpt>
      <trkpt lat="46.58473" lon="5.47836">
        <ele>386</ele>
        <time>2019-10-10T09:21:06.766Z</time>
      </trkpt>
      <trkpt lat="46.58477" lon="5.4783">
        <ele>386</ele>
        <time>2019-10-10T09:21:11.758Z</time>
      </trkpt>
      <trkpt lat="46.5848" lon="5.47828">
        <ele>386</ele>
        <time>2019-10-10T09:21:15.786Z</time>
      </trkpt>
      <trkpt lat="46.58483" lon="5.47824">
        <ele>386</ele>
        <time>2019-10-10T09:21:20.790Z</time>
      </trkpt>
      <trkpt lat="46.58485" lon="5.4782">
        <ele>386</ele>
        <time>2019-10-10T09:21:25.793Z</time>
      </trkpt>
      <trkpt lat="46.58488" lon="5.47816">
        <ele>386</ele>
        <time>2019-10-10T09:21:30.777Z</time>
      </trkpt>
      <trkpt lat="46.58491" lon="5.47813">
        <ele>386</ele>
        <time>2019-10-10T09:21:34.791Z</time>
      </trkpt>
      <trkpt lat="46.58494" lon="5.47812">
        <ele>386</ele>
        <time>2019-10-10T09:21:39.776Z</time>
      </trkpt>
      <trkpt lat="46.58497" lon="5.47807">
        <ele>386</ele>
        <time>2019-10-10T09:21:44.798Z</time>
      </trkpt>
      <trkpt lat="46.585" lon="5.47803">
        <ele>386</ele>
        <time>2019-10-10T09:21:49.782Z</time>
      </trkpt>
      <trkpt lat="46.58504" lon="5.47797">
        <ele>386</ele>
        <time>2019-10-10T09:21:54.794Z</time>
      </trkpt>
      <trkpt lat="46.58507" lon="5.4779">
        <ele>383</ele>
        <time>2019-10-10T09:21:59.766Z</time>
      </trkpt>
      <trkpt lat="46.58508" lon="5.47786">
        <ele>383</ele>
        <time>2019-10-10T09:22:03.776Z</time>
      </trkpt>
      <trkpt lat="46.58511" lon="5.47784">
        <ele>383</ele>
        <time>2019-10-10T09:22:07.800Z</time>
      </trkpt>
      <trkpt lat="46.58513" lon="5.47782">
        <ele>383</ele>
        <time>2019-10-10T09:22:12.785Z</time>
      </trkpt>
      <trkpt lat="46.58515" lon="5.47779">
        <ele>385</ele>
        <time>2019-10-10T09:22:17.773Z</time>
      </trkpt>
      <trkpt lat="46.5852" lon="5.47771">
        <ele>385</ele>
        <time>2019-10-10T09:22:22.779Z</time>
      </trkpt>
      <trkpt lat="46.58524" lon="5.47766">
        <ele>385</ele>
        <time>2019-10-10T09:22:27.771Z</time>
      </trkpt>
      <trkpt lat="46.58528" lon="5.4776">
        <ele>382</ele>
        <time>2019-10-10T09:22:32.776Z</time>
      </trkpt>
      <trkpt lat="46.58532" lon="5.47754">
        <ele>382</ele>
        <time>2019-10-10T09:22:37.781Z</time>
      </trkpt>
      <trkpt lat="46.58535" lon="5.47748">
        <ele>382</ele>
        <time>2019-10-10T09:22:42.790Z</time>
      </trkpt>
      <trkpt lat="46.58536" lon="5.47742">
        <ele>382</ele>
        <time>2019-10-10T09:22:47.773Z</time>
      </trkpt>
      <trkpt lat="46.58539" lon="5.47735">
        <ele>378</ele>
        <time>2019-10-10T09:22:52.778Z</time>
      </trkpt>
      <trkpt lat="46.58542" lon="5.47733">
        <ele>376</ele>
        <time>2019-10-10T09:22:57.795Z</time>
      </trkpt>
      <trkpt lat="46.5855" lon="5.47733">
        <ele>376</ele>
        <time>2019-10-10T09:23:02.771Z</time>
      </trkpt>
      <trkpt lat="46.5855" lon="5.47733">
        <ele>376</ele>
        <time>2019-10-10T09:23:07.772Z</time>
      </trkpt>
      <trkpt lat="46.58551" lon="5.47734">
        <ele>376</ele>
        <time>2019-10-10T09:23:12.776Z</time>
      </trkpt>
      <trkpt lat="46.58552" lon="5.47733">
        <ele>376</ele>
        <time>2019-10-10T09:23:17.793Z</time>
      </trkpt>
      <trkpt lat="46.58558" lon="5.47726">
        <ele>376</ele>
        <time>2019-10-10T09:23:22.803Z</time>
      </trkpt>
      <trkpt lat="46.58562" lon="5.47716">
        <ele>376</ele>
        <time>2019-10-10T09:23:41.770Z</time>
      </trkpt>
      <trkpt lat="46.58561" lon="5.47713">
        <ele>376</ele>
        <time>2019-10-10T09:23:46.750Z</time>
      </trkpt>
      <trkpt lat="46.58557" lon="5.4771">
        <ele>376</ele>
        <time>2019-10-10T09:23:51.768Z</time>
      </trkpt>
      <trkpt lat="46.58555" lon="5.47705">
        <ele>371</ele>
        <time>2019-10-10T09:23:56.770Z</time>
      </trkpt>
      <trkpt lat="46.58551" lon="5.47696">
        <ele>371</ele>
        <time>2019-10-10T09:24:01.767Z</time>
      </trkpt>
      <trkpt lat="46.58547" lon="5.47687">
        <ele>371</ele>
        <time>2019-10-10T09:24:06.771Z</time>
      </trkpt>
      <trkpt lat="46.58542" lon="5.47681">
        <ele>371</ele>
        <time>2019-10-10T09:24:11.771Z</time>
      </trkpt>
      <trkpt lat="46.58539" lon="5.47676">
        <ele>370</ele>
        <time>2019-10-10T09:24:16.769Z</time>
      </trkpt>
      <trkpt lat="46.58536" lon="5.47672">
        <ele>370</ele>
        <time>2019-10-10T09:24:21.790Z</time>
      </trkpt>
      <trkpt lat="46.58533" lon="5.47665">
        <ele>370</ele>
        <time>2019-10-10T09:24:26.756Z</time>
      </trkpt>
      <trkpt lat="46.58531" lon="5.47659">
        <ele>370</ele>
        <time>2019-10-10T09:24:30.776Z</time>
      </trkpt>
      <trkpt lat="46.58529" lon="5.47652">
        <ele>367</ele>
        <time>2019-10-10T09:24:35.765Z</time>
      </trkpt>
      <trkpt lat="46.58527" lon="5.47646">
        <ele>367</ele>
        <time>2019-10-10T09:24:39.775Z</time>
      </trkpt>
      <trkpt lat="46.58526" lon="5.4764">
        <ele>367</ele>
        <time>2019-10-10T09:24:43.789Z</time>
      </trkpt>
      <trkpt lat="46.58523" lon="5.47631">
        <ele>367</ele>
        <time>2019-10-10T09:24:48.769Z</time>
      </trkpt>
      <trkpt lat="46.58521" lon="5.47623">
        <ele>364</ele>
        <time>2019-10-10T09:24:53.762Z</time>
      </trkpt>
      <trkpt lat="46.5852" lon="5.47617">
        <ele>364</ele>
        <time>2019-10-10T09:24:57.774Z</time>
      </trkpt>
      <trkpt lat="46.5852" lon="5.47611">
        <ele>364</ele>
        <time>2019-10-10T09:25:02.797Z</time>
      </trkpt>
      <trkpt lat="46.58522" lon="5.47603">
        <ele>364</ele>
        <time>2019-10-10T09:25:07.770Z</time>
      </trkpt>
      <trkpt lat="46.58523" lon="5.47596">
        <ele>362</ele>
        <time>2019-10-10T09:25:12.760Z</time>
      </trkpt>
      <trkpt lat="46.58522" lon="5.47589">
        <ele>362</ele>
        <time>2019-10-10T09:25:16.793Z</time>
      </trkpt>
      <trkpt lat="46.58521" lon="5.47584">
        <ele>362</ele>
        <time>2019-10-10T09:25:21.773Z</time>
      </trkpt>
      <trkpt lat="46.58519" lon="5.47578">
        <ele>362</ele>
        <time>2019-10-10T09:25:26.775Z</time>
      </trkpt>
      <trkpt lat="46.58516" lon="5.47567">
        <ele>360</ele>
        <time>2019-10-10T09:25:31.768Z</time>
      </trkpt>
      <trkpt lat="46.58515" lon="5.47555">
        <ele>360</ele>
        <time>2019-10-10T09:25:36.764Z</time>
      </trkpt>
      <trkpt lat="46.58513" lon="5.47544">
        <ele>366</ele>
        <time>2019-10-10T09:25:41.767Z</time>
      </trkpt>
      <trkpt lat="46.58513" lon="5.47539">
        <ele>362</ele>
        <time>2019-10-10T09:25:45.782Z</time>
      </trkpt>
      <trkpt lat="46.58511" lon="5.4753">
        <ele>362</ele>
        <time>2019-10-10T09:25:50.761Z</time>
      </trkpt>
      <trkpt lat="46.5851" lon="5.4752">
        <ele>362</ele>
        <time>2019-10-10T09:25:54.784Z</time>
      </trkpt>
      <trkpt lat="46.58509" lon="5.47513">
        <ele>359</ele>
        <time>2019-10-10T09:25:59.758Z</time>
      </trkpt>
      <trkpt lat="46.58507" lon="5.47507">
        <ele>359</ele>
        <time>2019-10-10T09:26:04.769Z</time>
      </trkpt>
      <trkpt lat="46.58506" lon="5.475">
        <ele>359</ele>
        <time>2019-10-10T09:26:08.782Z</time>
      </trkpt>
      <trkpt lat="46.58505" lon="5.47495">
        <ele>359</ele>
        <time>2019-10-10T09:26:12.788Z</time>
      </trkpt>
      <trkpt lat="46.58503" lon="5.47489">
        <ele>359</ele>
        <time>2019-10-10T09:26:17.770Z</time>
      </trkpt>
      <trkpt lat="46.58501" lon="5.47482">
        <ele>357</ele>
        <time>2019-10-10T09:26:22.771Z</time>
      </trkpt>
      <trkpt lat="46.58499" lon="5.47474">
        <ele>357</ele>
        <time>2019-10-10T09:26:27.765Z</time>
      </trkpt>
      <trkpt lat="46.58497" lon="5.47467">
        <ele>357</ele>
        <time>2019-10-10T09:26:32.761Z</time>
      </trkpt>
      <trkpt lat="46.58493" lon="5.47455">
        <ele>354</ele>
        <time>2019-10-10T09:26:42.779Z</time>
      </trkpt>
      <trkpt lat="46.58492" lon="5.47452">
        <ele>354</ele>
        <time>2019-10-10T09:26:47.761Z</time>
      </trkpt>
      <trkpt lat="46.58491" lon="5.47451">
        <ele>354</ele>
        <time>2019-10-10T09:26:51.783Z</time>
      </trkpt>
      <trkpt lat="46.5849" lon="5.47452">
        <ele>354</ele>
        <time>2019-10-10T09:26:56.775Z</time>
      </trkpt>
      <trkpt lat="46.58488" lon="5.47451">
        <ele>354</ele>
        <time>2019-10-10T09:27:01.760Z</time>
      </trkpt>
      <trkpt lat="46.58479" lon="5.47452">
        <ele>348</ele>
        <time>2019-10-10T09:27:20.782Z</time>
      </trkpt>
      <trkpt lat="46.58478" lon="5.47451">
        <ele>348</ele>
        <time>2019-10-10T09:27:25.789Z</time>
      </trkpt>
      <trkpt lat="46.58478" lon="5.47452">
        <ele>348</ele>
        <time>2019-10-10T09:27:30.787Z</time>
      </trkpt>
      <trkpt lat="46.58475" lon="5.4745">
        <ele>348</ele>
        <time>2019-10-10T09:27:35.770Z</time>
      </trkpt>
      <trkpt lat="46.58474" lon="5.47449">
        <ele>348</ele>
        <time>2019-10-10T09:27:40.780Z</time>
      </trkpt>
      <trkpt lat="46.58473" lon="5.47449">
        <ele>348</ele>
        <time>2019-10-10T09:27:45.740Z</time>
      </trkpt>
      <trkpt lat="46.58472" lon="5.47449">
        <ele>348</ele>
        <time>2019-10-10T09:27:49.750Z</time>
      </trkpt>
      <trkpt lat="46.58468" lon="5.47449">
        <ele>348</ele>
        <time>2019-10-10T09:27:54.749Z</time>
      </trkpt>
      <trkpt lat="46.58466" lon="5.47451">
        <ele>348</ele>
        <time>2019-10-10T09:27:59.749Z</time>
      </trkpt>
      <trkpt lat="46.58464" lon="5.47454">
        <ele>348</ele>
        <time>2019-10-10T09:28:04.737Z</time>
      </trkpt>
      <trkpt lat="46.58458" lon="5.47463">
        <ele>345</ele>
        <time>2019-10-10T09:28:28.731Z</time>
      </trkpt>
      <trkpt lat="46.58458" lon="5.47464">
        <ele>345</ele>
        <time>2019-10-10T09:28:32.759Z</time>
      </trkpt>
      <trkpt lat="46.58458" lon="5.47466">
        <ele>345</ele>
        <time>2019-10-10T09:28:37.733Z</time>
      </trkpt>
      <trkpt lat="46.58458" lon="5.47468">
        <ele>345</ele>
        <time>2019-10-10T09:28:41.748Z</time>
      </trkpt>
      <trkpt lat="46.58459" lon="5.4747">
        <ele>353</ele>
        <time>2019-10-10T09:28:46.733Z</time>
      </trkpt>
      <trkpt lat="46.58459" lon="5.47463">
        <ele>353</ele>
        <time>2019-10-10T09:29:57.769Z</time>
      </trkpt>
      <trkpt lat="46.58459" lon="5.47462">
        <ele>353</ele>
        <time>2019-10-10T09:30:02.745Z</time>
      </trkpt>
      <trkpt lat="46.58459" lon="5.47461">
        <ele>353</ele>
        <time>2019-10-10T09:30:06.756Z</time>
      </trkpt>
      <trkpt lat="46.5846" lon="5.4746">
        <ele>353</ele>
        <time>2019-10-10T09:30:11.755Z</time>
      </trkpt>
      <trkpt lat="46.58461" lon="5.47459">
        <ele>353</ele>
        <time>2019-10-10T09:30:16.743Z</time>
      </trkpt>
      <trkpt lat="46.58461" lon="5.4746">
        <ele>353</ele>
        <time>2019-10-10T09:35:17.776Z</time>
      </trkpt>
      <trkpt lat="46.58465" lon="5.47467">
        <ele>353</ele>
        <time>2019-10-10T09:35:22.773Z</time>
      </trkpt>
      <trkpt lat="46.58464" lon="5.47474">
        <ele>353</ele>
        <time>2019-10-10T09:35:27.790Z</time>
      </trkpt>
      <trkpt lat="46.58468" lon="5.47472">
        <ele>353</ele>
        <time>2019-10-10T09:35:32.768Z</time>
      </trkpt>
      <trkpt lat="46.5847" lon="5.47474">
        <ele>353</ele>
        <time>2019-10-10T09:35:36.785Z</time>
      </trkpt>
      <trkpt lat="46.58478" lon="5.47469">
        <ele>353</ele>
        <time>2019-10-10T09:35:41.777Z</time>
      </trkpt>
      <trkpt lat="46.58491" lon="5.47448">
        <ele>354</ele>
        <time>2019-10-10T09:35:46.794Z</time>
      </trkpt>
      <trkpt lat="46.58492" lon="5.47448">
        <ele>354</ele>
        <time>2019-10-10T09:35:51.789Z</time>
      </trkpt>
      <trkpt lat="46.58492" lon="5.47447">
        <ele>354</ele>
        <time>2019-10-10T09:35:56.768Z</time>
      </trkpt>
      <trkpt lat="46.58494" lon="5.47446">
        <ele>354</ele>
        <time>2019-10-10T09:36:24.779Z</time>
      </trkpt>
      <trkpt lat="46.58496" lon="5.47446">
        <ele>354</ele>
        <time>2019-10-10T09:36:29.770Z</time>
      </trkpt>
      <trkpt lat="46.58498" lon="5.47445">
        <ele>354</ele>
        <time>2019-10-10T09:36:34.768Z</time>
      </trkpt>
      <trkpt lat="46.585" lon="5.47444">
        <ele>354</ele>
        <time>2019-10-10T09:36:39.747Z</time>
      </trkpt>
      <trkpt lat="46.58501" lon="5.47443">
        <ele>354</ele>
        <time>2019-10-10T09:36:44.774Z</time>
      </trkpt>
      <trkpt lat="46.58503" lon="5.47444">
        <ele>354</ele>
        <time>2019-10-10T09:37:16.781Z</time>
      </trkpt>
      <trkpt lat="46.58502" lon="5.47447">
        <ele>354</ele>
        <time>2019-10-10T09:37:21.756Z</time>
      </trkpt>
      <trkpt lat="46.58503" lon="5.47449">
        <ele>354</ele>
        <time>2019-10-10T09:37:26.781Z</time>
      </trkpt>
      <trkpt lat="46.58503" lon="5.4745">
        <ele>354</ele>
        <time>2019-10-10T09:37:31.774Z</time>
      </trkpt>
      <trkpt lat="46.58504" lon="5.47455">
        <ele>354</ele>
        <time>2019-10-10T09:37:36.781Z</time>
      </trkpt>
      <trkpt lat="46.58506" lon="5.47462">
        <ele>357</ele>
        <time>2019-10-10T09:37:41.766Z</time>
      </trkpt>
      <trkpt lat="46.58508" lon="5.47468">
        <ele>357</ele>
        <time>2019-10-10T09:37:46.781Z</time>
      </trkpt>
      <trkpt lat="46.58509" lon="5.47473">
        <ele>357</ele>
        <time>2019-10-10T09:37:51.766Z</time>
      </trkpt>
      <trkpt lat="46.5851" lon="5.47479">
        <ele>357</ele>
        <time>2019-10-10T09:37:55.782Z</time>
      </trkpt>
      <trkpt lat="46.58512" lon="5.47486">
        <ele>357</ele>
        <time>2019-10-10T09:38:00.757Z</time>
      </trkpt>
      <trkpt lat="46.58514" lon="5.47492">
        <ele>354</ele>
        <time>2019-10-10T09:38:05.764Z</time>
      </trkpt>
      <trkpt lat="46.58516" lon="5.47496">
        <ele>354</ele>
        <time>2019-10-10T09:38:09.770Z</time>
      </trkpt>
      <trkpt lat="46.58517" lon="5.47503">
        <ele>354</ele>
        <time>2019-10-10T09:38:14.777Z</time>
      </trkpt>
      <trkpt lat="46.58519" lon="5.47511">
        <ele>354</ele>
        <time>2019-10-10T09:38:19.796Z</time>
      </trkpt>
      <trkpt lat="46.5852" lon="5.47516">
        <ele>358</ele>
        <time>2019-10-10T09:38:24.760Z</time>
      </trkpt>
      <trkpt lat="46.58522" lon="5.47519">
        <ele>358</ele>
        <time>2019-10-10T09:38:29.757Z</time>
      </trkpt>
      <trkpt lat="46.58522" lon="5.47527">
        <ele>358</ele>
        <time>2019-10-10T09:38:33.760Z</time>
      </trkpt>
      <trkpt lat="46.58523" lon="5.47534">
        <ele>358</ele>
        <time>2019-10-10T09:38:38.786Z</time>
      </trkpt>
      <trkpt lat="46.58523" lon="5.4754">
        <ele>358</ele>
        <time>2019-10-10T09:38:43.757Z</time>
      </trkpt>
      <trkpt lat="46.58524" lon="5.47549">
        <ele>360</ele>
        <time>2019-10-10T09:38:47.778Z</time>
      </trkpt>
      <trkpt lat="46.5852" lon="5.47565">
        <ele>360</ele>
        <time>2019-10-10T09:38:51.774Z</time>
      </trkpt>
      <trkpt lat="46.5852" lon="5.47584">
        <ele>362</ele>
        <time>2019-10-10T09:38:56.765Z</time>
      </trkpt>
      <trkpt lat="46.5852" lon="5.47594">
        <ele>362</ele>
        <time>2019-10-10T09:39:01.763Z</time>
      </trkpt>
      <trkpt lat="46.58517" lon="5.47601">
        <ele>364</ele>
        <time>2019-10-10T09:39:06.777Z</time>
      </trkpt>
      <trkpt lat="46.58517" lon="5.47607">
        <ele>364</ele>
        <time>2019-10-10T09:39:11.781Z</time>
      </trkpt>
      <trkpt lat="46.58517" lon="5.47606">
        <ele>364</ele>
        <time>2019-10-10T09:39:16.782Z</time>
      </trkpt>
      <trkpt lat="46.58519" lon="5.47614">
        <ele>364</ele>
        <time>2019-10-10T09:39:21.791Z</time>
      </trkpt>
      <trkpt lat="46.58521" lon="5.47626">
        <ele>367</ele>
        <time>2019-10-10T09:39:26.779Z</time>
      </trkpt>
      <trkpt lat="46.58525" lon="5.47636">
        <ele>367</ele>
        <time>2019-10-10T09:39:31.779Z</time>
      </trkpt>
      <trkpt lat="46.58527" lon="5.47643">
        <ele>367</ele>
        <time>2019-10-10T09:39:40.794Z</time>
      </trkpt>
      <trkpt lat="46.58528" lon="5.47644">
        <ele>367</ele>
        <time>2019-10-10T09:39:44.811Z</time>
      </trkpt>
      <trkpt lat="46.5853" lon="5.47646">
        <ele>367</ele>
        <time>2019-10-10T09:39:49.769Z</time>
      </trkpt>
      <trkpt lat="46.58531" lon="5.47652">
        <ele>367</ele>
        <time>2019-10-10T09:39:54.768Z</time>
      </trkpt>
      <trkpt lat="46.58533" lon="5.47657">
        <ele>370</ele>
        <time>2019-10-10T09:39:58.796Z</time>
      </trkpt>
      <trkpt lat="46.58537" lon="5.47664">
        <ele>370</ele>
        <time>2019-10-10T09:40:03.803Z</time>
      </trkpt>
      <trkpt lat="46.5854" lon="5.47668">
        <ele>370</ele>
        <time>2019-10-10T09:40:08.760Z</time>
      </trkpt>
      <trkpt lat="46.58546" lon="5.47674">
        <ele>367</ele>
        <time>2019-10-10T09:40:12.768Z</time>
      </trkpt>
      <trkpt lat="46.58552" lon="5.47676">
        <ele>367</ele>
        <time>2019-10-10T09:40:16.783Z</time>
      </trkpt>
      <trkpt lat="46.58559" lon="5.47677">
        <ele>367</ele>
        <time>2019-10-10T09:40:21.767Z</time>
      </trkpt>
      <trkpt lat="46.5856" lon="5.4768">
        <ele>367</ele>
        <time>2019-10-10T09:40:26.769Z</time>
      </trkpt>
      <trkpt lat="46.58567" lon="5.47691">
        <ele>371</ele>
        <time>2019-10-10T09:40:31.766Z</time>
      </trkpt>
      <trkpt lat="46.58575" lon="5.47698">
        <ele>368</ele>
        <time>2019-10-10T09:40:36.777Z</time>
      </trkpt>
      <trkpt lat="46.58579" lon="5.47709">
        <ele>373</ele>
        <time>2019-10-10T09:40:41.765Z</time>
      </trkpt>
      <trkpt lat="46.58581" lon="5.47714">
        <ele>373</ele>
        <time>2019-10-10T09:40:45.775Z</time>
      </trkpt>
      <trkpt lat="46.58585" lon="5.47718">
        <ele>373</ele>
        <time>2019-10-10T09:40:49.795Z</time>
      </trkpt>
      <trkpt lat="46.58588" lon="5.47726">
        <ele>373</ele>
        <time>2019-10-10T09:40:54.776Z</time>
      </trkpt>
      <trkpt lat="46.5859" lon="5.47722">
        <ele>373</ele>
        <time>2019-10-10T09:40:58.802Z</time>
      </trkpt>
      <trkpt lat="46.58591" lon="5.47726">
        <ele>373</ele>
        <time>2019-10-10T09:41:03.794Z</time>
      </trkpt>
      <trkpt lat="46.58587" lon="5.47731">
        <ele>373</ele>
        <time>2019-10-10T09:41:08.779Z</time>
      </trkpt>
      <trkpt lat="46.58579" lon="5.47736">
        <ele>373</ele>
        <time>2019-10-10T09:41:13.790Z</time>
      </trkpt>
      <trkpt lat="46.58572" lon="5.47739">
        <ele>380</ele>
        <time>2019-10-10T09:41:17.794Z</time>
      </trkpt>
      <trkpt lat="46.58566" lon="5.47743">
        <ele>380</ele>
        <time>2019-10-10T09:41:22.771Z</time>
      </trkpt>
      <trkpt lat="46.58561" lon="5.47749">
        <ele>380</ele>
        <time>2019-10-10T09:41:26.790Z</time>
      </trkpt>
      <trkpt lat="46.58556" lon="5.47754">
        <ele>380</ele>
        <time>2019-10-10T09:41:31.772Z</time>
      </trkpt>
      <trkpt lat="46.58551" lon="5.47759">
        <ele>380</ele>
        <time>2019-10-10T09:41:36.763Z</time>
      </trkpt>
      <trkpt lat="46.58548" lon="5.47763">
        <ele>380</ele>
        <time>2019-10-10T09:41:40.798Z</time>
      </trkpt>
      <trkpt lat="46.58547" lon="5.47775">
        <ele>386</ele>
        <time>2019-10-10T09:41:44.750Z</time>
      </trkpt>
      <trkpt lat="46.58544" lon="5.47783">
        <ele>386</ele>
        <time>2019-10-10T09:41:48.752Z</time>
      </trkpt>
      <trkpt lat="46.58541" lon="5.4779">
        <ele>385</ele>
        <time>2019-10-10T09:41:53.782Z</time>
      </trkpt>
      <trkpt lat="46.58537" lon="5.47801">
        <ele>388</ele>
        <time>2019-10-10T09:41:58.753Z</time>
      </trkpt>
      <trkpt lat="46.58534" lon="5.47805">
        <ele>388</ele>
        <time>2019-10-10T09:42:02.761Z</time>
      </trkpt>
      <trkpt lat="46.58529" lon="5.47805">
        <ele>388</ele>
        <time>2019-10-10T09:42:07.760Z</time>
      </trkpt>
      <trkpt lat="46.58525" lon="5.47808">
        <ele>388</ele>
        <time>2019-10-10T09:42:12.777Z</time>
      </trkpt>
      <trkpt lat="46.58519" lon="5.47809">
        <ele>388</ele>
        <time>2019-10-10T09:42:17.764Z</time>
      </trkpt>
      <trkpt lat="46.58515" lon="5.47814">
        <ele>388</ele>
        <time>2019-10-10T09:42:22.776Z</time>
      </trkpt>
      <trkpt lat="46.5851" lon="5.47819">
        <ele>386</ele>
        <time>2019-10-10T09:42:27.779Z</time>
      </trkpt>
      <trkpt lat="46.58507" lon="5.47822">
        <ele>390</ele>
        <time>2019-10-10T09:42:32.767Z</time>
      </trkpt>
      <trkpt lat="46.58504" lon="5.47825">
        <ele>390</ele>
        <time>2019-10-10T09:42:37.767Z</time>
      </trkpt>
      <trkpt lat="46.58502" lon="5.47831">
        <ele>390</ele>
        <time>2019-10-10T09:42:42.762Z</time>
      </trkpt>
      <trkpt lat="46.58499" lon="5.47837">
        <ele>390</ele>
        <time>2019-10-10T09:42:47.799Z</time>
      </trkpt>
      <trkpt lat="46.585" lon="5.47847">
        <ele>390</ele>
        <time>2019-10-10T09:42:52.763Z</time>
      </trkpt>
      <trkpt lat="46.58502" lon="5.47845">
        <ele>390</ele>
        <time>2019-10-10T09:42:57.767Z</time>
      </trkpt>
      <trkpt lat="46.58509" lon="5.47846">
        <ele>390</ele>
        <time>2019-10-10T09:43:01.784Z</time>
      </trkpt>
      <trkpt lat="46.58514" lon="5.47848">
        <ele>394</ele>
        <time>2019-10-10T09:43:06.769Z</time>
      </trkpt>
      <trkpt lat="46.58514" lon="5.4785">
        <ele>394</ele>
        <time>2019-10-10T09:46:53.782Z</time>
      </trkpt>
      <trkpt lat="46.58513" lon="5.4785">
        <ele>394</ele>
        <time>2019-10-10T09:46:58.783Z</time>
      </trkpt>
      <trkpt lat="46.58513" lon="5.47849">
        <ele>394</ele>
        <time>2019-10-10T09:47:03.760Z</time>
      </trkpt>
      <trkpt lat="46.58512" lon="5.47848">
        <ele>394</ele>
        <time>2019-10-10T09:47:07.780Z</time>
      </trkpt>
      <trkpt lat="46.58511" lon="5.47846">
        <ele>390</ele>
        <time>2019-10-10T09:47:12.779Z</time>
      </trkpt>
      <trkpt lat="46.58518" lon="5.4785">
        <ele>396</ele>
        <time>2019-10-10T09:53:19.769Z</time>
      </trkpt>
      <trkpt lat="46.58518" lon="5.47853">
        <ele>396</ele>
        <time>2019-10-10T09:53:24.763Z</time>
      </trkpt>
      <trkpt lat="46.58518" lon="5.47857">
        <ele>396</ele>
        <time>2019-10-10T09:53:29.775Z</time>
      </trkpt>
      <trkpt lat="46.58518" lon="5.47859">
        <ele>396</ele>
        <time>2019-10-10T09:53:34.771Z</time>
      </trkpt>
      <trkpt lat="46.58518" lon="5.47859">
        <ele>396</ele>
        <time>2019-10-10T09:53:39.775Z</time>
      </trkpt>
      <trkpt lat="46.58515" lon="5.47855">
        <ele>396</ele>
        <time>2019-10-10T09:56:41.764Z</time>
      </trkpt>
      <trkpt lat="46.58515" lon="5.47856">
        <ele>396</ele>
        <time>2019-10-10T09:56:45.777Z</time>
      </trkpt>
      <trkpt lat="46.58513" lon="5.4786">
        <ele>394</ele>
        <time>2019-10-10T09:56:50.767Z</time>
      </trkpt>
      <trkpt lat="46.58511" lon="5.47862">
        <ele>394</ele>
        <time>2019-10-10T09:56:55.764Z</time>
      </trkpt>
      <trkpt lat="46.5851" lon="5.47865">
        <ele>394</ele>
        <time>2019-10-10T09:57:00.780Z</time>
      </trkpt>
      <trkpt lat="46.5852" lon="5.47852">
        <ele>396</ele>
        <time>2019-10-10T10:02:17.763Z</time>
      </trkpt>
      <trkpt lat="46.5852" lon="5.47851">
        <ele>396</ele>
        <time>2019-10-10T10:02:22.763Z</time>
      </trkpt>
      <trkpt lat="46.58521" lon="5.4785">
        <ele>396</ele>
        <time>2019-10-10T10:02:27.758Z</time>
      </trkpt>
      <trkpt lat="46.58522" lon="5.4785">
        <ele>396</ele>
        <time>2019-10-10T10:02:32.766Z</time>
      </trkpt>
      <trkpt lat="46.58522" lon="5.4785">
        <ele>396</ele>
        <time>2019-10-10T10:02:37.758Z</time>
      </trkpt>
      <trkpt lat="46.58521" lon="5.47852">
        <ele>396</ele>
        <time>2019-10-10T10:03:48.755Z</time>
      </trkpt>
      <trkpt lat="46.58518" lon="5.47852">
        <ele>396</ele>
        <time>2019-10-10T10:03:53.753Z</time>
      </trkpt>
      <trkpt lat="46.58518" lon="5.47855">
        <ele>396</ele>
        <time>2019-10-10T10:03:58.739Z</time>
      </trkpt>
      <trkpt lat="46.58516" lon="5.47857">
        <ele>396</ele>
        <time>2019-10-10T10:04:02.760Z</time>
      </trkpt>
      <trkpt lat="46.5851" lon="5.47859">
        <ele>394</ele>
        <time>2019-10-10T10:04:06.778Z</time>
      </trkpt>
      <trkpt lat="46.58516" lon="5.47856">
        <ele>396</ele>
        <time>2019-10-10T10:05:04.775Z</time>
      </trkpt>
      <trkpt lat="46.58515" lon="5.47853">
        <ele>396</ele>
        <time>2019-10-10T10:05:09.748Z</time>
      </trkpt>
      <trkpt lat="46.58515" lon="5.47853">
        <ele>396</ele>
        <time>2019-10-10T10:05:13.772Z</time>
      </trkpt>
      <trkpt lat="46.58518" lon="5.4785">
        <ele>396</ele>
        <time>2019-10-10T10:05:18.757Z</time>
      </trkpt>
      <trkpt lat="46.58521" lon="5.4785">
        <ele>396</ele>
        <time>2019-10-10T10:05:23.749Z</time>
      </trkpt>
      <trkpt lat="46.58514" lon="5.47853">
        <ele>396</ele>
        <time>2019-10-10T10:11:09.769Z</time>
      </trkpt>
      <trkpt lat="46.58514" lon="5.47852">
        <ele>394</ele>
        <time>2019-10-10T10:11:14.759Z</time>
      </trkpt>
      <trkpt lat="46.58514" lon="5.47852">
        <ele>394</ele>
        <time>2019-10-10T10:11:19.744Z</time>
      </trkpt>
      <trkpt lat="46.58513" lon="5.4785">
        <ele>394</ele>
        <time>2019-10-10T10:11:23.757Z</time>
      </trkpt>
      <trkpt lat="46.58511" lon="5.47849">
        <ele>394</ele>
        <time>2019-10-10T10:11:28.763Z</time>
      </trkpt>
      <trkpt lat="46.58518" lon="5.47855">
        <ele>396</ele>
        <time>2019-10-10T10:13:59.753Z</time>
      </trkpt>
      <trkpt lat="46.58519" lon="5.47855">
        <ele>396</ele>
        <time>2019-10-10T10:14:04.748Z</time>
      </trkpt>
      <trkpt lat="46.58519" lon="5.47855">
        <ele>396</ele>
        <time>2019-10-10T10:14:09.761Z</time>
      </trkpt>
      <trkpt lat="46.58519" lon="5.47856">
        <ele>396</ele>
        <time>2019-10-10T10:14:14.764Z</time>
      </trkpt>
      <trkpt lat="46.58519" lon="5.47856">
        <ele>396</ele>
        <time>2019-10-10T10:14:19.763Z</time>
      </trkpt>
      <trkpt lat="46.58528" lon="5.47856">
        <ele>396</ele>
        <time>2019-10-10T10:19:01.759Z</time>
      </trkpt>
      <trkpt lat="46.58528" lon="5.47856">
        <ele>396</ele>
        <time>2019-10-10T10:19:06.772Z</time>
      </trkpt>
      <trkpt lat="46.58528" lon="5.47856">
        <ele>396</ele>
        <time>2019-10-10T10:19:11.760Z</time>
      </trkpt>
      <trkpt lat="46.58528" lon="5.47856">
        <ele>396</ele>
        <time>2019-10-10T10:19:16.758Z</time>
      </trkpt>
      <trkpt lat="46.58529" lon="5.47856">
        <ele>396</ele>
        <time>2019-10-10T10:19:21.754Z</time>
      </trkpt>
      <trkpt lat="46.58528" lon="5.47856">
        <ele>396</ele>
        <time>2019-10-10T10:21:12.751Z</time>
      </trkpt>
      <trkpt lat="46.58528" lon="5.47858">
        <ele>396</ele>
        <time>2019-10-10T10:21:16.764Z</time>
      </trkpt>
      <trkpt lat="46.5852" lon="5.47866">
        <ele>396</ele>
        <time>2019-10-10T10:21:21.730Z</time>
      </trkpt>
      <trkpt lat="46.58515" lon="5.47873">
        <ele>396</ele>
        <time>2019-10-10T10:21:26.747Z</time>
      </trkpt>
      <trkpt lat="46.58511" lon="5.47878">
        <ele>398</ele>
        <time>2019-10-10T10:21:30.748Z</time>
      </trkpt>
      <trkpt lat="46.58504" lon="5.47883">
        <ele>398</ele>
        <time>2019-10-10T10:21:35.764Z</time>
      </trkpt>
      <trkpt lat="46.585" lon="5.47886">
        <ele>398</ele>
        <time>2019-10-10T10:21:39.747Z</time>
      </trkpt>
      <trkpt lat="46.58496" lon="5.47888">
        <ele>398</ele>
        <time>2019-10-10T10:21:44.755Z</time>
      </trkpt>
      <trkpt lat="46.58491" lon="5.47891">
        <ele>398</ele>
        <time>2019-10-10T10:21:49.786Z</time>
      </trkpt>
      <trkpt lat="46.58486" lon="5.47895">
        <ele>395</ele>
        <time>2019-10-10T10:21:54.765Z</time>
      </trkpt>
      <trkpt lat="46.58483" lon="5.47897">
        <ele>395</ele>
        <time>2019-10-10T10:21:58.775Z</time>
      </trkpt>
      <trkpt lat="46.5848" lon="5.479">
        <ele>395</ele>
        <time>2019-10-10T10:22:03.790Z</time>
      </trkpt>
      <trkpt lat="46.58475" lon="5.47905">
        <ele>398</ele>
        <time>2019-10-10T10:22:08.772Z</time>
      </trkpt>
      <trkpt lat="46.58471" lon="5.47912">
        <ele>398</ele>
        <time>2019-10-10T10:22:13.777Z</time>
      </trkpt>
      <trkpt lat="46.58469" lon="5.47918">
        <ele>398</ele>
        <time>2019-10-10T10:22:18.782Z</time>
      </trkpt>
      <trkpt lat="46.58467" lon="5.47923">
        <ele>398</ele>
        <time>2019-10-10T10:22:23.807Z</time>
      </trkpt>
      <trkpt lat="46.58464" lon="5.47929">
        <ele>398</ele>
        <time>2019-10-10T10:22:28.765Z</time>
      </trkpt>
      <trkpt lat="46.58461" lon="5.47935">
        <ele>400</ele>
        <time>2019-10-10T10:22:33.773Z</time>
      </trkpt>
      <trkpt lat="46.58456" lon="5.4794">
        <ele>394</ele>
        <time>2019-10-10T10:22:38.767Z</time>
      </trkpt>
      <trkpt lat="46.58453" lon="5.47944">
        <ele>394</ele>
        <time>2019-10-10T10:22:42.779Z</time>
      </trkpt>
      <trkpt lat="46.5845" lon="5.47947">
        <ele>394</ele>
        <time>2019-10-10T10:22:47.787Z</time>
      </trkpt>
      <trkpt lat="46.58449" lon="5.47949">
        <ele>394</ele>
        <time>2019-10-10T10:22:52.773Z</time>
      </trkpt>
      <trkpt lat="46.58447" lon="5.47956">
        <ele>394</ele>
        <time>2019-10-10T10:22:57.769Z</time>
      </trkpt>
      <trkpt lat="46.58445" lon="5.4796">
        <ele>398</ele>
        <time>2019-10-10T10:23:01.783Z</time>
      </trkpt>
      <trkpt lat="46.58444" lon="5.47962">
        <ele>398</ele>
        <time>2019-10-10T10:23:06.775Z</time>
      </trkpt>
      <trkpt lat="46.58441" lon="5.47967">
        <ele>398</ele>
        <time>2019-10-10T10:23:11.771Z</time>
      </trkpt>
      <trkpt lat="46.58439" lon="5.47972">
        <ele>398</ele>
        <time>2019-10-10T10:23:16.770Z</time>
      </trkpt>
      <trkpt lat="46.58437" lon="5.47975">
        <ele>398</ele>
        <time>2019-10-10T10:23:21.781Z</time>
      </trkpt>
      <trkpt lat="46.58436" lon="5.4798">
        <ele>398</ele>
        <time>2019-10-10T10:23:26.765Z</time>
      </trkpt>
      <trkpt lat="46.58436" lon="5.4799">
        <ele>402</ele>
        <time>2019-10-10T10:23:59.756Z</time>
      </trkpt>
      <trkpt lat="46.58436" lon="5.4799">
        <ele>402</ele>
        <time>2019-10-10T10:24:04.747Z</time>
      </trkpt>
      <trkpt lat="46.58436" lon="5.4799">
        <ele>402</ele>
        <time>2019-10-10T10:24:09.752Z</time>
      </trkpt>
      <trkpt lat="46.58436" lon="5.47995">
        <ele>402</ele>
        <time>2019-10-10T10:24:14.749Z</time>
      </trkpt>
      <trkpt lat="46.58434" lon="5.48001">
        <ele>402</ele>
        <time>2019-10-10T10:24:19.764Z</time>
      </trkpt>
      <trkpt lat="46.58431" lon="5.48006">
        <ele>398</ele>
        <time>2019-10-10T10:24:23.772Z</time>
      </trkpt>
      <trkpt lat="46.58426" lon="5.48013">
        <ele>398</ele>
        <time>2019-10-10T10:24:28.765Z</time>
      </trkpt>
      <trkpt lat="46.58422" lon="5.48017">
        <ele>402</ele>
        <time>2019-10-10T10:24:33.773Z</time>
      </trkpt>
      <trkpt lat="46.58418" lon="5.48024">
        <ele>402</ele>
        <time>2019-10-10T10:24:38.764Z</time>
      </trkpt>
      <trkpt lat="46.58417" lon="5.48031">
        <ele>402</ele>
        <time>2019-10-10T10:24:43.774Z</time>
      </trkpt>
      <trkpt lat="46.58413" lon="5.48039">
        <ele>402</ele>
        <time>2019-10-10T10:24:48.752Z</time>
      </trkpt>
      <trkpt lat="46.58412" lon="5.48042">
        <ele>408</ele>
        <time>2019-10-10T10:24:52.770Z</time>
      </trkpt>
      <trkpt lat="46.58406" lon="5.48047">
        <ele>408</ele>
        <time>2019-10-10T10:24:57.795Z</time>
      </trkpt>
      <trkpt lat="46.58403" lon="5.48054">
        <ele>408</ele>
        <time>2019-10-10T10:25:02.759Z</time>
      </trkpt>
      <trkpt lat="46.58401" lon="5.4806">
        <ele>404</ele>
        <time>2019-10-10T10:25:07.758Z</time>
      </trkpt>
      <trkpt lat="46.58396" lon="5.4807">
        <ele>408</ele>
        <time>2019-10-10T10:25:12.775Z</time>
      </trkpt>
      <trkpt lat="46.5839" lon="5.48077">
        <ele>408</ele>
        <time>2019-10-10T10:25:17.760Z</time>
      </trkpt>
      <trkpt lat="46.58386" lon="5.48081">
        <ele>408</ele>
        <time>2019-10-10T10:25:22.770Z</time>
      </trkpt>
      <trkpt lat="46.58384" lon="5.48089">
        <ele>408</ele>
        <time>2019-10-10T10:25:27.753Z</time>
      </trkpt>
      <trkpt lat="46.58383" lon="5.48093">
        <ele>408</ele>
        <time>2019-10-10T10:25:31.765Z</time>
      </trkpt>
      <trkpt lat="46.58382" lon="5.48099">
        <ele>413</ele>
        <time>2019-10-10T10:25:36.734Z</time>
      </trkpt>
      <trkpt lat="46.58381" lon="5.48106">
        <ele>413</ele>
        <time>2019-10-10T10:25:41.742Z</time>
      </trkpt>
      <trkpt lat="46.58379" lon="5.48111">
        <ele>413</ele>
        <time>2019-10-10T10:25:46.729Z</time>
      </trkpt>
      <trkpt lat="46.58378" lon="5.48121">
        <ele>413</ele>
        <time>2019-10-10T10:25:51.753Z</time>
      </trkpt>
      <trkpt lat="46.58378" lon="5.4813">
        <ele>417</ele>
        <time>2019-10-10T10:25:56.732Z</time>
      </trkpt>
      <trkpt lat="46.58377" lon="5.48141">
        <ele>417</ele>
        <time>2019-10-10T10:26:01.739Z</time>
      </trkpt>
      <trkpt lat="46.58379" lon="5.48149">
        <ele>417</ele>
        <time>2019-10-10T10:26:05.731Z</time>
      </trkpt>
      <trkpt lat="46.58377" lon="5.4816">
        <ele>421</ele>
        <time>2019-10-10T10:26:09.725Z</time>
      </trkpt>
      <trkpt lat="46.58375" lon="5.48168">
        <ele>421</ele>
        <time>2019-10-10T10:26:13.748Z</time>
      </trkpt>
      <trkpt lat="46.58369" lon="5.48183">
        <ele>423</ele>
        <time>2019-10-10T10:26:27.764Z</time>
      </trkpt>
      <trkpt lat="46.58368" lon="5.48185">
        <ele>423</ele>
        <time>2019-10-10T10:26:32.744Z</time>
      </trkpt>
      <trkpt lat="46.58364" lon="5.48188">
        <ele>423</ele>
        <time>2019-10-10T10:26:36.762Z</time>
      </trkpt>
      <trkpt lat="46.58361" lon="5.48192">
        <ele>423</ele>
        <time>2019-10-10T10:26:41.752Z</time>
      </trkpt>
      <trkpt lat="46.58361" lon="5.48195">
        <ele>423</ele>
        <time>2019-10-10T10:26:45.768Z</time>
      </trkpt>
      <trkpt lat="46.58354" lon="5.48202">
        <ele>423</ele>
        <time>2019-10-10T10:27:10.741Z</time>
      </trkpt>
      <trkpt lat="46.58351" lon="5.48205">
        <ele>423</ele>
        <time>2019-10-10T10:27:14.775Z</time>
      </trkpt>
      <trkpt lat="46.58349" lon="5.48207">
        <ele>423</ele>
        <time>2019-10-10T10:27:19.748Z</time>
      </trkpt>
      <trkpt lat="46.58346" lon="5.48207">
        <ele>423</ele>
        <time>2019-10-10T10:27:23.766Z</time>
      </trkpt>
      <trkpt lat="46.58344" lon="5.48205">
        <ele>423</ele>
        <time>2019-10-10T10:27:28.756Z</time>
      </trkpt>
      <trkpt lat="46.58341" lon="5.48205">
        <ele>423</ele>
        <time>2019-10-10T10:27:33.743Z</time>
      </trkpt>
      <trkpt lat="46.58335" lon="5.48203">
        <ele>423</ele>
        <time>2019-10-10T10:27:38.741Z</time>
      </trkpt>
      <trkpt lat="46.58328" lon="5.48206">
        <ele>423</ele>
        <time>2019-10-10T10:27:43.742Z</time>
      </trkpt>
      <trkpt lat="46.58321" lon="5.48208">
        <ele>423</ele>
        <time>2019-10-10T10:27:48.741Z</time>
      </trkpt>
      <trkpt lat="46.58316" lon="5.48208">
        <ele>421</ele>
        <time>2019-10-10T10:27:52.753Z</time>
      </trkpt>
      <trkpt lat="46.58313" lon="5.48207">
        <ele>421</ele>
        <time>2019-10-10T10:27:57.728Z</time>
      </trkpt>
      <trkpt lat="46.5831" lon="5.48206">
        <ele>421</ele>
        <time>2019-10-10T10:28:01.739Z</time>
      </trkpt>
      <trkpt lat="46.58308" lon="5.48204">
        <ele>421</ele>
        <time>2019-10-10T10:28:06.746Z</time>
      </trkpt>
      <trkpt lat="46.58303" lon="5.48202">
        <ele>421</ele>
        <time>2019-10-10T10:28:11.735Z</time>
      </trkpt>
      <trkpt lat="46.58301" lon="5.48203">
        <ele>421</ele>
        <time>2019-10-10T10:28:16.751Z</time>
      </trkpt>
      <trkpt lat="46.58296" lon="5.48202">
        <ele>421</ele>
        <time>2019-10-10T10:28:20.756Z</time>
      </trkpt>
      <trkpt lat="46.58294" lon="5.482">
        <ele>421</ele>
        <time>2019-10-10T10:28:25.736Z</time>
      </trkpt>
      <trkpt lat="46.58292" lon="5.48198">
        <ele>421</ele>
        <time>2019-10-10T10:28:29.747Z</time>
      </trkpt>
      <trkpt lat="46.58288" lon="5.48201">
        <ele>424</ele>
        <time>2019-10-10T10:28:38.750Z</time>
      </trkpt>
      <trkpt lat="46.58285" lon="5.48201">
        <ele>424</ele>
        <time>2019-10-10T10:28:43.743Z</time>
      </trkpt>
      <trkpt lat="46.58284" lon="5.48201">
        <ele>424</ele>
        <time>2019-10-10T10:28:48.770Z</time>
      </trkpt>
      <trkpt lat="46.58282" lon="5.482">
        <ele>424</ele>
        <time>2019-10-10T10:28:53.752Z</time>
      </trkpt>
      <trkpt lat="46.58279" lon="5.48202">
        <ele>424</ele>
        <time>2019-10-10T10:28:58.742Z</time>
      </trkpt>
      <trkpt lat="46.58273" lon="5.48203">
        <ele>424</ele>
        <time>2019-10-10T10:29:03.744Z</time>
      </trkpt>
      <trkpt lat="46.58269" lon="5.48204">
        <ele>424</ele>
        <time>2019-10-10T10:29:08.768Z</time>
      </trkpt>
      <trkpt lat="46.58263" lon="5.48206">
        <ele>428</ele>
        <time>2019-10-10T10:29:13.757Z</time>
      </trkpt>
      <trkpt lat="46.58261" lon="5.48207">
        <ele>428</ele>
        <time>2019-10-10T10:29:17.776Z</time>
      </trkpt>
      <trkpt lat="46.58257" lon="5.48205">
        <ele>428</ele>
        <time>2019-10-10T10:29:22.753Z</time>
      </trkpt>
      <trkpt lat="46.58255" lon="5.48204">
        <ele>428</ele>
        <time>2019-10-10T10:29:26.732Z</time>
      </trkpt>
      <trkpt lat="46.58249" lon="5.48198">
        <ele>428</ele>
        <time>2019-10-10T10:29:30.752Z</time>
      </trkpt>
      <trkpt lat="46.58248" lon="5.48195">
        <ele>428</ele>
        <time>2019-10-10T10:29:35.771Z</time>
      </trkpt>
      <trkpt lat="46.58238" lon="5.48209">
        <ele>447</ele>
        <time>2019-10-10T10:30:17.772Z</time>
      </trkpt>
      <trkpt lat="46.58238" lon="5.48211">
        <ele>447</ele>
        <time>2019-10-10T10:30:22.769Z</time>
      </trkpt>
      <trkpt lat="46.58238" lon="5.48216">
        <ele>447</ele>
        <time>2019-10-10T10:30:27.772Z</time>
      </trkpt>
      <trkpt lat="46.58236" lon="5.4822">
        <ele>454</ele>
        <time>2019-10-10T10:30:32.737Z</time>
      </trkpt>
      <trkpt lat="46.58232" lon="5.4822">
        <ele>454</ele>
        <time>2019-10-10T10:30:36.802Z</time>
      </trkpt>
      <trkpt lat="46.58222" lon="5.48219">
        <ele>454</ele>
        <time>2019-10-10T10:30:41.748Z</time>
      </trkpt>
      <trkpt lat="46.58215" lon="5.48217">
        <ele>454</ele>
        <time>2019-10-10T10:30:46.744Z</time>
      </trkpt>
      <trkpt lat="46.58211" lon="5.48215">
        <ele>454</ele>
        <time>2019-10-10T10:30:50.759Z</time>
      </trkpt>
      <trkpt lat="46.58207" lon="5.48211">
        <ele>459</ele>
        <time>2019-10-10T10:30:55.737Z</time>
      </trkpt>
      <trkpt lat="46.58197" lon="5.48212">
        <ele>459</ele>
        <time>2019-10-10T10:31:00.732Z</time>
      </trkpt>
      <trkpt lat="46.58192" lon="5.4821">
        <ele>459</ele>
        <time>2019-10-10T10:31:04.784Z</time>
      </trkpt>
      <trkpt lat="46.58188" lon="5.48207">
        <ele>443</ele>
        <time>2019-10-10T10:31:09.731Z</time>
      </trkpt>
      <trkpt lat="46.58184" lon="5.48204">
        <ele>443</ele>
        <time>2019-10-10T10:31:14.729Z</time>
      </trkpt>
      <trkpt lat="46.58177" lon="5.48201">
        <ele>451</ele>
        <time>2019-10-10T10:31:18.760Z</time>
      </trkpt>
      <trkpt lat="46.58172" lon="5.48198">
        <ele>451</ele>
        <time>2019-10-10T10:31:23.724Z</time>
      </trkpt>
      <trkpt lat="46.58164" lon="5.48195">
        <ele>451</ele>
        <time>2019-10-10T10:31:28.729Z</time>
      </trkpt>
      <trkpt lat="46.58157" lon="5.4819">
        <ele>451</ele>
        <time>2019-10-10T10:31:33.742Z</time>
      </trkpt>
      <trkpt lat="46.58153" lon="5.4819">
        <ele>451</ele>
        <time>2019-10-10T10:31:38.795Z</time>
      </trkpt>
      <trkpt lat="46.58147" lon="5.48189">
        <ele>456</ele>
        <time>2019-10-10T10:31:43.749Z</time>
      </trkpt>
      <trkpt lat="46.5814" lon="5.48186">
        <ele>456</ele>
        <time>2019-10-10T10:31:48.728Z</time>
      </trkpt>
      <trkpt lat="46.58139" lon="5.48184">
        <ele>456</ele>
        <time>2019-10-10T10:31:53.728Z</time>
      </trkpt>
      <trkpt lat="46.58134" lon="5.4818">
        <ele>447</ele>
        <time>2019-10-10T10:31:57.741Z</time>
      </trkpt>
      <trkpt lat="46.5813" lon="5.48178">
        <ele>447</ele>
        <time>2019-10-10T10:32:01.749Z</time>
      </trkpt>
      <trkpt lat="46.58123" lon="5.48171">
        <ele>456</ele>
        <time>2019-10-10T10:32:06.740Z</time>
      </trkpt>
      <trkpt lat="46.58119" lon="5.48169">
        <ele>456</ele>
        <time>2019-10-10T10:32:10.748Z</time>
      </trkpt>
      <trkpt lat="46.58118" lon="5.4816">
        <ele>456</ele>
        <time>2019-10-10T10:32:15.730Z</time>
      </trkpt>
      <trkpt lat="46.58114" lon="5.4815">
        <ele>452</ele>
        <time>2019-10-10T10:32:20.726Z</time>
      </trkpt>
      <trkpt lat="46.58111" lon="5.48141">
        <ele>452</ele>
        <time>2019-10-10T10:32:25.726Z</time>
      </trkpt>
      <trkpt lat="46.58109" lon="5.48135">
        <ele>452</ele>
        <time>2019-10-10T10:32:29.731Z</time>
      </trkpt>
      <trkpt lat="46.5811" lon="5.48131">
        <ele>452</ele>
        <time>2019-10-10T10:32:33.739Z</time>
      </trkpt>
      <trkpt lat="46.58109" lon="5.48126">
        <ele>452</ele>
        <time>2019-10-10T10:32:37.747Z</time>
      </trkpt>
      <trkpt lat="46.58108" lon="5.48117">
        <ele>449</ele>
        <time>2019-10-10T10:32:42.729Z</time>
      </trkpt>
      <trkpt lat="46.58106" lon="5.4811">
        <ele>449</ele>
        <time>2019-10-10T10:32:46.754Z</time>
      </trkpt>
      <trkpt lat="46.58106" lon="5.48107">
        <ele>449</ele>
        <time>2019-10-10T10:32:51.737Z</time>
      </trkpt>
      <trkpt lat="46.58104" lon="5.48094">
        <ele>447</ele>
        <time>2019-10-10T10:32:56.735Z</time>
      </trkpt>
      <trkpt lat="46.58104" lon="5.4809">
        <ele>447</ele>
        <time>2019-10-10T10:33:00.746Z</time>
      </trkpt>
      <trkpt lat="46.581" lon="5.48083">
        <ele>447</ele>
        <time>2019-10-10T10:33:05.744Z</time>
      </trkpt>
      <trkpt lat="46.58096" lon="5.48077">
        <ele>452</ele>
        <time>2019-10-10T10:33:10.731Z</time>
      </trkpt>
      <trkpt lat="46.58091" lon="5.4807">
        <ele>452</ele>
        <time>2019-10-10T10:33:14.761Z</time>
      </trkpt>
      <trkpt lat="46.58086" lon="5.48066">
        <ele>449</ele>
        <time>2019-10-10T10:33:19.731Z</time>
      </trkpt>
      <trkpt lat="46.58081" lon="5.48061">
        <ele>449</ele>
        <time>2019-10-10T10:33:23.771Z</time>
      </trkpt>
      <trkpt lat="46.58078" lon="5.48055">
        <ele>449</ele>
        <time>2019-10-10T10:33:28.768Z</time>
      </trkpt>
      <trkpt lat="46.58073" lon="5.48051">
        <ele>449</ele>
        <time>2019-10-10T10:33:33.728Z</time>
      </trkpt>
      <trkpt lat="46.58068" lon="5.48045">
        <ele>451</ele>
        <time>2019-10-10T10:33:38.727Z</time>
      </trkpt>
      <trkpt lat="46.58062" lon="5.48038">
        <ele>447</ele>
        <time>2019-10-10T10:33:43.748Z</time>
      </trkpt>
      <trkpt lat="46.58058" lon="5.48033">
        <ele>447</ele>
        <time>2019-10-10T10:33:48.729Z</time>
      </trkpt>
      <trkpt lat="46.58054" lon="5.48032">
        <ele>447</ele>
        <time>2019-10-10T10:33:52.741Z</time>
      </trkpt>
      <trkpt lat="46.58047" lon="5.48028">
        <ele>447</ele>
        <time>2019-10-10T10:33:57.726Z</time>
      </trkpt>
      <trkpt lat="46.58043" lon="5.48025">
        <ele>447</ele>
        <time>2019-10-10T10:34:02.722Z</time>
      </trkpt>
      <trkpt lat="46.58037" lon="5.48022">
        <ele>452</ele>
        <time>2019-10-10T10:34:06.731Z</time>
      </trkpt>
      <trkpt lat="46.5803" lon="5.48022">
        <ele>452</ele>
        <time>2019-10-10T10:34:11.730Z</time>
      </trkpt>
      <trkpt lat="46.58021" lon="5.48021">
        <ele>452</ele>
        <time>2019-10-10T10:34:15.767Z</time>
      </trkpt>
      <trkpt lat="46.58016" lon="5.48022">
        <ele>452</ele>
        <time>2019-10-10T10:34:20.767Z</time>
      </trkpt>
      <trkpt lat="46.58011" lon="5.48023">
        <ele>456</ele>
        <time>2019-10-10T10:34:25.729Z</time>
      </trkpt>
      <trkpt lat="46.58005" lon="5.48022">
        <ele>456</ele>
        <time>2019-10-10T10:34:30.744Z</time>
      </trkpt>
      <trkpt lat="46.57998" lon="5.4802">
        <ele>456</ele>
        <time>2019-10-10T10:34:35.730Z</time>
      </trkpt>
      <trkpt lat="46.57994" lon="5.48018">
        <ele>456</ele>
        <time>2019-10-10T10:34:39.757Z</time>
      </trkpt>
      <trkpt lat="46.57987" lon="5.48014">
        <ele>456</ele>
        <time>2019-10-10T10:34:44.743Z</time>
      </trkpt>
      <trkpt lat="46.57983" lon="5.48011">
        <ele>455</ele>
        <time>2019-10-10T10:34:49.765Z</time>
      </trkpt>
      <trkpt lat="46.57978" lon="5.48009">
        <ele>455</ele>
        <time>2019-10-10T10:34:54.741Z</time>
      </trkpt>
      <trkpt lat="46.57971" lon="5.48007">
        <ele>455</ele>
        <time>2019-10-10T10:34:59.749Z</time>
      </trkpt>
      <trkpt lat="46.57967" lon="5.48003">
        <ele>455</ele>
        <time>2019-10-10T10:35:03.787Z</time>
      </trkpt>
      <trkpt lat="46.57964" lon="5.47998">
        <ele>455</ele>
        <time>2019-10-10T10:35:08.750Z</time>
      </trkpt>
      <trkpt lat="46.57961" lon="5.4799">
        <ele>455</ele>
        <time>2019-10-10T10:35:13.769Z</time>
      </trkpt>
      <trkpt lat="46.57957" lon="5.47982">
        <ele>460</ele>
        <time>2019-10-10T10:35:18.750Z</time>
      </trkpt>
      <trkpt lat="46.57956" lon="5.47977">
        <ele>460</ele>
        <time>2019-10-10T10:35:22.768Z</time>
      </trkpt>
      <trkpt lat="46.57954" lon="5.4797">
        <ele>460</ele>
        <time>2019-10-10T10:35:27.757Z</time>
      </trkpt>
      <trkpt lat="46.57952" lon="5.47962">
        <ele>460</ele>
        <time>2019-10-10T10:35:32.747Z</time>
      </trkpt>
      <trkpt lat="46.57949" lon="5.47955">
        <ele>454</ele>
        <time>2019-10-10T10:35:37.738Z</time>
      </trkpt>
      <trkpt lat="46.57945" lon="5.47953">
        <ele>454</ele>
        <time>2019-10-10T10:35:42.745Z</time>
      </trkpt>
      <trkpt lat="46.5794" lon="5.47947">
        <ele>454</ele>
        <time>2019-10-10T10:35:47.729Z</time>
      </trkpt>
      <trkpt lat="46.57937" lon="5.47943">
        <ele>454</ele>
        <time>2019-10-10T10:35:51.741Z</time>
      </trkpt>
      <trkpt lat="46.57933" lon="5.47938">
        <ele>454</ele>
        <time>2019-10-10T10:35:56.743Z</time>
      </trkpt>
      <trkpt lat="46.57926" lon="5.4793">
        <ele>458</ele>
        <time>2019-10-10T10:36:01.729Z</time>
      </trkpt>
      <trkpt lat="46.5792" lon="5.47924">
        <ele>458</ele>
        <time>2019-10-10T10:36:06.732Z</time>
      </trkpt>
      <trkpt lat="46.57915" lon="5.47916">
        <ele>458</ele>
        <time>2019-10-10T10:36:10.744Z</time>
      </trkpt>
      <trkpt lat="46.5791" lon="5.47909">
        <ele>458</ele>
        <time>2019-10-10T10:36:15.738Z</time>
      </trkpt>
      <trkpt lat="46.57905" lon="5.47908">
        <ele>458</ele>
        <time>2019-10-10T10:36:20.735Z</time>
      </trkpt>
      <trkpt lat="46.579" lon="5.47905">
        <ele>462</ele>
        <time>2019-10-10T10:36:24.777Z</time>
      </trkpt>
      <trkpt lat="46.57894" lon="5.47901">
        <ele>455</ele>
        <time>2019-10-10T10:36:29.742Z</time>
      </trkpt>
      <trkpt lat="46.57887" lon="5.47901">
        <ele>455</ele>
        <time>2019-10-10T10:36:34.727Z</time>
      </trkpt>
      <trkpt lat="46.57882" lon="5.47901">
        <ele>455</ele>
        <time>2019-10-10T10:36:38.767Z</time>
      </trkpt>
      <trkpt lat="46.57878" lon="5.47897">
        <ele>455</ele>
        <time>2019-10-10T10:36:43.729Z</time>
      </trkpt>
      <trkpt lat="46.57872" lon="5.47896">
        <ele>457</ele>
        <time>2019-10-10T10:36:47.754Z</time>
      </trkpt>
      <trkpt lat="46.57866" lon="5.47897">
        <ele>457</ele>
        <time>2019-10-10T10:36:52.743Z</time>
      </trkpt>
      <trkpt lat="46.57856" lon="5.479">
        <ele>457</ele>
        <time>2019-10-10T10:37:35.765Z</time>
      </trkpt>
      <trkpt lat="46.57856" lon="5.479">
        <ele>457</ele>
        <time>2019-10-10T10:37:40.767Z</time>
      </trkpt>
      <trkpt lat="46.57855" lon="5.479">
        <ele>457</ele>
        <time>2019-10-10T10:37:45.753Z</time>
      </trkpt>
      <trkpt lat="46.57855" lon="5.479">
        <ele>457</ele>
        <time>2019-10-10T10:37:49.768Z</time>
      </trkpt>
      <trkpt lat="46.57854" lon="5.479">
        <ele>457</ele>
        <time>2019-10-10T10:37:54.777Z</time>
      </trkpt>
      <trkpt lat="46.57852" lon="5.4789">
        <ele>457</ele>
        <time>2019-10-10T10:39:03.753Z</time>
      </trkpt>
      <trkpt lat="46.57849" lon="5.47891">
        <ele>457</ele>
        <time>2019-10-10T10:39:08.754Z</time>
      </trkpt>
      <trkpt lat="46.57846" lon="5.4789">
        <ele>458</ele>
        <time>2019-10-10T10:39:12.767Z</time>
      </trkpt>
      <trkpt lat="46.57843" lon="5.47891">
        <ele>458</ele>
        <time>2019-10-10T10:39:17.749Z</time>
      </trkpt>
      <trkpt lat="46.5784" lon="5.47891">
        <ele>458</ele>
        <time>2019-10-10T10:39:21.764Z</time>
      </trkpt>
      <trkpt lat="46.57833" lon="5.47892">
        <ele>458</ele>
        <time>2019-10-10T10:39:26.755Z</time>
      </trkpt>
      <trkpt lat="46.57825" lon="5.47893">
        <ele>458</ele>
        <time>2019-10-10T10:39:31.750Z</time>
      </trkpt>
      <trkpt lat="46.57819" lon="5.47894">
        <ele>458</ele>
        <time>2019-10-10T10:39:36.752Z</time>
      </trkpt>
      <trkpt lat="46.57815" lon="5.47896">
        <ele>458</ele>
        <time>2019-10-10T10:39:40.791Z</time>
      </trkpt>
      <trkpt lat="46.57811" lon="5.47898">
        <ele>458</ele>
        <time>2019-10-10T10:39:45.746Z</time>
      </trkpt>
      <trkpt lat="46.57805" lon="5.47899">
        <ele>458</ele>
        <time>2019-10-10T10:39:49.763Z</time>
      </trkpt>
      <trkpt lat="46.57798" lon="5.47898">
        <ele>458</ele>
        <time>2019-10-10T10:39:54.749Z</time>
      </trkpt>
      <trkpt lat="46.57791" lon="5.47898">
        <ele>460</ele>
        <time>2019-10-10T10:39:58.759Z</time>
      </trkpt>
      <trkpt lat="46.57788" lon="5.47897">
        <ele>460</ele>
        <time>2019-10-10T10:40:03.760Z</time>
      </trkpt>
      <trkpt lat="46.57783" lon="5.47898">
        <ele>460</ele>
        <time>2019-10-10T10:40:07.769Z</time>
      </trkpt>
      <trkpt lat="46.5778" lon="5.47899">
        <ele>460</ele>
        <time>2019-10-10T10:40:12.759Z</time>
      </trkpt>
      <trkpt lat="46.57777" lon="5.47901">
        <ele>460</ele>
        <time>2019-10-10T10:40:17.757Z</time>
      </trkpt>
      <trkpt lat="46.57772" lon="5.47903">
        <ele>460</ele>
        <time>2019-10-10T10:40:22.750Z</time>
      </trkpt>
      <trkpt lat="46.5776" lon="5.47902">
        <ele>462</ele>
        <time>2019-10-10T10:40:27.746Z</time>
      </trkpt>
      <trkpt lat="46.57756" lon="5.47901">
        <ele>462</ele>
        <time>2019-10-10T10:40:31.760Z</time>
      </trkpt>
      <trkpt lat="46.57754" lon="5.47896">
        <ele>462</ele>
        <time>2019-10-10T10:40:35.782Z</time>
      </trkpt>
      <trkpt lat="46.57749" lon="5.47892">
        <ele>462</ele>
        <time>2019-10-10T10:40:40.754Z</time>
      </trkpt>
      <trkpt lat="46.57739" lon="5.47887">
        <ele>462</ele>
        <time>2019-10-10T10:40:45.754Z</time>
      </trkpt>
      <trkpt lat="46.57732" lon="5.47883">
        <ele>464</ele>
        <time>2019-10-10T10:40:49.768Z</time>
      </trkpt>
      <trkpt lat="46.57727" lon="5.47881">
        <ele>464</ele>
        <time>2019-10-10T10:40:54.745Z</time>
      </trkpt>
      <trkpt lat="46.57725" lon="5.4788">
        <ele>464</ele>
        <time>2019-10-10T10:40:58.767Z</time>
      </trkpt>
      <trkpt lat="46.5772" lon="5.47878">
        <ele>464</ele>
        <time>2019-10-10T10:41:03.749Z</time>
      </trkpt>
      <trkpt lat="46.57716" lon="5.47874">
        <ele>460</ele>
        <time>2019-10-10T10:41:08.754Z</time>
      </trkpt>
      <trkpt lat="46.57709" lon="5.4787">
        <ele>460</ele>
        <time>2019-10-10T10:41:13.739Z</time>
      </trkpt>
      <trkpt lat="46.57704" lon="5.47866">
        <ele>461</ele>
        <time>2019-10-10T10:41:17.754Z</time>
      </trkpt>
      <trkpt lat="46.577" lon="5.47862">
        <ele>461</ele>
        <time>2019-10-10T10:41:22.754Z</time>
      </trkpt>
      <trkpt lat="46.57695" lon="5.47857">
        <ele>461</ele>
        <time>2019-10-10T10:41:27.756Z</time>
      </trkpt>
      <trkpt lat="46.57689" lon="5.47853">
        <ele>461</ele>
        <time>2019-10-10T10:41:32.749Z</time>
      </trkpt>
      <trkpt lat="46.57684" lon="5.47847">
        <ele>458</ele>
        <time>2019-10-10T10:41:37.749Z</time>
      </trkpt>
      <trkpt lat="46.57678" lon="5.47843">
        <ele>461</ele>
        <time>2019-10-10T10:41:42.746Z</time>
      </trkpt>
      <trkpt lat="46.57674" lon="5.4784">
        <ele>461</ele>
        <time>2019-10-10T10:41:46.754Z</time>
      </trkpt>
      <trkpt lat="46.57667" lon="5.47836">
        <ele>461</ele>
        <time>2019-10-10T10:41:51.757Z</time>
      </trkpt>
      <trkpt lat="46.57661" lon="5.47835">
        <ele>461</ele>
        <time>2019-10-10T10:41:56.755Z</time>
      </trkpt>
      <trkpt lat="46.57657" lon="5.47833">
        <ele>461</ele>
        <time>2019-10-10T10:42:01.748Z</time>
      </trkpt>
      <trkpt lat="46.5765" lon="5.47831">
        <ele>462</ele>
        <time>2019-10-10T10:42:05.758Z</time>
      </trkpt>
      <trkpt lat="46.57642" lon="5.47829">
        <ele>462</ele>
        <time>2019-10-10T10:42:10.773Z</time>
      </trkpt>
      <trkpt lat="46.57639" lon="5.47826">
        <ele>462</ele>
        <time>2019-10-10T10:42:15.749Z</time>
      </trkpt>
      <trkpt lat="46.57632" lon="5.4782">
        <ele>462</ele>
        <time>2019-10-10T10:42:20.766Z</time>
      </trkpt>
      <trkpt lat="46.5763" lon="5.47817">
        <ele>460</ele>
        <time>2019-10-10T10:42:25.757Z</time>
      </trkpt>
      <trkpt lat="46.57626" lon="5.47817">
        <ele>460</ele>
        <time>2019-10-10T10:42:30.743Z</time>
      </trkpt>
      <trkpt lat="46.57617" lon="5.47813">
        <ele>461</ele>
        <time>2019-10-10T10:42:35.753Z</time>
      </trkpt>
      <trkpt lat="46.57612" lon="5.47811">
        <ele>461</ele>
        <time>2019-10-10T10:42:40.754Z</time>
      </trkpt>
      <trkpt lat="46.57604" lon="5.47808">
        <ele>461</ele>
        <time>2019-10-10T10:42:45.749Z</time>
      </trkpt>
      <trkpt lat="46.57598" lon="5.47808">
        <ele>461</ele>
        <time>2019-10-10T10:42:50.758Z</time>
      </trkpt>
      <trkpt lat="46.57596" lon="5.47809">
        <ele>464</ele>
        <time>2019-10-10T10:42:55.734Z</time>
      </trkpt>
      <trkpt lat="46.57592" lon="5.47808">
        <ele>464</ele>
        <time>2019-10-10T10:42:59.760Z</time>
      </trkpt>
      <trkpt lat="46.57581" lon="5.47805">
        <ele>464</ele>
        <time>2019-10-10T10:43:04.755Z</time>
      </trkpt>
      <trkpt lat="46.57573" lon="5.478">
        <ele>464</ele>
        <time>2019-10-10T10:43:09.758Z</time>
      </trkpt>
      <trkpt lat="46.57564" lon="5.478">
        <ele>467</ele>
        <time>2019-10-10T10:43:14.742Z</time>
      </trkpt>
      <trkpt lat="46.57559" lon="5.47799">
        <ele>467</ele>
        <time>2019-10-10T10:43:18.778Z</time>
      </trkpt>
      <trkpt lat="46.57555" lon="5.47794">
        <ele>467</ele>
        <time>2019-10-10T10:43:23.747Z</time>
      </trkpt>
      <trkpt lat="46.57551" lon="5.47794">
        <ele>467</ele>
        <time>2019-10-10T10:43:27.759Z</time>
      </trkpt>
      <trkpt lat="46.57546" lon="5.47795">
        <ele>467</ele>
        <time>2019-10-10T10:43:32.757Z</time>
      </trkpt>
      <trkpt lat="46.57542" lon="5.47795">
        <ele>467</ele>
        <time>2019-10-10T10:43:36.777Z</time>
      </trkpt>
      <trkpt lat="46.57537" lon="5.47796">
        <ele>469</ele>
        <time>2019-10-10T10:43:41.771Z</time>
      </trkpt>
      <trkpt lat="46.57528" lon="5.47797">
        <ele>469</ele>
        <time>2019-10-10T10:43:46.746Z</time>
      </trkpt>
      <trkpt lat="46.57521" lon="5.47804">
        <ele>469</ele>
        <time>2019-10-10T10:44:45.774Z</time>
      </trkpt>
      <trkpt lat="46.57515" lon="5.47797">
        <ele>469</ele>
        <time>2019-10-10T10:44:50.747Z</time>
      </trkpt>
      <trkpt lat="46.57511" lon="5.47793">
        <ele>469</ele>
        <time>2019-10-10T10:44:54.760Z</time>
      </trkpt>
      <trkpt lat="46.57508" lon="5.47793">
        <ele>469</ele>
        <time>2019-10-10T10:44:59.749Z</time>
      </trkpt>
      <trkpt lat="46.57504" lon="5.47791">
        <ele>470</ele>
        <time>2019-10-10T10:45:04.751Z</time>
      </trkpt>
      <trkpt lat="46.57499" lon="5.47791">
        <ele>470</ele>
        <time>2019-10-10T10:45:09.745Z</time>
      </trkpt>
      <trkpt lat="46.57492" lon="5.47792">
        <ele>469</ele>
        <time>2019-10-10T10:45:14.749Z</time>
      </trkpt>
      <trkpt lat="46.57486" lon="5.47794">
        <ele>468</ele>
        <time>2019-10-10T10:45:19.752Z</time>
      </trkpt>
      <trkpt lat="46.57478" lon="5.47794">
        <ele>468</ele>
        <time>2019-10-10T10:45:24.752Z</time>
      </trkpt>
      <trkpt lat="46.57474" lon="5.47796">
        <ele>468</ele>
        <time>2019-10-10T10:45:29.747Z</time>
      </trkpt>
      <trkpt lat="46.57471" lon="5.47799">
        <ele>468</ele>
        <time>2019-10-10T10:45:34.750Z</time>
      </trkpt>
      <trkpt lat="46.57466" lon="5.47801">
        <ele>468</ele>
        <time>2019-10-10T10:45:38.758Z</time>
      </trkpt>
      <trkpt lat="46.57461" lon="5.47804">
        <ele>468</ele>
        <time>2019-10-10T10:45:43.779Z</time>
      </trkpt>
      <trkpt lat="46.57457" lon="5.47808">
        <ele>467</ele>
        <time>2019-10-10T10:45:48.750Z</time>
      </trkpt>
      <trkpt lat="46.57455" lon="5.47809">
        <ele>467</ele>
        <time>2019-10-10T10:45:53.741Z</time>
      </trkpt>
      <trkpt lat="46.57449" lon="5.47812">
        <ele>467</ele>
        <time>2019-10-10T10:45:58.749Z</time>
      </trkpt>
      <trkpt lat="46.57441" lon="5.47816">
        <ele>467</ele>
        <time>2019-10-10T10:46:03.740Z</time>
      </trkpt>
      <trkpt lat="46.57436" lon="5.47819">
        <ele>467</ele>
        <time>2019-10-10T10:46:07.752Z</time>
      </trkpt>
      <trkpt lat="46.5743" lon="5.47823">
        <ele>465</ele>
        <time>2019-10-10T10:46:12.747Z</time>
      </trkpt>
      <trkpt lat="46.57426" lon="5.47825">
        <ele>465</ele>
        <time>2019-10-10T10:46:17.774Z</time>
      </trkpt>
      <trkpt lat="46.57422" lon="5.47827">
        <ele>465</ele>
        <time>2019-10-10T10:46:22.753Z</time>
      </trkpt>
      <trkpt lat="46.57419" lon="5.47828">
        <ele>465</ele>
        <time>2019-10-10T10:46:27.743Z</time>
      </trkpt>
      <trkpt lat="46.57416" lon="5.4783">
        <ele>465</ele>
        <time>2019-10-10T10:46:31.759Z</time>
      </trkpt>
      <trkpt lat="46.57408" lon="5.47838">
        <ele>465</ele>
        <time>2019-10-10T10:46:36.755Z</time>
      </trkpt>
      <trkpt lat="46.57403" lon="5.47843">
        <ele>465</ele>
        <time>2019-10-10T10:46:41.749Z</time>
      </trkpt>
      <trkpt lat="46.57398" lon="5.47848">
        <ele>463</ele>
        <time>2019-10-10T10:46:46.749Z</time>
      </trkpt>
      <trkpt lat="46.57392" lon="5.47852">
        <ele>463</ele>
        <time>2019-10-10T10:46:51.769Z</time>
      </trkpt>
      <trkpt lat="46.57387" lon="5.47859">
        <ele>463</ele>
        <time>2019-10-10T10:46:56.747Z</time>
      </trkpt>
      <trkpt lat="46.57382" lon="5.47864">
        <ele>463</ele>
        <time>2019-10-10T10:47:01.745Z</time>
      </trkpt>
      <trkpt lat="46.57375" lon="5.47869">
        <ele>463</ele>
        <time>2019-10-10T10:47:06.757Z</time>
      </trkpt>
      <trkpt lat="46.5737" lon="5.47872">
        <ele>463</ele>
        <time>2019-10-10T10:47:11.745Z</time>
      </trkpt>
      <trkpt lat="46.57365" lon="5.47875">
        <ele>464</ele>
        <time>2019-10-10T10:47:15.760Z</time>
      </trkpt>
      <trkpt lat="46.5736" lon="5.47877">
        <ele>464</ele>
        <time>2019-10-10T10:47:20.755Z</time>
      </trkpt>
      <trkpt lat="46.57354" lon="5.47883">
        <ele>464</ele>
        <time>2019-10-10T10:47:25.750Z</time>
      </trkpt>
      <trkpt lat="46.57351" lon="5.47886">
        <ele>464</ele>
        <time>2019-10-10T10:47:30.749Z</time>
      </trkpt>
      <trkpt lat="46.57344" lon="5.47893">
        <ele>465</ele>
        <time>2019-10-10T10:47:35.750Z</time>
      </trkpt>
      <trkpt lat="46.57341" lon="5.47897">
        <ele>465</ele>
        <time>2019-10-10T10:47:40.745Z</time>
      </trkpt>
      <trkpt lat="46.57335" lon="5.47901">
        <ele>465</ele>
        <time>2019-10-10T10:47:44.759Z</time>
      </trkpt>
      <trkpt lat="46.57325" lon="5.479">
        <ele>465</ele>
        <time>2019-10-10T10:47:49.762Z</time>
      </trkpt>
      <trkpt lat="46.57318" lon="5.47897">
        <ele>467</ele>
        <time>2019-10-10T10:47:54.745Z</time>
      </trkpt>
      <trkpt lat="46.57314" lon="5.47895">
        <ele>467</ele>
        <time>2019-10-10T10:47:59.744Z</time>
      </trkpt>
      <trkpt lat="46.57308" lon="5.47898">
        <ele>467</ele>
        <time>2019-10-10T10:48:04.762Z</time>
      </trkpt>
      <trkpt lat="46.57302" lon="5.47897">
        <ele>467</ele>
        <time>2019-10-10T10:48:09.752Z</time>
      </trkpt>
      <trkpt lat="46.57297" lon="5.479">
        <ele>467</ele>
        <time>2019-10-10T10:48:14.745Z</time>
      </trkpt>
      <trkpt lat="46.57293" lon="5.47901">
        <ele>467</ele>
        <time>2019-10-10T10:48:18.763Z</time>
      </trkpt>
      <trkpt lat="46.57289" lon="5.47897">
        <ele>467</ele>
        <time>2019-10-10T10:48:42.766Z</time>
      </trkpt>
      <trkpt lat="46.5729" lon="5.47893">
        <ele>467</ele>
        <time>2019-10-10T10:48:46.783Z</time>
      </trkpt>
      <trkpt lat="46.57288" lon="5.47886">
        <ele>467</ele>
        <time>2019-10-10T10:48:51.761Z</time>
      </trkpt>
      <trkpt lat="46.57287" lon="5.47876">
        <ele>467</ele>
        <time>2019-10-10T10:48:56.745Z</time>
      </trkpt>
      <trkpt lat="46.57287" lon="5.47869">
        <ele>470</ele>
        <time>2019-10-10T10:49:00.769Z</time>
      </trkpt>
      <trkpt lat="46.57287" lon="5.47864">
        <ele>470</ele>
        <time>2019-10-10T10:49:05.749Z</time>
      </trkpt>
      <trkpt lat="46.57282" lon="5.4786">
        <ele>470</ele>
        <time>2019-10-10T10:49:10.744Z</time>
      </trkpt>
      <trkpt lat="46.5728" lon="5.47852">
        <ele>470</ele>
        <time>2019-10-10T10:49:15.746Z</time>
      </trkpt>
      <trkpt lat="46.5728" lon="5.47847">
        <ele>476</ele>
        <time>2019-10-10T10:49:20.746Z</time>
      </trkpt>
      <trkpt lat="46.57279" lon="5.47845">
        <ele>476</ele>
        <time>2019-10-10T10:49:25.745Z</time>
      </trkpt>
      <trkpt lat="46.57276" lon="5.47839">
        <ele>476</ele>
        <time>2019-10-10T10:49:29.753Z</time>
      </trkpt>
      <trkpt lat="46.57274" lon="5.47832">
        <ele>476</ele>
        <time>2019-10-10T10:49:34.756Z</time>
      </trkpt>
      <trkpt lat="46.57272" lon="5.47825">
        <ele>476</ele>
        <time>2019-10-10T10:49:39.748Z</time>
      </trkpt>
      <trkpt lat="46.57272" lon="5.47819">
        <ele>480</ele>
        <time>2019-10-10T10:49:43.759Z</time>
      </trkpt>
      <trkpt lat="46.57268" lon="5.47813">
        <ele>480</ele>
        <time>2019-10-10T10:49:48.743Z</time>
      </trkpt>
      <trkpt lat="46.57265" lon="5.47809">
        <ele>480</ele>
        <time>2019-10-10T10:49:52.761Z</time>
      </trkpt>
      <trkpt lat="46.57263" lon="5.47806">
        <ele>482</ele>
        <time>2019-10-10T10:49:57.764Z</time>
      </trkpt>
      <trkpt lat="46.57262" lon="5.47801">
        <ele>482</ele>
        <time>2019-10-10T10:50:02.753Z</time>
      </trkpt>
      <trkpt lat="46.57261" lon="5.47801">
        <ele>482</ele>
        <time>2019-10-10T10:50:06.771Z</time>
      </trkpt>
      <trkpt lat="46.57258" lon="5.47794">
        <ele>482</ele>
        <time>2019-10-10T10:50:11.752Z</time>
      </trkpt>
      <trkpt lat="46.57253" lon="5.47791">
        <ele>489</ele>
        <time>2019-10-10T10:50:16.755Z</time>
      </trkpt>
      <trkpt lat="46.57249" lon="5.4779">
        <ele>489</ele>
        <time>2019-10-10T10:50:21.751Z</time>
      </trkpt>
      <trkpt lat="46.57249" lon="5.47788">
        <ele>489</ele>
        <time>2019-10-10T10:50:26.743Z</time>
      </trkpt>
      <trkpt lat="46.57248" lon="5.47784">
        <ele>489</ele>
        <time>2019-10-10T10:50:30.760Z</time>
      </trkpt>
      <trkpt lat="46.57244" lon="5.47778">
        <ele>489</ele>
        <time>2019-10-10T10:50:35.749Z</time>
      </trkpt>
      <trkpt lat="46.57242" lon="5.47768">
        <ele>489</ele>
        <time>2019-10-10T10:51:10.756Z</time>
      </trkpt>
      <trkpt lat="46.57241" lon="5.47766">
        <ele>489</ele>
        <time>2019-10-10T10:51:15.754Z</time>
      </trkpt>
      <trkpt lat="46.57241" lon="5.47764">
        <ele>489</ele>
        <time>2019-10-10T10:51:20.754Z</time>
      </trkpt>
      <trkpt lat="46.57241" lon="5.47764">
        <ele>495</ele>
        <time>2019-10-10T10:51:25.751Z</time>
      </trkpt>
      <trkpt lat="46.5724" lon="5.47762">
        <ele>495</ele>
        <time>2019-10-10T10:51:30.742Z</time>
      </trkpt>
      <trkpt lat="46.57247" lon="5.47763">
        <ele>495</ele>
        <time>2019-10-10T10:53:57.756Z</time>
      </trkpt>
      <trkpt lat="46.57247" lon="5.47763">
        <ele>495</ele>
        <time>2019-10-10T10:54:02.752Z</time>
      </trkpt>
      <trkpt lat="46.57248" lon="5.47761">
        <ele>495</ele>
        <time>2019-10-10T10:54:07.742Z</time>
      </trkpt>
      <trkpt lat="46.5725" lon="5.47762">
        <ele>495</ele>
        <time>2019-10-10T10:54:11.754Z</time>
      </trkpt>
      <trkpt lat="46.5725" lon="5.47762">
        <ele>495</ele>
        <time>2019-10-10T10:54:16.754Z</time>
      </trkpt>
      <trkpt lat="46.57252" lon="5.47769">
        <ele>489</ele>
        <time>2019-10-10T10:56:13.752Z</time>
      </trkpt>
      <trkpt lat="46.5725" lon="5.4777">
        <ele>489</ele>
        <time>2019-10-10T10:56:18.756Z</time>
      </trkpt>
      <trkpt lat="46.57251" lon="5.47774">
        <ele>489</ele>
        <time>2019-10-10T10:56:23.761Z</time>
      </trkpt>
      <trkpt lat="46.5725" lon="5.47776">
        <ele>489</ele>
        <time>2019-10-10T10:56:28.743Z</time>
      </trkpt>
      <trkpt lat="46.57252" lon="5.4778">
        <ele>489</ele>
        <time>2019-10-10T10:56:32.772Z</time>
      </trkpt>
      <trkpt lat="46.57253" lon="5.47784">
        <ele>489</ele>
        <time>2019-10-10T10:56:37.742Z</time>
      </trkpt>
      <trkpt lat="46.57254" lon="5.47786">
        <ele>489</ele>
        <time>2019-10-10T10:56:42.770Z</time>
      </trkpt>
      <trkpt lat="46.57257" lon="5.47789">
        <ele>489</ele>
        <time>2019-10-10T10:56:47.740Z</time>
      </trkpt>
      <trkpt lat="46.57259" lon="5.47798">
        <ele>482</ele>
        <time>2019-10-10T10:56:52.752Z</time>
      </trkpt>
      <trkpt lat="46.57271" lon="5.47806">
        <ele>480</ele>
        <time>2019-10-10T10:57:40.750Z</time>
      </trkpt>
      <trkpt lat="46.57273" lon="5.47804">
        <ele>480</ele>
        <time>2019-10-10T10:57:45.745Z</time>
      </trkpt>
      <trkpt lat="46.57274" lon="5.47797">
        <ele>480</ele>
        <time>2019-10-10T10:57:50.745Z</time>
      </trkpt>
      <trkpt lat="46.57277" lon="5.47795">
        <ele>480</ele>
        <time>2019-10-10T10:57:54.747Z</time>
      </trkpt>
      <trkpt lat="46.57279" lon="5.47794">
        <ele>480</ele>
        <time>2019-10-10T10:57:59.744Z</time>
      </trkpt>
      <trkpt lat="46.5728" lon="5.47789">
        <ele>486</ele>
        <time>2019-10-10T10:58:04.741Z</time>
      </trkpt>
      <trkpt lat="46.57279" lon="5.47789">
        <ele>486</ele>
        <time>2019-10-10T10:58:09.754Z</time>
      </trkpt>
      <trkpt lat="46.57278" lon="5.47782">
        <ele>486</ele>
        <time>2019-10-10T10:58:14.742Z</time>
      </trkpt>
      <trkpt lat="46.57278" lon="5.47779">
        <ele>486</ele>
        <time>2019-10-10T10:58:19.753Z</time>
      </trkpt>
      <trkpt lat="46.57278" lon="5.47771">
        <ele>486</ele>
        <time>2019-10-10T10:58:24.746Z</time>
      </trkpt>
      <trkpt lat="46.5728" lon="5.47756">
        <ele>494</ele>
        <time>2019-10-10T10:58:38.776Z</time>
      </trkpt>
      <trkpt lat="46.5728" lon="5.47755">
        <ele>494</ele>
        <time>2019-10-10T10:58:43.753Z</time>
      </trkpt>
      <trkpt lat="46.57279" lon="5.47754">
        <ele>494</ele>
        <time>2019-10-10T10:58:48.756Z</time>
      </trkpt>
      <trkpt lat="46.57279" lon="5.47754">
        <ele>494</ele>
        <time>2019-10-10T10:58:52.770Z</time>
      </trkpt>
      <trkpt lat="46.57278" lon="5.4775">
        <ele>494</ele>
        <time>2019-10-10T10:58:57.751Z</time>
      </trkpt>
      <trkpt lat="46.57275" lon="5.47745">
        <ele>494</ele>
        <time>2019-10-10T10:59:40.754Z</time>
      </trkpt>
      <trkpt lat="46.57275" lon="5.47744">
        <ele>494</ele>
        <time>2019-10-10T10:59:45.753Z</time>
      </trkpt>
      <trkpt lat="46.57275" lon="5.47743">
        <ele>494</ele>
        <time>2019-10-10T10:59:50.764Z</time>
      </trkpt>
      <trkpt lat="46.57275" lon="5.47737">
        <ele>494</ele>
        <time>2019-10-10T10:59:55.766Z</time>
      </trkpt>
      <trkpt lat="46.57275" lon="5.47724">
        <ele>501</ele>
        <time>2019-10-10T11:00:08.751Z</time>
      </trkpt>
      <trkpt lat="46.57274" lon="5.47735">
        <ele>501</ele>
        <time>2019-10-10T11:00:13.738Z</time>
      </trkpt>
      <trkpt lat="46.5727" lon="5.47743">
        <ele>494</ele>
        <time>2019-10-10T11:00:17.751Z</time>
      </trkpt>
      <trkpt lat="46.57273" lon="5.47747">
        <ele>494</ele>
        <time>2019-10-10T11:00:21.768Z</time>
      </trkpt>
      <trkpt lat="46.57274" lon="5.47748">
        <ele>494</ele>
        <time>2019-10-10T11:00:26.756Z</time>
      </trkpt>
      <trkpt lat="46.57278" lon="5.47757">
        <ele>494</ele>
        <time>2019-10-10T11:02:02.774Z</time>
      </trkpt>
      <trkpt lat="46.57279" lon="5.47759">
        <ele>494</ele>
        <time>2019-10-10T11:02:07.752Z</time>
      </trkpt>
      <trkpt lat="46.5728" lon="5.47759">
        <ele>494</ele>
        <time>2019-10-10T11:02:12.780Z</time>
      </trkpt>
      <trkpt lat="46.5728" lon="5.47758">
        <ele>494</ele>
        <time>2019-10-10T11:02:17.759Z</time>
      </trkpt>
      <trkpt lat="46.5728" lon="5.47764">
        <ele>486</ele>
        <time>2019-10-10T11:02:22.745Z</time>
      </trkpt>
      <trkpt lat="46.5728" lon="5.47767">
        <ele>486</ele>
        <time>2019-10-10T11:02:31.749Z</time>
      </trkpt>
      <trkpt lat="46.5728" lon="5.47769">
        <ele>486</ele>
        <time>2019-10-10T11:02:36.751Z</time>
      </trkpt>
      <trkpt lat="46.5728" lon="5.47773">
        <ele>486</ele>
        <time>2019-10-10T11:02:41.748Z</time>
      </trkpt>
      <trkpt lat="46.5728" lon="5.47777">
        <ele>486</ele>
        <time>2019-10-10T11:02:45.767Z</time>
      </trkpt>
      <trkpt lat="46.5728" lon="5.47778">
        <ele>486</ele>
        <time>2019-10-10T11:02:50.749Z</time>
      </trkpt>
      <trkpt lat="46.57276" lon="5.47786">
        <ele>486</ele>
        <time>2019-10-10T11:03:00.756Z</time>
      </trkpt>
      <trkpt lat="46.57276" lon="5.47785">
        <ele>486</ele>
        <time>2019-10-10T11:03:05.753Z</time>
      </trkpt>
      <trkpt lat="46.57276" lon="5.47787">
        <ele>486</ele>
        <time>2019-10-10T11:03:10.756Z</time>
      </trkpt>
      <trkpt lat="46.57276" lon="5.47789">
        <ele>486</ele>
        <time>2019-10-10T11:03:15.757Z</time>
      </trkpt>
      <trkpt lat="46.57273" lon="5.47792">
        <ele>480</ele>
        <time>2019-10-10T11:03:20.745Z</time>
      </trkpt>
      <trkpt lat="46.57269" lon="5.47796">
        <ele>480</ele>
        <time>2019-10-10T11:03:25.747Z</time>
      </trkpt>
      <trkpt lat="46.57267" lon="5.47802">
        <ele>480</ele>
        <time>2019-10-10T11:03:29.778Z</time>
      </trkpt>
      <trkpt lat="46.57267" lon="5.47806">
        <ele>480</ele>
        <time>2019-10-10T11:03:34.754Z</time>
      </trkpt>
      <trkpt lat="46.57264" lon="5.4781">
        <ele>480</ele>
        <time>2019-10-10T11:03:38.768Z</time>
      </trkpt>
      <trkpt lat="46.57263" lon="5.47814">
        <ele>482</ele>
        <time>2019-10-10T11:03:43.763Z</time>
      </trkpt>
      <trkpt lat="46.57263" lon="5.47816">
        <ele>482</ele>
        <time>2019-10-10T11:03:48.751Z</time>
      </trkpt>
      <trkpt lat="46.57263" lon="5.4782">
        <ele>477</ele>
        <time>2019-10-10T11:03:53.741Z</time>
      </trkpt>
      <trkpt lat="46.57266" lon="5.47823">
        <ele>476</ele>
        <time>2019-10-10T11:03:57.755Z</time>
      </trkpt>
      <trkpt lat="46.57268" lon="5.47826">
        <ele>476</ele>
        <time>2019-10-10T11:04:02.763Z</time>
      </trkpt>
      <trkpt lat="46.57272" lon="5.47831">
        <ele>476</ele>
        <time>2019-10-10T11:04:06.778Z</time>
      </trkpt>
      <trkpt lat="46.57275" lon="5.47836">
        <ele>476</ele>
        <time>2019-10-10T11:04:11.758Z</time>
      </trkpt>
      <trkpt lat="46.57274" lon="5.47842">
        <ele>476</ele>
        <time>2019-10-10T11:04:16.752Z</time>
      </trkpt>
      <trkpt lat="46.57275" lon="5.47853">
        <ele>470</ele>
        <time>2019-10-10T11:04:21.743Z</time>
      </trkpt>
      <trkpt lat="46.57278" lon="5.47861">
        <ele>470</ele>
        <time>2019-10-10T11:04:26.757Z</time>
      </trkpt>
      <trkpt lat="46.5728" lon="5.47867">
        <ele>470</ele>
        <time>2019-10-10T11:04:31.771Z</time>
      </trkpt>
      <trkpt lat="46.57281" lon="5.47872">
        <ele>470</ele>
        <time>2019-10-10T11:04:36.759Z</time>
      </trkpt>
      <trkpt lat="46.57283" lon="5.4788">
        <ele>467</ele>
        <time>2019-10-10T11:04:41.739Z</time>
      </trkpt>
      <trkpt lat="46.57284" lon="5.47888">
        <ele>467</ele>
        <time>2019-10-10T11:04:46.748Z</time>
      </trkpt>
      <trkpt lat="46.57287" lon="5.47896">
        <ele>467</ele>
        <time>2019-10-10T11:04:51.754Z</time>
      </trkpt>
      <trkpt lat="46.5729" lon="5.47905">
        <ele>466</ele>
        <time>2019-10-10T11:04:56.756Z</time>
      </trkpt>
      <trkpt lat="46.57295" lon="5.47913">
        <ele>468</ele>
        <time>2019-10-10T11:05:01.745Z</time>
      </trkpt>
      <trkpt lat="46.57301" lon="5.47912">
        <ele>468</ele>
        <time>2019-10-10T11:05:06.766Z</time>
      </trkpt>
      <trkpt lat="46.573" lon="5.47907">
        <ele>468</ele>
        <time>2019-10-10T11:05:11.754Z</time>
      </trkpt>
      <trkpt lat="46.57301" lon="5.47903">
        <ele>468</ele>
        <time>2019-10-10T11:05:15.767Z</time>
      </trkpt>
      <trkpt lat="46.57308" lon="5.47899">
        <ele>467</ele>
        <time>2019-10-10T11:05:20.760Z</time>
      </trkpt>
      <trkpt lat="46.57314" lon="5.47896">
        <ele>467</ele>
        <time>2019-10-10T11:07:07.767Z</time>
      </trkpt>
      <trkpt lat="46.57314" lon="5.47896">
        <ele>467</ele>
        <time>2019-10-10T11:07:12.759Z</time>
      </trkpt>
      <trkpt lat="46.57315" lon="5.47894">
        <ele>467</ele>
        <time>2019-10-10T11:07:17.754Z</time>
      </trkpt>
      <trkpt lat="46.57316" lon="5.47891">
        <ele>467</ele>
        <time>2019-10-10T11:07:21.772Z</time>
      </trkpt>
      <trkpt lat="46.57319" lon="5.47886">
        <ele>467</ele>
        <time>2019-10-10T11:07:26.752Z</time>
      </trkpt>
      <trkpt lat="46.5732" lon="5.4788">
        <ele>465</ele>
        <time>2019-10-10T11:07:31.770Z</time>
      </trkpt>
      <trkpt lat="46.57323" lon="5.47875">
        <ele>464</ele>
        <time>2019-10-10T11:07:36.754Z</time>
      </trkpt>
      <trkpt lat="46.57325" lon="5.47869">
        <ele>464</ele>
        <time>2019-10-10T11:07:41.749Z</time>
      </trkpt>
      <trkpt lat="46.57324" lon="5.4786">
        <ele>464</ele>
        <time>2019-10-10T11:07:46.759Z</time>
      </trkpt>
      <trkpt lat="46.57322" lon="5.47852">
        <ele>464</ele>
        <time>2019-10-10T11:07:51.761Z</time>
      </trkpt>
      <trkpt lat="46.57321" lon="5.47844">
        <ele>464</ele>
        <time>2019-10-10T11:07:56.762Z</time>
      </trkpt>
      <trkpt lat="46.57321" lon="5.47837">
        <ele>464</ele>
        <time>2019-10-10T11:08:01.760Z</time>
      </trkpt>
      <trkpt lat="46.57321" lon="5.4783">
        <ele>464</ele>
        <time>2019-10-10T11:08:06.747Z</time>
      </trkpt>
      <trkpt lat="46.57322" lon="5.47822">
        <ele>464</ele>
        <time>2019-10-10T11:08:11.755Z</time>
      </trkpt>
      <trkpt lat="46.57321" lon="5.47816">
        <ele>469</ele>
        <time>2019-10-10T11:08:16.760Z</time>
      </trkpt>
      <trkpt lat="46.57321" lon="5.47813">
        <ele>469</ele>
        <time>2019-10-10T11:08:20.780Z</time>
      </trkpt>
      <trkpt lat="46.5732" lon="5.47809">
        <ele>469</ele>
        <time>2019-10-10T11:08:25.779Z</time>
      </trkpt>
      <trkpt lat="46.57323" lon="5.47804">
        <ele>469</ele>
        <time>2019-10-10T11:08:30.758Z</time>
      </trkpt>
      <trkpt lat="46.57325" lon="5.47801">
        <ele>469</ele>
        <time>2019-10-10T11:08:35.756Z</time>
      </trkpt>
      <trkpt lat="46.57327" lon="5.47795">
        <ele>469</ele>
        <time>2019-10-10T11:08:40.753Z</time>
      </trkpt>
      <trkpt lat="46.5733" lon="5.47791">
        <ele>475</ele>
        <time>2019-10-10T11:08:45.752Z</time>
      </trkpt>
      <trkpt lat="46.57332" lon="5.47788">
        <ele>475</ele>
        <time>2019-10-10T11:08:49.774Z</time>
      </trkpt>
      <trkpt lat="46.57334" lon="5.47785">
        <ele>475</ele>
        <time>2019-10-10T11:08:54.749Z</time>
      </trkpt>
      <trkpt lat="46.57341" lon="5.47779">
        <ele>475</ele>
        <time>2019-10-10T11:08:58.760Z</time>
      </trkpt>
      <trkpt lat="46.57345" lon="5.47775">
        <ele>475</ele>
        <time>2019-10-10T11:09:03.752Z</time>
      </trkpt>
      <trkpt lat="46.5735" lon="5.47771">
        <ele>472</ele>
        <time>2019-10-10T11:09:08.758Z</time>
      </trkpt>
      <trkpt lat="46.57355" lon="5.47764">
        <ele>472</ele>
        <time>2019-10-10T11:09:13.743Z</time>
      </trkpt>
      <trkpt lat="46.57359" lon="5.47759">
        <ele>477</ele>
        <time>2019-10-10T11:09:17.757Z</time>
      </trkpt>
      <trkpt lat="46.57363" lon="5.47754">
        <ele>477</ele>
        <time>2019-10-10T11:09:22.756Z</time>
      </trkpt>
      <trkpt lat="46.57366" lon="5.47746">
        <ele>477</ele>
        <time>2019-10-10T11:09:27.754Z</time>
      </trkpt>
      <trkpt lat="46.57369" lon="5.47736">
        <ele>477</ele>
        <time>2019-10-10T11:09:32.764Z</time>
      </trkpt>
      <trkpt lat="46.57372" lon="5.47728">
        <ele>484</ele>
        <time>2019-10-10T11:09:37.755Z</time>
      </trkpt>
      <trkpt lat="46.57377" lon="5.47718">
        <ele>474</ele>
        <time>2019-10-10T11:09:42.762Z</time>
      </trkpt>
      <trkpt lat="46.57376" lon="5.47711">
        <ele>474</ele>
        <time>2019-10-10T11:09:47.743Z</time>
      </trkpt>
      <trkpt lat="46.57375" lon="5.47704">
        <ele>478</ele>
        <time>2019-10-10T11:09:51.755Z</time>
      </trkpt>
      <trkpt lat="46.57375" lon="5.477">
        <ele>478</ele>
        <time>2019-10-10T11:09:56.755Z</time>
      </trkpt>
      <trkpt lat="46.57376" lon="5.47693">
        <ele>478</ele>
        <time>2019-10-10T11:10:01.766Z</time>
      </trkpt>
      <trkpt lat="46.57378" lon="5.47689">
        <ele>478</ele>
        <time>2019-10-10T11:10:06.757Z</time>
      </trkpt>
      <trkpt lat="46.57378" lon="5.47684">
        <ele>478</ele>
        <time>2019-10-10T11:10:11.784Z</time>
      </trkpt>
      <trkpt lat="46.57378" lon="5.47681">
        <ele>478</ele>
        <time>2019-10-10T11:10:16.751Z</time>
      </trkpt>
      <trkpt lat="46.57381" lon="5.47674">
        <ele>484</ele>
        <time>2019-10-10T11:10:21.767Z</time>
      </trkpt>
      <trkpt lat="46.57384" lon="5.47669">
        <ele>484</ele>
        <time>2019-10-10T11:10:26.767Z</time>
      </trkpt>
      <trkpt lat="46.57386" lon="5.47663">
        <ele>484</ele>
        <time>2019-10-10T11:10:31.746Z</time>
      </trkpt>
      <trkpt lat="46.57389" lon="5.47656">
        <ele>484</ele>
        <time>2019-10-10T11:10:35.768Z</time>
      </trkpt>
      <trkpt lat="46.57391" lon="5.4765">
        <ele>488</ele>
        <time>2019-10-10T11:10:39.781Z</time>
      </trkpt>
      <trkpt lat="46.5739" lon="5.47641">
        <ele>488</ele>
        <time>2019-10-10T11:10:44.779Z</time>
      </trkpt>
      <trkpt lat="46.57391" lon="5.47633">
        <ele>488</ele>
        <time>2019-10-10T11:10:49.753Z</time>
      </trkpt>
      <trkpt lat="46.57392" lon="5.47626">
        <ele>488</ele>
        <time>2019-10-10T11:10:54.768Z</time>
      </trkpt>
      <trkpt lat="46.57394" lon="5.47616">
        <ele>491</ele>
        <time>2019-10-10T11:10:59.769Z</time>
      </trkpt>
      <trkpt lat="46.57394" lon="5.47607">
        <ele>491</ele>
        <time>2019-10-10T11:11:04.755Z</time>
      </trkpt>
      <trkpt lat="46.57395" lon="5.476">
        <ele>491</ele>
        <time>2019-10-10T11:11:09.768Z</time>
      </trkpt>
      <trkpt lat="46.57396" lon="5.47595">
        <ele>493</ele>
        <time>2019-10-10T11:11:14.769Z</time>
      </trkpt>
      <trkpt lat="46.57395" lon="5.47589">
        <ele>493</ele>
        <time>2019-10-10T11:11:19.746Z</time>
      </trkpt>
      <trkpt lat="46.57396" lon="5.47583">
        <ele>493</ele>
        <time>2019-10-10T11:11:23.769Z</time>
      </trkpt>
      <trkpt lat="46.57397" lon="5.47573">
        <ele>493</ele>
        <time>2019-10-10T11:11:28.778Z</time>
      </trkpt>
      <trkpt lat="46.57401" lon="5.47566">
        <ele>496</ele>
        <time>2019-10-10T11:11:33.761Z</time>
      </trkpt>
      <trkpt lat="46.57404" lon="5.47559">
        <ele>488</ele>
        <time>2019-10-10T11:11:37.790Z</time>
      </trkpt>
      <trkpt lat="46.57405" lon="5.47552">
        <ele>488</ele>
        <time>2019-10-10T11:11:42.767Z</time>
      </trkpt>
      <trkpt lat="46.57406" lon="5.47546">
        <ele>488</ele>
        <time>2019-10-10T11:11:47.756Z</time>
      </trkpt>
      <trkpt lat="46.57407" lon="5.47537">
        <ele>487</ele>
        <time>2019-10-10T11:11:52.757Z</time>
      </trkpt>
      <trkpt lat="46.57407" lon="5.47529">
        <ele>487</ele>
        <time>2019-10-10T11:11:57.771Z</time>
      </trkpt>
      <trkpt lat="46.57409" lon="5.47521">
        <ele>487</ele>
        <time>2019-10-10T11:12:02.759Z</time>
      </trkpt>
      <trkpt lat="46.57411" lon="5.47517">
        <ele>487</ele>
        <time>2019-10-10T11:12:07.750Z</time>
      </trkpt>
      <trkpt lat="46.57413" lon="5.47514">
        <ele>487</ele>
        <time>2019-10-10T11:12:11.762Z</time>
      </trkpt>
      <trkpt lat="46.57415" lon="5.4751">
        <ele>492</ele>
        <time>2019-10-10T11:12:15.828Z</time>
      </trkpt>
      <trkpt lat="46.57416" lon="5.47509">
        <ele>492</ele>
        <time>2019-10-10T11:12:20.763Z</time>
      </trkpt>
      <trkpt lat="46.57417" lon="5.47498">
        <ele>492</ele>
        <time>2019-10-10T11:12:25.756Z</time>
      </trkpt>
      <trkpt lat="46.57421" lon="5.47493">
        <ele>492</ele>
        <time>2019-10-10T11:12:30.751Z</time>
      </trkpt>
      <trkpt lat="46.57427" lon="5.47486">
        <ele>496</ele>
        <time>2019-10-10T11:12:34.771Z</time>
      </trkpt>
      <trkpt lat="46.57432" lon="5.47479">
        <ele>490</ele>
        <time>2019-10-10T11:12:39.766Z</time>
      </trkpt>
      <trkpt lat="46.57437" lon="5.47471">
        <ele>490</ele>
        <time>2019-10-10T11:12:44.759Z</time>
      </trkpt>
      <trkpt lat="46.57437" lon="5.47468">
        <ele>490</ele>
        <time>2019-10-10T11:12:49.748Z</time>
      </trkpt>
      <trkpt lat="46.57439" lon="5.47462">
        <ele>490</ele>
        <time>2019-10-10T11:12:53.764Z</time>
      </trkpt>
      <trkpt lat="46.5744" lon="5.47452">
        <ele>492</ele>
        <time>2019-10-10T11:12:58.750Z</time>
      </trkpt>
      <trkpt lat="46.57439" lon="5.47449">
        <ele>492</ele>
        <time>2019-10-10T11:13:03.755Z</time>
      </trkpt>
      <trkpt lat="46.5744" lon="5.47443">
        <ele>492</ele>
        <time>2019-10-10T11:13:08.748Z</time>
      </trkpt>
      <trkpt lat="46.57441" lon="5.47434">
        <ele>492</ele>
        <time>2019-10-10T11:13:13.747Z</time>
      </trkpt>
      <trkpt lat="46.57441" lon="5.47426">
        <ele>493</ele>
        <time>2019-10-10T11:13:18.752Z</time>
      </trkpt>
      <trkpt lat="46.57437" lon="5.47422">
        <ele>493</ele>
        <time>2019-10-10T11:13:23.749Z</time>
      </trkpt>
      <trkpt lat="46.57435" lon="5.47415">
        <ele>493</ele>
        <time>2019-10-10T11:13:28.766Z</time>
      </trkpt>
      <trkpt lat="46.57434" lon="5.47409">
        <ele>493</ele>
        <time>2019-10-10T11:13:33.761Z</time>
      </trkpt>
      <trkpt lat="46.57432" lon="5.47401">
        <ele>494</ele>
        <time>2019-10-10T11:13:38.764Z</time>
      </trkpt>
      <trkpt lat="46.57432" lon="5.47392">
        <ele>494</ele>
        <time>2019-10-10T11:13:43.761Z</time>
      </trkpt>
      <trkpt lat="46.57433" lon="5.47387">
        <ele>494</ele>
        <time>2019-10-10T11:13:48.749Z</time>
      </trkpt>
      <trkpt lat="46.57431" lon="5.47379">
        <ele>494</ele>
        <time>2019-10-10T11:13:52.756Z</time>
      </trkpt>
      <trkpt lat="46.57428" lon="5.47372">
        <ele>498</ele>
        <time>2019-10-10T11:13:57.754Z</time>
      </trkpt>
      <trkpt lat="46.57425" lon="5.47366">
        <ele>498</ele>
        <time>2019-10-10T11:14:02.746Z</time>
      </trkpt>
      <trkpt lat="46.57424" lon="5.47355">
        <ele>498</ele>
        <time>2019-10-10T11:14:07.753Z</time>
      </trkpt>
      <trkpt lat="46.57424" lon="5.47346">
        <ele>495</ele>
        <time>2019-10-10T11:14:12.748Z</time>
      </trkpt>
      <trkpt lat="46.57425" lon="5.47341">
        <ele>495</ele>
        <time>2019-10-10T11:14:17.738Z</time>
      </trkpt>
      <trkpt lat="46.57425" lon="5.47336">
        <ele>495</ele>
        <time>2019-10-10T11:14:22.744Z</time>
      </trkpt>
      <trkpt lat="46.57423" lon="5.47326">
        <ele>495</ele>
        <time>2019-10-10T11:14:27.751Z</time>
      </trkpt>
      <trkpt lat="46.5742" lon="5.47322">
        <ele>495</ele>
        <time>2019-10-10T11:14:32.763Z</time>
      </trkpt>
      <trkpt lat="46.57416" lon="5.47313">
        <ele>490</ele>
        <time>2019-10-10T11:14:37.773Z</time>
      </trkpt>
      <trkpt lat="46.57413" lon="5.47306">
        <ele>490</ele>
        <time>2019-10-10T11:14:42.748Z</time>
      </trkpt>
      <trkpt lat="46.57412" lon="5.47299">
        <ele>490</ele>
        <time>2019-10-10T11:14:47.754Z</time>
      </trkpt>
      <trkpt lat="46.57411" lon="5.47294">
        <ele>490</ele>
        <time>2019-10-10T11:14:51.769Z</time>
      </trkpt>
      <trkpt lat="46.5741" lon="5.47283">
        <ele>488</ele>
        <time>2019-10-10T11:15:45.750Z</time>
      </trkpt>
      <trkpt lat="46.57409" lon="5.47281">
        <ele>488</ele>
        <time>2019-10-10T11:15:49.763Z</time>
      </trkpt>
      <trkpt lat="46.57411" lon="5.47275">
        <ele>488</ele>
        <time>2019-10-10T11:15:54.769Z</time>
      </trkpt>
      <trkpt lat="46.57409" lon="5.47272">
        <ele>488</ele>
        <time>2019-10-10T11:15:59.742Z</time>
      </trkpt>
      <trkpt lat="46.57405" lon="5.47269">
        <ele>488</ele>
        <time>2019-10-10T11:16:04.777Z</time>
      </trkpt>
      <trkpt lat="46.57398" lon="5.47268">
        <ele>493</ele>
        <time>2019-10-10T11:16:09.745Z</time>
      </trkpt>
      <trkpt lat="46.57395" lon="5.47267">
        <ele>493</ele>
        <time>2019-10-10T11:16:13.760Z</time>
      </trkpt>
      <trkpt lat="46.57388" lon="5.47266">
        <ele>493</ele>
        <time>2019-10-10T11:16:18.753Z</time>
      </trkpt>
      <trkpt lat="46.57384" lon="5.47265">
        <ele>493</ele>
        <time>2019-10-10T11:16:23.758Z</time>
      </trkpt>
      <trkpt lat="46.57382" lon="5.47263">
        <ele>489</ele>
        <time>2019-10-10T11:16:27.766Z</time>
      </trkpt>
      <trkpt lat="46.57376" lon="5.47261">
        <ele>489</ele>
        <time>2019-10-10T11:16:32.762Z</time>
      </trkpt>
      <trkpt lat="46.57372" lon="5.47258">
        <ele>497</ele>
        <time>2019-10-10T11:16:37.746Z</time>
      </trkpt>
      <trkpt lat="46.57366" lon="5.47256">
        <ele>497</ele>
        <time>2019-10-10T11:16:42.758Z</time>
      </trkpt>
      <trkpt lat="46.57359" lon="5.4725">
        <ele>497</ele>
        <time>2019-10-10T11:16:47.744Z</time>
      </trkpt>
      <trkpt lat="46.57356" lon="5.47248">
        <ele>497</ele>
        <time>2019-10-10T11:16:52.759Z</time>
      </trkpt>
      <trkpt lat="46.57353" lon="5.47244">
        <ele>497</ele>
        <time>2019-10-10T11:16:57.760Z</time>
      </trkpt>
      <trkpt lat="46.5735" lon="5.47241">
        <ele>497</ele>
        <time>2019-10-10T11:17:02.750Z</time>
      </trkpt>
      <trkpt lat="46.57348" lon="5.47238">
        <ele>497</ele>
        <time>2019-10-10T11:17:07.750Z</time>
      </trkpt>
      <trkpt lat="46.57345" lon="5.47235">
        <ele>498</ele>
        <time>2019-10-10T11:17:11.768Z</time>
      </trkpt>
      <trkpt lat="46.57343" lon="5.47235">
        <ele>498</ele>
        <time>2019-10-10T11:17:16.751Z</time>
      </trkpt>
      <trkpt lat="46.57341" lon="5.47233">
        <ele>498</ele>
        <time>2019-10-10T11:17:21.749Z</time>
      </trkpt>
      <trkpt lat="46.57337" lon="5.4723">
        <ele>498</ele>
        <time>2019-10-10T11:17:26.750Z</time>
      </trkpt>
      <trkpt lat="46.57334" lon="5.47227">
        <ele>498</ele>
        <time>2019-10-10T11:17:31.759Z</time>
      </trkpt>
      <trkpt lat="46.57331" lon="5.47225">
        <ele>498</ele>
        <time>2019-10-10T11:17:36.746Z</time>
      </trkpt>
      <trkpt lat="46.57329" lon="5.47223">
        <ele>498</ele>
        <time>2019-10-10T11:17:40.779Z</time>
      </trkpt>
      <trkpt lat="46.57323" lon="5.47222">
        <ele>498</ele>
        <time>2019-10-10T11:17:45.746Z</time>
      </trkpt>
      <trkpt lat="46.57316" lon="5.47218">
        <ele>507</ele>
        <time>2019-10-10T11:17:50.758Z</time>
      </trkpt>
      <trkpt lat="46.5731" lon="5.47213">
        <ele>507</ele>
        <time>2019-10-10T11:17:55.744Z</time>
      </trkpt>
      <trkpt lat="46.57307" lon="5.47213">
        <ele>507</ele>
        <time>2019-10-10T11:17:59.759Z</time>
      </trkpt>
      <trkpt lat="46.57306" lon="5.47213">
        <ele>507</ele>
        <time>2019-10-10T11:18:04.754Z</time>
      </trkpt>
      <trkpt lat="46.57305" lon="5.47212">
        <ele>507</ele>
        <time>2019-10-10T11:18:14.744Z</time>
      </trkpt>
      <trkpt lat="46.57303" lon="5.47211">
        <ele>507</ele>
        <time>2019-10-10T11:18:18.778Z</time>
      </trkpt>
      <trkpt lat="46.57303" lon="5.47209">
        <ele>507</ele>
        <time>2019-10-10T11:18:23.767Z</time>
      </trkpt>
      <trkpt lat="46.57299" lon="5.47203">
        <ele>498</ele>
        <time>2019-10-10T11:18:28.746Z</time>
      </trkpt>
      <trkpt lat="46.57293" lon="5.472">
        <ele>498</ele>
        <time>2019-10-10T11:18:33.741Z</time>
      </trkpt>
      <trkpt lat="46.57284" lon="5.47197">
        <ele>508</ele>
        <time>2019-10-10T11:18:38.766Z</time>
      </trkpt>
      <trkpt lat="46.57281" lon="5.47191">
        <ele>508</ele>
        <time>2019-10-10T11:18:43.753Z</time>
      </trkpt>
      <trkpt lat="46.57279" lon="5.4719">
        <ele>508</ele>
        <time>2019-10-10T11:18:48.771Z</time>
      </trkpt>
      <trkpt lat="46.57274" lon="5.47188">
        <ele>508</ele>
        <time>2019-10-10T11:18:53.773Z</time>
      </trkpt>
      <trkpt lat="46.57271" lon="5.47184">
        <ele>508</ele>
        <time>2019-10-10T11:18:58.758Z</time>
      </trkpt>
      <trkpt lat="46.57265" lon="5.47182">
        <ele>508</ele>
        <time>2019-10-10T11:19:03.769Z</time>
      </trkpt>
      <trkpt lat="46.57259" lon="5.4718">
        <ele>509</ele>
        <time>2019-10-10T11:19:08.737Z</time>
      </trkpt>
      <trkpt lat="46.57256" lon="5.47176">
        <ele>509</ele>
        <time>2019-10-10T11:19:13.754Z</time>
      </trkpt>
      <trkpt lat="46.57253" lon="5.47175">
        <ele>509</ele>
        <time>2019-10-10T11:19:18.760Z</time>
      </trkpt>
      <trkpt lat="46.57252" lon="5.47174">
        <ele>509</ele>
        <time>2019-10-10T11:19:23.772Z</time>
      </trkpt>
      <trkpt lat="46.57252" lon="5.47171">
        <ele>509</ele>
        <time>2019-10-10T11:19:28.780Z</time>
      </trkpt>
      <trkpt lat="46.57249" lon="5.47168">
        <ele>509</ele>
        <time>2019-10-10T11:19:33.741Z</time>
      </trkpt>
      <trkpt lat="46.57246" lon="5.47164">
        <ele>509</ele>
        <time>2019-10-10T11:19:37.760Z</time>
      </trkpt>
      <trkpt lat="46.57243" lon="5.47161">
        <ele>509</ele>
        <time>2019-10-10T11:19:41.778Z</time>
      </trkpt>
      <trkpt lat="46.57237" lon="5.47157">
        <ele>509</ele>
        <time>2019-10-10T11:19:46.757Z</time>
      </trkpt>
      <trkpt lat="46.57233" lon="5.47153">
        <ele>519</ele>
        <time>2019-10-10T11:19:51.755Z</time>
      </trkpt>
      <trkpt lat="46.57229" lon="5.4715">
        <ele>506</ele>
        <time>2019-10-10T11:19:56.762Z</time>
      </trkpt>
      <trkpt lat="46.57224" lon="5.47149">
        <ele>506</ele>
        <time>2019-10-10T11:20:01.747Z</time>
      </trkpt>
      <trkpt lat="46.5722" lon="5.47146">
        <ele>506</ele>
        <time>2019-10-10T11:20:06.759Z</time>
      </trkpt>
      <trkpt lat="46.57218" lon="5.47146">
        <ele>506</ele>
        <time>2019-10-10T11:20:11.758Z</time>
      </trkpt>
      <trkpt lat="46.57215" lon="5.47145">
        <ele>506</ele>
        <time>2019-10-10T11:20:16.758Z</time>
      </trkpt>
      <trkpt lat="46.57214" lon="5.47144">
        <ele>506</ele>
        <time>2019-10-10T11:20:21.771Z</time>
      </trkpt>
      <trkpt lat="46.57211" lon="5.47145">
        <ele>506</ele>
        <time>2019-10-10T11:20:26.753Z</time>
      </trkpt>
      <trkpt lat="46.57211" lon="5.47143">
        <ele>506</ele>
        <time>2019-10-10T11:20:31.761Z</time>
      </trkpt>
      <trkpt lat="46.5721" lon="5.4714">
        <ele>506</ele>
        <time>2019-10-10T11:20:36.759Z</time>
      </trkpt>
      <trkpt lat="46.57205" lon="5.47141">
        <ele>521</ele>
        <time>2019-10-10T11:20:41.755Z</time>
      </trkpt>
      <trkpt lat="46.57199" lon="5.47133">
        <ele>521</ele>
        <time>2019-10-10T11:20:46.763Z</time>
      </trkpt>
      <trkpt lat="46.57196" lon="5.4713">
        <ele>521</ele>
        <time>2019-10-10T11:20:51.753Z</time>
      </trkpt>
      <trkpt lat="46.57193" lon="5.47126">
        <ele>521</ele>
        <time>2019-10-10T11:20:56.749Z</time>
      </trkpt>
      <trkpt lat="46.57189" lon="5.47117">
        <ele>513</ele>
        <time>2019-10-10T11:21:00.763Z</time>
      </trkpt>
      <trkpt lat="46.57185" lon="5.47115">
        <ele>513</ele>
        <time>2019-10-10T11:21:05.767Z</time>
      </trkpt>
      <trkpt lat="46.57178" lon="5.47111">
        <ele>531</ele>
        <time>2019-10-10T11:21:10.754Z</time>
      </trkpt>
      <trkpt lat="46.57176" lon="5.47112">
        <ele>531</ele>
        <time>2019-10-10T11:21:15.770Z</time>
      </trkpt>
      <trkpt lat="46.57174" lon="5.47113">
        <ele>531</ele>
        <time>2019-10-10T11:21:20.748Z</time>
      </trkpt>
      <trkpt lat="46.57172" lon="5.47112">
        <ele>531</ele>
        <time>2019-10-10T11:21:24.774Z</time>
      </trkpt>
      <trkpt lat="46.57171" lon="5.47107">
        <ele>531</ele>
        <time>2019-10-10T11:21:29.755Z</time>
      </trkpt>
      <trkpt lat="46.57168" lon="5.47107">
        <ele>531</ele>
        <time>2019-10-10T11:21:34.754Z</time>
      </trkpt>
      <trkpt lat="46.57165" lon="5.47104">
        <ele>531</ele>
        <time>2019-10-10T11:21:38.766Z</time>
      </trkpt>
      <trkpt lat="46.57163" lon="5.47099">
        <ele>531</ele>
        <time>2019-10-10T11:21:43.750Z</time>
      </trkpt>
      <trkpt lat="46.57159" lon="5.47098">
        <ele>531</ele>
        <time>2019-10-10T11:21:47.760Z</time>
      </trkpt>
      <trkpt lat="46.57156" lon="5.47094">
        <ele>524</ele>
        <time>2019-10-10T11:21:52.750Z</time>
      </trkpt>
      <trkpt lat="46.57154" lon="5.47091">
        <ele>524</ele>
        <time>2019-10-10T11:21:56.771Z</time>
      </trkpt>
      <trkpt lat="46.57153" lon="5.47089">
        <ele>524</ele>
        <time>2019-10-10T11:22:01.775Z</time>
      </trkpt>
      <trkpt lat="46.57151" lon="5.47083">
        <ele>534</ele>
        <time>2019-10-10T11:22:06.768Z</time>
      </trkpt>
      <trkpt lat="46.57149" lon="5.47076">
        <ele>534</ele>
        <time>2019-10-10T11:22:11.763Z</time>
      </trkpt>
      <trkpt lat="46.57146" lon="5.47071">
        <ele>534</ele>
        <time>2019-10-10T11:22:16.749Z</time>
      </trkpt>
      <trkpt lat="46.57143" lon="5.47068">
        <ele>529</ele>
        <time>2019-10-10T11:22:20.771Z</time>
      </trkpt>
      <trkpt lat="46.57138" lon="5.47065">
        <ele>529</ele>
        <time>2019-10-10T11:22:25.772Z</time>
      </trkpt>
      <trkpt lat="46.57135" lon="5.4706">
        <ele>529</ele>
        <time>2019-10-10T11:22:30.747Z</time>
      </trkpt>
      <trkpt lat="46.57133" lon="5.47058">
        <ele>529</ele>
        <time>2019-10-10T11:22:35.753Z</time>
      </trkpt>
      <trkpt lat="46.57131" lon="5.47055">
        <ele>529</ele>
        <time>2019-10-10T11:22:39.761Z</time>
      </trkpt>
      <trkpt lat="46.57129" lon="5.47054">
        <ele>529</ele>
        <time>2019-10-10T11:22:44.749Z</time>
      </trkpt>
      <trkpt lat="46.57123" lon="5.47054">
        <ele>541</ele>
        <time>2019-10-10T11:22:48.770Z</time>
      </trkpt>
      <trkpt lat="46.57118" lon="5.47048">
        <ele>541</ele>
        <time>2019-10-10T11:22:53.757Z</time>
      </trkpt>
      <trkpt lat="46.57116" lon="5.47044">
        <ele>541</ele>
        <time>2019-10-10T11:22:58.745Z</time>
      </trkpt>
      <trkpt lat="46.57112" lon="5.4704">
        <ele>537</ele>
        <time>2019-10-10T11:23:02.775Z</time>
      </trkpt>
      <trkpt lat="46.57109" lon="5.4703">
        <ele>537</ele>
        <time>2019-10-10T11:23:07.762Z</time>
      </trkpt>
      <trkpt lat="46.57108" lon="5.47027">
        <ele>537</ele>
        <time>2019-10-10T11:23:12.746Z</time>
      </trkpt>
      <trkpt lat="46.57107" lon="5.47027">
        <ele>537</ele>
        <time>2019-10-10T11:23:17.757Z</time>
      </trkpt>
      <trkpt lat="46.57104" lon="5.47024">
        <ele>537</ele>
        <time>2019-10-10T11:23:22.769Z</time>
      </trkpt>
      <trkpt lat="46.57101" lon="5.47023">
        <ele>537</ele>
        <time>2019-10-10T11:23:27.760Z</time>
      </trkpt>
      <trkpt lat="46.57096" lon="5.47022">
        <ele>543</ele>
        <time>2019-10-10T11:23:32.761Z</time>
      </trkpt>
      <trkpt lat="46.57093" lon="5.47014">
        <ele>543</ele>
        <time>2019-10-10T11:23:37.764Z</time>
      </trkpt>
      <trkpt lat="46.57091" lon="5.47013">
        <ele>537</ele>
        <time>2019-10-10T11:23:42.776Z</time>
      </trkpt>
      <trkpt lat="46.57088" lon="5.47012">
        <ele>537</ele>
        <time>2019-10-10T11:23:47.753Z</time>
      </trkpt>
      <trkpt lat="46.57084" lon="5.4701">
        <ele>537</ele>
        <time>2019-10-10T11:23:51.770Z</time>
      </trkpt>
      <trkpt lat="46.57081" lon="5.47009">
        <ele>537</ele>
        <time>2019-10-10T11:23:56.766Z</time>
      </trkpt>
      <trkpt lat="46.57078" lon="5.47005">
        <ele>537</ele>
        <time>2019-10-10T11:24:01.765Z</time>
      </trkpt>
      <trkpt lat="46.57074" lon="5.47">
        <ele>537</ele>
        <time>2019-10-10T11:24:06.746Z</time>
      </trkpt>
      <trkpt lat="46.57067" lon="5.46993">
        <ele>544</ele>
        <time>2019-10-10T11:24:11.765Z</time>
      </trkpt>
      <trkpt lat="46.57062" lon="5.46986">
        <ele>538</ele>
        <time>2019-10-10T11:24:16.752Z</time>
      </trkpt>
      <trkpt lat="46.57055" lon="5.46981">
        <ele>538</ele>
        <time>2019-10-10T11:24:21.755Z</time>
      </trkpt>
      <trkpt lat="46.57052" lon="5.46977">
        <ele>538</ele>
        <time>2019-10-10T11:24:25.775Z</time>
      </trkpt>
      <trkpt lat="46.57049" lon="5.46973">
        <ele>538</ele>
        <time>2019-10-10T11:24:30.762Z</time>
      </trkpt>
      <trkpt lat="46.57046" lon="5.46969">
        <ele>538</ele>
        <time>2019-10-10T11:24:35.754Z</time>
      </trkpt>
      <trkpt lat="46.57045" lon="5.46968">
        <ele>538</ele>
        <time>2019-10-10T11:24:39.781Z</time>
      </trkpt>
      <trkpt lat="46.57044" lon="5.46967">
        <ele>538</ele>
        <time>2019-10-10T11:24:44.754Z</time>
      </trkpt>
      <trkpt lat="46.57044" lon="5.46965">
        <ele>538</ele>
        <time>2019-10-10T11:24:48.775Z</time>
      </trkpt>
      <trkpt lat="46.57041" lon="5.46961">
        <ele>544</ele>
        <time>2019-10-10T11:24:53.758Z</time>
      </trkpt>
      <trkpt lat="46.57037" lon="5.46959">
        <ele>544</ele>
        <time>2019-10-10T11:24:57.773Z</time>
      </trkpt>
      <trkpt lat="46.57028" lon="5.46956">
        <ele>540</ele>
        <time>2019-10-10T11:25:11.787Z</time>
      </trkpt>
      <trkpt lat="46.57027" lon="5.46956">
        <ele>540</ele>
        <time>2019-10-10T11:25:16.763Z</time>
      </trkpt>
      <trkpt lat="46.57027" lon="5.46955">
        <ele>540</ele>
        <time>2019-10-10T11:25:20.780Z</time>
      </trkpt>
      <trkpt lat="46.57027" lon="5.46952">
        <ele>540</ele>
        <time>2019-10-10T11:25:25.768Z</time>
      </trkpt>
      <trkpt lat="46.57023" lon="5.4695">
        <ele>540</ele>
        <time>2019-10-10T11:25:30.750Z</time>
      </trkpt>
      <trkpt lat="46.57019" lon="5.46927">
        <ele>536</ele>
        <time>2019-10-10T11:27:50.747Z</time>
      </trkpt>
      <trkpt lat="46.57015" lon="5.46922">
        <ele>536</ele>
        <time>2019-10-10T11:27:54.772Z</time>
      </trkpt>
      <trkpt lat="46.57013" lon="5.46921">
        <ele>544</ele>
        <time>2019-10-10T11:27:59.756Z</time>
      </trkpt>
      <trkpt lat="46.57009" lon="5.46921">
        <ele>544</ele>
        <time>2019-10-10T11:28:04.759Z</time>
      </trkpt>
      <trkpt lat="46.57005" lon="5.46922">
        <ele>544</ele>
        <time>2019-10-10T11:28:08.774Z</time>
      </trkpt>
      <trkpt lat="46.57" lon="5.46924">
        <ele>544</ele>
        <time>2019-10-10T11:28:18.758Z</time>
      </trkpt>
      <trkpt lat="46.56999" lon="5.46924">
        <ele>544</ele>
        <time>2019-10-10T11:28:23.763Z</time>
      </trkpt>
      <trkpt lat="46.56999" lon="5.46925">
        <ele>544</ele>
        <time>2019-10-10T11:28:28.759Z</time>
      </trkpt>
      <trkpt lat="46.56995" lon="5.46927">
        <ele>544</ele>
        <time>2019-10-10T11:28:33.782Z</time>
      </trkpt>
      <trkpt lat="46.56994" lon="5.46931">
        <ele>544</ele>
        <time>2019-10-10T11:28:38.757Z</time>
      </trkpt>
      <trkpt lat="46.56992" lon="5.46934">
        <ele>546</ele>
        <time>2019-10-10T11:28:43.761Z</time>
      </trkpt>
      <trkpt lat="46.56989" lon="5.46938">
        <ele>546</ele>
        <time>2019-10-10T11:28:48.754Z</time>
      </trkpt>
      <trkpt lat="46.56985" lon="5.46941">
        <ele>549</ele>
        <time>2019-10-10T11:28:53.756Z</time>
      </trkpt>
      <trkpt lat="46.56981" lon="5.46947">
        <ele>549</ele>
        <time>2019-10-10T11:28:58.749Z</time>
      </trkpt>
      <trkpt lat="46.56979" lon="5.46952">
        <ele>549</ele>
        <time>2019-10-10T11:29:02.759Z</time>
      </trkpt>
      <trkpt lat="46.56976" lon="5.46955">
        <ele>549</ele>
        <time>2019-10-10T11:29:07.761Z</time>
      </trkpt>
      <trkpt lat="46.56974" lon="5.46959">
        <ele>552</ele>
        <time>2019-10-10T11:29:12.750Z</time>
      </trkpt>
      <trkpt lat="46.5697" lon="5.46962">
        <ele>552</ele>
        <time>2019-10-10T11:29:17.764Z</time>
      </trkpt>
      <trkpt lat="46.56966" lon="5.46965">
        <ele>552</ele>
        <time>2019-10-10T11:29:22.750Z</time>
      </trkpt>
      <trkpt lat="46.56963" lon="5.46969">
        <ele>552</ele>
        <time>2019-10-10T11:29:27.750Z</time>
      </trkpt>
      <trkpt lat="46.56961" lon="5.46973">
        <ele>552</ele>
        <time>2019-10-10T11:29:31.760Z</time>
      </trkpt>
      <trkpt lat="46.56957" lon="5.46978">
        <ele>552</ele>
        <time>2019-10-10T11:29:36.755Z</time>
      </trkpt>
      <trkpt lat="46.56956" lon="5.46983">
        <ele>552</ele>
        <time>2019-10-10T11:29:40.768Z</time>
      </trkpt>
      <trkpt lat="46.56954" lon="5.46988">
        <ele>555</ele>
        <time>2019-10-10T11:29:45.755Z</time>
      </trkpt>
      <trkpt lat="46.5695" lon="5.46991">
        <ele>555</ele>
        <time>2019-10-10T11:29:50.756Z</time>
      </trkpt>
      <trkpt lat="46.56949" lon="5.46993">
        <ele>555</ele>
        <time>2019-10-10T11:29:55.749Z</time>
      </trkpt>
      <trkpt lat="46.56947" lon="5.47">
        <ele>555</ele>
        <time>2019-10-10T11:30:13.753Z</time>
      </trkpt>
      <trkpt lat="46.56947" lon="5.47001">
        <ele>555</ele>
        <time>2019-10-10T11:30:18.746Z</time>
      </trkpt>
      <trkpt lat="46.56947" lon="5.47001">
        <ele>555</ele>
        <time>2019-10-10T11:30:23.742Z</time>
      </trkpt>
      <trkpt lat="46.56947" lon="5.47002">
        <ele>555</ele>
        <time>2019-10-10T11:30:28.782Z</time>
      </trkpt>
      <trkpt lat="46.56944" lon="5.47011">
        <ele>555</ele>
        <time>2019-10-10T11:30:33.767Z</time>
      </trkpt>
      <trkpt lat="46.56943" lon="5.47017">
        <ele>556</ele>
        <time>2019-10-10T11:30:38.747Z</time>
      </trkpt>
      <trkpt lat="46.56943" lon="5.4702">
        <ele>556</ele>
        <time>2019-10-10T11:30:43.774Z</time>
      </trkpt>
      <trkpt lat="46.56941" lon="5.47025">
        <ele>556</ele>
        <time>2019-10-10T11:30:48.756Z</time>
      </trkpt>
      <trkpt lat="46.56941" lon="5.47029">
        <ele>556</ele>
        <time>2019-10-10T11:30:52.771Z</time>
      </trkpt>
      <trkpt lat="46.5694" lon="5.47036">
        <ele>556</ele>
        <time>2019-10-10T11:30:57.763Z</time>
      </trkpt>
      <trkpt lat="46.56938" lon="5.47044">
        <ele>557</ele>
        <time>2019-10-10T11:31:02.771Z</time>
      </trkpt>
      <trkpt lat="46.56936" lon="5.47055">
        <ele>557</ele>
        <time>2019-10-10T11:31:07.764Z</time>
      </trkpt>
      <trkpt lat="46.56935" lon="5.47064">
        <ele>557</ele>
        <time>2019-10-10T11:31:12.766Z</time>
      </trkpt>
      <trkpt lat="46.56934" lon="5.47068">
        <ele>557</ele>
        <time>2019-10-10T11:31:17.748Z</time>
      </trkpt>
      <trkpt lat="46.56934" lon="5.4708">
        <ele>558</ele>
        <time>2019-10-10T11:31:22.752Z</time>
      </trkpt>
      <trkpt lat="46.56933" lon="5.47089">
        <ele>558</ele>
        <time>2019-10-10T11:31:27.758Z</time>
      </trkpt>
      <trkpt lat="46.56933" lon="5.47096">
        <ele>558</ele>
        <time>2019-10-10T11:31:32.778Z</time>
      </trkpt>
      <trkpt lat="46.56934" lon="5.47104">
        <ele>559</ele>
        <time>2019-10-10T11:31:36.785Z</time>
      </trkpt>
      <trkpt lat="46.56936" lon="5.47115">
        <ele>559</ele>
        <time>2019-10-10T11:31:41.765Z</time>
      </trkpt>
      <trkpt lat="46.56936" lon="5.47122">
        <ele>559</ele>
        <time>2019-10-10T11:31:46.758Z</time>
      </trkpt>
      <trkpt lat="46.56936" lon="5.47128">
        <ele>557</ele>
        <time>2019-10-10T11:31:51.776Z</time>
      </trkpt>
      <trkpt lat="46.56936" lon="5.47136">
        <ele>557</ele>
        <time>2019-10-10T11:31:56.753Z</time>
      </trkpt>
      <trkpt lat="46.56937" lon="5.47143">
        <ele>557</ele>
        <time>2019-10-10T11:32:01.771Z</time>
      </trkpt>
      <trkpt lat="46.56938" lon="5.47152">
        <ele>557</ele>
        <time>2019-10-10T11:32:06.779Z</time>
      </trkpt>
      <trkpt lat="46.5694" lon="5.47157">
        <ele>557</ele>
        <time>2019-10-10T11:32:11.756Z</time>
      </trkpt>
      <trkpt lat="46.56941" lon="5.47164">
        <ele>557</ele>
        <time>2019-10-10T11:32:15.778Z</time>
      </trkpt>
      <trkpt lat="46.56942" lon="5.47175">
        <ele>557</ele>
        <time>2019-10-10T11:32:20.754Z</time>
      </trkpt>
      <trkpt lat="46.56943" lon="5.47185">
        <ele>558</ele>
        <time>2019-10-10T11:32:25.753Z</time>
      </trkpt>
      <trkpt lat="46.56941" lon="5.47192">
        <ele>558</ele>
        <time>2019-10-10T11:32:30.751Z</time>
      </trkpt>
      <trkpt lat="46.56943" lon="5.47198">
        <ele>558</ele>
        <time>2019-10-10T11:32:35.738Z</time>
      </trkpt>
      <trkpt lat="46.56942" lon="5.47204">
        <ele>558</ele>
        <time>2019-10-10T11:32:39.760Z</time>
      </trkpt>
      <trkpt lat="46.56941" lon="5.47213">
        <ele>558</ele>
        <time>2019-10-10T11:32:44.750Z</time>
      </trkpt>
      <trkpt lat="46.5694" lon="5.4722">
        <ele>558</ele>
        <time>2019-10-10T11:32:49.756Z</time>
      </trkpt>
      <trkpt lat="46.56941" lon="5.47229">
        <ele>558</ele>
        <time>2019-10-10T11:32:54.766Z</time>
      </trkpt>
      <trkpt lat="46.56941" lon="5.47233">
        <ele>558</ele>
        <time>2019-10-10T11:32:59.766Z</time>
      </trkpt>
      <trkpt lat="46.5694" lon="5.47238">
        <ele>559</ele>
        <time>2019-10-10T11:33:04.764Z</time>
      </trkpt>
      <trkpt lat="46.56936" lon="5.47247">
        <ele>559</ele>
        <time>2019-10-10T11:33:09.754Z</time>
      </trkpt>
      <trkpt lat="46.56932" lon="5.47258">
        <ele>559</ele>
        <time>2019-10-10T11:33:14.759Z</time>
      </trkpt>
      <trkpt lat="46.56931" lon="5.47263">
        <ele>559</ele>
        <time>2019-10-10T11:33:19.759Z</time>
      </trkpt>
      <trkpt lat="46.56931" lon="5.47266">
        <ele>562</ele>
        <time>2019-10-10T11:33:23.782Z</time>
      </trkpt>
      <trkpt lat="46.56927" lon="5.47273">
        <ele>558</ele>
        <time>2019-10-10T11:33:28.783Z</time>
      </trkpt>
      <trkpt lat="46.56925" lon="5.47284">
        <ele>558</ele>
        <time>2019-10-10T11:33:33.757Z</time>
      </trkpt>
      <trkpt lat="46.56923" lon="5.47289">
        <ele>558</ele>
        <time>2019-10-10T11:33:38.762Z</time>
      </trkpt>
      <trkpt lat="46.56921" lon="5.4729">
        <ele>558</ele>
        <time>2019-10-10T11:33:42.773Z</time>
      </trkpt>
      <trkpt lat="46.56921" lon="5.47294">
        <ele>561</ele>
        <time>2019-10-10T11:33:47.765Z</time>
      </trkpt>
      <trkpt lat="46.56922" lon="5.47299">
        <ele>561</ele>
        <time>2019-10-10T11:33:52.765Z</time>
      </trkpt>
      <trkpt lat="46.56923" lon="5.47303">
        <ele>561</ele>
        <time>2019-10-10T11:33:56.779Z</time>
      </trkpt>
      <trkpt lat="46.56922" lon="5.47311">
        <ele>561</ele>
        <time>2019-10-10T11:34:01.766Z</time>
      </trkpt>
      <trkpt lat="46.56923" lon="5.47316">
        <ele>561</ele>
        <time>2019-10-10T11:34:06.751Z</time>
      </trkpt>
      <trkpt lat="46.56921" lon="5.47322">
        <ele>563</ele>
        <time>2019-10-10T11:34:11.760Z</time>
      </trkpt>
      <trkpt lat="46.56923" lon="5.47327">
        <ele>563</ele>
        <time>2019-10-10T11:34:15.765Z</time>
      </trkpt>
      <trkpt lat="46.56923" lon="5.47335">
        <ele>563</ele>
        <time>2019-10-10T11:34:20.758Z</time>
      </trkpt>
      <trkpt lat="46.56924" lon="5.47342">
        <ele>563</ele>
        <time>2019-10-10T11:34:25.772Z</time>
      </trkpt>
      <trkpt lat="46.56926" lon="5.47346">
        <ele>563</ele>
        <time>2019-10-10T11:34:30.776Z</time>
      </trkpt>
      <trkpt lat="46.56925" lon="5.47349">
        <ele>562</ele>
        <time>2019-10-10T11:34:35.746Z</time>
      </trkpt>
      <trkpt lat="46.56924" lon="5.4735">
        <ele>562</ele>
        <time>2019-10-10T11:34:39.768Z</time>
      </trkpt>
      <trkpt lat="46.56924" lon="5.47351">
        <ele>562</ele>
        <time>2019-10-10T11:34:43.780Z</time>
      </trkpt>
      <trkpt lat="46.56926" lon="5.47353">
        <ele>562</ele>
        <time>2019-10-10T11:34:48.753Z</time>
      </trkpt>
      <trkpt lat="46.56926" lon="5.4736">
        <ele>562</ele>
        <time>2019-10-10T11:34:53.745Z</time>
      </trkpt>
      <trkpt lat="46.56927" lon="5.47365">
        <ele>562</ele>
        <time>2019-10-10T11:34:57.769Z</time>
      </trkpt>
      <trkpt lat="46.56928" lon="5.47376">
        <ele>562</ele>
        <time>2019-10-10T11:35:02.757Z</time>
      </trkpt>
      <trkpt lat="46.56928" lon="5.47381">
        <ele>562</ele>
        <time>2019-10-10T11:35:07.762Z</time>
      </trkpt>
      <trkpt lat="46.56925" lon="5.47392">
        <ele>562</ele>
        <time>2019-10-10T11:35:12.760Z</time>
      </trkpt>
      <trkpt lat="46.56923" lon="5.474">
        <ele>562</ele>
        <time>2019-10-10T11:35:16.770Z</time>
      </trkpt>
      <trkpt lat="46.5692" lon="5.47406">
        <ele>564</ele>
        <time>2019-10-10T11:35:21.747Z</time>
      </trkpt>
      <trkpt lat="46.5692" lon="5.47413">
        <ele>564</ele>
        <time>2019-10-10T11:35:25.783Z</time>
      </trkpt>
      <trkpt lat="46.5692" lon="5.47423">
        <ele>564</ele>
        <time>2019-10-10T11:35:30.754Z</time>
      </trkpt>
      <trkpt lat="46.56921" lon="5.47435">
        <ele>565</ele>
        <time>2019-10-10T11:35:35.733Z</time>
      </trkpt>
      <trkpt lat="46.56922" lon="5.47438">
        <ele>565</ele>
        <time>2019-10-10T11:35:39.770Z</time>
      </trkpt>
      <trkpt lat="46.56921" lon="5.47445">
        <ele>565</ele>
        <time>2019-10-10T11:35:44.768Z</time>
      </trkpt>
      <trkpt lat="46.56919" lon="5.4745">
        <ele>565</ele>
        <time>2019-10-10T11:35:49.759Z</time>
      </trkpt>
      <trkpt lat="46.56918" lon="5.47453">
        <ele>565</ele>
        <time>2019-10-10T11:35:54.774Z</time>
      </trkpt>
      <trkpt lat="46.56917" lon="5.47455">
        <ele>565</ele>
        <time>2019-10-10T11:35:59.751Z</time>
      </trkpt>
      <trkpt lat="46.56915" lon="5.47457">
        <ele>565</ele>
        <time>2019-10-10T11:36:03.763Z</time>
      </trkpt>
      <trkpt lat="46.56908" lon="5.47466">
        <ele>561</ele>
        <time>2019-10-10T11:36:08.764Z</time>
      </trkpt>
      <trkpt lat="46.56904" lon="5.47469">
        <ele>561</ele>
        <time>2019-10-10T11:36:12.773Z</time>
      </trkpt>
      <trkpt lat="46.56901" lon="5.47472">
        <ele>565</ele>
        <time>2019-10-10T11:36:17.753Z</time>
      </trkpt>
      <trkpt lat="46.56897" lon="5.47478">
        <ele>565</ele>
        <time>2019-10-10T11:36:22.750Z</time>
      </trkpt>
      <trkpt lat="46.56895" lon="5.47479">
        <ele>565</ele>
        <time>2019-10-10T11:36:26.772Z</time>
      </trkpt>
      <trkpt lat="46.56889" lon="5.47482">
        <ele>565</ele>
        <time>2019-10-10T11:36:31.757Z</time>
      </trkpt>
      <trkpt lat="46.56885" lon="5.47481">
        <ele>565</ele>
        <time>2019-10-10T11:36:36.750Z</time>
      </trkpt>
      <trkpt lat="46.56884" lon="5.47481">
        <ele>565</ele>
        <time>2019-10-10T11:36:41.760Z</time>
      </trkpt>
      <trkpt lat="46.56878" lon="5.47479">
        <ele>565</ele>
        <time>2019-10-10T11:36:46.759Z</time>
      </trkpt>
      <trkpt lat="46.56875" lon="5.47477">
        <ele>565</ele>
        <time>2019-10-10T11:36:50.743Z</time>
      </trkpt>
      <trkpt lat="46.5687" lon="5.47477">
        <ele>565</ele>
        <time>2019-10-10T11:36:55.756Z</time>
      </trkpt>
      <trkpt lat="46.56869" lon="5.47479">
        <ele>565</ele>
        <time>2019-10-10T11:37:00.758Z</time>
      </trkpt>
      <trkpt lat="46.56862" lon="5.47479">
        <ele>565</ele>
        <time>2019-10-10T11:37:05.756Z</time>
      </trkpt>
      <trkpt lat="46.56855" lon="5.4748">
        <ele>565</ele>
        <time>2019-10-10T11:37:10.775Z</time>
      </trkpt>
      <trkpt lat="46.56853" lon="5.47477">
        <ele>565</ele>
        <time>2019-10-10T11:37:15.777Z</time>
      </trkpt>
      <trkpt lat="46.56848" lon="5.47475">
        <ele>565</ele>
        <time>2019-10-10T11:37:20.755Z</time>
      </trkpt>
      <trkpt lat="46.56841" lon="5.47471">
        <ele>562</ele>
        <time>2019-10-10T11:37:25.759Z</time>
      </trkpt>
      <trkpt lat="46.56837" lon="5.47468">
        <ele>562</ele>
        <time>2019-10-10T11:37:30.787Z</time>
      </trkpt>
      <trkpt lat="46.56831" lon="5.47467">
        <ele>562</ele>
        <time>2019-10-10T11:37:35.750Z</time>
      </trkpt>
      <trkpt lat="46.56828" lon="5.47464">
        <ele>562</ele>
        <time>2019-10-10T11:37:39.769Z</time>
      </trkpt>
      <trkpt lat="46.56825" lon="5.47456">
        <ele>567</ele>
        <time>2019-10-10T11:37:44.754Z</time>
      </trkpt>
      <trkpt lat="46.56821" lon="5.4745">
        <ele>567</ele>
        <time>2019-10-10T11:37:49.755Z</time>
      </trkpt>
      <trkpt lat="46.56817" lon="5.47446">
        <ele>565</ele>
        <time>2019-10-10T11:37:54.748Z</time>
      </trkpt>
      <trkpt lat="46.56813" lon="5.47443">
        <ele>565</ele>
        <time>2019-10-10T11:37:59.753Z</time>
      </trkpt>
      <trkpt lat="46.5681" lon="5.4744">
        <ele>565</ele>
        <time>2019-10-10T11:38:04.772Z</time>
      </trkpt>
      <trkpt lat="46.56804" lon="5.47434">
        <ele>565</ele>
        <time>2019-10-10T11:38:09.776Z</time>
      </trkpt>
      <trkpt lat="46.56799" lon="5.4743">
        <ele>568</ele>
        <time>2019-10-10T11:38:14.760Z</time>
      </trkpt>
      <trkpt lat="46.56794" lon="5.47424">
        <ele>568</ele>
        <time>2019-10-10T11:38:19.748Z</time>
      </trkpt>
      <trkpt lat="46.5679" lon="5.47419">
        <ele>567</ele>
        <time>2019-10-10T11:38:23.774Z</time>
      </trkpt>
      <trkpt lat="46.56788" lon="5.47414">
        <ele>567</ele>
        <time>2019-10-10T11:38:28.770Z</time>
      </trkpt>
      <trkpt lat="46.56785" lon="5.47409">
        <ele>567</ele>
        <time>2019-10-10T11:38:33.755Z</time>
      </trkpt>
      <trkpt lat="46.56783" lon="5.47408">
        <ele>567</ele>
        <time>2019-10-10T11:38:38.756Z</time>
      </trkpt>
      <trkpt lat="46.5678" lon="5.47402">
        <ele>568</ele>
        <time>2019-10-10T11:38:43.753Z</time>
      </trkpt>
      <trkpt lat="46.56779" lon="5.474">
        <ele>568</ele>
        <time>2019-10-10T11:38:47.769Z</time>
      </trkpt>
      <trkpt lat="46.56776" lon="5.47398">
        <ele>568</ele>
        <time>2019-10-10T11:38:52.755Z</time>
      </trkpt>
      <trkpt lat="46.56772" lon="5.47397">
        <ele>568</ele>
        <time>2019-10-10T11:38:57.752Z</time>
      </trkpt>
      <trkpt lat="46.56768" lon="5.47395">
        <ele>568</ele>
        <time>2019-10-10T11:39:02.770Z</time>
      </trkpt>
      <trkpt lat="46.56762" lon="5.47391">
        <ele>569</ele>
        <time>2019-10-10T11:39:07.772Z</time>
      </trkpt>
      <trkpt lat="46.56758" lon="5.47388">
        <ele>569</ele>
        <time>2019-10-10T11:39:12.753Z</time>
      </trkpt>
      <trkpt lat="46.56754" lon="5.47385">
        <ele>569</ele>
        <time>2019-10-10T11:39:17.760Z</time>
      </trkpt>
      <trkpt lat="46.56752" lon="5.47382">
        <ele>569</ele>
        <time>2019-10-10T11:39:22.744Z</time>
      </trkpt>
      <trkpt lat="46.56751" lon="5.47382">
        <ele>569</ele>
        <time>2019-10-10T11:39:26.770Z</time>
      </trkpt>
      <trkpt lat="46.5675" lon="5.47381">
        <ele>569</ele>
        <time>2019-10-10T11:39:31.754Z</time>
      </trkpt>
      <trkpt lat="46.56746" lon="5.4738">
        <ele>569</ele>
        <time>2019-10-10T11:39:36.752Z</time>
      </trkpt>
      <trkpt lat="46.56741" lon="5.47376">
        <ele>569</ele>
        <time>2019-10-10T11:39:41.761Z</time>
      </trkpt>
      <trkpt lat="46.56736" lon="5.47371">
        <ele>572</ele>
        <time>2019-10-10T11:39:46.754Z</time>
      </trkpt>
      <trkpt lat="46.56732" lon="5.47368">
        <ele>572</ele>
        <time>2019-10-10T11:39:51.777Z</time>
      </trkpt>
      <trkpt lat="46.5673" lon="5.47367">
        <ele>572</ele>
        <time>2019-10-10T11:39:56.775Z</time>
      </trkpt>
      <trkpt lat="46.56728" lon="5.47367">
        <ele>572</ele>
        <time>2019-10-10T11:40:01.755Z</time>
      </trkpt>
      <trkpt lat="46.56726" lon="5.47368">
        <ele>572</ele>
        <time>2019-10-10T11:40:06.758Z</time>
      </trkpt>
      <trkpt lat="46.56722" lon="5.4737">
        <ele>572</ele>
        <time>2019-10-10T11:40:11.762Z</time>
      </trkpt>
      <trkpt lat="46.56717" lon="5.47371">
        <ele>572</ele>
        <time>2019-10-10T11:40:16.767Z</time>
      </trkpt>
      <trkpt lat="46.56714" lon="5.47374">
        <ele>572</ele>
        <time>2019-10-10T11:40:20.723Z</time>
      </trkpt>
      <trkpt lat="46.5671" lon="5.47373">
        <ele>572</ele>
        <time>2019-10-10T11:40:25.751Z</time>
      </trkpt>
      <trkpt lat="46.56705" lon="5.4737">
        <ele>574</ele>
        <time>2019-10-10T11:40:30.790Z</time>
      </trkpt>
      <trkpt lat="46.56703" lon="5.4737">
        <ele>574</ele>
        <time>2019-10-10T11:40:35.771Z</time>
      </trkpt>
      <trkpt lat="46.56697" lon="5.47371">
        <ele>574</ele>
        <time>2019-10-10T11:40:45.759Z</time>
      </trkpt>
      <trkpt lat="46.56697" lon="5.4737">
        <ele>574</ele>
        <time>2019-10-10T11:40:50.764Z</time>
      </trkpt>
      <trkpt lat="46.56697" lon="5.47369">
        <ele>574</ele>
        <time>2019-10-10T11:40:55.782Z</time>
      </trkpt>
      <trkpt lat="46.56693" lon="5.47367">
        <ele>574</ele>
        <time>2019-10-10T11:41:00.749Z</time>
      </trkpt>
      <trkpt lat="46.56692" lon="5.47366">
        <ele>574</ele>
        <time>2019-10-10T11:41:04.779Z</time>
      </trkpt>
      <trkpt lat="46.56689" lon="5.47361">
        <ele>574</ele>
        <time>2019-10-10T11:41:09.765Z</time>
      </trkpt>
      <trkpt lat="46.56688" lon="5.47359">
        <ele>574</ele>
        <time>2019-10-10T11:41:14.765Z</time>
      </trkpt>
      <trkpt lat="46.56688" lon="5.47357">
        <ele>574</ele>
        <time>2019-10-10T11:41:19.754Z</time>
      </trkpt>
      <trkpt lat="46.56685" lon="5.47355">
        <ele>574</ele>
        <time>2019-10-10T11:41:24.782Z</time>
      </trkpt>
      <trkpt lat="46.5668" lon="5.47354">
        <ele>572</ele>
        <time>2019-10-10T11:41:29.764Z</time>
      </trkpt>
      <trkpt lat="46.56673" lon="5.47353">
        <ele>572</ele>
        <time>2019-10-10T11:41:34.760Z</time>
      </trkpt>
      <trkpt lat="46.5667" lon="5.47352">
        <ele>572</ele>
        <time>2019-10-10T11:41:39.781Z</time>
      </trkpt>
      <trkpt lat="46.56665" lon="5.47351">
        <ele>572</ele>
        <time>2019-10-10T11:41:44.769Z</time>
      </trkpt>
      <trkpt lat="46.56661" lon="5.47349">
        <ele>572</ele>
        <time>2019-10-10T11:41:49.762Z</time>
      </trkpt>
      <trkpt lat="46.56655" lon="5.47346">
        <ele>575</ele>
        <time>2019-10-10T11:41:54.739Z</time>
      </trkpt>
      <trkpt lat="46.56654" lon="5.47344">
        <ele>575</ele>
        <time>2019-10-10T11:41:58.763Z</time>
      </trkpt>
      <trkpt lat="46.56653" lon="5.47343">
        <ele>575</ele>
        <time>2019-10-10T11:42:03.748Z</time>
      </trkpt>
      <trkpt lat="46.56648" lon="5.47343">
        <ele>574</ele>
        <time>2019-10-10T11:42:07.777Z</time>
      </trkpt>
      <trkpt lat="46.56646" lon="5.47343">
        <ele>574</ele>
        <time>2019-10-10T11:42:12.750Z</time>
      </trkpt>
      <trkpt lat="46.56643" lon="5.47341">
        <ele>574</ele>
        <time>2019-10-10T11:42:31.768Z</time>
      </trkpt>
      <trkpt lat="46.56643" lon="5.47341">
        <ele>574</ele>
        <time>2019-10-10T11:42:36.760Z</time>
      </trkpt>
      <trkpt lat="46.56642" lon="5.47341">
        <ele>574</ele>
        <time>2019-10-10T11:42:41.748Z</time>
      </trkpt>
      <trkpt lat="46.56638" lon="5.47339">
        <ele>574</ele>
        <time>2019-10-10T11:42:46.762Z</time>
      </trkpt>
      <trkpt lat="46.56635" lon="5.47337">
        <ele>574</ele>
        <time>2019-10-10T11:42:51.745Z</time>
      </trkpt>
      <trkpt lat="46.56628" lon="5.47334">
        <ele>574</ele>
        <time>2019-10-10T11:42:56.748Z</time>
      </trkpt>
      <trkpt lat="46.56622" lon="5.47332">
        <ele>571</ele>
        <time>2019-10-10T11:43:01.771Z</time>
      </trkpt>
      <trkpt lat="46.56617" lon="5.47325">
        <ele>571</ele>
        <time>2019-10-10T11:43:06.750Z</time>
      </trkpt>
      <trkpt lat="46.56613" lon="5.47322">
        <ele>571</ele>
        <time>2019-10-10T11:43:11.765Z</time>
      </trkpt>
      <trkpt lat="46.56605" lon="5.47321">
        <ele>571</ele>
        <time>2019-10-10T11:43:16.742Z</time>
      </trkpt>
      <trkpt lat="46.56601" lon="5.47319">
        <ele>575</ele>
        <time>2019-10-10T11:43:21.770Z</time>
      </trkpt>
      <trkpt lat="46.56598" lon="5.47314">
        <ele>575</ele>
        <time>2019-10-10T11:43:26.740Z</time>
      </trkpt>
      <trkpt lat="46.56596" lon="5.47313">
        <ele>570</ele>
        <time>2019-10-10T11:43:30.750Z</time>
      </trkpt>
      <trkpt lat="46.56592" lon="5.47309">
        <ele>570</ele>
        <time>2019-10-10T11:43:35.759Z</time>
      </trkpt>
      <trkpt lat="46.56587" lon="5.47306">
        <ele>570</ele>
        <time>2019-10-10T11:43:40.744Z</time>
      </trkpt>
      <trkpt lat="46.56582" lon="5.47304">
        <ele>570</ele>
        <time>2019-10-10T11:43:45.748Z</time>
      </trkpt>
      <trkpt lat="46.56576" lon="5.47301">
        <ele>570</ele>
        <time>2019-10-10T11:43:50.748Z</time>
      </trkpt>
      <trkpt lat="46.56571" lon="5.47294">
        <ele>570</ele>
        <time>2019-10-10T11:43:54.770Z</time>
      </trkpt>
      <trkpt lat="46.56568" lon="5.47289">
        <ele>573</ele>
        <time>2019-10-10T11:43:59.743Z</time>
      </trkpt>
      <trkpt lat="46.56566" lon="5.47289">
        <ele>573</ele>
        <time>2019-10-10T11:44:04.762Z</time>
      </trkpt>
      <trkpt lat="46.56565" lon="5.47287">
        <ele>573</ele>
        <time>2019-10-10T11:44:08.772Z</time>
      </trkpt>
      <trkpt lat="46.56564" lon="5.47282">
        <ele>573</ele>
        <time>2019-10-10T11:44:13.756Z</time>
      </trkpt>
      <trkpt lat="46.5656" lon="5.47275">
        <ele>573</ele>
        <time>2019-10-10T11:44:18.750Z</time>
      </trkpt>
      <trkpt lat="46.56558" lon="5.47268">
        <ele>573</ele>
        <time>2019-10-10T11:44:23.752Z</time>
      </trkpt>
      <trkpt lat="46.56557" lon="5.47266">
        <ele>573</ele>
        <time>2019-10-10T11:44:27.760Z</time>
      </trkpt>
      <trkpt lat="46.56553" lon="5.47263">
        <ele>577</ele>
        <time>2019-10-10T11:44:32.747Z</time>
      </trkpt>
      <trkpt lat="46.56549" lon="5.47262">
        <ele>577</ele>
        <time>2019-10-10T11:44:36.765Z</time>
      </trkpt>
      <trkpt lat="46.56545" lon="5.47257">
        <ele>577</ele>
        <time>2019-10-10T11:44:41.757Z</time>
      </trkpt>
      <trkpt lat="46.56543" lon="5.47252">
        <ele>577</ele>
        <time>2019-10-10T11:44:46.760Z</time>
      </trkpt>
      <trkpt lat="46.56538" lon="5.4725">
        <ele>577</ele>
        <time>2019-10-10T11:44:51.764Z</time>
      </trkpt>
      <trkpt lat="46.56537" lon="5.47248">
        <ele>577</ele>
        <time>2019-10-10T11:44:56.756Z</time>
      </trkpt>
      <trkpt lat="46.56535" lon="5.47245">
        <ele>577</ele>
        <time>2019-10-10T11:45:01.756Z</time>
      </trkpt>
      <trkpt lat="46.56531" lon="5.47241">
        <ele>577</ele>
        <time>2019-10-10T11:45:05.769Z</time>
      </trkpt>
      <trkpt lat="46.56525" lon="5.47233">
        <ele>582</ele>
        <time>2019-10-10T11:45:10.750Z</time>
      </trkpt>
      <trkpt lat="46.5652" lon="5.47228">
        <ele>582</ele>
        <time>2019-10-10T11:45:15.753Z</time>
      </trkpt>
      <trkpt lat="46.56516" lon="5.47225">
        <ele>582</ele>
        <time>2019-10-10T11:45:20.765Z</time>
      </trkpt>
      <trkpt lat="46.56512" lon="5.47223">
        <ele>579</ele>
        <time>2019-10-10T11:45:25.760Z</time>
      </trkpt>
      <trkpt lat="46.56507" lon="5.4722">
        <ele>579</ele>
        <time>2019-10-10T11:45:30.748Z</time>
      </trkpt>
      <trkpt lat="46.56502" lon="5.47213">
        <ele>579</ele>
        <time>2019-10-10T11:45:35.755Z</time>
      </trkpt>
      <trkpt lat="46.56496" lon="5.4721">
        <ele>579</ele>
        <time>2019-10-10T11:45:40.748Z</time>
      </trkpt>
      <trkpt lat="46.56491" lon="5.47207">
        <ele>585</ele>
        <time>2019-10-10T11:45:44.768Z</time>
      </trkpt>
      <trkpt lat="46.56484" lon="5.472">
        <ele>582</ele>
        <time>2019-10-10T11:45:49.776Z</time>
      </trkpt>
      <trkpt lat="46.56482" lon="5.472">
        <ele>582</ele>
        <time>2019-10-10T11:45:54.754Z</time>
      </trkpt>
      <trkpt lat="46.56478" lon="5.472">
        <ele>582</ele>
        <time>2019-10-10T11:45:59.742Z</time>
      </trkpt>
      <trkpt lat="46.56475" lon="5.47191">
        <ele>582</ele>
        <time>2019-10-10T11:46:03.769Z</time>
      </trkpt>
      <trkpt lat="46.56468" lon="5.47191">
        <ele>582</ele>
        <time>2019-10-10T11:46:08.767Z</time>
      </trkpt>
      <trkpt lat="46.56462" lon="5.47183">
        <ele>582</ele>
        <time>2019-10-10T11:46:13.757Z</time>
      </trkpt>
      <trkpt lat="46.56455" lon="5.47175">
        <ele>583</ele>
        <time>2019-10-10T11:46:18.745Z</time>
      </trkpt>
      <trkpt lat="46.56452" lon="5.47172">
        <ele>583</ele>
        <time>2019-10-10T11:46:23.746Z</time>
      </trkpt>
      <trkpt lat="46.56449" lon="5.47167">
        <ele>583</ele>
        <time>2019-10-10T11:46:27.755Z</time>
      </trkpt>
      <trkpt lat="46.56446" lon="5.47163">
        <ele>583</ele>
        <time>2019-10-10T11:46:32.746Z</time>
      </trkpt>
      <trkpt lat="46.56443" lon="5.47158">
        <ele>583</ele>
        <time>2019-10-10T11:46:36.759Z</time>
      </trkpt>
      <trkpt lat="46.56439" lon="5.47155">
        <ele>583</ele>
        <time>2019-10-10T11:46:41.746Z</time>
      </trkpt>
      <trkpt lat="46.56433" lon="5.47148">
        <ele>588</ele>
        <time>2019-10-10T11:46:46.749Z</time>
      </trkpt>
      <trkpt lat="46.56431" lon="5.47145">
        <ele>582</ele>
        <time>2019-10-10T11:46:51.762Z</time>
      </trkpt>
      <trkpt lat="46.56427" lon="5.47139">
        <ele>582</ele>
        <time>2019-10-10T11:46:56.758Z</time>
      </trkpt>
      <trkpt lat="46.5642" lon="5.4714">
        <ele>582</ele>
        <time>2019-10-10T11:47:01.751Z</time>
      </trkpt>
      <trkpt lat="46.56415" lon="5.47139">
        <ele>582</ele>
        <time>2019-10-10T11:47:06.749Z</time>
      </trkpt>
      <trkpt lat="46.56411" lon="5.47134">
        <ele>582</ele>
        <time>2019-10-10T11:47:11.747Z</time>
      </trkpt>
      <trkpt lat="46.5641" lon="5.47131">
        <ele>582</ele>
        <time>2019-10-10T11:47:15.759Z</time>
      </trkpt>
      <trkpt lat="46.56409" lon="5.47126">
        <ele>582</ele>
        <time>2019-10-10T11:47:20.751Z</time>
      </trkpt>
      <trkpt lat="46.56407" lon="5.47119">
        <ele>588</ele>
        <time>2019-10-10T11:47:25.766Z</time>
      </trkpt>
      <trkpt lat="46.56404" lon="5.47111">
        <ele>588</ele>
        <time>2019-10-10T11:47:30.745Z</time>
      </trkpt>
      <trkpt lat="46.56401" lon="5.47109">
        <ele>583</ele>
        <time>2019-10-10T11:47:35.757Z</time>
      </trkpt>
      <trkpt lat="46.56399" lon="5.47106">
        <ele>583</ele>
        <time>2019-10-10T11:47:40.744Z</time>
      </trkpt>
      <trkpt lat="46.56397" lon="5.47102">
        <ele>583</ele>
        <time>2019-10-10T11:47:45.756Z</time>
      </trkpt>
      <trkpt lat="46.5639" lon="5.47097">
        <ele>591</ele>
        <time>2019-10-10T11:47:49.780Z</time>
      </trkpt>
      <trkpt lat="46.56388" lon="5.47092">
        <ele>591</ele>
        <time>2019-10-10T11:47:54.749Z</time>
      </trkpt>
      <trkpt lat="46.56388" lon="5.4709">
        <ele>591</ele>
        <time>2019-10-10T11:47:59.767Z</time>
      </trkpt>
      <trkpt lat="46.56382" lon="5.47082">
        <ele>591</ele>
        <time>2019-10-10T11:48:04.761Z</time>
      </trkpt>
      <trkpt lat="46.56378" lon="5.47077">
        <ele>591</ele>
        <time>2019-10-10T11:48:09.761Z</time>
      </trkpt>
      <trkpt lat="46.56378" lon="5.47076">
        <ele>591</ele>
        <time>2019-10-10T11:48:14.764Z</time>
      </trkpt>
      <trkpt lat="46.56377" lon="5.47074">
        <ele>591</ele>
        <time>2019-10-10T11:48:19.751Z</time>
      </trkpt>
      <trkpt lat="46.56374" lon="5.47066">
        <ele>589</ele>
        <time>2019-10-10T11:48:24.767Z</time>
      </trkpt>
      <trkpt lat="46.56374" lon="5.47065">
        <ele>589</ele>
        <time>2019-10-10T11:48:29.767Z</time>
      </trkpt>
      <trkpt lat="46.56373" lon="5.47065">
        <ele>589</ele>
        <time>2019-10-10T11:48:34.760Z</time>
      </trkpt>
      <trkpt lat="46.56369" lon="5.47064">
        <ele>589</ele>
        <time>2019-10-10T11:48:39.743Z</time>
      </trkpt>
      <trkpt lat="46.56368" lon="5.4706">
        <ele>589</ele>
        <time>2019-10-10T11:48:44.753Z</time>
      </trkpt>
      <trkpt lat="46.56366" lon="5.47057">
        <ele>589</ele>
        <time>2019-10-10T11:48:49.764Z</time>
      </trkpt>
      <trkpt lat="46.56365" lon="5.47051">
        <ele>589</ele>
        <time>2019-10-10T11:48:54.744Z</time>
      </trkpt>
      <trkpt lat="46.56363" lon="5.47046">
        <ele>589</ele>
        <time>2019-10-10T11:48:58.764Z</time>
      </trkpt>
      <trkpt lat="46.56357" lon="5.47037">
        <ele>590</ele>
        <time>2019-10-10T11:49:03.748Z</time>
      </trkpt>
      <trkpt lat="46.56353" lon="5.47033">
        <ele>590</ele>
        <time>2019-10-10T11:49:08.754Z</time>
      </trkpt>
      <trkpt lat="46.56348" lon="5.47031">
        <ele>590</ele>
        <time>2019-10-10T11:49:13.751Z</time>
      </trkpt>
      <trkpt lat="46.56338" lon="5.47033">
        <ele>586</ele>
        <time>2019-10-10T11:49:27.751Z</time>
      </trkpt>
      <trkpt lat="46.56338" lon="5.47032">
        <ele>586</ele>
        <time>2019-10-10T11:49:32.766Z</time>
      </trkpt>
      <trkpt lat="46.56338" lon="5.47032">
        <ele>586</ele>
        <time>2019-10-10T11:49:36.778Z</time>
      </trkpt>
      <trkpt lat="46.56336" lon="5.47032">
        <ele>586</ele>
        <time>2019-10-10T11:49:41.772Z</time>
      </trkpt>
      <trkpt lat="46.56331" lon="5.4703">
        <ele>586</ele>
        <time>2019-10-10T11:49:46.784Z</time>
      </trkpt>
      <trkpt lat="46.56333" lon="5.47018">
        <ele>586</ele>
        <time>2019-10-10T12:00:13.739Z</time>
      </trkpt>
      <trkpt lat="46.56334" lon="5.47016">
        <ele>586</ele>
        <time>2019-10-10T12:00:17.754Z</time>
      </trkpt>
      <trkpt lat="46.56334" lon="5.47015">
        <ele>586</ele>
        <time>2019-10-10T12:00:22.742Z</time>
      </trkpt>
      <trkpt lat="46.56338" lon="5.47023">
        <ele>586</ele>
        <time>2019-10-10T12:00:27.742Z</time>
      </trkpt>
      <trkpt lat="46.56339" lon="5.47023">
        <ele>586</ele>
        <time>2019-10-10T12:00:31.777Z</time>
      </trkpt>
      <trkpt lat="46.5634" lon="5.47023">
        <ele>586</ele>
        <time>2019-10-10T12:00:36.780Z</time>
      </trkpt>
      <trkpt lat="46.56343" lon="5.47025">
        <ele>586</ele>
        <time>2019-10-10T12:00:41.769Z</time>
      </trkpt>
      <trkpt lat="46.56349" lon="5.47026">
        <ele>590</ele>
        <time>2019-10-10T12:00:46.768Z</time>
      </trkpt>
      <trkpt lat="46.56354" lon="5.4703">
        <ele>590</ele>
        <time>2019-10-10T12:00:51.782Z</time>
      </trkpt>
      <trkpt lat="46.56358" lon="5.47034">
        <ele>590</ele>
        <time>2019-10-10T12:00:56.766Z</time>
      </trkpt>
      <trkpt lat="46.5636" lon="5.47039">
        <ele>590</ele>
        <time>2019-10-10T12:01:01.780Z</time>
      </trkpt>
      <trkpt lat="46.56364" lon="5.47044">
        <ele>589</ele>
        <time>2019-10-10T12:01:06.752Z</time>
      </trkpt>
      <trkpt lat="46.56366" lon="5.47048">
        <ele>589</ele>
        <time>2019-10-10T12:01:10.773Z</time>
      </trkpt>
      <trkpt lat="46.56367" lon="5.47054">
        <ele>589</ele>
        <time>2019-10-10T12:01:23.769Z</time>
      </trkpt>
      <trkpt lat="46.56366" lon="5.47054">
        <ele>589</ele>
        <time>2019-10-10T12:01:28.767Z</time>
      </trkpt>
      <trkpt lat="46.56368" lon="5.47057">
        <ele>589</ele>
        <time>2019-10-10T12:01:33.753Z</time>
      </trkpt>
      <trkpt lat="46.56372" lon="5.47064">
        <ele>589</ele>
        <time>2019-10-10T12:01:38.764Z</time>
      </trkpt>
      <trkpt lat="46.56374" lon="5.47069">
        <ele>589</ele>
        <time>2019-10-10T12:01:43.771Z</time>
      </trkpt>
      <trkpt lat="46.56376" lon="5.47075">
        <ele>591</ele>
        <time>2019-10-10T12:01:48.777Z</time>
      </trkpt>
      <trkpt lat="46.56379" lon="5.47083">
        <ele>591</ele>
        <time>2019-10-10T12:01:53.783Z</time>
      </trkpt>
      <trkpt lat="46.56381" lon="5.47088">
        <ele>591</ele>
        <time>2019-10-10T12:01:58.776Z</time>
      </trkpt>
      <trkpt lat="46.56382" lon="5.47091">
        <ele>591</ele>
        <time>2019-10-10T12:02:03.768Z</time>
      </trkpt>
      <trkpt lat="46.56383" lon="5.47093">
        <ele>591</ele>
        <time>2019-10-10T12:02:07.790Z</time>
      </trkpt>
      <trkpt lat="46.56383" lon="5.47098">
        <ele>583</ele>
        <time>2019-10-10T12:02:12.796Z</time>
      </trkpt>
      <trkpt lat="46.56384" lon="5.47103">
        <ele>583</ele>
        <time>2019-10-10T12:02:17.761Z</time>
      </trkpt>
      <trkpt lat="46.56386" lon="5.47112">
        <ele>583</ele>
        <time>2019-10-10T12:02:22.766Z</time>
      </trkpt>
      <trkpt lat="46.56388" lon="5.47119">
        <ele>583</ele>
        <time>2019-10-10T12:02:27.764Z</time>
      </trkpt>
      <trkpt lat="46.5639" lon="5.47126">
        <ele>574</ele>
        <time>2019-10-10T12:02:32.783Z</time>
      </trkpt>
      <trkpt lat="46.56394" lon="5.47132">
        <ele>574</ele>
        <time>2019-10-10T12:02:37.764Z</time>
      </trkpt>
      <trkpt lat="46.56401" lon="5.47137">
        <ele>574</ele>
        <time>2019-10-10T12:02:42.786Z</time>
      </trkpt>
      <trkpt lat="46.56407" lon="5.47139">
        <ele>582</ele>
        <time>2019-10-10T12:02:47.771Z</time>
      </trkpt>
      <trkpt lat="46.56411" lon="5.47141">
        <ele>582</ele>
        <time>2019-10-10T12:02:51.786Z</time>
      </trkpt>
      <trkpt lat="46.56416" lon="5.47142">
        <ele>582</ele>
        <time>2019-10-10T12:02:56.766Z</time>
      </trkpt>
      <trkpt lat="46.5642" lon="5.47146">
        <ele>582</ele>
        <time>2019-10-10T12:03:01.762Z</time>
      </trkpt>
      <trkpt lat="46.56423" lon="5.4715">
        <ele>582</ele>
        <time>2019-10-10T12:03:05.786Z</time>
      </trkpt>
      <trkpt lat="46.56426" lon="5.47154">
        <ele>575</ele>
        <time>2019-10-10T12:03:10.764Z</time>
      </trkpt>
      <trkpt lat="46.56432" lon="5.47156">
        <ele>583</ele>
        <time>2019-10-10T12:03:14.784Z</time>
      </trkpt>
      <trkpt lat="46.56436" lon="5.4716">
        <ele>583</ele>
        <time>2019-10-10T12:03:19.764Z</time>
      </trkpt>
      <trkpt lat="46.5644" lon="5.47165">
        <ele>583</ele>
        <time>2019-10-10T12:03:24.763Z</time>
      </trkpt>
      <trkpt lat="46.56444" lon="5.47168">
        <ele>583</ele>
        <time>2019-10-10T12:03:28.774Z</time>
      </trkpt>
      <trkpt lat="46.56447" lon="5.47173">
        <ele>583</ele>
        <time>2019-10-10T12:03:32.800Z</time>
      </trkpt>
      <trkpt lat="46.56451" lon="5.47177">
        <ele>583</ele>
        <time>2019-10-10T12:03:37.746Z</time>
      </trkpt>
      <trkpt lat="46.56457" lon="5.47184">
        <ele>577</ele>
        <time>2019-10-10T12:03:42.750Z</time>
      </trkpt>
      <trkpt lat="46.56462" lon="5.47189">
        <ele>582</ele>
        <time>2019-10-10T12:03:47.763Z</time>
      </trkpt>
      <trkpt lat="46.56469" lon="5.47192">
        <ele>582</ele>
        <time>2019-10-10T12:03:52.736Z</time>
      </trkpt>
      <trkpt lat="46.56472" lon="5.47195">
        <ele>582</ele>
        <time>2019-10-10T12:03:56.736Z</time>
      </trkpt>
      <trkpt lat="46.56476" lon="5.47199">
        <ele>582</ele>
        <time>2019-10-10T12:04:01.752Z</time>
      </trkpt>
      <trkpt lat="46.56482" lon="5.47203">
        <ele>582</ele>
        <time>2019-10-10T12:04:06.754Z</time>
      </trkpt>
      <trkpt lat="46.56486" lon="5.47205">
        <ele>585</ele>
        <time>2019-10-10T12:04:11.749Z</time>
      </trkpt>
      <trkpt lat="46.56489" lon="5.47207">
        <ele>585</ele>
        <time>2019-10-10T12:04:16.755Z</time>
      </trkpt>
      <trkpt lat="46.56493" lon="5.47213">
        <ele>579</ele>
        <time>2019-10-10T12:04:21.756Z</time>
      </trkpt>
      <trkpt lat="46.56496" lon="5.47218">
        <ele>579</ele>
        <time>2019-10-10T12:04:25.746Z</time>
      </trkpt>
      <trkpt lat="46.56502" lon="5.47221">
        <ele>579</ele>
        <time>2019-10-10T12:04:30.734Z</time>
      </trkpt>
      <trkpt lat="46.56506" lon="5.47222">
        <ele>579</ele>
        <time>2019-10-10T12:04:34.757Z</time>
      </trkpt>
      <trkpt lat="46.56517" lon="5.47226">
        <ele>582</ele>
        <time>2019-10-10T12:04:39.748Z</time>
      </trkpt>
      <trkpt lat="46.5652" lon="5.47229">
        <ele>582</ele>
        <time>2019-10-10T12:04:43.767Z</time>
      </trkpt>
      <trkpt lat="46.56522" lon="5.47235">
        <ele>582</ele>
        <time>2019-10-10T12:04:48.755Z</time>
      </trkpt>
      <trkpt lat="46.56528" lon="5.47245">
        <ele>577</ele>
        <time>2019-10-10T12:04:53.750Z</time>
      </trkpt>
      <trkpt lat="46.56533" lon="5.47251">
        <ele>577</ele>
        <time>2019-10-10T12:04:58.752Z</time>
      </trkpt>
      <trkpt lat="46.56537" lon="5.47256">
        <ele>577</ele>
        <time>2019-10-10T12:05:03.740Z</time>
      </trkpt>
      <trkpt lat="46.5654" lon="5.47261">
        <ele>577</ele>
        <time>2019-10-10T12:05:07.754Z</time>
      </trkpt>
      <trkpt lat="46.56542" lon="5.47261">
        <ele>577</ele>
        <time>2019-10-10T12:05:12.738Z</time>
      </trkpt>
      <trkpt lat="46.56543" lon="5.47262">
        <ele>577</ele>
        <time>2019-10-10T12:05:16.754Z</time>
      </trkpt>
      <trkpt lat="46.56547" lon="5.47266">
        <ele>573</ele>
        <time>2019-10-10T12:05:21.742Z</time>
      </trkpt>
      <trkpt lat="46.56552" lon="5.47273">
        <ele>573</ele>
        <time>2019-10-10T12:05:26.748Z</time>
      </trkpt>
      <trkpt lat="46.56556" lon="5.4728">
        <ele>573</ele>
        <time>2019-10-10T12:05:31.760Z</time>
      </trkpt>
      <trkpt lat="46.56557" lon="5.47281">
        <ele>573</ele>
        <time>2019-10-10T12:05:36.756Z</time>
      </trkpt>
      <trkpt lat="46.56563" lon="5.47286">
        <ele>573</ele>
        <time>2019-10-10T12:05:41.735Z</time>
      </trkpt>
      <trkpt lat="46.56566" lon="5.47292">
        <ele>567</ele>
        <time>2019-10-10T12:05:45.755Z</time>
      </trkpt>
      <trkpt lat="46.5657" lon="5.47294">
        <ele>570</ele>
        <time>2019-10-10T12:05:50.738Z</time>
      </trkpt>
      <trkpt lat="46.56575" lon="5.47296">
        <ele>570</ele>
        <time>2019-10-10T12:05:54.787Z</time>
      </trkpt>
      <trkpt lat="46.56579" lon="5.47301">
        <ele>570</ele>
        <time>2019-10-10T12:05:59.749Z</time>
      </trkpt>
      <trkpt lat="46.56584" lon="5.47306">
        <ele>570</ele>
        <time>2019-10-10T12:06:04.736Z</time>
      </trkpt>
      <trkpt lat="46.56589" lon="5.4731">
        <ele>570</ele>
        <time>2019-10-10T12:06:08.791Z</time>
      </trkpt>
      <trkpt lat="46.56595" lon="5.47315">
        <ele>570</ele>
        <time>2019-10-10T12:06:13.748Z</time>
      </trkpt>
      <trkpt lat="46.56601" lon="5.47319">
        <ele>575</ele>
        <time>2019-10-10T12:06:17.752Z</time>
      </trkpt>
      <trkpt lat="46.56605" lon="5.47322">
        <ele>571</ele>
        <time>2019-10-10T12:06:22.739Z</time>
      </trkpt>
      <trkpt lat="46.56609" lon="5.47324">
        <ele>571</ele>
        <time>2019-10-10T12:06:26.759Z</time>
      </trkpt>
      <trkpt lat="46.56615" lon="5.47326">
        <ele>571</ele>
        <time>2019-10-10T12:06:31.752Z</time>
      </trkpt>
      <trkpt lat="46.56619" lon="5.47326">
        <ele>571</ele>
        <time>2019-10-10T12:06:35.752Z</time>
      </trkpt>
      <trkpt lat="46.56625" lon="5.4733">
        <ele>571</ele>
        <time>2019-10-10T12:06:40.747Z</time>
      </trkpt>
      <trkpt lat="46.56629" lon="5.47335">
        <ele>574</ele>
        <time>2019-10-10T12:06:44.756Z</time>
      </trkpt>
      <trkpt lat="46.56632" lon="5.47339">
        <ele>574</ele>
        <time>2019-10-10T12:06:49.757Z</time>
      </trkpt>
      <trkpt lat="46.56639" lon="5.47344">
        <ele>574</ele>
        <time>2019-10-10T12:06:53.765Z</time>
      </trkpt>
      <trkpt lat="46.56645" lon="5.47348">
        <ele>569</ele>
        <time>2019-10-10T12:06:58.761Z</time>
      </trkpt>
      <trkpt lat="46.56652" lon="5.47351">
        <ele>569</ele>
        <time>2019-10-10T12:07:03.749Z</time>
      </trkpt>
      <trkpt lat="46.56656" lon="5.47352">
        <ele>572</ele>
        <time>2019-10-10T12:07:07.769Z</time>
      </trkpt>
      <trkpt lat="46.56662" lon="5.47353">
        <ele>572</ele>
        <time>2019-10-10T12:07:12.765Z</time>
      </trkpt>
      <trkpt lat="46.56669" lon="5.47355">
        <ele>572</ele>
        <time>2019-10-10T12:07:17.750Z</time>
      </trkpt>
      <trkpt lat="46.56676" lon="5.47359">
        <ele>572</ele>
        <time>2019-10-10T12:07:22.754Z</time>
      </trkpt>
      <trkpt lat="46.56683" lon="5.47361">
        <ele>574</ele>
        <time>2019-10-10T12:07:27.739Z</time>
      </trkpt>
      <trkpt lat="46.56688" lon="5.47363">
        <ele>574</ele>
        <time>2019-10-10T12:07:32.754Z</time>
      </trkpt>
      <trkpt lat="46.56694" lon="5.47365">
        <ele>574</ele>
        <time>2019-10-10T12:07:37.752Z</time>
      </trkpt>
      <trkpt lat="46.567" lon="5.47363">
        <ele>574</ele>
        <time>2019-10-10T12:07:41.754Z</time>
      </trkpt>
      <trkpt lat="46.56705" lon="5.47364">
        <ele>574</ele>
        <time>2019-10-10T12:07:45.748Z</time>
      </trkpt>
      <trkpt lat="46.56712" lon="5.47365">
        <ele>572</ele>
        <time>2019-10-10T12:07:50.733Z</time>
      </trkpt>
      <trkpt lat="46.56715" lon="5.47364">
        <ele>572</ele>
        <time>2019-10-10T12:07:54.739Z</time>
      </trkpt>
      <trkpt lat="46.56718" lon="5.47365">
        <ele>572</ele>
        <time>2019-10-10T12:07:58.753Z</time>
      </trkpt>
      <trkpt lat="46.56727" lon="5.4737">
        <ele>572</ele>
        <time>2019-10-10T12:08:03.739Z</time>
      </trkpt>
      <trkpt lat="46.56736" lon="5.47374">
        <ele>572</ele>
        <time>2019-10-10T12:08:08.751Z</time>
      </trkpt>
      <trkpt lat="46.56741" lon="5.47378">
        <ele>569</ele>
        <time>2019-10-10T12:08:13.737Z</time>
      </trkpt>
      <trkpt lat="46.56748" lon="5.47384">
        <ele>569</ele>
        <time>2019-10-10T12:08:18.739Z</time>
      </trkpt>
      <trkpt lat="46.56752" lon="5.47388">
        <ele>569</ele>
        <time>2019-10-10T12:08:23.740Z</time>
      </trkpt>
      <trkpt lat="46.56757" lon="5.47392">
        <ele>569</ele>
        <time>2019-10-10T12:08:28.744Z</time>
      </trkpt>
      <trkpt lat="46.56762" lon="5.47398">
        <ele>569</ele>
        <time>2019-10-10T12:08:33.730Z</time>
      </trkpt>
      <trkpt lat="46.56769" lon="5.47401">
        <ele>568</ele>
        <time>2019-10-10T12:08:38.727Z</time>
      </trkpt>
      <trkpt lat="46.56775" lon="5.47407">
        <ele>567</ele>
        <time>2019-10-10T12:08:43.740Z</time>
      </trkpt>
      <trkpt lat="46.56778" lon="5.47413">
        <ele>567</ele>
        <time>2019-10-10T12:08:47.739Z</time>
      </trkpt>
      <trkpt lat="46.56781" lon="5.47419">
        <ele>567</ele>
        <time>2019-10-10T12:08:51.736Z</time>
      </trkpt>
      <trkpt lat="46.56787" lon="5.47427">
        <ele>567</ele>
        <time>2019-10-10T12:08:56.731Z</time>
      </trkpt>
      <trkpt lat="46.56791" lon="5.47429">
        <ele>567</ele>
        <time>2019-10-10T12:09:01.727Z</time>
      </trkpt>
      <trkpt lat="46.56793" lon="5.47432">
        <ele>565</ele>
        <time>2019-10-10T12:09:05.741Z</time>
      </trkpt>
      <trkpt lat="46.56801" lon="5.47442">
        <ele>565</ele>
        <time>2019-10-10T12:09:10.727Z</time>
      </trkpt>
      <trkpt lat="46.56804" lon="5.47444">
        <ele>565</ele>
        <time>2019-10-10T12:09:14.732Z</time>
      </trkpt>
      <trkpt lat="46.56806" lon="5.47445">
        <ele>565</ele>
        <time>2019-10-10T12:09:18.745Z</time>
      </trkpt>
      <trkpt lat="46.56813" lon="5.47446">
        <ele>565</ele>
        <time>2019-10-10T12:09:23.729Z</time>
      </trkpt>
      <trkpt lat="46.56816" lon="5.47448">
        <ele>565</ele>
        <time>2019-10-10T12:09:27.752Z</time>
      </trkpt>
      <trkpt lat="46.56823" lon="5.47452">
        <ele>567</ele>
        <time>2019-10-10T12:09:32.740Z</time>
      </trkpt>
      <trkpt lat="46.56832" lon="5.47457">
        <ele>567</ele>
        <time>2019-10-10T12:09:37.750Z</time>
      </trkpt>
      <trkpt lat="46.5684" lon="5.47458">
        <ele>567</ele>
        <time>2019-10-10T12:09:42.739Z</time>
      </trkpt>
      <trkpt lat="46.56846" lon="5.47461">
        <ele>562</ele>
        <time>2019-10-10T12:09:46.746Z</time>
      </trkpt>
      <trkpt lat="46.56854" lon="5.47462">
        <ele>565</ele>
        <time>2019-10-10T12:09:51.736Z</time>
      </trkpt>
      <trkpt lat="46.56859" lon="5.47462">
        <ele>565</ele>
        <time>2019-10-10T12:09:55.741Z</time>
      </trkpt>
      <trkpt lat="46.56862" lon="5.47462">
        <ele>565</ele>
        <time>2019-10-10T12:10:00.748Z</time>
      </trkpt>
      <trkpt lat="46.56866" lon="5.47465">
        <ele>565</ele>
        <time>2019-10-10T12:10:04.752Z</time>
      </trkpt>
      <trkpt lat="46.56874" lon="5.47472">
        <ele>565</ele>
        <time>2019-10-10T12:10:09.738Z</time>
      </trkpt>
      <trkpt lat="46.56881" lon="5.47479">
        <ele>565</ele>
        <time>2019-10-10T12:10:13.752Z</time>
      </trkpt>
      <trkpt lat="46.56886" lon="5.47481">
        <ele>565</ele>
        <time>2019-10-10T12:10:18.745Z</time>
      </trkpt>
      <trkpt lat="46.56892" lon="5.47478">
        <ele>565</ele>
        <time>2019-10-10T12:10:22.751Z</time>
      </trkpt>
      <trkpt lat="46.56898" lon="5.47474">
        <ele>565</ele>
        <time>2019-10-10T12:10:27.746Z</time>
      </trkpt>
      <trkpt lat="46.56903" lon="5.47472">
        <ele>565</ele>
        <time>2019-10-10T12:10:32.728Z</time>
      </trkpt>
      <trkpt lat="46.56907" lon="5.4747">
        <ele>561</ele>
        <time>2019-10-10T12:10:37.727Z</time>
      </trkpt>
      <trkpt lat="46.56908" lon="5.47469">
        <ele>561</ele>
        <time>2019-10-10T12:10:41.729Z</time>
      </trkpt>
      <trkpt lat="46.56912" lon="5.47465">
        <ele>561</ele>
        <time>2019-10-10T12:10:45.744Z</time>
      </trkpt>
      <trkpt lat="46.56916" lon="5.47456">
        <ele>565</ele>
        <time>2019-10-10T12:10:50.740Z</time>
      </trkpt>
      <trkpt lat="46.56918" lon="5.47446">
        <ele>565</ele>
        <time>2019-10-10T12:10:55.740Z</time>
      </trkpt>
      <trkpt lat="46.5692" lon="5.47431">
        <ele>565</ele>
        <time>2019-10-10T12:11:00.743Z</time>
      </trkpt>
      <trkpt lat="46.56922" lon="5.47425">
        <ele>564</ele>
        <time>2019-10-10T12:11:05.746Z</time>
      </trkpt>
      <trkpt lat="46.56924" lon="5.47418">
        <ele>564</ele>
        <time>2019-10-10T12:11:10.744Z</time>
      </trkpt>
      <trkpt lat="46.56926" lon="5.4741">
        <ele>564</ele>
        <time>2019-10-10T12:11:15.736Z</time>
      </trkpt>
      <trkpt lat="46.56927" lon="5.47401">
        <ele>562</ele>
        <time>2019-10-10T12:11:19.723Z</time>
      </trkpt>
      <trkpt lat="46.56928" lon="5.4739">
        <ele>562</ele>
        <time>2019-10-10T12:11:24.744Z</time>
      </trkpt>
      <trkpt lat="46.56928" lon="5.4738">
        <ele>562</ele>
        <time>2019-10-10T12:11:28.748Z</time>
      </trkpt>
      <trkpt lat="46.56928" lon="5.47371">
        <ele>562</ele>
        <time>2019-10-10T12:11:33.753Z</time>
      </trkpt>
      <trkpt lat="46.56927" lon="5.47364">
        <ele>562</ele>
        <time>2019-10-10T12:11:38.737Z</time>
      </trkpt>
      <trkpt lat="46.56926" lon="5.4736">
        <ele>562</ele>
        <time>2019-10-10T12:11:43.746Z</time>
      </trkpt>
      <trkpt lat="46.56926" lon="5.47351">
        <ele>562</ele>
        <time>2019-10-10T12:11:48.747Z</time>
      </trkpt>
      <trkpt lat="46.56924" lon="5.47341">
        <ele>563</ele>
        <time>2019-10-10T12:11:53.745Z</time>
      </trkpt>
      <trkpt lat="46.56921" lon="5.47332">
        <ele>563</ele>
        <time>2019-10-10T12:11:58.748Z</time>
      </trkpt>
      <trkpt lat="46.5692" lon="5.47326">
        <ele>563</ele>
        <time>2019-10-10T12:12:03.747Z</time>
      </trkpt>
      <trkpt lat="46.5692" lon="5.47319">
        <ele>561</ele>
        <time>2019-10-10T12:12:08.744Z</time>
      </trkpt>
      <trkpt lat="46.5692" lon="5.47306">
        <ele>561</ele>
        <time>2019-10-10T12:12:13.744Z</time>
      </trkpt>
      <trkpt lat="46.56919" lon="5.47299">
        <ele>561</ele>
        <time>2019-10-10T12:12:17.743Z</time>
      </trkpt>
      <trkpt lat="46.56918" lon="5.47292">
        <ele>561</ele>
        <time>2019-10-10T12:12:21.727Z</time>
      </trkpt>
      <trkpt lat="46.56919" lon="5.47284">
        <ele>558</ele>
        <time>2019-10-10T12:12:26.742Z</time>
      </trkpt>
      <trkpt lat="46.56921" lon="5.47274">
        <ele>558</ele>
        <time>2019-10-10T12:12:31.753Z</time>
      </trkpt>
      <trkpt lat="46.56922" lon="5.47266">
        <ele>558</ele>
        <time>2019-10-10T12:12:36.743Z</time>
      </trkpt>
      <trkpt lat="46.56925" lon="5.4726">
        <ele>555</ele>
        <time>2019-10-10T12:12:41.745Z</time>
      </trkpt>
      <trkpt lat="46.56929" lon="5.47255">
        <ele>555</ele>
        <time>2019-10-10T12:12:46.749Z</time>
      </trkpt>
      <trkpt lat="46.56931" lon="5.47248">
        <ele>559</ele>
        <time>2019-10-10T12:12:51.749Z</time>
      </trkpt>
      <trkpt lat="46.56931" lon="5.47242">
        <ele>559</ele>
        <time>2019-10-10T12:12:56.748Z</time>
      </trkpt>
      <trkpt lat="46.56933" lon="5.47234">
        <ele>558</ele>
        <time>2019-10-10T12:13:01.749Z</time>
      </trkpt>
      <trkpt lat="46.56937" lon="5.47219">
        <ele>558</ele>
        <time>2019-10-10T12:13:06.767Z</time>
      </trkpt>
      <trkpt lat="46.56937" lon="5.4721">
        <ele>558</ele>
        <time>2019-10-10T12:13:11.747Z</time>
      </trkpt>
      <trkpt lat="46.56936" lon="5.472">
        <ele>558</ele>
        <time>2019-10-10T12:13:16.747Z</time>
      </trkpt>
      <trkpt lat="46.56935" lon="5.47192">
        <ele>558</ele>
        <time>2019-10-10T12:13:21.749Z</time>
      </trkpt>
      <trkpt lat="46.56937" lon="5.47181">
        <ele>558</ele>
        <time>2019-10-10T12:13:26.745Z</time>
      </trkpt>
      <trkpt lat="46.56937" lon="5.47175">
        <ele>557</ele>
        <time>2019-10-10T12:13:31.740Z</time>
      </trkpt>
      <trkpt lat="46.56937" lon="5.47167">
        <ele>557</ele>
        <time>2019-10-10T12:13:36.742Z</time>
      </trkpt>
      <trkpt lat="46.56937" lon="5.47161">
        <ele>557</ele>
        <time>2019-10-10T12:13:41.741Z</time>
      </trkpt>
      <trkpt lat="46.56935" lon="5.47152">
        <ele>557</ele>
        <time>2019-10-10T12:13:46.744Z</time>
      </trkpt>
      <trkpt lat="46.56932" lon="5.47144">
        <ele>557</ele>
        <time>2019-10-10T12:13:51.741Z</time>
      </trkpt>
      <trkpt lat="46.56931" lon="5.47134">
        <ele>557</ele>
        <time>2019-10-10T12:13:56.742Z</time>
      </trkpt>
      <trkpt lat="46.56931" lon="5.47127">
        <ele>557</ele>
        <time>2019-10-10T12:14:01.742Z</time>
      </trkpt>
      <trkpt lat="46.56928" lon="5.47118">
        <ele>554</ele>
        <time>2019-10-10T12:14:06.740Z</time>
      </trkpt>
      <trkpt lat="46.56928" lon="5.47111">
        <ele>554</ele>
        <time>2019-10-10T12:14:11.742Z</time>
      </trkpt>
      <trkpt lat="46.56928" lon="5.47102">
        <ele>554</ele>
        <time>2019-10-10T12:14:16.747Z</time>
      </trkpt>
      <trkpt lat="46.56929" lon="5.47092">
        <ele>554</ele>
        <time>2019-10-10T12:14:21.747Z</time>
      </trkpt>
      <trkpt lat="46.56929" lon="5.47085">
        <ele>554</ele>
        <time>2019-10-10T12:14:26.746Z</time>
      </trkpt>
      <trkpt lat="46.56929" lon="5.47079">
        <ele>554</ele>
        <time>2019-10-10T12:14:31.740Z</time>
      </trkpt>
      <trkpt lat="46.56929" lon="5.4707">
        <ele>554</ele>
        <time>2019-10-10T12:14:36.740Z</time>
      </trkpt>
      <trkpt lat="46.5693" lon="5.47062">
        <ele>554</ele>
        <time>2019-10-10T12:14:41.740Z</time>
      </trkpt>
      <trkpt lat="46.56932" lon="5.47053">
        <ele>557</ele>
        <time>2019-10-10T12:14:46.740Z</time>
      </trkpt>
      <trkpt lat="46.56933" lon="5.47046">
        <ele>557</ele>
        <time>2019-10-10T12:14:51.738Z</time>
      </trkpt>
      <trkpt lat="46.56935" lon="5.47036">
        <ele>556</ele>
        <time>2019-10-10T12:14:56.745Z</time>
      </trkpt>
      <trkpt lat="46.56938" lon="5.47028">
        <ele>556</ele>
        <time>2019-10-10T12:15:01.741Z</time>
      </trkpt>
      <trkpt lat="46.56942" lon="5.47018">
        <ele>556</ele>
        <time>2019-10-10T12:15:06.743Z</time>
      </trkpt>
      <trkpt lat="46.56943" lon="5.47011">
        <ele>555</ele>
        <time>2019-10-10T12:15:11.743Z</time>
      </trkpt>
      <trkpt lat="46.56946" lon="5.47004">
        <ele>555</ele>
        <time>2019-10-10T12:15:16.744Z</time>
      </trkpt>
      <trkpt lat="46.56948" lon="5.46995">
        <ele>555</ele>
        <time>2019-10-10T12:15:21.740Z</time>
      </trkpt>
      <trkpt lat="46.56949" lon="5.46988">
        <ele>555</ele>
        <time>2019-10-10T12:15:26.744Z</time>
      </trkpt>
      <trkpt lat="46.56952" lon="5.46979">
        <ele>552</ele>
        <time>2019-10-10T12:15:31.743Z</time>
      </trkpt>
      <trkpt lat="46.56955" lon="5.46973">
        <ele>552</ele>
        <time>2019-10-10T12:15:36.744Z</time>
      </trkpt>
      <trkpt lat="46.56957" lon="5.46967">
        <ele>552</ele>
        <time>2019-10-10T12:15:41.743Z</time>
      </trkpt>
      <trkpt lat="46.56958" lon="5.4696">
        <ele>552</ele>
        <time>2019-10-10T12:15:46.747Z</time>
      </trkpt>
      <trkpt lat="46.56961" lon="5.46955">
        <ele>549</ele>
        <time>2019-10-10T12:15:51.743Z</time>
      </trkpt>
      <trkpt lat="46.56965" lon="5.46951">
        <ele>549</ele>
        <time>2019-10-10T12:15:56.743Z</time>
      </trkpt>
      <trkpt lat="46.56968" lon="5.46948">
        <ele>549</ele>
        <time>2019-10-10T12:16:01.746Z</time>
      </trkpt>
      <trkpt lat="46.56971" lon="5.46948">
        <ele>549</ele>
        <time>2019-10-10T12:16:06.742Z</time>
      </trkpt>
      <trkpt lat="46.56977" lon="5.46944">
        <ele>549</ele>
        <time>2019-10-10T12:16:11.746Z</time>
      </trkpt>
      <trkpt lat="46.56985" lon="5.4694">
        <ele>549</ele>
        <time>2019-10-10T12:16:16.745Z</time>
      </trkpt>
      <trkpt lat="46.5699" lon="5.46939">
        <ele>546</ele>
        <time>2019-10-10T12:16:21.746Z</time>
      </trkpt>
      <trkpt lat="46.56994" lon="5.46939">
        <ele>546</ele>
        <time>2019-10-10T12:16:26.741Z</time>
      </trkpt>
      <trkpt lat="46.56999" lon="5.46936">
        <ele>546</ele>
        <time>2019-10-10T12:16:31.748Z</time>
      </trkpt>
      <trkpt lat="46.57" lon="5.46934">
        <ele>546</ele>
        <time>2019-10-10T12:16:36.740Z</time>
      </trkpt>
      <trkpt lat="46.57" lon="5.46931">
        <ele>546</ele>
        <time>2019-10-10T12:16:41.744Z</time>
      </trkpt>
      <trkpt lat="46.57001" lon="5.46925">
        <ele>544</ele>
        <time>2019-10-10T12:16:46.743Z</time>
      </trkpt>
      <trkpt lat="46.56992" lon="5.46922">
        <ele>544</ele>
        <time>2019-10-10T12:19:57.743Z</time>
      </trkpt>
      <trkpt lat="46.56992" lon="5.46919">
        <ele>544</ele>
        <time>2019-10-10T12:20:02.743Z</time>
      </trkpt>
      <trkpt lat="46.56989" lon="5.46914">
        <ele>544</ele>
        <time>2019-10-10T12:20:07.758Z</time>
      </trkpt>
      <trkpt lat="46.56985" lon="5.4691">
        <ele>548</ele>
        <time>2019-10-10T12:20:12.746Z</time>
      </trkpt>
      <trkpt lat="46.56983" lon="5.46905">
        <ele>548</ele>
        <time>2019-10-10T12:20:17.746Z</time>
      </trkpt>
      <trkpt lat="46.56981" lon="5.46898">
        <ele>547</ele>
        <time>2019-10-10T12:20:22.745Z</time>
      </trkpt>
      <trkpt lat="46.56977" lon="5.46894">
        <ele>547</ele>
        <time>2019-10-10T12:20:27.747Z</time>
      </trkpt>
      <trkpt lat="46.56975" lon="5.4689">
        <ele>547</ele>
        <time>2019-10-10T12:20:32.745Z</time>
      </trkpt>
      <trkpt lat="46.5697" lon="5.46883">
        <ele>547</ele>
        <time>2019-10-10T12:20:37.747Z</time>
      </trkpt>
      <trkpt lat="46.56966" lon="5.46876">
        <ele>547</ele>
        <time>2019-10-10T12:20:42.746Z</time>
      </trkpt>
      <trkpt lat="46.56963" lon="5.46872">
        <ele>545</ele>
        <time>2019-10-10T12:20:47.742Z</time>
      </trkpt>
      <trkpt lat="46.5696" lon="5.46869">
        <ele>545</ele>
        <time>2019-10-10T12:20:52.742Z</time>
      </trkpt>
      <trkpt lat="46.56954" lon="5.46864">
        <ele>546</ele>
        <time>2019-10-10T12:20:57.747Z</time>
      </trkpt>
      <trkpt lat="46.5695" lon="5.46861">
        <ele>546</ele>
        <time>2019-10-10T12:21:02.748Z</time>
      </trkpt>
      <trkpt lat="46.56946" lon="5.46853">
        <ele>546</ele>
        <time>2019-10-10T12:21:07.750Z</time>
      </trkpt>
      <trkpt lat="46.56942" lon="5.46848">
        <ele>546</ele>
        <time>2019-10-10T12:21:12.747Z</time>
      </trkpt>
      <trkpt lat="46.5694" lon="5.46842">
        <ele>544</ele>
        <time>2019-10-10T12:21:17.745Z</time>
      </trkpt>
      <trkpt lat="46.56937" lon="5.46833">
        <ele>544</ele>
        <time>2019-10-10T12:21:22.746Z</time>
      </trkpt>
      <trkpt lat="46.56932" lon="5.46825">
        <ele>544</ele>
        <time>2019-10-10T12:21:27.754Z</time>
      </trkpt>
      <trkpt lat="46.56928" lon="5.46821">
        <ele>548</ele>
        <time>2019-10-10T12:21:32.747Z</time>
      </trkpt>
      <trkpt lat="46.56924" lon="5.46818">
        <ele>546</ele>
        <time>2019-10-10T12:21:37.754Z</time>
      </trkpt>
      <trkpt lat="46.56919" lon="5.46813">
        <ele>546</ele>
        <time>2019-10-10T12:21:42.750Z</time>
      </trkpt>
      <trkpt lat="46.56915" lon="5.46807">
        <ele>546</ele>
        <time>2019-10-10T12:21:47.748Z</time>
      </trkpt>
      <trkpt lat="46.56911" lon="5.46804">
        <ele>546</ele>
        <time>2019-10-10T12:21:52.742Z</time>
      </trkpt>
      <trkpt lat="46.5691" lon="5.46801">
        <ele>546</ele>
        <time>2019-10-10T12:21:57.748Z</time>
      </trkpt>
      <trkpt lat="46.56905" lon="5.46796">
        <ele>546</ele>
        <time>2019-10-10T12:22:02.746Z</time>
      </trkpt>
      <trkpt lat="46.56899" lon="5.46791">
        <ele>552</ele>
        <time>2019-10-10T12:22:07.744Z</time>
      </trkpt>
      <trkpt lat="46.56892" lon="5.46791">
        <ele>552</ele>
        <time>2019-10-10T12:22:12.747Z</time>
      </trkpt>
      <trkpt lat="46.56883" lon="5.46788">
        <ele>552</ele>
        <time>2019-10-10T12:22:17.745Z</time>
      </trkpt>
      <trkpt lat="46.56874" lon="5.46783">
        <ele>555</ele>
        <time>2019-10-10T12:22:22.748Z</time>
      </trkpt>
      <trkpt lat="46.5687" lon="5.46781">
        <ele>555</ele>
        <time>2019-10-10T12:22:27.749Z</time>
      </trkpt>
      <trkpt lat="46.56862" lon="5.46782">
        <ele>555</ele>
        <time>2019-10-10T12:22:32.745Z</time>
      </trkpt>
      <trkpt lat="46.56857" lon="5.46784">
        <ele>555</ele>
        <time>2019-10-10T12:22:37.747Z</time>
      </trkpt>
      <trkpt lat="46.5685" lon="5.46786">
        <ele>555</ele>
        <time>2019-10-10T12:22:42.745Z</time>
      </trkpt>
      <trkpt lat="46.56845" lon="5.46788">
        <ele>558</ele>
        <time>2019-10-10T12:22:47.751Z</time>
      </trkpt>
      <trkpt lat="46.56836" lon="5.46792">
        <ele>557</ele>
        <time>2019-10-10T12:22:52.747Z</time>
      </trkpt>
      <trkpt lat="46.56827" lon="5.46791">
        <ele>558</ele>
        <time>2019-10-10T12:22:57.742Z</time>
      </trkpt>
      <trkpt lat="46.56821" lon="5.4679">
        <ele>558</ele>
        <time>2019-10-10T12:23:02.745Z</time>
      </trkpt>
      <trkpt lat="46.56817" lon="5.46788">
        <ele>558</ele>
        <time>2019-10-10T12:23:07.741Z</time>
      </trkpt>
      <trkpt lat="46.56812" lon="5.46786">
        <ele>558</ele>
        <time>2019-10-10T12:23:12.747Z</time>
      </trkpt>
      <trkpt lat="46.56807" lon="5.46781">
        <ele>558</ele>
        <time>2019-10-10T12:23:17.747Z</time>
      </trkpt>
      <trkpt lat="46.56802" lon="5.46779">
        <ele>558</ele>
        <time>2019-10-10T12:23:22.745Z</time>
      </trkpt>
      <trkpt lat="46.56796" lon="5.46777">
        <ele>558</ele>
        <time>2019-10-10T12:23:27.747Z</time>
      </trkpt>
      <trkpt lat="46.56789" lon="5.46773">
        <ele>556</ele>
        <time>2019-10-10T12:23:32.744Z</time>
      </trkpt>
      <trkpt lat="46.56785" lon="5.4677">
        <ele>556</ele>
        <time>2019-10-10T12:23:37.745Z</time>
      </trkpt>
      <trkpt lat="46.56779" lon="5.46765">
        <ele>556</ele>
        <time>2019-10-10T12:23:42.745Z</time>
      </trkpt>
      <trkpt lat="46.56775" lon="5.46761">
        <ele>555</ele>
        <time>2019-10-10T12:23:47.743Z</time>
      </trkpt>
      <trkpt lat="46.5677" lon="5.46757">
        <ele>555</ele>
        <time>2019-10-10T12:23:52.745Z</time>
      </trkpt>
      <trkpt lat="46.56765" lon="5.46754">
        <ele>555</ele>
        <time>2019-10-10T12:23:57.748Z</time>
      </trkpt>
      <trkpt lat="46.56759" lon="5.46746">
        <ele>554</ele>
        <time>2019-10-10T12:24:02.744Z</time>
      </trkpt>
      <trkpt lat="46.56755" lon="5.46742">
        <ele>554</ele>
        <time>2019-10-10T12:24:07.744Z</time>
      </trkpt>
      <trkpt lat="46.56746" lon="5.46735">
        <ele>553</ele>
        <time>2019-10-10T12:24:12.743Z</time>
      </trkpt>
      <trkpt lat="46.56743" lon="5.46731">
        <ele>553</ele>
        <time>2019-10-10T12:24:17.749Z</time>
      </trkpt>
      <trkpt lat="46.56739" lon="5.46725">
        <ele>553</ele>
        <time>2019-10-10T12:24:22.748Z</time>
      </trkpt>
      <trkpt lat="46.56735" lon="5.46719">
        <ele>554</ele>
        <time>2019-10-10T12:24:27.743Z</time>
      </trkpt>
      <trkpt lat="46.56732" lon="5.46713">
        <ele>554</ele>
        <time>2019-10-10T12:24:31.749Z</time>
      </trkpt>
      <trkpt lat="46.56728" lon="5.46706">
        <ele>554</ele>
        <time>2019-10-10T12:24:36.747Z</time>
      </trkpt>
      <trkpt lat="46.56723" lon="5.467">
        <ele>554</ele>
        <time>2019-10-10T12:24:41.749Z</time>
      </trkpt>
      <trkpt lat="46.56718" lon="5.46694">
        <ele>554</ele>
        <time>2019-10-10T12:24:46.741Z</time>
      </trkpt>
      <trkpt lat="46.56713" lon="5.46689">
        <ele>554</ele>
        <time>2019-10-10T12:24:51.744Z</time>
      </trkpt>
      <trkpt lat="46.5671" lon="5.4668">
        <ele>555</ele>
        <time>2019-10-10T12:24:56.745Z</time>
      </trkpt>
      <trkpt lat="46.56705" lon="5.46672">
        <ele>555</ele>
        <time>2019-10-10T12:25:01.745Z</time>
      </trkpt>
      <trkpt lat="46.567" lon="5.46669">
        <ele>555</ele>
        <time>2019-10-10T12:25:06.745Z</time>
      </trkpt>
      <trkpt lat="46.56697" lon="5.46662">
        <ele>555</ele>
        <time>2019-10-10T12:25:11.747Z</time>
      </trkpt>
      <trkpt lat="46.56691" lon="5.46655">
        <ele>555</ele>
        <time>2019-10-10T12:25:16.747Z</time>
      </trkpt>
      <trkpt lat="46.56685" lon="5.46649">
        <ele>557</ele>
        <time>2019-10-10T12:25:21.744Z</time>
      </trkpt>
      <trkpt lat="46.5668" lon="5.46642">
        <ele>553</ele>
        <time>2019-10-10T12:25:26.743Z</time>
      </trkpt>
      <trkpt lat="46.56675" lon="5.46637">
        <ele>553</ele>
        <time>2019-10-10T12:25:31.741Z</time>
      </trkpt>
      <trkpt lat="46.5667" lon="5.4663">
        <ele>553</ele>
        <time>2019-10-10T12:25:36.745Z</time>
      </trkpt>
      <trkpt lat="46.56667" lon="5.46623">
        <ele>556</ele>
        <time>2019-10-10T12:25:41.747Z</time>
      </trkpt>
      <trkpt lat="46.5666" lon="5.46616">
        <ele>556</ele>
        <time>2019-10-10T12:25:46.741Z</time>
      </trkpt>
      <trkpt lat="46.56656" lon="5.46612">
        <ele>556</ele>
        <time>2019-10-10T12:25:51.749Z</time>
      </trkpt>
      <trkpt lat="46.56652" lon="5.46609">
        <ele>553</ele>
        <time>2019-10-10T12:25:56.744Z</time>
      </trkpt>
      <trkpt lat="46.56647" lon="5.46607">
        <ele>553</ele>
        <time>2019-10-10T12:26:01.747Z</time>
      </trkpt>
      <trkpt lat="46.5664" lon="5.46603">
        <ele>553</ele>
        <time>2019-10-10T12:26:06.747Z</time>
      </trkpt>
      <trkpt lat="46.56634" lon="5.46601">
        <ele>553</ele>
        <time>2019-10-10T12:26:11.748Z</time>
      </trkpt>
      <trkpt lat="46.56632" lon="5.46598">
        <ele>553</ele>
        <time>2019-10-10T12:26:16.744Z</time>
      </trkpt>
      <trkpt lat="46.56628" lon="5.46593">
        <ele>557</ele>
        <time>2019-10-10T12:26:20.751Z</time>
      </trkpt>
      <trkpt lat="46.56624" lon="5.46583">
        <ele>552</ele>
        <time>2019-10-10T12:26:25.746Z</time>
      </trkpt>
      <trkpt lat="46.5662" lon="5.46573">
        <ele>552</ele>
        <time>2019-10-10T12:26:30.740Z</time>
      </trkpt>
      <trkpt lat="46.56615" lon="5.46567">
        <ele>554</ele>
        <time>2019-10-10T12:26:35.747Z</time>
      </trkpt>
      <trkpt lat="46.56612" lon="5.46561">
        <ele>554</ele>
        <time>2019-10-10T12:26:40.752Z</time>
      </trkpt>
      <trkpt lat="46.56609" lon="5.46557">
        <ele>554</ele>
        <time>2019-10-10T12:26:45.743Z</time>
      </trkpt>
      <trkpt lat="46.56604" lon="5.46552">
        <ele>554</ele>
        <time>2019-10-10T12:26:50.745Z</time>
      </trkpt>
      <trkpt lat="46.56599" lon="5.46544">
        <ele>554</ele>
        <time>2019-10-10T12:26:54.743Z</time>
      </trkpt>
      <trkpt lat="46.56594" lon="5.46538">
        <ele>551</ele>
        <time>2019-10-10T12:26:59.744Z</time>
      </trkpt>
      <trkpt lat="46.56588" lon="5.46531">
        <ele>551</ele>
        <time>2019-10-10T12:27:04.745Z</time>
      </trkpt>
      <trkpt lat="46.56585" lon="5.4652">
        <ele>551</ele>
        <time>2019-10-10T12:27:09.742Z</time>
      </trkpt>
      <trkpt lat="46.56582" lon="5.46514">
        <ele>554</ele>
        <time>2019-10-10T12:27:14.751Z</time>
      </trkpt>
      <trkpt lat="46.56578" lon="5.46506">
        <ele>554</ele>
        <time>2019-10-10T12:27:19.745Z</time>
      </trkpt>
      <trkpt lat="46.56574" lon="5.465">
        <ele>554</ele>
        <time>2019-10-10T12:27:24.747Z</time>
      </trkpt>
      <trkpt lat="46.5657" lon="5.46494">
        <ele>554</ele>
        <time>2019-10-10T12:27:29.750Z</time>
      </trkpt>
      <trkpt lat="46.56566" lon="5.46488">
        <ele>549</ele>
        <time>2019-10-10T12:27:34.748Z</time>
      </trkpt>
      <trkpt lat="46.56561" lon="5.46485">
        <ele>552</ele>
        <time>2019-10-10T12:27:39.745Z</time>
      </trkpt>
      <trkpt lat="46.56558" lon="5.46476">
        <ele>552</ele>
        <time>2019-10-10T12:27:44.745Z</time>
      </trkpt>
      <trkpt lat="46.56558" lon="5.46462">
        <ele>552</ele>
        <time>2019-10-10T12:27:49.742Z</time>
      </trkpt>
      <trkpt lat="46.56554" lon="5.46457">
        <ele>552</ele>
        <time>2019-10-10T12:27:54.743Z</time>
      </trkpt>
      <trkpt lat="46.56551" lon="5.46452">
        <ele>552</ele>
        <time>2019-10-10T12:27:59.747Z</time>
      </trkpt>
      <trkpt lat="46.5655" lon="5.46444">
        <ele>552</ele>
        <time>2019-10-10T12:28:04.742Z</time>
      </trkpt>
      <trkpt lat="46.56546" lon="5.46435">
        <ele>552</ele>
        <time>2019-10-10T12:28:09.749Z</time>
      </trkpt>
      <trkpt lat="46.56542" lon="5.46428">
        <ele>553</ele>
        <time>2019-10-10T12:28:14.749Z</time>
      </trkpt>
      <trkpt lat="46.56539" lon="5.46421">
        <ele>547</ele>
        <time>2019-10-10T12:28:19.746Z</time>
      </trkpt>
      <trkpt lat="46.56536" lon="5.46413">
        <ele>547</ele>
        <time>2019-10-10T12:28:24.745Z</time>
      </trkpt>
      <trkpt lat="46.56532" lon="5.46407">
        <ele>547</ele>
        <time>2019-10-10T12:28:29.742Z</time>
      </trkpt>
      <trkpt lat="46.56528" lon="5.46399">
        <ele>548</ele>
        <time>2019-10-10T12:28:34.748Z</time>
      </trkpt>
      <trkpt lat="46.56524" lon="5.46393">
        <ele>548</ele>
        <time>2019-10-10T12:28:39.749Z</time>
      </trkpt>
      <trkpt lat="46.56521" lon="5.46385">
        <ele>548</ele>
        <time>2019-10-10T12:28:44.741Z</time>
      </trkpt>
      <trkpt lat="46.56518" lon="5.46375">
        <ele>548</ele>
        <time>2019-10-10T12:28:49.746Z</time>
      </trkpt>
      <trkpt lat="46.56515" lon="5.46368">
        <ele>548</ele>
        <time>2019-10-10T12:28:54.747Z</time>
      </trkpt>
      <trkpt lat="46.56512" lon="5.4636">
        <ele>544</ele>
        <time>2019-10-10T12:28:59.747Z</time>
      </trkpt>
      <trkpt lat="46.56509" lon="5.46352">
        <ele>544</ele>
        <time>2019-10-10T12:29:04.745Z</time>
      </trkpt>
      <trkpt lat="46.56507" lon="5.46346">
        <ele>542</ele>
        <time>2019-10-10T12:29:09.743Z</time>
      </trkpt>
      <trkpt lat="46.56504" lon="5.46337">
        <ele>542</ele>
        <time>2019-10-10T12:29:14.747Z</time>
      </trkpt>
      <trkpt lat="46.56502" lon="5.46331">
        <ele>542</ele>
        <time>2019-10-10T12:29:19.744Z</time>
      </trkpt>
      <trkpt lat="46.565" lon="5.46324">
        <ele>542</ele>
        <time>2019-10-10T12:29:24.743Z</time>
      </trkpt>
      <trkpt lat="46.56496" lon="5.46313">
        <ele>540</ele>
        <time>2019-10-10T12:29:29.747Z</time>
      </trkpt>
      <trkpt lat="46.56491" lon="5.46303">
        <ele>540</ele>
        <time>2019-10-10T12:29:34.742Z</time>
      </trkpt>
      <trkpt lat="46.56487" lon="5.46297">
        <ele>540</ele>
        <time>2019-10-10T12:29:39.744Z</time>
      </trkpt>
      <trkpt lat="46.56485" lon="5.46292">
        <ele>536</ele>
        <time>2019-10-10T12:29:44.750Z</time>
      </trkpt>
      <trkpt lat="46.56484" lon="5.46287">
        <ele>537</ele>
        <time>2019-10-10T12:29:49.747Z</time>
      </trkpt>
      <trkpt lat="46.5648" lon="5.4628">
        <ele>537</ele>
        <time>2019-10-10T12:29:54.747Z</time>
      </trkpt>
      <trkpt lat="46.56478" lon="5.46273">
        <ele>537</ele>
        <time>2019-10-10T12:29:59.743Z</time>
      </trkpt>
      <trkpt lat="46.56477" lon="5.46266">
        <ele>537</ele>
        <time>2019-10-10T12:30:04.749Z</time>
      </trkpt>
      <trkpt lat="46.56473" lon="5.46258">
        <ele>538</ele>
        <time>2019-10-10T12:30:09.748Z</time>
      </trkpt>
      <trkpt lat="46.56468" lon="5.4625">
        <ele>538</ele>
        <time>2019-10-10T12:30:14.748Z</time>
      </trkpt>
      <trkpt lat="46.56462" lon="5.46244">
        <ele>538</ele>
        <time>2019-10-10T12:30:19.750Z</time>
      </trkpt>
      <trkpt lat="46.56457" lon="5.46237">
        <ele>535</ele>
        <time>2019-10-10T12:30:24.750Z</time>
      </trkpt>
      <trkpt lat="46.56452" lon="5.46232">
        <ele>536</ele>
        <time>2019-10-10T12:30:29.742Z</time>
      </trkpt>
      <trkpt lat="46.56447" lon="5.46228">
        <ele>536</ele>
        <time>2019-10-10T12:30:34.746Z</time>
      </trkpt>
      <trkpt lat="46.56443" lon="5.46225">
        <ele>536</ele>
        <time>2019-10-10T12:30:39.744Z</time>
      </trkpt>
      <trkpt lat="46.5644" lon="5.46221">
        <ele>536</ele>
        <time>2019-10-10T12:30:44.744Z</time>
      </trkpt>
      <trkpt lat="46.56435" lon="5.46217">
        <ele>536</ele>
        <time>2019-10-10T12:30:49.745Z</time>
      </trkpt>
      <trkpt lat="46.5643" lon="5.46212">
        <ele>534</ele>
        <time>2019-10-10T12:30:54.745Z</time>
      </trkpt>
      <trkpt lat="46.56425" lon="5.46206">
        <ele>535</ele>
        <time>2019-10-10T12:30:59.744Z</time>
      </trkpt>
      <trkpt lat="46.5642" lon="5.462">
        <ele>535</ele>
        <time>2019-10-10T12:31:04.745Z</time>
      </trkpt>
      <trkpt lat="46.56416" lon="5.46192">
        <ele>535</ele>
        <time>2019-10-10T12:31:09.739Z</time>
      </trkpt>
      <trkpt lat="46.56411" lon="5.46186">
        <ele>535</ele>
        <time>2019-10-10T12:31:14.745Z</time>
      </trkpt>
      <trkpt lat="46.56406" lon="5.46166">
        <ele>534</ele>
        <time>2019-10-10T12:31:57.733Z</time>
      </trkpt>
      <trkpt lat="46.56406" lon="5.46166">
        <ele>534</ele>
        <time>2019-10-10T12:32:01.740Z</time>
      </trkpt>
      <trkpt lat="46.56406" lon="5.46166">
        <ele>534</ele>
        <time>2019-10-10T12:32:06.743Z</time>
      </trkpt>
      <trkpt lat="46.56404" lon="5.46164">
        <ele>534</ele>
        <time>2019-10-10T12:32:11.748Z</time>
      </trkpt>
      <trkpt lat="46.56403" lon="5.46164">
        <ele>534</ele>
        <time>2019-10-10T12:32:16.744Z</time>
      </trkpt>
      <trkpt lat="46.56402" lon="5.46161">
        <ele>532</ele>
        <time>2019-10-10T12:32:21.741Z</time>
      </trkpt>
      <trkpt lat="46.56398" lon="5.46159">
        <ele>532</ele>
        <time>2019-10-10T12:32:25.748Z</time>
      </trkpt>
      <trkpt lat="46.56396" lon="5.46159">
        <ele>532</ele>
        <time>2019-10-10T12:32:30.745Z</time>
      </trkpt>
      <trkpt lat="46.56394" lon="5.46157">
        <ele>532</ele>
        <time>2019-10-10T12:32:35.739Z</time>
      </trkpt>
      <trkpt lat="46.56393" lon="5.46147">
        <ele>532</ele>
        <time>2019-10-10T12:32:40.742Z</time>
      </trkpt>
      <trkpt lat="46.5639" lon="5.46135">
        <ele>532</ele>
        <time>2019-10-10T12:32:45.743Z</time>
      </trkpt>
      <trkpt lat="46.56386" lon="5.46124">
        <ele>532</ele>
        <time>2019-10-10T12:32:50.743Z</time>
      </trkpt>
      <trkpt lat="46.56387" lon="5.46115">
        <ele>532</ele>
        <time>2019-10-10T12:32:55.742Z</time>
      </trkpt>
      <trkpt lat="46.56385" lon="5.46106">
        <ele>532</ele>
        <time>2019-10-10T12:33:00.743Z</time>
      </trkpt>
      <trkpt lat="46.56382" lon="5.46103">
        <ele>532</ele>
        <time>2019-10-10T12:33:05.745Z</time>
      </trkpt>
      <trkpt lat="46.56378" lon="5.46097">
        <ele>532</ele>
        <time>2019-10-10T12:33:10.753Z</time>
      </trkpt>
      <trkpt lat="46.56376" lon="5.46093">
        <ele>532</ele>
        <time>2019-10-10T12:33:15.751Z</time>
      </trkpt>
      <trkpt lat="46.56374" lon="5.46086">
        <ele>534</ele>
        <time>2019-10-10T12:33:20.737Z</time>
      </trkpt>
      <trkpt lat="46.56369" lon="5.46078">
        <ele>534</ele>
        <time>2019-10-10T12:33:25.741Z</time>
      </trkpt>
      <trkpt lat="46.56366" lon="5.46073">
        <ele>534</ele>
        <time>2019-10-10T12:33:30.741Z</time>
      </trkpt>
      <trkpt lat="46.56365" lon="5.4607">
        <ele>534</ele>
        <time>2019-10-10T12:33:35.739Z</time>
      </trkpt>
      <trkpt lat="46.56363" lon="5.46067">
        <ele>534</ele>
        <time>2019-10-10T12:33:40.745Z</time>
      </trkpt>
      <trkpt lat="46.56358" lon="5.46057">
        <ele>534</ele>
        <time>2019-10-10T12:33:45.748Z</time>
      </trkpt>
      <trkpt lat="46.56353" lon="5.46047">
        <ele>534</ele>
        <time>2019-10-10T12:33:50.742Z</time>
      </trkpt>
      <trkpt lat="46.5635" lon="5.46042">
        <ele>533</ele>
        <time>2019-10-10T12:33:55.743Z</time>
      </trkpt>
      <trkpt lat="46.56344" lon="5.46034">
        <ele>532</ele>
        <time>2019-10-10T12:34:00.738Z</time>
      </trkpt>
      <trkpt lat="46.56339" lon="5.46025">
        <ele>532</ele>
        <time>2019-10-10T12:34:05.742Z</time>
      </trkpt>
      <trkpt lat="46.56335" lon="5.46018">
        <ele>532</ele>
        <time>2019-10-10T12:34:10.743Z</time>
      </trkpt>
      <trkpt lat="46.5633" lon="5.46011">
        <ele>531</ele>
        <time>2019-10-10T12:34:15.742Z</time>
      </trkpt>
      <trkpt lat="46.56324" lon="5.46007">
        <ele>531</ele>
        <time>2019-10-10T12:34:20.744Z</time>
      </trkpt>
      <trkpt lat="46.5632" lon="5.46002">
        <ele>531</ele>
        <time>2019-10-10T12:34:25.746Z</time>
      </trkpt>
      <trkpt lat="46.56313" lon="5.45997">
        <ele>531</ele>
        <time>2019-10-10T12:34:30.743Z</time>
      </trkpt>
      <trkpt lat="46.56307" lon="5.45994">
        <ele>531</ele>
        <time>2019-10-10T12:34:35.742Z</time>
      </trkpt>
      <trkpt lat="46.56302" lon="5.45991">
        <ele>531</ele>
        <time>2019-10-10T12:34:40.745Z</time>
      </trkpt>
      <trkpt lat="46.56295" lon="5.45984">
        <ele>529</ele>
        <time>2019-10-10T12:34:45.744Z</time>
      </trkpt>
      <trkpt lat="46.56291" lon="5.45978">
        <ele>529</ele>
        <time>2019-10-10T12:34:50.739Z</time>
      </trkpt>
      <trkpt lat="46.56285" lon="5.45971">
        <ele>529</ele>
        <time>2019-10-10T12:34:55.744Z</time>
      </trkpt>
      <trkpt lat="46.56281" lon="5.45965">
        <ele>529</ele>
        <time>2019-10-10T12:35:00.743Z</time>
      </trkpt>
      <trkpt lat="46.56279" lon="5.4596">
        <ele>529</ele>
        <time>2019-10-10T12:35:05.743Z</time>
      </trkpt>
      <trkpt lat="46.56277" lon="5.45955">
        <ele>528</ele>
        <time>2019-10-10T12:35:10.743Z</time>
      </trkpt>
      <trkpt lat="46.56275" lon="5.45951">
        <ele>528</ele>
        <time>2019-10-10T12:35:15.740Z</time>
      </trkpt>
      <trkpt lat="46.56271" lon="5.45947">
        <ele>528</ele>
        <time>2019-10-10T12:35:20.741Z</time>
      </trkpt>
      <trkpt lat="46.56268" lon="5.45942">
        <ele>528</ele>
        <time>2019-10-10T12:35:25.739Z</time>
      </trkpt>
      <trkpt lat="46.56267" lon="5.45933">
        <ele>528</ele>
        <time>2019-10-10T12:35:30.737Z</time>
      </trkpt>
      <trkpt lat="46.56262" lon="5.45925">
        <ele>532</ele>
        <time>2019-10-10T12:35:35.737Z</time>
      </trkpt>
      <trkpt lat="46.56257" lon="5.45921">
        <ele>532</ele>
        <time>2019-10-10T12:35:40.738Z</time>
      </trkpt>
      <trkpt lat="46.56254" lon="5.45915">
        <ele>532</ele>
        <time>2019-10-10T12:35:44.751Z</time>
      </trkpt>
      <trkpt lat="46.56251" lon="5.45909">
        <ele>532</ele>
        <time>2019-10-10T12:35:49.737Z</time>
      </trkpt>
      <trkpt lat="46.56248" lon="5.45906">
        <ele>532</ele>
        <time>2019-10-10T12:35:54.739Z</time>
      </trkpt>
      <trkpt lat="46.56244" lon="5.45903">
        <ele>535</ele>
        <time>2019-10-10T12:35:59.738Z</time>
      </trkpt>
      <trkpt lat="46.56239" lon="5.45897">
        <ele>535</ele>
        <time>2019-10-10T12:36:04.739Z</time>
      </trkpt>
      <trkpt lat="46.56235" lon="5.4589">
        <ele>542</ele>
        <time>2019-10-10T12:36:09.739Z</time>
      </trkpt>
      <trkpt lat="46.5623" lon="5.45884">
        <ele>542</ele>
        <time>2019-10-10T12:36:14.739Z</time>
      </trkpt>
      <trkpt lat="46.56223" lon="5.45875">
        <ele>542</ele>
        <time>2019-10-10T12:36:19.737Z</time>
      </trkpt>
      <trkpt lat="46.5622" lon="5.4587">
        <ele>542</ele>
        <time>2019-10-10T12:36:24.740Z</time>
      </trkpt>
      <trkpt lat="46.56217" lon="5.45866">
        <ele>542</ele>
        <time>2019-10-10T12:36:29.740Z</time>
      </trkpt>
      <trkpt lat="46.56212" lon="5.45861">
        <ele>542</ele>
        <time>2019-10-10T12:36:34.740Z</time>
      </trkpt>
      <trkpt lat="46.56208" lon="5.45855">
        <ele>543</ele>
        <time>2019-10-10T12:36:39.738Z</time>
      </trkpt>
      <trkpt lat="46.56203" lon="5.45849">
        <ele>543</ele>
        <time>2019-10-10T12:36:44.742Z</time>
      </trkpt>
      <trkpt lat="46.56198" lon="5.45843">
        <ele>543</ele>
        <time>2019-10-10T12:36:49.743Z</time>
      </trkpt>
      <trkpt lat="46.56196" lon="5.45838">
        <ele>543</ele>
        <time>2019-10-10T12:36:54.737Z</time>
      </trkpt>
      <trkpt lat="46.56191" lon="5.45834">
        <ele>543</ele>
        <time>2019-10-10T12:36:59.742Z</time>
      </trkpt>
      <trkpt lat="46.5619" lon="5.45831">
        <ele>543</ele>
        <time>2019-10-10T12:37:04.737Z</time>
      </trkpt>
      <trkpt lat="46.56189" lon="5.45827">
        <ele>543</ele>
        <time>2019-10-10T12:37:09.739Z</time>
      </trkpt>
      <trkpt lat="46.56185" lon="5.45823">
        <ele>543</ele>
        <time>2019-10-10T12:37:14.739Z</time>
      </trkpt>
      <trkpt lat="46.5618" lon="5.45814">
        <ele>543</ele>
        <time>2019-10-10T12:37:19.739Z</time>
      </trkpt>
      <trkpt lat="46.56176" lon="5.45809">
        <ele>543</ele>
        <time>2019-10-10T12:37:24.740Z</time>
      </trkpt>
      <trkpt lat="46.56175" lon="5.458">
        <ele>543</ele>
        <time>2019-10-10T12:37:29.740Z</time>
      </trkpt>
      <trkpt lat="46.5617" lon="5.45796">
        <ele>543</ele>
        <time>2019-10-10T12:37:34.738Z</time>
      </trkpt>
      <trkpt lat="46.56168" lon="5.45791">
        <ele>544</ele>
        <time>2019-10-10T12:37:39.739Z</time>
      </trkpt>
      <trkpt lat="46.56168" lon="5.45785">
        <ele>544</ele>
        <time>2019-10-10T12:37:44.743Z</time>
      </trkpt>
      <trkpt lat="46.56169" lon="5.45778">
        <ele>544</ele>
        <time>2019-10-10T12:37:49.739Z</time>
      </trkpt>
      <trkpt lat="46.56169" lon="5.45771">
        <ele>544</ele>
        <time>2019-10-10T12:37:54.754Z</time>
      </trkpt>
      <trkpt lat="46.56168" lon="5.4576">
        <ele>543</ele>
        <time>2019-10-10T12:37:59.735Z</time>
      </trkpt>
      <trkpt lat="46.56168" lon="5.45751">
        <ele>543</ele>
        <time>2019-10-10T12:38:04.743Z</time>
      </trkpt>
      <trkpt lat="46.56168" lon="5.45742">
        <ele>543</ele>
        <time>2019-10-10T12:38:09.739Z</time>
      </trkpt>
      <trkpt lat="46.56167" lon="5.45733">
        <ele>543</ele>
        <time>2019-10-10T12:38:14.775Z</time>
      </trkpt>
      <trkpt lat="46.56165" lon="5.45724">
        <ele>543</ele>
        <time>2019-10-10T12:38:19.743Z</time>
      </trkpt>
      <trkpt lat="46.56165" lon="5.45723">
        <ele>543</ele>
        <time>2019-10-10T12:38:24.738Z</time>
      </trkpt>
      <trkpt lat="46.56163" lon="5.45711">
        <ele>543</ele>
        <time>2019-10-10T12:38:29.737Z</time>
      </trkpt>
      <trkpt lat="46.56161" lon="5.45701">
        <ele>541</ele>
        <time>2019-10-10T12:38:34.741Z</time>
      </trkpt>
      <trkpt lat="46.56159" lon="5.45695">
        <ele>541</ele>
        <time>2019-10-10T12:38:39.741Z</time>
      </trkpt>
      <trkpt lat="46.56157" lon="5.45686">
        <ele>541</ele>
        <time>2019-10-10T12:38:44.735Z</time>
      </trkpt>
      <trkpt lat="46.56155" lon="5.45677">
        <ele>539</ele>
        <time>2019-10-10T12:38:49.741Z</time>
      </trkpt>
      <trkpt lat="46.56155" lon="5.45669">
        <ele>539</ele>
        <time>2019-10-10T12:38:54.739Z</time>
      </trkpt>
      <trkpt lat="46.56152" lon="5.45664">
        <ele>545</ele>
        <time>2019-10-10T12:38:59.738Z</time>
      </trkpt>
      <trkpt lat="46.56153" lon="5.45659">
        <ele>545</ele>
        <time>2019-10-10T12:39:04.742Z</time>
      </trkpt>
      <trkpt lat="46.56152" lon="5.45653">
        <ele>545</ele>
        <time>2019-10-10T12:39:09.737Z</time>
      </trkpt>
      <trkpt lat="46.56151" lon="5.45646">
        <ele>543</ele>
        <time>2019-10-10T12:39:14.743Z</time>
      </trkpt>
      <trkpt lat="46.56145" lon="5.45636">
        <ele>543</ele>
        <time>2019-10-10T12:39:19.744Z</time>
      </trkpt>
      <trkpt lat="46.56143" lon="5.45627">
        <ele>543</ele>
        <time>2019-10-10T12:39:24.734Z</time>
      </trkpt>
      <trkpt lat="46.56141" lon="5.45619">
        <ele>541</ele>
        <time>2019-10-10T12:39:29.741Z</time>
      </trkpt>
      <trkpt lat="46.56138" lon="5.45612">
        <ele>541</ele>
        <time>2019-10-10T12:39:34.738Z</time>
      </trkpt>
      <trkpt lat="46.56131" lon="5.45607">
        <ele>541</ele>
        <time>2019-10-10T12:39:38.742Z</time>
      </trkpt>
      <trkpt lat="46.56127" lon="5.45604">
        <ele>541</ele>
        <time>2019-10-10T12:39:43.736Z</time>
      </trkpt>
      <trkpt lat="46.56125" lon="5.45604">
        <ele>547</ele>
        <time>2019-10-10T12:39:48.740Z</time>
      </trkpt>
      <trkpt lat="46.56125" lon="5.45601">
        <ele>541</ele>
        <time>2019-10-10T12:39:53.743Z</time>
      </trkpt>
      <trkpt lat="46.56128" lon="5.45594">
        <ele>538</ele>
        <time>2019-10-10T12:39:58.734Z</time>
      </trkpt>
      <trkpt lat="46.56129" lon="5.45586">
        <ele>538</ele>
        <time>2019-10-10T12:40:03.741Z</time>
      </trkpt>
      <trkpt lat="46.56128" lon="5.45579">
        <ele>538</ele>
        <time>2019-10-10T12:40:08.739Z</time>
      </trkpt>
      <trkpt lat="46.56129" lon="5.45571">
        <ele>538</ele>
        <time>2019-10-10T12:40:13.733Z</time>
      </trkpt>
      <trkpt lat="46.56129" lon="5.45562">
        <ele>531</ele>
        <time>2019-10-10T12:40:18.739Z</time>
      </trkpt>
      <trkpt lat="46.56127" lon="5.45554">
        <ele>531</ele>
        <time>2019-10-10T12:40:23.740Z</time>
      </trkpt>
      <trkpt lat="46.56126" lon="5.45547">
        <ele>531</ele>
        <time>2019-10-10T12:40:28.739Z</time>
      </trkpt>
      <trkpt lat="46.56126" lon="5.4554">
        <ele>523</ele>
        <time>2019-10-10T12:40:33.740Z</time>
      </trkpt>
      <trkpt lat="46.56126" lon="5.45533">
        <ele>523</ele>
        <time>2019-10-10T12:40:38.739Z</time>
      </trkpt>
      <trkpt lat="46.56123" lon="5.45524">
        <ele>534</ele>
        <time>2019-10-10T12:40:43.733Z</time>
      </trkpt>
      <trkpt lat="46.56121" lon="5.45518">
        <ele>534</ele>
        <time>2019-10-10T12:40:48.738Z</time>
      </trkpt>
      <trkpt lat="46.56118" lon="5.45511">
        <ele>526</ele>
        <time>2019-10-10T12:40:53.739Z</time>
      </trkpt>
      <trkpt lat="46.56116" lon="5.45505">
        <ele>526</ele>
        <time>2019-10-10T12:40:58.742Z</time>
      </trkpt>
      <trkpt lat="46.56116" lon="5.45501">
        <ele>526</ele>
        <time>2019-10-10T12:41:03.740Z</time>
      </trkpt>
      <trkpt lat="46.56111" lon="5.45496">
        <ele>526</ele>
        <time>2019-10-10T12:41:08.748Z</time>
      </trkpt>
      <trkpt lat="46.56109" lon="5.4549">
        <ele>526</ele>
        <time>2019-10-10T12:41:13.753Z</time>
      </trkpt>
      <trkpt lat="46.56108" lon="5.45483">
        <ele>518</ele>
        <time>2019-10-10T12:41:18.753Z</time>
      </trkpt>
      <trkpt lat="46.56106" lon="5.45476">
        <ele>518</ele>
        <time>2019-10-10T12:41:23.751Z</time>
      </trkpt>
      <trkpt lat="46.56103" lon="5.45469">
        <ele>518</ele>
        <time>2019-10-10T12:41:28.748Z</time>
      </trkpt>
      <trkpt lat="46.56101" lon="5.45463">
        <ele>518</ele>
        <time>2019-10-10T12:41:33.750Z</time>
      </trkpt>
      <trkpt lat="46.561" lon="5.45458">
        <ele>511</ele>
        <time>2019-10-10T12:41:38.750Z</time>
      </trkpt>
      <trkpt lat="46.56098" lon="5.45451">
        <ele>511</ele>
        <time>2019-10-10T12:41:43.751Z</time>
      </trkpt>
      <trkpt lat="46.56095" lon="5.45442">
        <ele>514</ele>
        <time>2019-10-10T12:41:48.750Z</time>
      </trkpt>
      <trkpt lat="46.5609" lon="5.45434">
        <ele>514</ele>
        <time>2019-10-10T12:41:53.750Z</time>
      </trkpt>
      <trkpt lat="46.56086" lon="5.45429">
        <ele>507</ele>
        <time>2019-10-10T12:41:58.743Z</time>
      </trkpt>
      <trkpt lat="46.56081" lon="5.45423">
        <ele>507</ele>
        <time>2019-10-10T12:42:03.745Z</time>
      </trkpt>
      <trkpt lat="46.5608" lon="5.45419">
        <ele>507</ele>
        <time>2019-10-10T12:42:08.749Z</time>
      </trkpt>
      <trkpt lat="46.56079" lon="5.45414">
        <ele>507</ele>
        <time>2019-10-10T12:42:13.751Z</time>
      </trkpt>
      <trkpt lat="46.56081" lon="5.45407">
        <ele>507</ele>
        <time>2019-10-10T12:42:18.752Z</time>
      </trkpt>
      <trkpt lat="46.56084" lon="5.45401">
        <ele>501</ele>
        <time>2019-10-10T12:42:23.749Z</time>
      </trkpt>
      <trkpt lat="46.56081" lon="5.45391">
        <ele>501</ele>
        <time>2019-10-10T12:43:06.744Z</time>
      </trkpt>
      <trkpt lat="46.5608" lon="5.45389">
        <ele>501</ele>
        <time>2019-10-10T12:43:11.749Z</time>
      </trkpt>
      <trkpt lat="46.56078" lon="5.45389">
        <ele>501</ele>
        <time>2019-10-10T12:43:16.744Z</time>
      </trkpt>
      <trkpt lat="46.56078" lon="5.45389">
        <ele>501</ele>
        <time>2019-10-10T12:43:21.743Z</time>
      </trkpt>
      <trkpt lat="46.56077" lon="5.45389">
        <ele>501</ele>
        <time>2019-10-10T12:43:26.748Z</time>
      </trkpt>
      <trkpt lat="46.56081" lon="5.45387">
        <ele>501</ele>
        <time>2019-10-10T12:47:03.740Z</time>
      </trkpt>
      <trkpt lat="46.56082" lon="5.4539">
        <ele>501</ele>
        <time>2019-10-10T12:47:08.738Z</time>
      </trkpt>
      <trkpt lat="46.56083" lon="5.4539">
        <ele>501</ele>
        <time>2019-10-10T12:47:12.723Z</time>
      </trkpt>
      <trkpt lat="46.56085" lon="5.45387">
        <ele>501</ele>
        <time>2019-10-10T12:47:17.738Z</time>
      </trkpt>
      <trkpt lat="46.56088" lon="5.45385">
        <ele>501</ele>
        <time>2019-10-10T12:47:22.739Z</time>
      </trkpt>
      <trkpt lat="46.56092" lon="5.45377">
        <ele>501</ele>
        <time>2019-10-10T12:47:26.735Z</time>
      </trkpt>
      <trkpt lat="46.56096" lon="5.45373">
        <ele>496</ele>
        <time>2019-10-10T12:47:30.725Z</time>
      </trkpt>
      <trkpt lat="46.56099" lon="5.45369">
        <ele>491</ele>
        <time>2019-10-10T12:47:34.731Z</time>
      </trkpt>
      <trkpt lat="46.56105" lon="5.45361">
        <ele>491</ele>
        <time>2019-10-10T12:47:39.721Z</time>
      </trkpt>
      <trkpt lat="46.56109" lon="5.45354">
        <ele>491</ele>
        <time>2019-10-10T12:47:43.726Z</time>
      </trkpt>
      <trkpt lat="46.56112" lon="5.4535">
        <ele>491</ele>
        <time>2019-10-10T12:47:47.723Z</time>
      </trkpt>
      <trkpt lat="46.56118" lon="5.45344">
        <ele>487</ele>
        <time>2019-10-10T12:47:52.719Z</time>
      </trkpt>
      <trkpt lat="46.56122" lon="5.45339">
        <ele>487</ele>
        <time>2019-10-10T12:47:57.727Z</time>
      </trkpt>
      <trkpt lat="46.56126" lon="5.45334">
        <ele>483</ele>
        <time>2019-10-10T12:48:01.733Z</time>
      </trkpt>
      <trkpt lat="46.56133" lon="5.45328">
        <ele>483</ele>
        <time>2019-10-10T12:48:06.730Z</time>
      </trkpt>
      <trkpt lat="46.56135" lon="5.45326">
        <ele>483</ele>
        <time>2019-10-10T12:48:11.726Z</time>
      </trkpt>
      <trkpt lat="46.56138" lon="5.45323">
        <ele>483</ele>
        <time>2019-10-10T12:48:16.738Z</time>
      </trkpt>
      <trkpt lat="46.56141" lon="5.4532">
        <ele>483</ele>
        <time>2019-10-10T12:48:20.747Z</time>
      </trkpt>
      <trkpt lat="46.56147" lon="5.45314">
        <ele>483</ele>
        <time>2019-10-10T12:48:25.738Z</time>
      </trkpt>
      <trkpt lat="46.56151" lon="5.45308">
        <ele>483</ele>
        <time>2019-10-10T12:48:30.743Z</time>
      </trkpt>
      <trkpt lat="46.56155" lon="5.45303">
        <ele>478</ele>
        <time>2019-10-10T12:48:35.729Z</time>
      </trkpt>
      <trkpt lat="46.56159" lon="5.45299">
        <ele>478</ele>
        <time>2019-10-10T12:48:40.728Z</time>
      </trkpt>
      <trkpt lat="46.56163" lon="5.45295">
        <ele>478</ele>
        <time>2019-10-10T12:48:45.725Z</time>
      </trkpt>
      <trkpt lat="46.56167" lon="5.45291">
        <ele>477</ele>
        <time>2019-10-10T12:48:49.734Z</time>
      </trkpt>
      <trkpt lat="46.5617" lon="5.45286">
        <ele>477</ele>
        <time>2019-10-10T12:48:54.725Z</time>
      </trkpt>
      <trkpt lat="46.56172" lon="5.45282">
        <ele>477</ele>
        <time>2019-10-10T12:48:58.743Z</time>
      </trkpt>
      <trkpt lat="46.56175" lon="5.45278">
        <ele>477</ele>
        <time>2019-10-10T12:49:03.738Z</time>
      </trkpt>
      <trkpt lat="46.5618" lon="5.45269">
        <ele>477</ele>
        <time>2019-10-10T12:49:08.726Z</time>
      </trkpt>
      <trkpt lat="46.56181" lon="5.45265">
        <ele>469</ele>
        <time>2019-10-10T12:49:12.738Z</time>
      </trkpt>
      <trkpt lat="46.56184" lon="5.45259">
        <ele>468</ele>
        <time>2019-10-10T12:49:17.728Z</time>
      </trkpt>
      <trkpt lat="46.56187" lon="5.45252">
        <ele>468</ele>
        <time>2019-10-10T12:49:21.744Z</time>
      </trkpt>
      <trkpt lat="46.5619" lon="5.45245">
        <ele>468</ele>
        <time>2019-10-10T12:49:26.738Z</time>
      </trkpt>
      <trkpt lat="46.56193" lon="5.45239">
        <ele>468</ele>
        <time>2019-10-10T12:49:31.726Z</time>
      </trkpt>
      <trkpt lat="46.56194" lon="5.45237">
        <ele>468</ele>
        <time>2019-10-10T12:49:36.730Z</time>
      </trkpt>
      <trkpt lat="46.56198" lon="5.4523">
        <ele>467</ele>
        <time>2019-10-10T12:49:40.743Z</time>
      </trkpt>
      <trkpt lat="46.56203" lon="5.45222">
        <ele>467</ele>
        <time>2019-10-10T12:49:45.724Z</time>
      </trkpt>
      <trkpt lat="46.56206" lon="5.45217">
        <ele>467</ele>
        <time>2019-10-10T12:49:49.736Z</time>
      </trkpt>
      <trkpt lat="46.56208" lon="5.45211">
        <ele>467</ele>
        <time>2019-10-10T12:49:54.741Z</time>
      </trkpt>
      <trkpt lat="46.56211" lon="5.45203">
        <ele>463</ele>
        <time>2019-10-10T12:49:59.743Z</time>
      </trkpt>
      <trkpt lat="46.56212" lon="5.45195">
        <ele>463</ele>
        <time>2019-10-10T12:50:04.723Z</time>
      </trkpt>
      <trkpt lat="46.56217" lon="5.45189">
        <ele>463</ele>
        <time>2019-10-10T12:50:09.736Z</time>
      </trkpt>
      <trkpt lat="46.56219" lon="5.45183">
        <ele>463</ele>
        <time>2019-10-10T12:50:14.727Z</time>
      </trkpt>
      <trkpt lat="46.56222" lon="5.4518">
        <ele>466</ele>
        <time>2019-10-10T12:50:18.740Z</time>
      </trkpt>
      <trkpt lat="46.56225" lon="5.45176">
        <ele>466</ele>
        <time>2019-10-10T12:50:23.727Z</time>
      </trkpt>
      <trkpt lat="46.56228" lon="5.45171">
        <ele>466</ele>
        <time>2019-10-10T12:50:27.743Z</time>
      </trkpt>
      <trkpt lat="46.56233" lon="5.45164">
        <ele>466</ele>
        <time>2019-10-10T12:50:32.739Z</time>
      </trkpt>
      <trkpt lat="46.56237" lon="5.45155">
        <ele>465</ele>
        <time>2019-10-10T12:50:37.720Z</time>
      </trkpt>
      <trkpt lat="46.56238" lon="5.45147">
        <ele>466</ele>
        <time>2019-10-10T12:50:41.722Z</time>
      </trkpt>
      <trkpt lat="46.56235" lon="5.45142">
        <ele>465</ele>
        <time>2019-10-10T12:50:45.732Z</time>
      </trkpt>
      <trkpt lat="46.56233" lon="5.45137">
        <ele>465</ele>
        <time>2019-10-10T12:50:49.742Z</time>
      </trkpt>
      <trkpt lat="46.56232" lon="5.45129">
        <ele>465</ele>
        <time>2019-10-10T12:50:54.733Z</time>
      </trkpt>
      <trkpt lat="46.5623" lon="5.45125">
        <ele>465</ele>
        <time>2019-10-10T12:50:58.751Z</time>
      </trkpt>
      <trkpt lat="46.56231" lon="5.45117">
        <ele>464</ele>
        <time>2019-10-10T12:51:03.757Z</time>
      </trkpt>
      <trkpt lat="46.56232" lon="5.45109">
        <ele>464</ele>
        <time>2019-10-10T12:51:08.747Z</time>
      </trkpt>
      <trkpt lat="46.56233" lon="5.451">
        <ele>464</ele>
        <time>2019-10-10T12:51:13.746Z</time>
      </trkpt>
      <trkpt lat="46.56232" lon="5.45092">
        <ele>464</ele>
        <time>2019-10-10T12:51:18.747Z</time>
      </trkpt>
      <trkpt lat="46.5623" lon="5.45084">
        <ele>464</ele>
        <time>2019-10-10T12:51:23.743Z</time>
      </trkpt>
      <trkpt lat="46.5623" lon="5.45077">
        <ele>464</ele>
        <time>2019-10-10T12:51:28.740Z</time>
      </trkpt>
      <trkpt lat="46.56232" lon="5.45069">
        <ele>464</ele>
        <time>2019-10-10T12:51:33.745Z</time>
      </trkpt>
      <trkpt lat="46.56235" lon="5.45064">
        <ele>464</ele>
        <time>2019-10-10T12:51:38.740Z</time>
      </trkpt>
      <trkpt lat="46.56239" lon="5.45061">
        <ele>468</ele>
        <time>2019-10-10T12:51:43.741Z</time>
      </trkpt>
      <trkpt lat="46.56242" lon="5.4506">
        <ele>468</ele>
        <time>2019-10-10T12:51:48.743Z</time>
      </trkpt>
      <trkpt lat="46.56245" lon="5.45059">
        <ele>468</ele>
        <time>2019-10-10T12:51:52.760Z</time>
      </trkpt>
      <trkpt lat="46.56249" lon="5.45056">
        <ele>468</ele>
        <time>2019-10-10T12:51:57.744Z</time>
      </trkpt>
      <trkpt lat="46.56253" lon="5.45051">
        <ele>468</ele>
        <time>2019-10-10T12:52:02.746Z</time>
      </trkpt>
      <trkpt lat="46.56258" lon="5.45049">
        <ele>468</ele>
        <time>2019-10-10T12:52:07.761Z</time>
      </trkpt>
      <trkpt lat="46.56262" lon="5.45048">
        <ele>468</ele>
        <time>2019-10-10T12:52:12.748Z</time>
      </trkpt>
      <trkpt lat="46.56266" lon="5.4505">
        <ele>470</ele>
        <time>2019-10-10T12:52:17.751Z</time>
      </trkpt>
      <trkpt lat="46.56272" lon="5.45051">
        <ele>470</ele>
        <time>2019-10-10T12:52:22.743Z</time>
      </trkpt>
      <trkpt lat="46.56277" lon="5.45052">
        <ele>470</ele>
        <time>2019-10-10T12:52:26.753Z</time>
      </trkpt>
      <trkpt lat="46.56283" lon="5.45052">
        <ele>470</ele>
        <time>2019-10-10T12:52:31.750Z</time>
      </trkpt>
      <trkpt lat="46.56288" lon="5.45053">
        <ele>470</ele>
        <time>2019-10-10T12:52:36.745Z</time>
      </trkpt>
      <trkpt lat="46.56293" lon="5.45054">
        <ele>475</ele>
        <time>2019-10-10T12:52:41.746Z</time>
      </trkpt>
      <trkpt lat="46.56298" lon="5.45054">
        <ele>475</ele>
        <time>2019-10-10T12:52:46.747Z</time>
      </trkpt>
      <trkpt lat="46.56303" lon="5.45055">
        <ele>475</ele>
        <time>2019-10-10T12:52:51.745Z</time>
      </trkpt>
      <trkpt lat="46.56309" lon="5.45056">
        <ele>475</ele>
        <time>2019-10-10T12:52:56.747Z</time>
      </trkpt>
      <trkpt lat="46.56314" lon="5.45057">
        <ele>475</ele>
        <time>2019-10-10T12:53:01.750Z</time>
      </trkpt>
      <trkpt lat="46.56318" lon="5.45058">
        <ele>475</ele>
        <time>2019-10-10T12:53:06.749Z</time>
      </trkpt>
      <trkpt lat="46.56322" lon="5.45058">
        <ele>481</ele>
        <time>2019-10-10T12:53:11.748Z</time>
      </trkpt>
      <trkpt lat="46.56327" lon="5.45059">
        <ele>481</ele>
        <time>2019-10-10T12:53:16.746Z</time>
      </trkpt>
      <trkpt lat="46.5633" lon="5.4506">
        <ele>481</ele>
        <time>2019-10-10T12:53:20.755Z</time>
      </trkpt>
      <trkpt lat="46.56334" lon="5.45059">
        <ele>481</ele>
        <time>2019-10-10T12:53:25.753Z</time>
      </trkpt>
      <trkpt lat="46.5634" lon="5.45057">
        <ele>481</ele>
        <time>2019-10-10T12:53:30.754Z</time>
      </trkpt>
      <trkpt lat="46.56345" lon="5.45056">
        <ele>481</ele>
        <time>2019-10-10T12:53:35.754Z</time>
      </trkpt>
      <trkpt lat="46.56351" lon="5.45054">
        <ele>483</ele>
        <time>2019-10-10T12:53:40.757Z</time>
      </trkpt>
      <trkpt lat="46.56356" lon="5.45055">
        <ele>483</ele>
        <time>2019-10-10T12:53:45.755Z</time>
      </trkpt>
      <trkpt lat="46.5636" lon="5.45053">
        <ele>483</ele>
        <time>2019-10-10T12:53:49.760Z</time>
      </trkpt>
      <trkpt lat="46.56363" lon="5.45052">
        <ele>483</ele>
        <time>2019-10-10T12:53:54.752Z</time>
      </trkpt>
      <trkpt lat="46.56365" lon="5.45051">
        <ele>483</ele>
        <time>2019-10-10T12:53:58.756Z</time>
      </trkpt>
      <trkpt lat="46.5637" lon="5.45049">
        <ele>483</ele>
        <time>2019-10-10T12:54:03.755Z</time>
      </trkpt>
      <trkpt lat="46.56371" lon="5.45049">
        <ele>483</ele>
        <time>2019-10-10T12:54:08.753Z</time>
      </trkpt>
      <trkpt lat="46.56375" lon="5.45047">
        <ele>485</ele>
        <time>2019-10-10T12:54:13.754Z</time>
      </trkpt>
      <trkpt lat="46.5638" lon="5.45046">
        <ele>485</ele>
        <time>2019-10-10T12:54:18.756Z</time>
      </trkpt>
      <trkpt lat="46.56384" lon="5.45046">
        <ele>485</ele>
        <time>2019-10-10T12:54:23.754Z</time>
      </trkpt>
      <trkpt lat="46.56392" lon="5.45046">
        <ele>485</ele>
        <time>2019-10-10T12:54:28.754Z</time>
      </trkpt>
      <trkpt lat="46.564" lon="5.4504">
        <ele>491</ele>
        <time>2019-10-10T12:54:33.759Z</time>
      </trkpt>
      <trkpt lat="46.56404" lon="5.45037">
        <ele>494</ele>
        <time>2019-10-10T12:54:38.755Z</time>
      </trkpt>
      <trkpt lat="46.56407" lon="5.45036">
        <ele>494</ele>
        <time>2019-10-10T12:54:43.755Z</time>
      </trkpt>
      <trkpt lat="46.5641" lon="5.45036">
        <ele>494</ele>
        <time>2019-10-10T12:54:48.754Z</time>
      </trkpt>
      <trkpt lat="46.56414" lon="5.45035">
        <ele>494</ele>
        <time>2019-10-10T12:54:53.756Z</time>
      </trkpt>
      <trkpt lat="46.56417" lon="5.45033">
        <ele>494</ele>
        <time>2019-10-10T12:54:58.753Z</time>
      </trkpt>
      <trkpt lat="46.56418" lon="5.45033">
        <ele>494</ele>
        <time>2019-10-10T12:55:03.753Z</time>
      </trkpt>
      <trkpt lat="46.56422" lon="5.45032">
        <ele>494</ele>
        <time>2019-10-10T12:55:07.764Z</time>
      </trkpt>
      <trkpt lat="46.56426" lon="5.45032">
        <ele>494</ele>
        <time>2019-10-10T12:55:12.757Z</time>
      </trkpt>
      <trkpt lat="46.56428" lon="5.45032">
        <ele>494</ele>
        <time>2019-10-10T12:55:17.758Z</time>
      </trkpt>
      <trkpt lat="46.56433" lon="5.45026">
        <ele>495</ele>
        <time>2019-10-10T12:55:22.759Z</time>
      </trkpt>
      <trkpt lat="46.56439" lon="5.45023">
        <ele>495</ele>
        <time>2019-10-10T12:55:27.757Z</time>
      </trkpt>
      <trkpt lat="46.56444" lon="5.45024">
        <ele>495</ele>
        <time>2019-10-10T12:55:32.753Z</time>
      </trkpt>
      <trkpt lat="46.5645" lon="5.45017">
        <ele>495</ele>
        <time>2019-10-10T12:55:37.760Z</time>
      </trkpt>
      <trkpt lat="46.56464" lon="5.45008">
        <ele>497</ele>
        <time>2019-10-10T12:55:57.767Z</time>
      </trkpt>
      <trkpt lat="46.56464" lon="5.45007">
        <ele>497</ele>
        <time>2019-10-10T12:56:02.745Z</time>
      </trkpt>
      <trkpt lat="46.56465" lon="5.45007">
        <ele>497</ele>
        <time>2019-10-10T12:56:06.774Z</time>
      </trkpt>
      <trkpt lat="46.56465" lon="5.45007">
        <ele>497</ele>
        <time>2019-10-10T12:56:11.756Z</time>
      </trkpt>
      <trkpt lat="46.56467" lon="5.45006">
        <ele>497</ele>
        <time>2019-10-10T12:56:16.753Z</time>
      </trkpt>
      <trkpt lat="46.56474" lon="5.44996">
        <ele>497</ele>
        <time>2019-10-10T12:56:45.751Z</time>
      </trkpt>
      <trkpt lat="46.56474" lon="5.44996">
        <ele>497</ele>
        <time>2019-10-10T12:56:49.748Z</time>
      </trkpt>
      <trkpt lat="46.56474" lon="5.44996">
        <ele>497</ele>
        <time>2019-10-10T12:56:54.755Z</time>
      </trkpt>
      <trkpt lat="46.56474" lon="5.44996">
        <ele>497</ele>
        <time>2019-10-10T12:56:59.755Z</time>
      </trkpt>
      <trkpt lat="46.56475" lon="5.44994">
        <ele>497</ele>
        <time>2019-10-10T12:57:04.753Z</time>
      </trkpt>
      <trkpt lat="46.56477" lon="5.44995">
        <ele>497</ele>
        <time>2019-10-10T12:57:18.761Z</time>
      </trkpt>
      <trkpt lat="46.56477" lon="5.44995">
        <ele>497</ele>
        <time>2019-10-10T12:57:23.756Z</time>
      </trkpt>
      <trkpt lat="46.56478" lon="5.44992">
        <ele>497</ele>
        <time>2019-10-10T12:57:28.757Z</time>
      </trkpt>
      <trkpt lat="46.56481" lon="5.4499">
        <ele>497</ele>
        <time>2019-10-10T12:57:33.756Z</time>
      </trkpt>
      <trkpt lat="46.56485" lon="5.44988">
        <ele>497</ele>
        <time>2019-10-10T12:57:38.754Z</time>
      </trkpt>
      <trkpt lat="46.56488" lon="5.44984">
        <ele>499</ele>
        <time>2019-10-10T12:57:43.754Z</time>
      </trkpt>
      <trkpt lat="46.56492" lon="5.44979">
        <ele>499</ele>
        <time>2019-10-10T12:57:48.754Z</time>
      </trkpt>
      <trkpt lat="46.56497" lon="5.44974">
        <ele>499</ele>
        <time>2019-10-10T12:57:53.754Z</time>
      </trkpt>
      <trkpt lat="46.56503" lon="5.44967">
        <ele>499</ele>
        <time>2019-10-10T12:57:58.749Z</time>
      </trkpt>
      <trkpt lat="46.56506" lon="5.44962">
        <ele>499</ele>
        <time>2019-10-10T12:58:02.756Z</time>
      </trkpt>
      <trkpt lat="46.56511" lon="5.44956">
        <ele>500</ele>
        <time>2019-10-10T12:58:07.758Z</time>
      </trkpt>
      <trkpt lat="46.56515" lon="5.44949">
        <ele>502</ele>
        <time>2019-10-10T12:58:12.745Z</time>
      </trkpt>
      <trkpt lat="46.56517" lon="5.44943">
        <ele>502</ele>
        <time>2019-10-10T12:58:17.743Z</time>
      </trkpt>
      <trkpt lat="46.56521" lon="5.44939">
        <ele>502</ele>
        <time>2019-10-10T12:58:22.747Z</time>
      </trkpt>
      <trkpt lat="46.56525" lon="5.44933">
        <ele>502</ele>
        <time>2019-10-10T12:58:27.747Z</time>
      </trkpt>
      <trkpt lat="46.56527" lon="5.44927">
        <ele>503</ele>
        <time>2019-10-10T12:58:32.746Z</time>
      </trkpt>
      <trkpt lat="46.56529" lon="5.44923">
        <ele>503</ele>
        <time>2019-10-10T12:58:37.748Z</time>
      </trkpt>
      <trkpt lat="46.56531" lon="5.44917">
        <ele>503</ele>
        <time>2019-10-10T12:58:42.745Z</time>
      </trkpt>
      <trkpt lat="46.56533" lon="5.44912">
        <ele>503</ele>
        <time>2019-10-10T12:58:47.747Z</time>
      </trkpt>
      <trkpt lat="46.56534" lon="5.44908">
        <ele>503</ele>
        <time>2019-10-10T12:58:52.743Z</time>
      </trkpt>
      <trkpt lat="46.56534" lon="5.44903">
        <ele>503</ele>
        <time>2019-10-10T12:58:57.744Z</time>
      </trkpt>
      <trkpt lat="46.56536" lon="5.44896">
        <ele>503</ele>
        <time>2019-10-10T12:59:01.752Z</time>
      </trkpt>
      <trkpt lat="46.56538" lon="5.44889">
        <ele>503</ele>
        <time>2019-10-10T12:59:06.743Z</time>
      </trkpt>
      <trkpt lat="46.56539" lon="5.44882">
        <ele>503</ele>
        <time>2019-10-10T12:59:11.746Z</time>
      </trkpt>
      <trkpt lat="46.5654" lon="5.44875">
        <ele>503</ele>
        <time>2019-10-10T12:59:16.750Z</time>
      </trkpt>
      <trkpt lat="46.5654" lon="5.44868">
        <ele>504</ele>
        <time>2019-10-10T12:59:21.752Z</time>
      </trkpt>
      <trkpt lat="46.56543" lon="5.4486">
        <ele>495</ele>
        <time>2019-10-10T12:59:26.753Z</time>
      </trkpt>
      <trkpt lat="46.56546" lon="5.44856">
        <ele>495</ele>
        <time>2019-10-10T12:59:31.748Z</time>
      </trkpt>
      <trkpt lat="46.56545" lon="5.44851">
        <ele>495</ele>
        <time>2019-10-10T12:59:36.746Z</time>
      </trkpt>
      <trkpt lat="46.56544" lon="5.44839">
        <ele>488</ele>
        <time>2019-10-10T12:59:46.748Z</time>
      </trkpt>
      <trkpt lat="46.56544" lon="5.44839">
        <ele>488</ele>
        <time>2019-10-10T12:59:51.745Z</time>
      </trkpt>
      <trkpt lat="46.56544" lon="5.44837">
        <ele>488</ele>
        <time>2019-10-10T12:59:56.744Z</time>
      </trkpt>
      <trkpt lat="46.56543" lon="5.44834">
        <ele>488</ele>
        <time>2019-10-10T13:00:01.742Z</time>
      </trkpt>
      <trkpt lat="46.5654" lon="5.44829">
        <ele>501</ele>
        <time>2019-10-10T13:00:06.746Z</time>
      </trkpt>
      <trkpt lat="46.56538" lon="5.44826">
        <ele>501</ele>
        <time>2019-10-10T13:00:11.750Z</time>
      </trkpt>
      <trkpt lat="46.56537" lon="5.44821">
        <ele>501</ele>
        <time>2019-10-10T13:00:16.750Z</time>
      </trkpt>
      <trkpt lat="46.56536" lon="5.44816">
        <ele>496</ele>
        <time>2019-10-10T13:00:21.746Z</time>
      </trkpt>
      <trkpt lat="46.56536" lon="5.44806">
        <ele>496</ele>
        <time>2019-10-10T13:00:26.751Z</time>
      </trkpt>
      <trkpt lat="46.56534" lon="5.44794">
        <ele>496</ele>
        <time>2019-10-10T13:00:55.754Z</time>
      </trkpt>
      <trkpt lat="46.56534" lon="5.44793">
        <ele>496</ele>
        <time>2019-10-10T13:01:00.753Z</time>
      </trkpt>
      <trkpt lat="46.56534" lon="5.44789">
        <ele>487</ele>
        <time>2019-10-10T13:01:05.752Z</time>
      </trkpt>
      <trkpt lat="46.56534" lon="5.44788">
        <ele>487</ele>
        <time>2019-10-10T13:01:10.746Z</time>
      </trkpt>
      <trkpt lat="46.56534" lon="5.44786">
        <ele>487</ele>
        <time>2019-10-10T13:01:15.749Z</time>
      </trkpt>
      <trkpt lat="46.56531" lon="5.44777">
        <ele>487</ele>
        <time>2019-10-10T13:01:25.749Z</time>
      </trkpt>
      <trkpt lat="46.56531" lon="5.44776">
        <ele>487</ele>
        <time>2019-10-10T13:01:30.749Z</time>
      </trkpt>
      <trkpt lat="46.56531" lon="5.44775">
        <ele>487</ele>
        <time>2019-10-10T13:01:35.745Z</time>
      </trkpt>
      <trkpt lat="46.56531" lon="5.44769">
        <ele>487</ele>
        <time>2019-10-10T13:01:40.745Z</time>
      </trkpt>
      <trkpt lat="46.5653" lon="5.44768">
        <ele>487</ele>
        <time>2019-10-10T13:01:45.750Z</time>
      </trkpt>
      <trkpt lat="46.56531" lon="5.44766">
        <ele>487</ele>
        <time>2019-10-10T13:01:50.740Z</time>
      </trkpt>
      <trkpt lat="46.5653" lon="5.4476">
        <ele>479</ele>
        <time>2019-10-10T13:01:55.747Z</time>
      </trkpt>
      <trkpt lat="46.5653" lon="5.44755">
        <ele>479</ele>
        <time>2019-10-10T13:02:00.751Z</time>
      </trkpt>
      <trkpt lat="46.56529" lon="5.44753">
        <ele>479</ele>
        <time>2019-10-10T13:02:05.749Z</time>
      </trkpt>
      <trkpt lat="46.56528" lon="5.44744">
        <ele>479</ele>
        <time>2019-10-10T13:02:10.742Z</time>
      </trkpt>
      <trkpt lat="46.56527" lon="5.44741">
        <ele>479</ele>
        <time>2019-10-10T13:02:15.748Z</time>
      </trkpt>
      <trkpt lat="46.56525" lon="5.44732">
        <ele>469</ele>
        <time>2019-10-10T13:02:20.745Z</time>
      </trkpt>
      <trkpt lat="46.56522" lon="5.44723">
        <ele>469</ele>
        <time>2019-10-10T13:02:25.753Z</time>
      </trkpt>
      <trkpt lat="46.56521" lon="5.4472">
        <ele>469</ele>
        <time>2019-10-10T13:02:30.749Z</time>
      </trkpt>
      <trkpt lat="46.5652" lon="5.44717">
        <ele>469</ele>
        <time>2019-10-10T13:02:35.745Z</time>
      </trkpt>
      <trkpt lat="46.5652" lon="5.44714">
        <ele>469</ele>
        <time>2019-10-10T13:02:39.753Z</time>
      </trkpt>
      <trkpt lat="46.56518" lon="5.44707">
        <ele>460</ele>
        <time>2019-10-10T13:02:44.744Z</time>
      </trkpt>
      <trkpt lat="46.56518" lon="5.44701">
        <ele>460</ele>
        <time>2019-10-10T13:02:49.751Z</time>
      </trkpt>
      <trkpt lat="46.56518" lon="5.44692">
        <ele>460</ele>
        <time>2019-10-10T13:02:54.750Z</time>
      </trkpt>
      <trkpt lat="46.56515" lon="5.44683">
        <ele>460</ele>
        <time>2019-10-10T13:02:59.749Z</time>
      </trkpt>
      <trkpt lat="46.56511" lon="5.44677">
        <ele>469</ele>
        <time>2019-10-10T13:03:04.747Z</time>
      </trkpt>
      <trkpt lat="46.5651" lon="5.44661">
        <ele>469</ele>
        <time>2019-10-10T13:03:29.742Z</time>
      </trkpt>
      <trkpt lat="46.5651" lon="5.44656">
        <ele>469</ele>
        <time>2019-10-10T13:03:33.752Z</time>
      </trkpt>
      <trkpt lat="46.56509" lon="5.44648">
        <ele>459</ele>
        <time>2019-10-10T13:03:38.752Z</time>
      </trkpt>
      <trkpt lat="46.56506" lon="5.4464">
        <ele>459</ele>
        <time>2019-10-10T13:03:43.751Z</time>
      </trkpt>
      <trkpt lat="46.56505" lon="5.44635">
        <ele>459</ele>
        <time>2019-10-10T13:03:48.752Z</time>
      </trkpt>
      <trkpt lat="46.56502" lon="5.44631">
        <ele>459</ele>
        <time>2019-10-10T13:03:53.750Z</time>
      </trkpt>
      <trkpt lat="46.56499" lon="5.44625">
        <ele>450</ele>
        <time>2019-10-10T13:03:58.753Z</time>
      </trkpt>
      <trkpt lat="46.56498" lon="5.44621">
        <ele>450</ele>
        <time>2019-10-10T13:04:03.750Z</time>
      </trkpt>
      <trkpt lat="46.56498" lon="5.44619">
        <ele>450</ele>
        <time>2019-10-10T13:04:08.753Z</time>
      </trkpt>
      <trkpt lat="46.56497" lon="5.44619">
        <ele>450</ele>
        <time>2019-10-10T13:04:13.754Z</time>
      </trkpt>
      <trkpt lat="46.56493" lon="5.44618">
        <ele>450</ele>
        <time>2019-10-10T13:04:43.758Z</time>
      </trkpt>
      <trkpt lat="46.56492" lon="5.44613">
        <ele>450</ele>
        <time>2019-10-10T13:04:48.755Z</time>
      </trkpt>
      <trkpt lat="46.56491" lon="5.44608">
        <ele>450</ele>
        <time>2019-10-10T13:04:53.755Z</time>
      </trkpt>
      <trkpt lat="46.56488" lon="5.44602">
        <ele>450</ele>
        <time>2019-10-10T13:04:58.753Z</time>
      </trkpt>
      <trkpt lat="46.56487" lon="5.44598">
        <ele>450</ele>
        <time>2019-10-10T13:05:03.755Z</time>
      </trkpt>
      <trkpt lat="46.56485" lon="5.44596">
        <ele>455</ele>
        <time>2019-10-10T13:05:07.758Z</time>
      </trkpt>
      <trkpt lat="46.56485" lon="5.44592">
        <ele>455</ele>
        <time>2019-10-10T13:05:12.752Z</time>
      </trkpt>
      <trkpt lat="46.56482" lon="5.44587">
        <ele>455</ele>
        <time>2019-10-10T13:05:17.754Z</time>
      </trkpt>
      <trkpt lat="46.56482" lon="5.4458">
        <ele>455</ele>
        <time>2019-10-10T13:05:22.753Z</time>
      </trkpt>
      <trkpt lat="46.5648" lon="5.44575">
        <ele>455</ele>
        <time>2019-10-10T13:05:27.753Z</time>
      </trkpt>
      <trkpt lat="46.56477" lon="5.44569">
        <ele>447</ele>
        <time>2019-10-10T13:05:32.757Z</time>
      </trkpt>
      <trkpt lat="46.56475" lon="5.44562">
        <ele>447</ele>
        <time>2019-10-10T13:05:37.752Z</time>
      </trkpt>
      <trkpt lat="46.56473" lon="5.44557">
        <ele>447</ele>
        <time>2019-10-10T13:05:42.749Z</time>
      </trkpt>
      <trkpt lat="46.5647" lon="5.44547">
        <ele>447</ele>
        <time>2019-10-10T13:06:37.754Z</time>
      </trkpt>
      <trkpt lat="46.56472" lon="5.44548">
        <ele>447</ele>
        <time>2019-10-10T13:06:42.756Z</time>
      </trkpt>
      <trkpt lat="46.56476" lon="5.44547">
        <ele>447</ele>
        <time>2019-10-10T13:06:47.755Z</time>
      </trkpt>
      <trkpt lat="46.56481" lon="5.44549">
        <ele>447</ele>
        <time>2019-10-10T13:06:52.753Z</time>
      </trkpt>
      <trkpt lat="46.56485" lon="5.44553">
        <ele>447</ele>
        <time>2019-10-10T13:06:57.750Z</time>
      </trkpt>
      <trkpt lat="46.56488" lon="5.44554">
        <ele>435</ele>
        <time>2019-10-10T13:07:02.754Z</time>
      </trkpt>
      <trkpt lat="46.56492" lon="5.44559">
        <ele>435</ele>
        <time>2019-10-10T13:07:07.755Z</time>
      </trkpt>
      <trkpt lat="46.56496" lon="5.44567">
        <ele>435</ele>
        <time>2019-10-10T13:07:12.753Z</time>
      </trkpt>
      <trkpt lat="46.56497" lon="5.44571">
        <ele>442</ele>
        <time>2019-10-10T13:07:17.751Z</time>
      </trkpt>
      <trkpt lat="46.565" lon="5.44576">
        <ele>442</ele>
        <time>2019-10-10T13:07:22.753Z</time>
      </trkpt>
      <trkpt lat="46.56504" lon="5.44582">
        <ele>442</ele>
        <time>2019-10-10T13:07:27.752Z</time>
      </trkpt>
      <trkpt lat="46.56504" lon="5.44588">
        <ele>442</ele>
        <time>2019-10-10T13:07:32.755Z</time>
      </trkpt>
      <trkpt lat="46.56506" lon="5.44593">
        <ele>442</ele>
        <time>2019-10-10T13:07:37.754Z</time>
      </trkpt>
      <trkpt lat="46.5651" lon="5.44598">
        <ele>450</ele>
        <time>2019-10-10T13:07:42.751Z</time>
      </trkpt>
      <trkpt lat="46.56511" lon="5.44603">
        <ele>450</ele>
        <time>2019-10-10T13:07:47.757Z</time>
      </trkpt>
      <trkpt lat="46.56512" lon="5.4461">
        <ele>450</ele>
        <time>2019-10-10T13:07:52.752Z</time>
      </trkpt>
      <trkpt lat="46.56515" lon="5.44617">
        <ele>437</ele>
        <time>2019-10-10T13:07:57.755Z</time>
      </trkpt>
      <trkpt lat="46.56518" lon="5.44623">
        <ele>437</ele>
        <time>2019-10-10T13:08:02.753Z</time>
      </trkpt>
      <trkpt lat="46.56523" lon="5.44632">
        <ele>445</ele>
        <time>2019-10-10T13:08:07.753Z</time>
      </trkpt>
      <trkpt lat="46.56528" lon="5.44638">
        <ele>445</ele>
        <time>2019-10-10T13:08:12.751Z</time>
      </trkpt>
      <trkpt lat="46.56531" lon="5.44646">
        <ele>445</ele>
        <time>2019-10-10T13:08:17.751Z</time>
      </trkpt>
      <trkpt lat="46.56535" lon="5.4465">
        <ele>445</ele>
        <time>2019-10-10T13:08:22.753Z</time>
      </trkpt>
      <trkpt lat="46.56538" lon="5.44654">
        <ele>453</ele>
        <time>2019-10-10T13:08:27.752Z</time>
      </trkpt>
      <trkpt lat="46.56542" lon="5.44661">
        <ele>434</ele>
        <time>2019-10-10T13:08:32.758Z</time>
      </trkpt>
      <trkpt lat="46.56545" lon="5.44669">
        <ele>434</ele>
        <time>2019-10-10T13:08:37.751Z</time>
      </trkpt>
      <trkpt lat="46.56546" lon="5.44677">
        <ele>434</ele>
        <time>2019-10-10T13:08:41.760Z</time>
      </trkpt>
      <trkpt lat="46.5655" lon="5.44683">
        <ele>440</ele>
        <time>2019-10-10T13:08:46.754Z</time>
      </trkpt>
      <trkpt lat="46.56552" lon="5.44688">
        <ele>440</ele>
        <time>2019-10-10T13:08:51.754Z</time>
      </trkpt>
      <trkpt lat="46.56556" lon="5.44691">
        <ele>440</ele>
        <time>2019-10-10T13:08:56.753Z</time>
      </trkpt>
      <trkpt lat="46.56558" lon="5.44696">
        <ele>440</ele>
        <time>2019-10-10T13:09:01.751Z</time>
      </trkpt>
      <trkpt lat="46.5656" lon="5.44698">
        <ele>440</ele>
        <time>2019-10-10T13:09:06.754Z</time>
      </trkpt>
      <trkpt lat="46.56564" lon="5.44703">
        <ele>440</ele>
        <time>2019-10-10T13:09:11.751Z</time>
      </trkpt>
      <trkpt lat="46.56567" lon="5.44706">
        <ele>440</ele>
        <time>2019-10-10T13:09:16.754Z</time>
      </trkpt>
      <trkpt lat="46.5657" lon="5.44713">
        <ele>428</ele>
        <time>2019-10-10T13:09:21.755Z</time>
      </trkpt>
      <trkpt lat="46.56574" lon="5.44723">
        <ele>428</ele>
        <time>2019-10-10T13:09:26.753Z</time>
      </trkpt>
      <trkpt lat="46.56578" lon="5.44731">
        <ele>428</ele>
        <time>2019-10-10T13:09:31.752Z</time>
      </trkpt>
      <trkpt lat="46.5658" lon="5.44735">
        <ele>428</ele>
        <time>2019-10-10T13:09:36.750Z</time>
      </trkpt>
      <trkpt lat="46.56581" lon="5.44739">
        <ele>435</ele>
        <time>2019-10-10T13:09:41.765Z</time>
      </trkpt>
      <trkpt lat="46.56583" lon="5.44741">
        <ele>435</ele>
        <time>2019-10-10T13:09:46.752Z</time>
      </trkpt>
      <trkpt lat="46.56586" lon="5.44745">
        <ele>435</ele>
        <time>2019-10-10T13:09:51.754Z</time>
      </trkpt>
      <trkpt lat="46.56589" lon="5.44751">
        <ele>435</ele>
        <time>2019-10-10T13:09:56.754Z</time>
      </trkpt>
      <trkpt lat="46.56591" lon="5.44758">
        <ele>435</ele>
        <time>2019-10-10T13:10:01.757Z</time>
      </trkpt>
      <trkpt lat="46.56591" lon="5.44762">
        <ele>435</ele>
        <time>2019-10-10T13:10:06.757Z</time>
      </trkpt>
      <trkpt lat="46.56594" lon="5.44762">
        <ele>435</ele>
        <time>2019-10-10T13:10:11.756Z</time>
      </trkpt>
      <trkpt lat="46.56597" lon="5.44767">
        <ele>443</ele>
        <time>2019-10-10T13:10:16.750Z</time>
      </trkpt>
      <trkpt lat="46.56598" lon="5.44769">
        <ele>427</ele>
        <time>2019-10-10T13:10:21.753Z</time>
      </trkpt>
      <trkpt lat="46.56603" lon="5.44775">
        <ele>427</ele>
        <time>2019-10-10T13:10:26.758Z</time>
      </trkpt>
      <trkpt lat="46.56607" lon="5.44775">
        <ele>427</ele>
        <time>2019-10-10T13:10:31.752Z</time>
      </trkpt>
      <trkpt lat="46.56607" lon="5.44776">
        <ele>427</ele>
        <time>2019-10-10T13:10:36.761Z</time>
      </trkpt>
      <trkpt lat="46.56609" lon="5.4478">
        <ele>427</ele>
        <time>2019-10-10T13:10:41.752Z</time>
      </trkpt>
      <trkpt lat="46.5661" lon="5.44786">
        <ele>427</ele>
        <time>2019-10-10T13:10:46.754Z</time>
      </trkpt>
      <trkpt lat="46.56611" lon="5.44787">
        <ele>427</ele>
        <time>2019-10-10T13:10:56.751Z</time>
      </trkpt>
      <trkpt lat="46.56614" lon="5.44787">
        <ele>427</ele>
        <time>2019-10-10T13:11:01.753Z</time>
      </trkpt>
      <trkpt lat="46.56616" lon="5.44783">
        <ele>427</ele>
        <time>2019-10-10T13:11:06.750Z</time>
      </trkpt>
      <trkpt lat="46.56617" lon="5.44786">
        <ele>427</ele>
        <time>2019-10-10T13:11:11.748Z</time>
      </trkpt>
      <trkpt lat="46.56619" lon="5.4479">
        <ele>427</ele>
        <time>2019-10-10T13:11:16.745Z</time>
      </trkpt>
      <trkpt lat="46.56619" lon="5.44791">
        <ele>427</ele>
        <time>2019-10-10T13:12:11.752Z</time>
      </trkpt>
      <trkpt lat="46.56619" lon="5.44802">
        <ele>438</ele>
        <time>2019-10-10T13:12:16.749Z</time>
      </trkpt>
      <trkpt lat="46.5662" lon="5.44803">
        <ele>438</ele>
        <time>2019-10-10T13:12:21.752Z</time>
      </trkpt>
      <trkpt lat="46.56623" lon="5.44804">
        <ele>438</ele>
        <time>2019-10-10T13:12:26.745Z</time>
      </trkpt>
      <trkpt lat="46.56627" lon="5.4481">
        <ele>425</ele>
        <time>2019-10-10T13:12:31.747Z</time>
      </trkpt>
      <trkpt lat="46.5663" lon="5.44815">
        <ele>425</ele>
        <time>2019-10-10T13:12:36.747Z</time>
      </trkpt>
      <trkpt lat="46.56634" lon="5.44819">
        <ele>425</ele>
        <time>2019-10-10T13:12:41.749Z</time>
      </trkpt>
      <trkpt lat="46.56638" lon="5.44824">
        <ele>436</ele>
        <time>2019-10-10T13:12:46.746Z</time>
      </trkpt>
      <trkpt lat="46.56643" lon="5.44827">
        <ele>436</ele>
        <time>2019-10-10T13:12:51.748Z</time>
      </trkpt>
      <trkpt lat="46.56646" lon="5.44834">
        <ele>436</ele>
        <time>2019-10-10T13:12:56.744Z</time>
      </trkpt>
      <trkpt lat="46.5665" lon="5.44837">
        <ele>436</ele>
        <time>2019-10-10T13:13:01.748Z</time>
      </trkpt>
      <trkpt lat="46.56657" lon="5.4484">
        <ele>427</ele>
        <time>2019-10-10T13:13:06.747Z</time>
      </trkpt>
      <trkpt lat="46.5666" lon="5.44843">
        <ele>427</ele>
        <time>2019-10-10T13:13:11.745Z</time>
      </trkpt>
      <trkpt lat="46.56666" lon="5.44847">
        <ele>427</ele>
        <time>2019-10-10T13:13:16.742Z</time>
      </trkpt>
      <trkpt lat="46.56671" lon="5.44854">
        <ele>437</ele>
        <time>2019-10-10T13:13:21.747Z</time>
      </trkpt>
      <trkpt lat="46.56674" lon="5.44856">
        <ele>437</ele>
        <time>2019-10-10T13:13:26.740Z</time>
      </trkpt>
      <trkpt lat="46.56677" lon="5.44858">
        <ele>437</ele>
        <time>2019-10-10T13:13:31.741Z</time>
      </trkpt>
      <trkpt lat="46.56682" lon="5.44861">
        <ele>429</ele>
        <time>2019-10-10T13:13:36.742Z</time>
      </trkpt>
      <trkpt lat="46.56688" lon="5.44866">
        <ele>429</ele>
        <time>2019-10-10T13:13:41.742Z</time>
      </trkpt>
      <trkpt lat="46.56692" lon="5.44867">
        <ele>429</ele>
        <time>2019-10-10T13:13:46.744Z</time>
      </trkpt>
      <trkpt lat="46.56699" lon="5.44869">
        <ele>429</ele>
        <time>2019-10-10T13:13:51.742Z</time>
      </trkpt>
      <trkpt lat="46.56703" lon="5.44875">
        <ele>440</ele>
        <time>2019-10-10T13:13:56.745Z</time>
      </trkpt>
      <trkpt lat="46.5671" lon="5.44877">
        <ele>427</ele>
        <time>2019-10-10T13:14:01.751Z</time>
      </trkpt>
      <trkpt lat="46.56715" lon="5.44875">
        <ele>427</ele>
        <time>2019-10-10T13:14:06.745Z</time>
      </trkpt>
      <trkpt lat="46.56718" lon="5.44877">
        <ele>427</ele>
        <time>2019-10-10T13:14:11.746Z</time>
      </trkpt>
      <trkpt lat="46.56725" lon="5.44881">
        <ele>427</ele>
        <time>2019-10-10T13:14:16.740Z</time>
      </trkpt>
      <trkpt lat="46.5673" lon="5.44882">
        <ele>427</ele>
        <time>2019-10-10T13:14:21.745Z</time>
      </trkpt>
      <trkpt lat="46.56733" lon="5.44885">
        <ele>427</ele>
        <time>2019-10-10T13:14:26.745Z</time>
      </trkpt>
      <trkpt lat="46.56737" lon="5.44886">
        <ele>417</ele>
        <time>2019-10-10T13:14:31.746Z</time>
      </trkpt>
      <trkpt lat="46.56743" lon="5.44883">
        <ele>417</ele>
        <time>2019-10-10T13:14:36.752Z</time>
      </trkpt>
      <trkpt lat="46.56749" lon="5.4488">
        <ele>417</ele>
        <time>2019-10-10T13:14:41.743Z</time>
      </trkpt>
      <trkpt lat="46.56753" lon="5.4488">
        <ele>417</ele>
        <time>2019-10-10T13:14:46.747Z</time>
      </trkpt>
      <trkpt lat="46.56759" lon="5.4488">
        <ele>417</ele>
        <time>2019-10-10T13:14:51.749Z</time>
      </trkpt>
      <trkpt lat="46.56767" lon="5.44876">
        <ele>413</ele>
        <time>2019-10-10T13:14:56.744Z</time>
      </trkpt>
      <trkpt lat="46.56771" lon="5.44871">
        <ele>408</ele>
        <time>2019-10-10T13:15:01.744Z</time>
      </trkpt>
      <trkpt lat="46.56776" lon="5.44871">
        <ele>408</ele>
        <time>2019-10-10T13:15:06.744Z</time>
      </trkpt>
      <trkpt lat="46.56779" lon="5.44866">
        <ele>408</ele>
        <time>2019-10-10T13:15:11.746Z</time>
      </trkpt>
      <trkpt lat="46.56782" lon="5.44863">
        <ele>408</ele>
        <time>2019-10-10T13:15:16.745Z</time>
      </trkpt>
      <trkpt lat="46.56785" lon="5.44861">
        <ele>408</ele>
        <time>2019-10-10T13:15:21.741Z</time>
      </trkpt>
      <trkpt lat="46.56788" lon="5.44857">
        <ele>408</ele>
        <time>2019-10-10T13:15:26.741Z</time>
      </trkpt>
      <trkpt lat="46.56792" lon="5.44855">
        <ele>408</ele>
        <time>2019-10-10T13:15:31.742Z</time>
      </trkpt>
      <trkpt lat="46.56795" lon="5.4485">
        <ele>401</ele>
        <time>2019-10-10T13:15:36.744Z</time>
      </trkpt>
      <trkpt lat="46.56798" lon="5.44848">
        <ele>401</ele>
        <time>2019-10-10T13:15:41.741Z</time>
      </trkpt>
      <trkpt lat="46.56801" lon="5.44846">
        <ele>396</ele>
        <time>2019-10-10T13:15:46.747Z</time>
      </trkpt>
      <trkpt lat="46.56804" lon="5.4485">
        <ele>401</ele>
        <time>2019-10-10T13:15:51.743Z</time>
      </trkpt>
      <trkpt lat="46.56807" lon="5.44852">
        <ele>401</ele>
        <time>2019-10-10T13:15:56.743Z</time>
      </trkpt>
      <trkpt lat="46.56811" lon="5.44854">
        <ele>401</ele>
        <time>2019-10-10T13:16:01.744Z</time>
      </trkpt>
      <trkpt lat="46.56814" lon="5.44861">
        <ele>401</ele>
        <time>2019-10-10T13:16:06.748Z</time>
      </trkpt>
      <trkpt lat="46.56818" lon="5.44865">
        <ele>401</ele>
        <time>2019-10-10T13:16:11.747Z</time>
      </trkpt>
      <trkpt lat="46.56821" lon="5.44865">
        <ele>394</ele>
        <time>2019-10-10T13:16:16.746Z</time>
      </trkpt>
      <trkpt lat="46.56828" lon="5.44864">
        <ele>394</ele>
        <time>2019-10-10T13:16:21.747Z</time>
      </trkpt>
      <trkpt lat="46.56837" lon="5.44873">
        <ele>394</ele>
        <time>2019-10-10T13:16:26.742Z</time>
      </trkpt>
      <trkpt lat="46.56839" lon="5.4488">
        <ele>399</ele>
        <time>2019-10-10T13:16:31.743Z</time>
      </trkpt>
      <trkpt lat="46.5684" lon="5.4488">
        <ele>399</ele>
        <time>2019-10-10T13:16:36.744Z</time>
      </trkpt>
      <trkpt lat="46.56841" lon="5.44882">
        <ele>399</ele>
        <time>2019-10-10T13:16:41.746Z</time>
      </trkpt>
      <trkpt lat="46.56844" lon="5.44884">
        <ele>399</ele>
        <time>2019-10-10T13:16:46.745Z</time>
      </trkpt>
      <trkpt lat="46.56849" lon="5.44886">
        <ele>393</ele>
        <time>2019-10-10T13:16:51.744Z</time>
      </trkpt>
      <trkpt lat="46.56854" lon="5.44891">
        <ele>393</ele>
        <time>2019-10-10T13:16:56.751Z</time>
      </trkpt>
      <trkpt lat="46.56858" lon="5.44894">
        <ele>393</ele>
        <time>2019-10-10T13:17:01.745Z</time>
      </trkpt>
      <trkpt lat="46.56861" lon="5.44893">
        <ele>393</ele>
        <time>2019-10-10T13:17:06.744Z</time>
      </trkpt>
      <trkpt lat="46.56869" lon="5.44897">
        <ele>393</ele>
        <time>2019-10-10T13:17:11.747Z</time>
      </trkpt>
      <trkpt lat="46.56875" lon="5.44898">
        <ele>393</ele>
        <time>2019-10-10T13:17:16.741Z</time>
      </trkpt>
      <trkpt lat="46.56878" lon="5.44899">
        <ele>386</ele>
        <time>2019-10-10T13:17:21.743Z</time>
      </trkpt>
      <trkpt lat="46.56884" lon="5.449">
        <ele>386</ele>
        <time>2019-10-10T13:17:26.745Z</time>
      </trkpt>
      <trkpt lat="46.56886" lon="5.44902">
        <ele>386</ele>
        <time>2019-10-10T13:17:31.748Z</time>
      </trkpt>
      <trkpt lat="46.5689" lon="5.44904">
        <ele>391</ele>
        <time>2019-10-10T13:17:36.746Z</time>
      </trkpt>
      <trkpt lat="46.56895" lon="5.44906">
        <ele>391</ele>
        <time>2019-10-10T13:17:41.746Z</time>
      </trkpt>
      <trkpt lat="46.56899" lon="5.44906">
        <ele>391</ele>
        <time>2019-10-10T13:17:46.748Z</time>
      </trkpt>
      <trkpt lat="46.56904" lon="5.44905">
        <ele>384</ele>
        <time>2019-10-10T13:17:51.747Z</time>
      </trkpt>
      <trkpt lat="46.56915" lon="5.44905">
        <ele>384</ele>
        <time>2019-10-10T13:18:16.745Z</time>
      </trkpt>
      <trkpt lat="46.56919" lon="5.44903">
        <ele>380</ele>
        <time>2019-10-10T13:18:21.744Z</time>
      </trkpt>
      <trkpt lat="46.56924" lon="5.44905">
        <ele>384</ele>
        <time>2019-10-10T13:18:26.750Z</time>
      </trkpt>
      <trkpt lat="46.56929" lon="5.44905">
        <ele>384</ele>
        <time>2019-10-10T13:18:31.747Z</time>
      </trkpt>
      <trkpt lat="46.56936" lon="5.44903">
        <ele>378</ele>
        <time>2019-10-10T13:18:36.742Z</time>
      </trkpt>
      <trkpt lat="46.56941" lon="5.449">
        <ele>373</ele>
        <time>2019-10-10T13:18:41.743Z</time>
      </trkpt>
      <trkpt lat="46.56944" lon="5.44899">
        <ele>373</ele>
        <time>2019-10-10T13:18:46.741Z</time>
      </trkpt>
      <trkpt lat="46.56945" lon="5.44898">
        <ele>373</ele>
        <time>2019-10-10T13:18:51.745Z</time>
      </trkpt>
      <trkpt lat="46.56946" lon="5.44899">
        <ele>373</ele>
        <time>2019-10-10T13:18:56.749Z</time>
      </trkpt>
      <trkpt lat="46.56951" lon="5.44892">
        <ele>373</ele>
        <time>2019-10-10T13:19:01.749Z</time>
      </trkpt>
      <trkpt lat="46.56957" lon="5.44887">
        <ele>373</ele>
        <time>2019-10-10T13:19:06.746Z</time>
      </trkpt>
      <trkpt lat="46.56962" lon="5.44884">
        <ele>367</ele>
        <time>2019-10-10T13:19:11.744Z</time>
      </trkpt>
      <trkpt lat="46.56964" lon="5.4488">
        <ele>367</ele>
        <time>2019-10-10T13:19:16.747Z</time>
      </trkpt>
      <trkpt lat="46.56967" lon="5.44876">
        <ele>367</ele>
        <time>2019-10-10T13:19:21.744Z</time>
      </trkpt>
      <trkpt lat="46.56969" lon="5.44862">
        <ele>359</ele>
        <time>2019-10-10T13:19:56.746Z</time>
      </trkpt>
      <trkpt lat="46.56969" lon="5.44861">
        <ele>359</ele>
        <time>2019-10-10T13:20:01.745Z</time>
      </trkpt>
      <trkpt lat="46.56973" lon="5.4486">
        <ele>359</ele>
        <time>2019-10-10T13:20:06.742Z</time>
      </trkpt>
      <trkpt lat="46.56976" lon="5.44857">
        <ele>359</ele>
        <time>2019-10-10T13:20:11.745Z</time>
      </trkpt>
      <trkpt lat="46.56979" lon="5.44852">
        <ele>359</ele>
        <time>2019-10-10T13:20:16.748Z</time>
      </trkpt>
      <trkpt lat="46.5698" lon="5.44852">
        <ele>359</ele>
        <time>2019-10-10T13:20:21.744Z</time>
      </trkpt>
      <trkpt lat="46.56979" lon="5.44852">
        <ele>359</ele>
        <time>2019-10-10T13:20:26.743Z</time>
      </trkpt>
      <trkpt lat="46.56985" lon="5.44856">
        <ele>359</ele>
        <time>2019-10-10T13:20:31.745Z</time>
      </trkpt>
      <trkpt lat="46.56988" lon="5.4486">
        <ele>357</ele>
        <time>2019-10-10T13:20:36.748Z</time>
      </trkpt>
      <trkpt lat="46.56988" lon="5.44858">
        <ele>357</ele>
        <time>2019-10-10T13:20:41.751Z</time>
      </trkpt>
      <trkpt lat="46.56986" lon="5.44856">
        <ele>359</ele>
        <time>2019-10-10T13:20:46.747Z</time>
      </trkpt>
      <trkpt lat="46.56984" lon="5.44853">
        <ele>359</ele>
        <time>2019-10-10T13:20:51.743Z</time>
      </trkpt>
      <trkpt lat="46.56982" lon="5.44852">
        <ele>359</ele>
        <time>2019-10-10T13:20:56.743Z</time>
      </trkpt>
      <trkpt lat="46.56982" lon="5.44849">
        <ele>359</ele>
        <time>2019-10-10T13:21:01.749Z</time>
      </trkpt>
      <trkpt lat="46.56979" lon="5.44854">
        <ele>359</ele>
        <time>2019-10-10T13:22:01.741Z</time>
      </trkpt>
      <trkpt lat="46.56979" lon="5.44855">
        <ele>359</ele>
        <time>2019-10-10T13:22:06.743Z</time>
      </trkpt>
      <trkpt lat="46.56979" lon="5.44855">
        <ele>359</ele>
        <time>2019-10-10T13:22:11.744Z</time>
      </trkpt>
      <trkpt lat="46.56979" lon="5.44855">
        <ele>359</ele>
        <time>2019-10-10T13:22:16.743Z</time>
      </trkpt>
      <trkpt lat="46.56979" lon="5.44855">
        <ele>359</ele>
        <time>2019-10-10T13:22:21.742Z</time>
      </trkpt>
      <trkpt lat="46.56983" lon="5.44853">
        <ele>359</ele>
        <time>2019-10-10T13:24:20.742Z</time>
      </trkpt>
      <trkpt lat="46.56983" lon="5.44853">
        <ele>359</ele>
        <time>2019-10-10T13:24:25.733Z</time>
      </trkpt>
      <trkpt lat="46.56984" lon="5.44853">
        <ele>359</ele>
        <time>2019-10-10T13:24:30.736Z</time>
      </trkpt>
      <trkpt lat="46.56987" lon="5.44856">
        <ele>357</ele>
        <time>2019-10-10T13:24:34.749Z</time>
      </trkpt>
      <trkpt lat="46.56993" lon="5.44859">
        <ele>357</ele>
        <time>2019-10-10T13:24:39.742Z</time>
      </trkpt>
      <trkpt lat="46.56997" lon="5.44859">
        <ele>357</ele>
        <time>2019-10-10T13:24:44.743Z</time>
      </trkpt>
      <trkpt lat="46.56999" lon="5.44857">
        <ele>357</ele>
        <time>2019-10-10T13:24:49.745Z</time>
      </trkpt>
      <trkpt lat="46.57002" lon="5.4485">
        <ele>357</ele>
        <time>2019-10-10T13:24:54.747Z</time>
      </trkpt>
      <trkpt lat="46.57002" lon="5.44848">
        <ele>357</ele>
        <time>2019-10-10T13:24:59.750Z</time>
      </trkpt>
      <trkpt lat="46.57003" lon="5.44837">
        <ele>349</ele>
        <time>2019-10-10T13:25:04.744Z</time>
      </trkpt>
      <trkpt lat="46.57001" lon="5.44829">
        <ele>349</ele>
        <time>2019-10-10T13:25:09.744Z</time>
      </trkpt>
      <trkpt lat="46.56997" lon="5.4482">
        <ele>349</ele>
        <time>2019-10-10T13:25:14.745Z</time>
      </trkpt>
      <trkpt lat="46.56993" lon="5.44813">
        <ele>343</ele>
        <time>2019-10-10T13:25:19.747Z</time>
      </trkpt>
      <trkpt lat="46.56988" lon="5.44808">
        <ele>343</ele>
        <time>2019-10-10T13:25:24.738Z</time>
      </trkpt>
      <trkpt lat="46.56984" lon="5.44802">
        <ele>346</ele>
        <time>2019-10-10T13:25:29.746Z</time>
      </trkpt>
      <trkpt lat="46.56978" lon="5.44797">
        <ele>346</ele>
        <time>2019-10-10T13:25:34.744Z</time>
      </trkpt>
      <trkpt lat="46.56972" lon="5.44793">
        <ele>346</ele>
        <time>2019-10-10T13:25:39.746Z</time>
      </trkpt>
      <trkpt lat="46.56967" lon="5.44788">
        <ele>343</ele>
        <time>2019-10-10T13:25:44.748Z</time>
      </trkpt>
      <trkpt lat="46.56962" lon="5.44782">
        <ele>343</ele>
        <time>2019-10-10T13:25:49.744Z</time>
      </trkpt>
      <trkpt lat="46.56961" lon="5.44776">
        <ele>343</ele>
        <time>2019-10-10T13:25:54.747Z</time>
      </trkpt>
      <trkpt lat="46.56961" lon="5.44771">
        <ele>343</ele>
        <time>2019-10-10T13:25:59.748Z</time>
      </trkpt>
      <trkpt lat="46.56963" lon="5.44765">
        <ele>343</ele>
        <time>2019-10-10T13:26:14.747Z</time>
      </trkpt>
      <trkpt lat="46.56963" lon="5.44765">
        <ele>343</ele>
        <time>2019-10-10T13:26:19.749Z</time>
      </trkpt>
      <trkpt lat="46.56964" lon="5.44763">
        <ele>339</ele>
        <time>2019-10-10T13:26:24.752Z</time>
      </trkpt>
      <trkpt lat="46.56965" lon="5.44762">
        <ele>339</ele>
        <time>2019-10-10T13:26:29.751Z</time>
      </trkpt>
      <trkpt lat="46.5697" lon="5.44763">
        <ele>339</ele>
        <time>2019-10-10T13:26:34.749Z</time>
      </trkpt>
      <trkpt lat="46.56975" lon="5.44765">
        <ele>343</ele>
        <time>2019-10-10T13:26:38.753Z</time>
      </trkpt>
      <trkpt lat="46.5698" lon="5.44766">
        <ele>343</ele>
        <time>2019-10-10T13:26:43.747Z</time>
      </trkpt>
      <trkpt lat="46.56982" lon="5.44767">
        <ele>343</ele>
        <time>2019-10-10T13:26:48.722Z</time>
      </trkpt>
      <trkpt lat="46.56982" lon="5.44768">
        <ele>343</ele>
        <time>2019-10-10T13:26:52.751Z</time>
      </trkpt>
      <trkpt lat="46.56988" lon="5.44772">
        <ele>340</ele>
        <time>2019-10-10T13:26:57.753Z</time>
      </trkpt>
      <trkpt lat="46.56992" lon="5.4478">
        <ele>340</ele>
        <time>2019-10-10T13:27:02.752Z</time>
      </trkpt>
      <trkpt lat="46.56995" lon="5.44787">
        <ele>340</ele>
        <time>2019-10-10T13:27:07.755Z</time>
      </trkpt>
      <trkpt lat="46.56996" lon="5.44794">
        <ele>343</ele>
        <time>2019-10-10T13:27:12.755Z</time>
      </trkpt>
      <trkpt lat="46.56999" lon="5.448">
        <ele>343</ele>
        <time>2019-10-10T13:27:17.755Z</time>
      </trkpt>
      <trkpt lat="46.57003" lon="5.44804">
        <ele>343</ele>
        <time>2019-10-10T13:27:22.752Z</time>
      </trkpt>
      <trkpt lat="46.57007" lon="5.44806">
        <ele>343</ele>
        <time>2019-10-10T13:27:27.752Z</time>
      </trkpt>
      <trkpt lat="46.57012" lon="5.44809">
        <ele>343</ele>
        <time>2019-10-10T13:27:32.752Z</time>
      </trkpt>
      <trkpt lat="46.57017" lon="5.44811">
        <ele>341</ele>
        <time>2019-10-10T13:27:37.751Z</time>
      </trkpt>
      <trkpt lat="46.57021" lon="5.44816">
        <ele>341</ele>
        <time>2019-10-10T13:27:42.751Z</time>
      </trkpt>
      <trkpt lat="46.57025" lon="5.4482">
        <ele>345</ele>
        <time>2019-10-10T13:27:47.755Z</time>
      </trkpt>
      <trkpt lat="46.57029" lon="5.44827">
        <ele>345</ele>
        <time>2019-10-10T13:27:52.750Z</time>
      </trkpt>
      <trkpt lat="46.57034" lon="5.44834">
        <ele>345</ele>
        <time>2019-10-10T13:27:57.758Z</time>
      </trkpt>
      <trkpt lat="46.57038" lon="5.44839">
        <ele>345</ele>
        <time>2019-10-10T13:28:02.749Z</time>
      </trkpt>
      <trkpt lat="46.57042" lon="5.44842">
        <ele>345</ele>
        <time>2019-10-10T13:28:07.751Z</time>
      </trkpt>
      <trkpt lat="46.57047" lon="5.44848">
        <ele>342</ele>
        <time>2019-10-10T13:28:12.753Z</time>
      </trkpt>
      <trkpt lat="46.57051" lon="5.44852">
        <ele>342</ele>
        <time>2019-10-10T13:28:17.753Z</time>
      </trkpt>
      <trkpt lat="46.57055" lon="5.44857">
        <ele>342</ele>
        <time>2019-10-10T13:28:22.749Z</time>
      </trkpt>
      <trkpt lat="46.57058" lon="5.44863">
        <ele>342</ele>
        <time>2019-10-10T13:28:27.752Z</time>
      </trkpt>
      <trkpt lat="46.57062" lon="5.44869">
        <ele>342</ele>
        <time>2019-10-10T13:28:32.756Z</time>
      </trkpt>
      <trkpt lat="46.57065" lon="5.44873">
        <ele>342</ele>
        <time>2019-10-10T13:28:37.754Z</time>
      </trkpt>
      <trkpt lat="46.57066" lon="5.44875">
        <ele>342</ele>
        <time>2019-10-10T13:28:42.752Z</time>
      </trkpt>
      <trkpt lat="46.57069" lon="5.4487">
        <ele>342</ele>
        <time>2019-10-10T13:28:47.751Z</time>
      </trkpt>
      <trkpt lat="46.57069" lon="5.44862">
        <ele>342</ele>
        <time>2019-10-10T13:28:52.751Z</time>
      </trkpt>
      <trkpt lat="46.5707" lon="5.44854">
        <ele>336</ele>
        <time>2019-10-10T13:28:57.753Z</time>
      </trkpt>
      <trkpt lat="46.57068" lon="5.44856">
        <ele>342</ele>
        <time>2019-10-10T13:29:12.753Z</time>
      </trkpt>
      <trkpt lat="46.57068" lon="5.44857">
        <ele>342</ele>
        <time>2019-10-10T13:29:17.756Z</time>
      </trkpt>
      <trkpt lat="46.57069" lon="5.44857">
        <ele>342</ele>
        <time>2019-10-10T13:29:22.751Z</time>
      </trkpt>
      <trkpt lat="46.57071" lon="5.44859">
        <ele>336</ele>
        <time>2019-10-10T13:29:27.753Z</time>
      </trkpt>
      <trkpt lat="46.57075" lon="5.44867">
        <ele>336</ele>
        <time>2019-10-10T13:29:32.770Z</time>
      </trkpt>
      <trkpt lat="46.5708" lon="5.44873">
        <ele>336</ele>
        <time>2019-10-10T13:29:37.754Z</time>
      </trkpt>
      <trkpt lat="46.57085" lon="5.44879">
        <ele>338</ele>
        <time>2019-10-10T13:29:42.753Z</time>
      </trkpt>
      <trkpt lat="46.57086" lon="5.44881">
        <ele>338</ele>
        <time>2019-10-10T13:29:46.767Z</time>
      </trkpt>
      <trkpt lat="46.57091" lon="5.44885">
        <ele>338</ele>
        <time>2019-10-10T13:29:51.756Z</time>
      </trkpt>
      <trkpt lat="46.57096" lon="5.44888">
        <ele>338</ele>
        <time>2019-10-10T13:29:56.753Z</time>
      </trkpt>
      <trkpt lat="46.571" lon="5.4489">
        <ele>333</ele>
        <time>2019-10-10T13:30:01.753Z</time>
      </trkpt>
      <trkpt lat="46.57106" lon="5.44893">
        <ele>333</ele>
        <time>2019-10-10T13:30:06.752Z</time>
      </trkpt>
      <trkpt lat="46.57109" lon="5.44896">
        <ele>333</ele>
        <time>2019-10-10T13:30:11.748Z</time>
      </trkpt>
      <trkpt lat="46.57114" lon="5.44898">
        <ele>333</ele>
        <time>2019-10-10T13:30:16.751Z</time>
      </trkpt>
      <trkpt lat="46.57116" lon="5.44902">
        <ele>333</ele>
        <time>2019-10-10T13:30:21.753Z</time>
      </trkpt>
      <trkpt lat="46.57118" lon="5.44903">
        <ele>334</ele>
        <time>2019-10-10T13:30:26.748Z</time>
      </trkpt>
      <trkpt lat="46.57119" lon="5.44904">
        <ele>334</ele>
        <time>2019-10-10T13:30:31.753Z</time>
      </trkpt>
      <trkpt lat="46.57122" lon="5.44904">
        <ele>334</ele>
        <time>2019-10-10T13:30:36.749Z</time>
      </trkpt>
      <trkpt lat="46.57128" lon="5.44908">
        <ele>329</ele>
        <time>2019-10-10T13:30:41.752Z</time>
      </trkpt>
      <trkpt lat="46.57129" lon="5.44911">
        <ele>329</ele>
        <time>2019-10-10T13:30:46.753Z</time>
      </trkpt>
      <trkpt lat="46.57134" lon="5.44917">
        <ele>329</ele>
        <time>2019-10-10T13:30:51.754Z</time>
      </trkpt>
      <trkpt lat="46.57138" lon="5.44922">
        <ele>329</ele>
        <time>2019-10-10T13:30:56.756Z</time>
      </trkpt>
      <trkpt lat="46.57143" lon="5.44926">
        <ele>329</ele>
        <time>2019-10-10T13:31:01.753Z</time>
      </trkpt>
      <trkpt lat="46.57148" lon="5.44933">
        <ele>332</ele>
        <time>2019-10-10T13:31:06.749Z</time>
      </trkpt>
      <trkpt lat="46.57151" lon="5.4494">
        <ele>332</ele>
        <time>2019-10-10T13:31:11.763Z</time>
      </trkpt>
      <trkpt lat="46.57153" lon="5.44944">
        <ele>332</ele>
        <time>2019-10-10T13:31:16.750Z</time>
      </trkpt>
      <trkpt lat="46.57153" lon="5.44949">
        <ele>328</ele>
        <time>2019-10-10T13:31:21.753Z</time>
      </trkpt>
      <trkpt lat="46.57154" lon="5.4495">
        <ele>328</ele>
        <time>2019-10-10T13:31:26.750Z</time>
      </trkpt>
      <trkpt lat="46.57154" lon="5.44954">
        <ele>328</ele>
        <time>2019-10-10T13:31:31.754Z</time>
      </trkpt>
      <trkpt lat="46.57158" lon="5.44957">
        <ele>328</ele>
        <time>2019-10-10T13:31:36.747Z</time>
      </trkpt>
      <trkpt lat="46.57161" lon="5.44958">
        <ele>328</ele>
        <time>2019-10-10T13:31:41.753Z</time>
      </trkpt>
      <trkpt lat="46.57169" lon="5.44961">
        <ele>331</ele>
        <time>2019-10-10T13:31:46.752Z</time>
      </trkpt>
      <trkpt lat="46.57176" lon="5.44962">
        <ele>331</ele>
        <time>2019-10-10T13:31:51.752Z</time>
      </trkpt>
      <trkpt lat="46.57179" lon="5.44965">
        <ele>331</ele>
        <time>2019-10-10T13:31:56.752Z</time>
      </trkpt>
      <trkpt lat="46.57185" lon="5.44969">
        <ele>329</ele>
        <time>2019-10-10T13:32:01.749Z</time>
      </trkpt>
      <trkpt lat="46.57192" lon="5.4497">
        <ele>329</ele>
        <time>2019-10-10T13:32:06.748Z</time>
      </trkpt>
      <trkpt lat="46.572" lon="5.44967">
        <ele>329</ele>
        <time>2019-10-10T13:32:11.755Z</time>
      </trkpt>
      <trkpt lat="46.57202" lon="5.44967">
        <ele>329</ele>
        <time>2019-10-10T13:32:16.748Z</time>
      </trkpt>
      <trkpt lat="46.57208" lon="5.44964">
        <ele>329</ele>
        <time>2019-10-10T13:32:21.751Z</time>
      </trkpt>
      <trkpt lat="46.57214" lon="5.4496">
        <ele>332</ele>
        <time>2019-10-10T13:32:26.754Z</time>
      </trkpt>
      <trkpt lat="46.5722" lon="5.44963">
        <ele>332</ele>
        <time>2019-10-10T13:32:31.755Z</time>
      </trkpt>
      <trkpt lat="46.57225" lon="5.44957">
        <ele>325</ele>
        <time>2019-10-10T13:32:36.750Z</time>
      </trkpt>
      <trkpt lat="46.57227" lon="5.44952">
        <ele>325</ele>
        <time>2019-10-10T13:32:41.749Z</time>
      </trkpt>
      <trkpt lat="46.57232" lon="5.44948">
        <ele>325</ele>
        <time>2019-10-10T13:32:46.748Z</time>
      </trkpt>
      <trkpt lat="46.5724" lon="5.44938">
        <ele>327</ele>
        <time>2019-10-10T13:32:51.747Z</time>
      </trkpt>
      <trkpt lat="46.57245" lon="5.44933">
        <ele>327</ele>
        <time>2019-10-10T13:32:56.753Z</time>
      </trkpt>
      <trkpt lat="46.5725" lon="5.44927">
        <ele>321</ele>
        <time>2019-10-10T13:33:01.752Z</time>
      </trkpt>
      <trkpt lat="46.57253" lon="5.44925">
        <ele>321</ele>
        <time>2019-10-10T13:33:06.751Z</time>
      </trkpt>
      <trkpt lat="46.57257" lon="5.4492">
        <ele>321</ele>
        <time>2019-10-10T13:33:11.749Z</time>
      </trkpt>
      <trkpt lat="46.5726" lon="5.44917">
        <ele>321</ele>
        <time>2019-10-10T13:33:16.751Z</time>
      </trkpt>
      <trkpt lat="46.57265" lon="5.44914">
        <ele>325</ele>
        <time>2019-10-10T13:33:21.750Z</time>
      </trkpt>
      <trkpt lat="46.57269" lon="5.44908">
        <ele>325</ele>
        <time>2019-10-10T13:33:26.748Z</time>
      </trkpt>
      <trkpt lat="46.57272" lon="5.44904">
        <ele>325</ele>
        <time>2019-10-10T13:33:31.747Z</time>
      </trkpt>
      <trkpt lat="46.57276" lon="5.44899">
        <ele>317</ele>
        <time>2019-10-10T13:33:36.751Z</time>
      </trkpt>
      <trkpt lat="46.57282" lon="5.44894">
        <ele>317</ele>
        <time>2019-10-10T13:33:41.743Z</time>
      </trkpt>
      <trkpt lat="46.57285" lon="5.44887">
        <ele>317</ele>
        <time>2019-10-10T13:33:46.751Z</time>
      </trkpt>
      <trkpt lat="46.57288" lon="5.44882">
        <ele>317</ele>
        <time>2019-10-10T13:33:51.750Z</time>
      </trkpt>
      <trkpt lat="46.57289" lon="5.44878">
        <ele>317</ele>
        <time>2019-10-10T13:33:56.749Z</time>
      </trkpt>
      <trkpt lat="46.57291" lon="5.44875">
        <ele>311</ele>
        <time>2019-10-10T13:34:01.746Z</time>
      </trkpt>
      <trkpt lat="46.57294" lon="5.4487">
        <ele>315</ele>
        <time>2019-10-10T13:34:06.750Z</time>
      </trkpt>
      <trkpt lat="46.57298" lon="5.44863">
        <ele>315</ele>
        <time>2019-10-10T13:34:11.750Z</time>
      </trkpt>
      <trkpt lat="46.57302" lon="5.44858">
        <ele>315</ele>
        <time>2019-10-10T13:34:16.751Z</time>
      </trkpt>
      <trkpt lat="46.57305" lon="5.44853">
        <ele>315</ele>
        <time>2019-10-10T13:34:21.751Z</time>
      </trkpt>
      <trkpt lat="46.57309" lon="5.44848">
        <ele>315</ele>
        <time>2019-10-10T13:34:26.754Z</time>
      </trkpt>
      <trkpt lat="46.5731" lon="5.44848">
        <ele>315</ele>
        <time>2019-10-10T13:34:31.750Z</time>
      </trkpt>
      <trkpt lat="46.57313" lon="5.44843">
        <ele>308</ele>
        <time>2019-10-10T13:34:35.772Z</time>
      </trkpt>
      <trkpt lat="46.57318" lon="5.44838">
        <ele>308</ele>
        <time>2019-10-10T13:34:40.749Z</time>
      </trkpt>
      <trkpt lat="46.57321" lon="5.44836">
        <ele>311</ele>
        <time>2019-10-10T13:34:45.747Z</time>
      </trkpt>
      <trkpt lat="46.57328" lon="5.44832">
        <ele>311</ele>
        <time>2019-10-10T13:34:50.746Z</time>
      </trkpt>
      <trkpt lat="46.57335" lon="5.44825">
        <ele>311</ele>
        <time>2019-10-10T13:34:55.752Z</time>
      </trkpt>
      <trkpt lat="46.5734" lon="5.44821">
        <ele>311</ele>
        <time>2019-10-10T13:35:00.747Z</time>
      </trkpt>
      <trkpt lat="46.57343" lon="5.4482">
        <ele>311</ele>
        <time>2019-10-10T13:35:05.750Z</time>
      </trkpt>
      <trkpt lat="46.57348" lon="5.44819">
        <ele>304</ele>
        <time>2019-10-10T13:35:10.746Z</time>
      </trkpt>
      <trkpt lat="46.57354" lon="5.44817">
        <ele>304</ele>
        <time>2019-10-10T13:35:15.753Z</time>
      </trkpt>
      <trkpt lat="46.57361" lon="5.44815">
        <ele>304</ele>
        <time>2019-10-10T13:35:20.750Z</time>
      </trkpt>
      <trkpt lat="46.57366" lon="5.44811">
        <ele>304</ele>
        <time>2019-10-10T13:35:25.751Z</time>
      </trkpt>
      <trkpt lat="46.57369" lon="5.4481">
        <ele>304</ele>
        <time>2019-10-10T13:35:30.744Z</time>
      </trkpt>
      <trkpt lat="46.57373" lon="5.44809">
        <ele>304</ele>
        <time>2019-10-10T13:35:35.759Z</time>
      </trkpt>
      <trkpt lat="46.57379" lon="5.44804">
        <ele>308</ele>
        <time>2019-10-10T13:35:40.751Z</time>
      </trkpt>
      <trkpt lat="46.5738" lon="5.44802">
        <ele>308</ele>
        <time>2019-10-10T13:35:45.751Z</time>
      </trkpt>
      <trkpt lat="46.57381" lon="5.44799">
        <ele>308</ele>
        <time>2019-10-10T13:35:50.751Z</time>
      </trkpt>
      <trkpt lat="46.57384" lon="5.44796">
        <ele>308</ele>
        <time>2019-10-10T13:35:55.752Z</time>
      </trkpt>
      <trkpt lat="46.5739" lon="5.44792">
        <ele>308</ele>
        <time>2019-10-10T13:36:00.750Z</time>
      </trkpt>
      <trkpt lat="46.57393" lon="5.4479">
        <ele>302</ele>
        <time>2019-10-10T13:36:05.748Z</time>
      </trkpt>
      <trkpt lat="46.57396" lon="5.44789">
        <ele>302</ele>
        <time>2019-10-10T13:36:10.752Z</time>
      </trkpt>
      <trkpt lat="46.57402" lon="5.44782">
        <ele>302</ele>
        <time>2019-10-10T13:36:15.751Z</time>
      </trkpt>
      <trkpt lat="46.57407" lon="5.44777">
        <ele>305</ele>
        <time>2019-10-10T13:36:20.751Z</time>
      </trkpt>
      <trkpt lat="46.5741" lon="5.44772">
        <ele>305</ele>
        <time>2019-10-10T13:36:25.746Z</time>
      </trkpt>
      <trkpt lat="46.57413" lon="5.44769">
        <ele>305</ele>
        <time>2019-10-10T13:36:30.749Z</time>
      </trkpt>
      <trkpt lat="46.57415" lon="5.44767">
        <ele>305</ele>
        <time>2019-10-10T13:36:35.750Z</time>
      </trkpt>
      <trkpt lat="46.5742" lon="5.4476">
        <ele>298</ele>
        <time>2019-10-10T13:36:40.761Z</time>
      </trkpt>
      <trkpt lat="46.57425" lon="5.44754">
        <ele>298</ele>
        <time>2019-10-10T13:36:45.754Z</time>
      </trkpt>
      <trkpt lat="46.57427" lon="5.44746">
        <ele>298</ele>
        <time>2019-10-10T13:36:50.753Z</time>
      </trkpt>
      <trkpt lat="46.57424" lon="5.44736">
        <ele>298</ele>
        <time>2019-10-10T13:36:55.749Z</time>
      </trkpt>
      <trkpt lat="46.5742" lon="5.44732">
        <ele>290</ele>
        <time>2019-10-10T13:37:00.753Z</time>
      </trkpt>
      <trkpt lat="46.57415" lon="5.4473">
        <ele>290</ele>
        <time>2019-10-10T13:37:05.752Z</time>
      </trkpt>
      <trkpt lat="46.5741" lon="5.44729">
        <ele>290</ele>
        <time>2019-10-10T13:37:10.751Z</time>
      </trkpt>
      <trkpt lat="46.57404" lon="5.44729">
        <ele>290</ele>
        <time>2019-10-10T13:37:15.753Z</time>
      </trkpt>
      <trkpt lat="46.57398" lon="5.44732">
        <ele>286</ele>
        <time>2019-10-10T13:37:20.758Z</time>
      </trkpt>
      <trkpt lat="46.57393" lon="5.44732">
        <ele>286</ele>
        <time>2019-10-10T13:37:25.754Z</time>
      </trkpt>
      <trkpt lat="46.57388" lon="5.44732">
        <ele>286</ele>
        <time>2019-10-10T13:37:30.749Z</time>
      </trkpt>
      <trkpt lat="46.57382" lon="5.44732">
        <ele>286</ele>
        <time>2019-10-10T13:37:35.751Z</time>
      </trkpt>
      <trkpt lat="46.57376" lon="5.44734">
        <ele>286</ele>
        <time>2019-10-10T13:37:40.752Z</time>
      </trkpt>
      <trkpt lat="46.57371" lon="5.44737">
        <ele>290</ele>
        <time>2019-10-10T13:37:45.753Z</time>
      </trkpt>
      <trkpt lat="46.57367" lon="5.4474">
        <ele>290</ele>
        <time>2019-10-10T13:37:50.749Z</time>
      </trkpt>
      <trkpt lat="46.57363" lon="5.44741">
        <ele>290</ele>
        <time>2019-10-10T13:37:55.753Z</time>
      </trkpt>
      <trkpt lat="46.5736" lon="5.4474">
        <ele>290</ele>
        <time>2019-10-10T13:38:00.753Z</time>
      </trkpt>
      <trkpt lat="46.57355" lon="5.44741">
        <ele>290</ele>
        <time>2019-10-10T13:38:05.752Z</time>
      </trkpt>
      <trkpt lat="46.57349" lon="5.44742">
        <ele>290</ele>
        <time>2019-10-10T13:38:10.753Z</time>
      </trkpt>
      <trkpt lat="46.57344" lon="5.44745">
        <ele>287</ele>
        <time>2019-10-10T13:38:15.753Z</time>
      </trkpt>
      <trkpt lat="46.57338" lon="5.44746">
        <ele>287</ele>
        <time>2019-10-10T13:38:20.750Z</time>
      </trkpt>
      <trkpt lat="46.57333" lon="5.44746">
        <ele>287</ele>
        <time>2019-10-10T13:38:25.748Z</time>
      </trkpt>
      <trkpt lat="46.57329" lon="5.44746">
        <ele>287</ele>
        <time>2019-10-10T13:38:30.747Z</time>
      </trkpt>
      <trkpt lat="46.57325" lon="5.44745">
        <ele>287</ele>
        <time>2019-10-10T13:38:35.756Z</time>
      </trkpt>
      <trkpt lat="46.5732" lon="5.44744">
        <ele>287</ele>
        <time>2019-10-10T13:38:40.752Z</time>
      </trkpt>
      <trkpt lat="46.57313" lon="5.44744">
        <ele>282</ele>
        <time>2019-10-10T13:38:45.752Z</time>
      </trkpt>
      <trkpt lat="46.57307" lon="5.44742">
        <ele>282</ele>
        <time>2019-10-10T13:38:50.751Z</time>
      </trkpt>
      <trkpt lat="46.57302" lon="5.44741">
        <ele>282</ele>
        <time>2019-10-10T13:38:55.747Z</time>
      </trkpt>
      <trkpt lat="46.57298" lon="5.4474">
        <ele>282</ele>
        <time>2019-10-10T13:39:00.753Z</time>
      </trkpt>
      <trkpt lat="46.57292" lon="5.44738">
        <ele>282</ele>
        <time>2019-10-10T13:39:05.749Z</time>
      </trkpt>
      <trkpt lat="46.57287" lon="5.44737">
        <ele>277</ele>
        <time>2019-10-10T13:39:10.748Z</time>
      </trkpt>
      <trkpt lat="46.57283" lon="5.44736">
        <ele>272</ele>
        <time>2019-10-10T13:39:15.747Z</time>
      </trkpt>
      <trkpt lat="46.57278" lon="5.44738">
        <ele>277</ele>
        <time>2019-10-10T13:39:20.752Z</time>
      </trkpt>
      <trkpt lat="46.57274" lon="5.44739">
        <ele>277</ele>
        <time>2019-10-10T13:39:25.751Z</time>
      </trkpt>
      <trkpt lat="46.57269" lon="5.44739">
        <ele>277</ele>
        <time>2019-10-10T13:39:30.753Z</time>
      </trkpt>
      <trkpt lat="46.57263" lon="5.44741">
        <ele>275</ele>
        <time>2019-10-10T13:39:35.751Z</time>
      </trkpt>
      <trkpt lat="46.57256" lon="5.44741">
        <ele>275</ele>
        <time>2019-10-10T13:39:40.747Z</time>
      </trkpt>
      <trkpt lat="46.5725" lon="5.44742">
        <ele>275</ele>
        <time>2019-10-10T13:39:45.748Z</time>
      </trkpt>
      <trkpt lat="46.57245" lon="5.4474">
        <ele>275</ele>
        <time>2019-10-10T13:39:50.741Z</time>
      </trkpt>
      <trkpt lat="46.5724" lon="5.44739">
        <ele>275</ele>
        <time>2019-10-10T13:39:55.747Z</time>
      </trkpt>
      <trkpt lat="46.57236" lon="5.44737">
        <ele>277</ele>
        <time>2019-10-10T13:40:00.735Z</time>
      </trkpt>
      <trkpt lat="46.57231" lon="5.44739">
        <ele>277</ele>
        <time>2019-10-10T13:40:10.745Z</time>
      </trkpt>
      <trkpt lat="46.57228" lon="5.44735">
        <ele>272</ele>
        <time>2019-10-10T13:40:15.745Z</time>
      </trkpt>
      <trkpt lat="46.57227" lon="5.44733">
        <ele>272</ele>
        <time>2019-10-10T13:40:20.747Z</time>
      </trkpt>
      <trkpt lat="46.57226" lon="5.44733">
        <ele>272</ele>
        <time>2019-10-10T13:40:25.744Z</time>
      </trkpt>
      <trkpt lat="46.57223" lon="5.44728">
        <ele>272</ele>
        <time>2019-10-10T13:40:30.743Z</time>
      </trkpt>
      <trkpt lat="46.57221" lon="5.44718">
        <ele>272</ele>
        <time>2019-10-10T13:40:35.749Z</time>
      </trkpt>
      <trkpt lat="46.57221" lon="5.44712">
        <ele>272</ele>
        <time>2019-10-10T13:40:40.747Z</time>
      </trkpt>
      <trkpt lat="46.57222" lon="5.44704">
        <ele>269</ele>
        <time>2019-10-10T13:40:45.743Z</time>
      </trkpt>
      <trkpt lat="46.57222" lon="5.44696">
        <ele>269</ele>
        <time>2019-10-10T13:40:50.749Z</time>
      </trkpt>
      <trkpt lat="46.57225" lon="5.44691">
        <ele>269</ele>
        <time>2019-10-10T13:40:55.744Z</time>
      </trkpt>
      <trkpt lat="46.57225" lon="5.44684">
        <ele>269</ele>
        <time>2019-10-10T13:41:00.742Z</time>
      </trkpt>
      <trkpt lat="46.57224" lon="5.44676">
        <ele>268</ele>
        <time>2019-10-10T13:41:05.745Z</time>
      </trkpt>
      <trkpt lat="46.57225" lon="5.44671">
        <ele>268</ele>
        <time>2019-10-10T13:41:10.744Z</time>
      </trkpt>
      <trkpt lat="46.57224" lon="5.44664">
        <ele>268</ele>
        <time>2019-10-10T13:41:15.742Z</time>
      </trkpt>
      <trkpt lat="46.57224" lon="5.44656">
        <ele>268</ele>
        <time>2019-10-10T13:41:20.742Z</time>
      </trkpt>
      <trkpt lat="46.57224" lon="5.44646">
        <ele>268</ele>
        <time>2019-10-10T13:41:25.747Z</time>
      </trkpt>
      <trkpt lat="46.57224" lon="5.44639">
        <ele>268</ele>
        <time>2019-10-10T13:41:30.740Z</time>
      </trkpt>
      <trkpt lat="46.57223" lon="5.4463">
        <ele>268</ele>
        <time>2019-10-10T13:41:35.745Z</time>
      </trkpt>
      <trkpt lat="46.57222" lon="5.4462">
        <ele>267</ele>
        <time>2019-10-10T13:41:40.740Z</time>
      </trkpt>
      <trkpt lat="46.5722" lon="5.4461">
        <ele>267</ele>
        <time>2019-10-10T13:41:45.742Z</time>
      </trkpt>
      <trkpt lat="46.57231" lon="5.446">
        <ele>267</ele>
        <time>2019-10-10T13:41:52.848Z</time>
      </trkpt>
      <trkpt lat="46.57212" lon="5.44594">
        <ele>266</ele>
        <time>2019-10-10T13:41:56.881Z</time>
      </trkpt>
      <trkpt lat="46.57222" lon="5.4459">
        <ele>266</ele>
        <time>2019-10-10T13:42:01.728Z</time>
      </trkpt>
      <trkpt lat="46.57223" lon="5.44585">
        <ele>266</ele>
        <time>2019-10-10T13:42:05.746Z</time>
      </trkpt>
      <trkpt lat="46.57222" lon="5.44578">
        <ele>266</ele>
        <time>2019-10-10T13:42:10.744Z</time>
      </trkpt>
      <trkpt lat="46.57222" lon="5.44572">
        <ele>266</ele>
        <time>2019-10-10T13:42:15.750Z</time>
      </trkpt>
      <trkpt lat="46.57222" lon="5.44564">
        <ele>265</ele>
        <time>2019-10-10T13:42:19.757Z</time>
      </trkpt>
      <trkpt lat="46.57224" lon="5.44558">
        <ele>265</ele>
        <time>2019-10-10T13:42:24.755Z</time>
      </trkpt>
      <trkpt lat="46.57225" lon="5.44547">
        <ele>265</ele>
        <time>2019-10-10T13:42:29.756Z</time>
      </trkpt>
      <trkpt lat="46.57225" lon="5.44537">
        <ele>264</ele>
        <time>2019-10-10T13:42:34.753Z</time>
      </trkpt>
      <trkpt lat="46.57225" lon="5.44531">
        <ele>264</ele>
        <time>2019-10-10T13:42:39.753Z</time>
      </trkpt>
      <trkpt lat="46.57224" lon="5.44519">
        <ele>264</ele>
        <time>2019-10-10T13:42:44.755Z</time>
      </trkpt>
      <trkpt lat="46.57223" lon="5.4451">
        <ele>263</ele>
        <time>2019-10-10T13:42:49.754Z</time>
      </trkpt>
      <trkpt lat="46.57222" lon="5.44502">
        <ele>263</ele>
        <time>2019-10-10T13:42:54.758Z</time>
      </trkpt>
      <trkpt lat="46.57221" lon="5.44493">
        <ele>263</ele>
        <time>2019-10-10T13:42:59.754Z</time>
      </trkpt>
      <trkpt lat="46.57219" lon="5.44483">
        <ele>263</ele>
        <time>2019-10-10T13:43:04.757Z</time>
      </trkpt>
      <trkpt lat="46.57216" lon="5.44476">
        <ele>263</ele>
        <time>2019-10-10T13:43:09.756Z</time>
      </trkpt>
      <trkpt lat="46.57211" lon="5.44468">
        <ele>263</ele>
        <time>2019-10-10T13:43:14.755Z</time>
      </trkpt>
      <trkpt lat="46.57205" lon="5.44458">
        <ele>262</ele>
        <time>2019-10-10T13:43:19.753Z</time>
      </trkpt>
      <trkpt lat="46.57202" lon="5.4445">
        <ele>262</ele>
        <time>2019-10-10T13:43:24.753Z</time>
      </trkpt>
      <trkpt lat="46.57196" lon="5.44438">
        <ele>262</ele>
        <time>2019-10-10T13:43:29.755Z</time>
      </trkpt>
      <trkpt lat="46.57191" lon="5.4443">
        <ele>261</ele>
        <time>2019-10-10T13:43:34.757Z</time>
      </trkpt>
      <trkpt lat="46.57186" lon="5.44422">
        <ele>261</ele>
        <time>2019-10-10T13:43:39.757Z</time>
      </trkpt>
      <trkpt lat="46.57182" lon="5.44418">
        <ele>261</ele>
        <time>2019-10-10T13:43:44.760Z</time>
      </trkpt>
      <trkpt lat="46.57177" lon="5.44412">
        <ele>264</ele>
        <time>2019-10-10T13:43:49.753Z</time>
      </trkpt>
      <trkpt lat="46.57178" lon="5.44402">
        <ele>264</ele>
        <time>2019-10-10T13:43:54.753Z</time>
      </trkpt>
      <trkpt lat="46.57179" lon="5.44396">
        <ele>264</ele>
        <time>2019-10-10T13:43:58.758Z</time>
      </trkpt>
      <trkpt lat="46.57178" lon="5.44389">
        <ele>264</ele>
        <time>2019-10-10T13:44:03.756Z</time>
      </trkpt>
      <trkpt lat="46.57179" lon="5.44382">
        <ele>264</ele>
        <time>2019-10-10T13:44:08.753Z</time>
      </trkpt>
      <trkpt lat="46.57182" lon="5.44373">
        <ele>263</ele>
        <time>2019-10-10T13:44:13.757Z</time>
      </trkpt>
      <trkpt lat="46.57185" lon="5.44361">
        <ele>263</ele>
        <time>2019-10-10T13:44:18.755Z</time>
      </trkpt>
      <trkpt lat="46.57188" lon="5.44353">
        <ele>263</ele>
        <time>2019-10-10T13:44:23.756Z</time>
      </trkpt>
      <trkpt lat="46.57189" lon="5.44345">
        <ele>263</ele>
        <time>2019-10-10T13:44:28.758Z</time>
      </trkpt>
      <trkpt lat="46.5719" lon="5.44338">
        <ele>263</ele>
        <time>2019-10-10T13:44:33.758Z</time>
      </trkpt>
      <trkpt lat="46.57191" lon="5.44329">
        <ele>263</ele>
        <time>2019-10-10T13:44:38.757Z</time>
      </trkpt>
      <trkpt lat="46.57194" lon="5.44323">
        <ele>263</ele>
        <time>2019-10-10T13:44:43.756Z</time>
      </trkpt>
      <trkpt lat="46.57194" lon="5.44315">
        <ele>263</ele>
        <time>2019-10-10T13:44:48.754Z</time>
      </trkpt>
      <trkpt lat="46.57195" lon="5.44307">
        <ele>263</ele>
        <time>2019-10-10T13:44:52.768Z</time>
      </trkpt>
      <trkpt lat="46.57198" lon="5.44299">
        <ele>263</ele>
        <time>2019-10-10T13:44:57.758Z</time>
      </trkpt>
      <trkpt lat="46.572" lon="5.44291">
        <ele>260</ele>
        <time>2019-10-10T13:45:02.755Z</time>
      </trkpt>
      <trkpt lat="46.57204" lon="5.44283">
        <ele>260</ele>
        <time>2019-10-10T13:45:07.754Z</time>
      </trkpt>
      <trkpt lat="46.57206" lon="5.44276">
        <ele>260</ele>
        <time>2019-10-10T13:45:12.759Z</time>
      </trkpt>
      <trkpt lat="46.57208" lon="5.44269">
        <ele>260</ele>
        <time>2019-10-10T13:45:17.754Z</time>
      </trkpt>
      <trkpt lat="46.57211" lon="5.44262">
        <ele>258</ele>
        <time>2019-10-10T13:45:22.755Z</time>
      </trkpt>
      <trkpt lat="46.57213" lon="5.44255">
        <ele>258</ele>
        <time>2019-10-10T13:45:27.756Z</time>
      </trkpt>
      <trkpt lat="46.57213" lon="5.44247">
        <ele>258</ele>
        <time>2019-10-10T13:45:32.754Z</time>
      </trkpt>
      <trkpt lat="46.5721" lon="5.44237">
        <ele>258</ele>
        <time>2019-10-10T13:45:37.754Z</time>
      </trkpt>
      <trkpt lat="46.57209" lon="5.4423">
        <ele>257</ele>
        <time>2019-10-10T13:45:42.754Z</time>
      </trkpt>
      <trkpt lat="46.57208" lon="5.44223">
        <ele>258</ele>
        <time>2019-10-10T13:45:47.752Z</time>
      </trkpt>
      <trkpt lat="46.57208" lon="5.44218">
        <ele>257</ele>
        <time>2019-10-10T13:45:52.756Z</time>
      </trkpt>
      <trkpt lat="46.5721" lon="5.44208">
        <ele>257</ele>
        <time>2019-10-10T13:45:57.755Z</time>
      </trkpt>
      <trkpt lat="46.57214" lon="5.44201">
        <ele>257</ele>
        <time>2019-10-10T13:46:02.759Z</time>
      </trkpt>
      <trkpt lat="46.57218" lon="5.44191">
        <ele>257</ele>
        <time>2019-10-10T13:46:07.757Z</time>
      </trkpt>
      <trkpt lat="46.57221" lon="5.44185">
        <ele>257</ele>
        <time>2019-10-10T13:46:12.757Z</time>
      </trkpt>
      <trkpt lat="46.57226" lon="5.44175">
        <ele>256</ele>
        <time>2019-10-10T13:46:17.758Z</time>
      </trkpt>
      <trkpt lat="46.57229" lon="5.44171">
        <ele>256</ele>
        <time>2019-10-10T13:46:22.752Z</time>
      </trkpt>
      <trkpt lat="46.57232" lon="5.44165">
        <ele>256</ele>
        <time>2019-10-10T13:46:27.758Z</time>
      </trkpt>
      <trkpt lat="46.57229" lon="5.44157">
        <ele>256</ele>
        <time>2019-10-10T13:46:57.756Z</time>
      </trkpt>
      <trkpt lat="46.5723" lon="5.44151">
        <ele>256</ele>
        <time>2019-10-10T13:47:02.755Z</time>
      </trkpt>
      <trkpt lat="46.57229" lon="5.44151">
        <ele>256</ele>
        <time>2019-10-10T13:47:07.760Z</time>
      </trkpt>
      <trkpt lat="46.57229" lon="5.44151">
        <ele>256</ele>
        <time>2019-10-10T13:47:12.755Z</time>
      </trkpt>
      <trkpt lat="46.57232" lon="5.44149">
        <ele>256</ele>
        <time>2019-10-10T13:47:17.754Z</time>
      </trkpt>
      <trkpt lat="46.57239" lon="5.44134">
        <ele>256</ele>
        <time>2019-10-10T13:48:17.752Z</time>
      </trkpt>
      <trkpt lat="46.57241" lon="5.44135">
        <ele>256</ele>
        <time>2019-10-10T13:48:22.752Z</time>
      </trkpt>
      <trkpt lat="46.57241" lon="5.44135">
        <ele>256</ele>
        <time>2019-10-10T13:48:27.751Z</time>
      </trkpt>
      <trkpt lat="46.57244" lon="5.44128">
        <ele>256</ele>
        <time>2019-10-10T13:48:32.752Z</time>
      </trkpt>
      <trkpt lat="46.57242" lon="5.44121">
        <ele>257</ele>
        <time>2019-10-10T13:48:37.751Z</time>
      </trkpt>
      <trkpt lat="46.5724" lon="5.44116">
        <ele>257</ele>
        <time>2019-10-10T13:48:56.758Z</time>
      </trkpt>
      <trkpt lat="46.57241" lon="5.44108">
        <ele>257</ele>
        <time>2019-10-10T13:49:01.749Z</time>
      </trkpt>
      <trkpt lat="46.57243" lon="5.44102">
        <ele>257</ele>
        <time>2019-10-10T13:49:06.750Z</time>
      </trkpt>
      <trkpt lat="46.57245" lon="5.44095">
        <ele>258</ele>
        <time>2019-10-10T13:49:11.748Z</time>
      </trkpt>
      <trkpt lat="46.57247" lon="5.44089">
        <ele>258</ele>
        <time>2019-10-10T13:49:16.753Z</time>
      </trkpt>
      <trkpt lat="46.5725" lon="5.44081">
        <ele>258</ele>
        <time>2019-10-10T13:49:21.751Z</time>
      </trkpt>
      <trkpt lat="46.57253" lon="5.44072">
        <ele>258</ele>
        <time>2019-10-10T13:49:26.750Z</time>
      </trkpt>
      <trkpt lat="46.57254" lon="5.44066">
        <ele>259</ele>
        <time>2019-10-10T13:49:31.749Z</time>
      </trkpt>
      <trkpt lat="46.57258" lon="5.4406">
        <ele>259</ele>
        <time>2019-10-10T13:49:36.749Z</time>
      </trkpt>
      <trkpt lat="46.5726" lon="5.44056">
        <ele>259</ele>
        <time>2019-10-10T13:49:41.753Z</time>
      </trkpt>
      <trkpt lat="46.57263" lon="5.44047">
        <ele>259</ele>
        <time>2019-10-10T13:49:46.755Z</time>
      </trkpt>
      <trkpt lat="46.57265" lon="5.44042">
        <ele>259</ele>
        <time>2019-10-10T13:49:51.751Z</time>
      </trkpt>
      <trkpt lat="46.57266" lon="5.44037">
        <ele>259</ele>
        <time>2019-10-10T13:49:56.752Z</time>
      </trkpt>
      <trkpt lat="46.57266" lon="5.44033">
        <ele>259</ele>
        <time>2019-10-10T13:50:01.750Z</time>
      </trkpt>
      <trkpt lat="46.57267" lon="5.44026">
        <ele>259</ele>
        <time>2019-10-10T13:50:06.752Z</time>
      </trkpt>
      <trkpt lat="46.57267" lon="5.44017">
        <ele>259</ele>
        <time>2019-10-10T13:50:11.749Z</time>
      </trkpt>
      <trkpt lat="46.57265" lon="5.44009">
        <ele>258</ele>
        <time>2019-10-10T13:50:16.752Z</time>
      </trkpt>
      <trkpt lat="46.57262" lon="5.44002">
        <ele>260</ele>
        <time>2019-10-10T13:50:21.748Z</time>
      </trkpt>
      <trkpt lat="46.57259" lon="5.43994">
        <ele>260</ele>
        <time>2019-10-10T13:50:26.752Z</time>
      </trkpt>
      <trkpt lat="46.57256" lon="5.43985">
        <ele>260</ele>
        <time>2019-10-10T13:50:31.751Z</time>
      </trkpt>
      <trkpt lat="46.57254" lon="5.43979">
        <ele>260</ele>
        <time>2019-10-10T13:50:36.751Z</time>
      </trkpt>
      <trkpt lat="46.57254" lon="5.43969">
        <ele>260</ele>
        <time>2019-10-10T13:50:41.753Z</time>
      </trkpt>
      <trkpt lat="46.57256" lon="5.4396">
        <ele>260</ele>
        <time>2019-10-10T13:50:46.750Z</time>
      </trkpt>
      <trkpt lat="46.57258" lon="5.43949">
        <ele>261</ele>
        <time>2019-10-10T13:50:51.750Z</time>
      </trkpt>
      <trkpt lat="46.5726" lon="5.43942">
        <ele>261</ele>
        <time>2019-10-10T13:50:56.751Z</time>
      </trkpt>
      <trkpt lat="46.57262" lon="5.43937">
        <ele>261</ele>
        <time>2019-10-10T13:51:00.761Z</time>
      </trkpt>
      <trkpt lat="46.57265" lon="5.43934">
        <ele>259</ele>
        <time>2019-10-10T13:51:05.755Z</time>
      </trkpt>
      <trkpt lat="46.57271" lon="5.43933">
        <ele>259</ele>
        <time>2019-10-10T13:51:10.749Z</time>
      </trkpt>
      <trkpt lat="46.57273" lon="5.43932">
        <ele>259</ele>
        <time>2019-10-10T13:51:15.751Z</time>
      </trkpt>
    </trkseg>
  </trk>
</gpx>